<?xml version="1.0" encoding="UTF-8" standalone="no" ?>
<gpx xmlns="http://www.topografix.com/GPX/1/1" xmlns:xsi="http://www.w3.org/2001/XMLSchema-instance" xsi:schemaLocation="http://www.topografix.com/GPX/1/1 http://www.topografix.com/GPX/1/1/gpx.xsd" version="1.1" creator="VisuGPX - https://www.visugpx.com">
  <metadata>
    <name>Pornichet 14/02/2021</name>
    <desc><![CDATA[Sortie du dimanche 14 février 2021]]></desc>
  </metadata>
  <trk>
    <name><![CDATA[Pornichet Cyclisme]]></name>
    <trkseg>
      <trkpt lat="47.26408" lon="-2.31562">
        <ele>9.7</ele>
        <time>2021-02-14T08:23:44.000Z</time>
      </trkpt>
      <trkpt lat="47.26408" lon="-2.31576">
        <ele>9.7</ele>
        <time>2021-02-14T08:23:48.000Z</time>
      </trkpt>
      <trkpt lat="47.26408" lon="-2.31577">
        <ele>-0.20000000298023</ele>
        <time>2021-02-14T08:23:49.000Z</time>
      </trkpt>
      <trkpt lat="47.26407" lon="-2.31577">
        <ele>-0.20000000298023</ele>
        <time>2021-02-14T08:23:50.000Z</time>
      </trkpt>
      <trkpt lat="47.26407" lon="-2.31576">
        <ele>-0.20000000298023</ele>
        <time>2021-02-14T08:24:01.000Z</time>
      </trkpt>
      <trkpt lat="47.26408" lon="-2.3157">
        <ele>-0.20000000298023</ele>
        <time>2021-02-14T08:24:04.000Z</time>
      </trkpt>
      <trkpt lat="47.26409" lon="-2.31554">
        <ele>-0.20000000298023</ele>
        <time>2021-02-14T08:24:11.000Z</time>
      </trkpt>
      <trkpt lat="47.2641" lon="-2.31554">
        <ele>-0.20000000298023</ele>
        <time>2021-02-14T08:24:12.000Z</time>
      </trkpt>
      <trkpt lat="47.26413" lon="-2.31553">
        <ele>-0.20000000298023</ele>
        <time>2021-02-14T08:24:14.000Z</time>
      </trkpt>
      <trkpt lat="47.26417" lon="-2.31552">
        <ele>-0.20000000298023</ele>
        <time>2021-02-14T08:24:18.000Z</time>
      </trkpt>
      <trkpt lat="47.26414" lon="-2.31556">
        <ele>1.7999999523163</ele>
        <time>2021-02-14T08:27:18.000Z</time>
      </trkpt>
      <trkpt lat="47.26409" lon="-2.31557">
        <ele>1.7999999523163</ele>
        <time>2021-02-14T08:27:20.000Z</time>
      </trkpt>
      <trkpt lat="47.26404" lon="-2.31564">
        <ele>1.7999999523163</ele>
        <time>2021-02-14T08:27:22.000Z</time>
      </trkpt>
      <trkpt lat="47.26404" lon="-2.31569">
        <ele>1.7999999523163</ele>
        <time>2021-02-14T08:27:23.000Z</time>
      </trkpt>
      <trkpt lat="47.26406" lon="-2.31599">
        <ele>1.7999999523163</ele>
        <time>2021-02-14T08:27:28.000Z</time>
      </trkpt>
      <trkpt lat="47.26408" lon="-2.31647">
        <ele>1.7999999523163</ele>
        <time>2021-02-14T08:27:35.000Z</time>
      </trkpt>
      <trkpt lat="47.26409" lon="-2.31654">
        <ele>1.7999999523163</ele>
        <time>2021-02-14T08:27:36.000Z</time>
      </trkpt>
      <trkpt lat="47.26408" lon="-2.3166">
        <ele>1.7999999523163</ele>
        <time>2021-02-14T08:27:37.000Z</time>
      </trkpt>
      <trkpt lat="47.26401" lon="-2.31668">
        <ele>1.7999999523163</ele>
        <time>2021-02-14T08:27:39.000Z</time>
      </trkpt>
      <trkpt lat="47.26393" lon="-2.31671">
        <ele>1.7999999523163</ele>
        <time>2021-02-14T08:27:41.000Z</time>
      </trkpt>
      <trkpt lat="47.26378" lon="-2.31679">
        <ele>1.7999999523163</ele>
        <time>2021-02-14T08:27:44.000Z</time>
      </trkpt>
      <trkpt lat="47.26337" lon="-2.31699">
        <ele>1.7999999523163</ele>
        <time>2021-02-14T08:27:51.000Z</time>
      </trkpt>
      <trkpt lat="47.26318" lon="-2.31709">
        <ele>1.3999999761581</ele>
        <time>2021-02-14T08:27:54.000Z</time>
      </trkpt>
      <trkpt lat="47.26313" lon="-2.31711">
        <ele>1</ele>
        <time>2021-02-14T08:27:55.000Z</time>
      </trkpt>
      <trkpt lat="47.26307" lon="-2.31714">
        <ele>0.60000002384186</ele>
        <time>2021-02-14T08:27:56.000Z</time>
      </trkpt>
      <trkpt lat="47.26303" lon="-2.31717">
        <ele>0.20000000298023</ele>
        <time>2021-02-14T08:27:57.000Z</time>
      </trkpt>
      <trkpt lat="47.263" lon="-2.31721">
        <ele>-0.20000000298023</ele>
        <time>2021-02-14T08:27:58.000Z</time>
      </trkpt>
      <trkpt lat="47.263" lon="-2.31728">
        <ele>-0.60000002384186</ele>
        <time>2021-02-14T08:27:59.000Z</time>
      </trkpt>
      <trkpt lat="47.263" lon="-2.31735">
        <ele>-1.2000000476837</ele>
        <time>2021-02-14T08:28:00.000Z</time>
      </trkpt>
      <trkpt lat="47.26301" lon="-2.31743">
        <ele>-1.6000000238419</ele>
        <time>2021-02-14T08:28:01.000Z</time>
      </trkpt>
      <trkpt lat="47.26303" lon="-2.31751">
        <ele>-2</ele>
        <time>2021-02-14T08:28:02.000Z</time>
      </trkpt>
      <trkpt lat="47.26303" lon="-2.31758">
        <ele>-2.4000000953674</ele>
        <time>2021-02-14T08:28:03.000Z</time>
      </trkpt>
      <trkpt lat="47.26304" lon="-2.31774">
        <ele>-2.4000000953674</ele>
        <time>2021-02-14T08:28:05.000Z</time>
      </trkpt>
      <trkpt lat="47.26304" lon="-2.31788">
        <ele>-2.4000000953674</ele>
        <time>2021-02-14T08:28:07.000Z</time>
      </trkpt>
      <trkpt lat="47.26305" lon="-2.31803">
        <ele>-2.4000000953674</ele>
        <time>2021-02-14T08:28:09.000Z</time>
      </trkpt>
      <trkpt lat="47.26303" lon="-2.31826">
        <ele>-2.4000000953674</ele>
        <time>2021-02-14T08:28:12.000Z</time>
      </trkpt>
      <trkpt lat="47.26301" lon="-2.31859">
        <ele>-2.4000000953674</ele>
        <time>2021-02-14T08:28:17.000Z</time>
      </trkpt>
      <trkpt lat="47.26299" lon="-2.31884">
        <ele>-2.4000000953674</ele>
        <time>2021-02-14T08:28:23.000Z</time>
      </trkpt>
      <trkpt lat="47.26292" lon="-2.31893">
        <ele>-2.4000000953674</ele>
        <time>2021-02-14T08:28:27.000Z</time>
      </trkpt>
      <trkpt lat="47.2629" lon="-2.31895">
        <ele>-2.4000000953674</ele>
        <time>2021-02-14T08:28:28.000Z</time>
      </trkpt>
      <trkpt lat="47.26279" lon="-2.31909">
        <ele>-2.4000000953674</ele>
        <time>2021-02-14T08:28:32.000Z</time>
      </trkpt>
      <trkpt lat="47.26266" lon="-2.31932">
        <ele>-2.4000000953674</ele>
        <time>2021-02-14T08:28:37.000Z</time>
      </trkpt>
      <trkpt lat="47.26256" lon="-2.31951">
        <ele>-2.4000000953674</ele>
        <time>2021-02-14T08:28:42.000Z</time>
      </trkpt>
      <trkpt lat="47.2625" lon="-2.31966">
        <ele>-2.4000000953674</ele>
        <time>2021-02-14T08:28:47.000Z</time>
      </trkpt>
      <trkpt lat="47.26248" lon="-2.31968">
        <ele>-2.4000000953674</ele>
        <time>2021-02-14T08:28:48.000Z</time>
      </trkpt>
      <trkpt lat="47.26239" lon="-2.3197">
        <ele>-2.4000000953674</ele>
        <time>2021-02-14T08:28:51.000Z</time>
      </trkpt>
      <trkpt lat="47.26233" lon="-2.31975">
        <ele>-2.4000000953674</ele>
        <time>2021-02-14T08:28:54.000Z</time>
      </trkpt>
      <trkpt lat="47.26231" lon="-2.31978">
        <ele>-2.4000000953674</ele>
        <time>2021-02-14T08:28:55.000Z</time>
      </trkpt>
      <trkpt lat="47.26216" lon="-2.31994">
        <ele>-2.4000000953674</ele>
        <time>2021-02-14T08:29:01.000Z</time>
      </trkpt>
      <trkpt lat="47.26209" lon="-2.32001">
        <ele>-2.4000000953674</ele>
        <time>2021-02-14T08:29:04.000Z</time>
      </trkpt>
      <trkpt lat="47.26208" lon="-2.32005">
        <ele>-2.4000000953674</ele>
        <time>2021-02-14T08:29:05.000Z</time>
      </trkpt>
      <trkpt lat="47.26203" lon="-2.32019">
        <ele>-2.4000000953674</ele>
        <time>2021-02-14T08:29:10.000Z</time>
      </trkpt>
      <trkpt lat="47.26193" lon="-2.32019">
        <ele>-2.4000000953674</ele>
        <time>2021-02-14T08:29:14.000Z</time>
      </trkpt>
      <trkpt lat="47.26189" lon="-2.32019">
        <ele>-2.4000000953674</ele>
        <time>2021-02-14T08:29:15.000Z</time>
      </trkpt>
      <trkpt lat="47.26173" lon="-2.32026">
        <ele>-2.4000000953674</ele>
        <time>2021-02-14T08:29:19.000Z</time>
      </trkpt>
      <trkpt lat="47.26169" lon="-2.32029">
        <ele>-2.4000000953674</ele>
        <time>2021-02-14T08:29:20.000Z</time>
      </trkpt>
      <trkpt lat="47.26158" lon="-2.32044">
        <ele>-2.4000000953674</ele>
        <time>2021-02-14T08:29:23.000Z</time>
      </trkpt>
      <trkpt lat="47.26155" lon="-2.32051">
        <ele>-2.4000000953674</ele>
        <time>2021-02-14T08:29:24.000Z</time>
      </trkpt>
      <trkpt lat="47.26149" lon="-2.32071">
        <ele>-2.4000000953674</ele>
        <time>2021-02-14T08:29:27.000Z</time>
      </trkpt>
      <trkpt lat="47.26148" lon="-2.32078">
        <ele>-2.4000000953674</ele>
        <time>2021-02-14T08:29:28.000Z</time>
      </trkpt>
      <trkpt lat="47.26135" lon="-2.32119">
        <ele>-2.4000000953674</ele>
        <time>2021-02-14T08:29:34.000Z</time>
      </trkpt>
      <trkpt lat="47.26126" lon="-2.32147">
        <ele>-2.4000000953674</ele>
        <time>2021-02-14T08:29:38.000Z</time>
      </trkpt>
      <trkpt lat="47.26117" lon="-2.32174">
        <ele>-2.4000000953674</ele>
        <time>2021-02-14T08:29:42.000Z</time>
      </trkpt>
      <trkpt lat="47.26096" lon="-2.32219">
        <ele>-2.4000000953674</ele>
        <time>2021-02-14T08:29:49.000Z</time>
      </trkpt>
      <trkpt lat="47.26066" lon="-2.32255">
        <ele>-2.4000000953674</ele>
        <time>2021-02-14T08:29:56.000Z</time>
      </trkpt>
      <trkpt lat="47.2604" lon="-2.32285">
        <ele>-2.4000000953674</ele>
        <time>2021-02-14T08:30:02.000Z</time>
      </trkpt>
      <trkpt lat="47.2601" lon="-2.32319">
        <ele>-2.4000000953674</ele>
        <time>2021-02-14T08:30:09.000Z</time>
      </trkpt>
      <trkpt lat="47.25973" lon="-2.32371">
        <ele>-2.4000000953674</ele>
        <time>2021-02-14T08:30:18.000Z</time>
      </trkpt>
      <trkpt lat="47.25935" lon="-2.3242">
        <ele>-2.4000000953674</ele>
        <time>2021-02-14T08:30:27.000Z</time>
      </trkpt>
      <trkpt lat="47.25902" lon="-2.3246">
        <ele>-2.4000000953674</ele>
        <time>2021-02-14T08:30:35.000Z</time>
      </trkpt>
      <trkpt lat="47.25898" lon="-2.32464">
        <ele>-2.4000000953674</ele>
        <time>2021-02-14T08:30:36.000Z</time>
      </trkpt>
      <trkpt lat="47.25894" lon="-2.32468">
        <ele>-2.4000000953674</ele>
        <time>2021-02-14T08:30:37.000Z</time>
      </trkpt>
      <trkpt lat="47.25881" lon="-2.32477">
        <ele>-2.4000000953674</ele>
        <time>2021-02-14T08:30:40.000Z</time>
      </trkpt>
      <trkpt lat="47.25855" lon="-2.32479">
        <ele>-2.4000000953674</ele>
        <time>2021-02-14T08:30:45.000Z</time>
      </trkpt>
      <trkpt lat="47.25849" lon="-2.32478">
        <ele>-2.4000000953674</ele>
        <time>2021-02-14T08:30:46.000Z</time>
      </trkpt>
      <trkpt lat="47.25828" lon="-2.3247">
        <ele>-2.4000000953674</ele>
        <time>2021-02-14T08:30:50.000Z</time>
      </trkpt>
      <trkpt lat="47.25804" lon="-2.32459">
        <ele>-2.4000000953674</ele>
        <time>2021-02-14T08:30:55.000Z</time>
      </trkpt>
      <trkpt lat="47.258" lon="-2.32459">
        <ele>-2.4000000953674</ele>
        <time>2021-02-14T08:30:56.000Z</time>
      </trkpt>
      <trkpt lat="47.2578" lon="-2.32454">
        <ele>-2.4000000953674</ele>
        <time>2021-02-14T08:31:01.000Z</time>
      </trkpt>
      <trkpt lat="47.25765" lon="-2.3243">
        <ele>-2.4000000953674</ele>
        <time>2021-02-14T08:31:06.000Z</time>
      </trkpt>
      <trkpt lat="47.2575" lon="-2.32428">
        <ele>-2.4000000953674</ele>
        <time>2021-02-14T08:31:09.000Z</time>
      </trkpt>
      <trkpt lat="47.25712" lon="-2.32426">
        <ele>-2.4000000953674</ele>
        <time>2021-02-14T08:31:16.000Z</time>
      </trkpt>
      <trkpt lat="47.25672" lon="-2.32421">
        <ele>-2.4000000953674</ele>
        <time>2021-02-14T08:31:24.000Z</time>
      </trkpt>
      <trkpt lat="47.25667" lon="-2.32422">
        <ele>-2.4000000953674</ele>
        <time>2021-02-14T08:31:25.000Z</time>
      </trkpt>
      <trkpt lat="47.25661" lon="-2.3243">
        <ele>-2.4000000953674</ele>
        <time>2021-02-14T08:31:27.000Z</time>
      </trkpt>
      <trkpt lat="47.25663" lon="-2.32452">
        <ele>-2.4000000953674</ele>
        <time>2021-02-14T08:31:30.000Z</time>
      </trkpt>
      <trkpt lat="47.25665" lon="-2.32459">
        <ele>-2.4000000953674</ele>
        <time>2021-02-14T08:31:31.000Z</time>
      </trkpt>
      <trkpt lat="47.25674" lon="-2.32485">
        <ele>-2.4000000953674</ele>
        <time>2021-02-14T08:31:35.000Z</time>
      </trkpt>
      <trkpt lat="47.25676" lon="-2.32492">
        <ele>-2</ele>
        <time>2021-02-14T08:31:36.000Z</time>
      </trkpt>
      <trkpt lat="47.25678" lon="-2.32498">
        <ele>-1.6000000238419</ele>
        <time>2021-02-14T08:31:37.000Z</time>
      </trkpt>
      <trkpt lat="47.2568" lon="-2.32504">
        <ele>-1.2000000476837</ele>
        <time>2021-02-14T08:31:38.000Z</time>
      </trkpt>
      <trkpt lat="47.25682" lon="-2.32511">
        <ele>-0.80000001192093</ele>
        <time>2021-02-14T08:31:39.000Z</time>
      </trkpt>
      <trkpt lat="47.25684" lon="-2.32517">
        <ele>-0.20000000298023</ele>
        <time>2021-02-14T08:31:40.000Z</time>
      </trkpt>
      <trkpt lat="47.2569" lon="-2.32536">
        <ele>-0.20000000298023</ele>
        <time>2021-02-14T08:31:43.000Z</time>
      </trkpt>
      <trkpt lat="47.25701" lon="-2.32566">
        <ele>0.20000000298023</ele>
        <time>2021-02-14T08:31:48.000Z</time>
      </trkpt>
      <trkpt lat="47.25702" lon="-2.32573">
        <ele>0.60000002384186</ele>
        <time>2021-02-14T08:31:49.000Z</time>
      </trkpt>
      <trkpt lat="47.25704" lon="-2.32579">
        <ele>1</ele>
        <time>2021-02-14T08:31:50.000Z</time>
      </trkpt>
      <trkpt lat="47.25706" lon="-2.32585">
        <ele>1.3999999761581</ele>
        <time>2021-02-14T08:31:51.000Z</time>
      </trkpt>
      <trkpt lat="47.25707" lon="-2.32591">
        <ele>1.7999999523163</ele>
        <time>2021-02-14T08:31:52.000Z</time>
      </trkpt>
      <trkpt lat="47.25711" lon="-2.3261">
        <ele>1.7999999523163</ele>
        <time>2021-02-14T08:31:55.000Z</time>
      </trkpt>
      <trkpt lat="47.2571" lon="-2.32616">
        <ele>1.7999999523163</ele>
        <time>2021-02-14T08:31:56.000Z</time>
      </trkpt>
      <trkpt lat="47.25699" lon="-2.32628">
        <ele>2.2000000476837</ele>
        <time>2021-02-14T08:31:59.000Z</time>
      </trkpt>
      <trkpt lat="47.25694" lon="-2.3263">
        <ele>2.5999999046326</ele>
        <time>2021-02-14T08:32:00.000Z</time>
      </trkpt>
      <trkpt lat="47.2569" lon="-2.32632">
        <ele>3</ele>
        <time>2021-02-14T08:32:01.000Z</time>
      </trkpt>
      <trkpt lat="47.25685" lon="-2.32634">
        <ele>3.4000000953674</ele>
        <time>2021-02-14T08:32:02.000Z</time>
      </trkpt>
      <trkpt lat="47.2568" lon="-2.32636">
        <ele>3.7999999523163</ele>
        <time>2021-02-14T08:32:03.000Z</time>
      </trkpt>
      <trkpt lat="47.25675" lon="-2.32638">
        <ele>3.7999999523163</ele>
        <time>2021-02-14T08:32:04.000Z</time>
      </trkpt>
      <trkpt lat="47.25656" lon="-2.32647">
        <ele>3.7999999523163</ele>
        <time>2021-02-14T08:32:09.000Z</time>
      </trkpt>
      <trkpt lat="47.25652" lon="-2.32649">
        <ele>3.7999999523163</ele>
        <time>2021-02-14T08:32:10.000Z</time>
      </trkpt>
      <trkpt lat="47.25635" lon="-2.32657">
        <ele>4.1999998092651</ele>
        <time>2021-02-14T08:32:14.000Z</time>
      </trkpt>
      <trkpt lat="47.25631" lon="-2.32659">
        <ele>4.5999999046326</ele>
        <time>2021-02-14T08:32:15.000Z</time>
      </trkpt>
      <trkpt lat="47.25626" lon="-2.3266">
        <ele>5.1999998092651</ele>
        <time>2021-02-14T08:32:16.000Z</time>
      </trkpt>
      <trkpt lat="47.25622" lon="-2.32662">
        <ele>5.5999999046326</ele>
        <time>2021-02-14T08:32:17.000Z</time>
      </trkpt>
      <trkpt lat="47.25617" lon="-2.32663">
        <ele>6</ele>
        <time>2021-02-14T08:32:18.000Z</time>
      </trkpt>
      <trkpt lat="47.25585" lon="-2.32678">
        <ele>6</ele>
        <time>2021-02-14T08:32:25.000Z</time>
      </trkpt>
      <trkpt lat="47.2554" lon="-2.32697">
        <ele>6</ele>
        <time>2021-02-14T08:32:34.000Z</time>
      </trkpt>
      <trkpt lat="47.25503" lon="-2.32703">
        <ele>6</ele>
        <time>2021-02-14T08:32:41.000Z</time>
      </trkpt>
      <trkpt lat="47.25478" lon="-2.32711">
        <ele>6</ele>
        <time>2021-02-14T08:32:46.000Z</time>
      </trkpt>
      <trkpt lat="47.25474" lon="-2.32715">
        <ele>6</ele>
        <time>2021-02-14T08:32:47.000Z</time>
      </trkpt>
      <trkpt lat="47.2545" lon="-2.32748">
        <ele>6</ele>
        <time>2021-02-14T08:32:53.000Z</time>
      </trkpt>
      <trkpt lat="47.25437" lon="-2.32772">
        <ele>6</ele>
        <time>2021-02-14T08:32:57.000Z</time>
      </trkpt>
      <trkpt lat="47.25432" lon="-2.32785">
        <ele>6</ele>
        <time>2021-02-14T08:32:59.000Z</time>
      </trkpt>
      <trkpt lat="47.2542" lon="-2.32802">
        <ele>6</ele>
        <time>2021-02-14T08:33:02.000Z</time>
      </trkpt>
      <trkpt lat="47.25416" lon="-2.32808">
        <ele>6</ele>
        <time>2021-02-14T08:33:03.000Z</time>
      </trkpt>
      <trkpt lat="47.25383" lon="-2.32852">
        <ele>6</ele>
        <time>2021-02-14T08:33:10.000Z</time>
      </trkpt>
      <trkpt lat="47.25351" lon="-2.32883">
        <ele>6</ele>
        <time>2021-02-14T08:33:16.000Z</time>
      </trkpt>
      <trkpt lat="47.25313" lon="-2.32921">
        <ele>6</ele>
        <time>2021-02-14T08:33:24.000Z</time>
      </trkpt>
      <trkpt lat="47.2531" lon="-2.32928">
        <ele>6</ele>
        <time>2021-02-14T08:33:25.000Z</time>
      </trkpt>
      <trkpt lat="47.2531" lon="-2.32944">
        <ele>5.4000000953674</ele>
        <time>2021-02-14T08:33:27.000Z</time>
      </trkpt>
      <trkpt lat="47.25311" lon="-2.32952">
        <ele>5</ele>
        <time>2021-02-14T08:33:28.000Z</time>
      </trkpt>
      <trkpt lat="47.25313" lon="-2.32959">
        <ele>4.5999999046326</ele>
        <time>2021-02-14T08:33:29.000Z</time>
      </trkpt>
      <trkpt lat="47.25315" lon="-2.32966">
        <ele>4.1999998092651</ele>
        <time>2021-02-14T08:33:30.000Z</time>
      </trkpt>
      <trkpt lat="47.25317" lon="-2.32973">
        <ele>3.7999999523163</ele>
        <time>2021-02-14T08:33:31.000Z</time>
      </trkpt>
      <trkpt lat="47.2532" lon="-2.3298">
        <ele>3.7999999523163</ele>
        <time>2021-02-14T08:33:32.000Z</time>
      </trkpt>
      <trkpt lat="47.25333" lon="-2.33014">
        <ele>3.7999999523163</ele>
        <time>2021-02-14T08:33:37.000Z</time>
      </trkpt>
      <trkpt lat="47.25352" lon="-2.33061">
        <ele>3.7999999523163</ele>
        <time>2021-02-14T08:33:44.000Z</time>
      </trkpt>
      <trkpt lat="47.25361" lon="-2.33089">
        <ele>3.7999999523163</ele>
        <time>2021-02-14T08:33:49.000Z</time>
      </trkpt>
      <trkpt lat="47.25361" lon="-2.33092">
        <ele>3.7999999523163</ele>
        <time>2021-02-14T08:33:53.000Z</time>
      </trkpt>
      <trkpt lat="47.25364" lon="-2.33095">
        <ele>3.7999999523163</ele>
        <time>2021-02-14T08:40:22.000Z</time>
      </trkpt>
      <trkpt lat="47.25368" lon="-2.33101">
        <ele>3.7999999523163</ele>
        <time>2021-02-14T08:40:25.000Z</time>
      </trkpt>
      <trkpt lat="47.25377" lon="-2.3312">
        <ele>3.7999999523163</ele>
        <time>2021-02-14T08:40:32.000Z</time>
      </trkpt>
      <trkpt lat="47.25385" lon="-2.33137">
        <ele>3.7999999523163</ele>
        <time>2021-02-14T08:40:37.000Z</time>
      </trkpt>
      <trkpt lat="47.25388" lon="-2.33137">
        <ele>3.4000000953674</ele>
        <time>2021-02-14T08:40:38.000Z</time>
      </trkpt>
      <trkpt lat="47.25391" lon="-2.33135">
        <ele>3</ele>
        <time>2021-02-14T08:40:39.000Z</time>
      </trkpt>
      <trkpt lat="47.25394" lon="-2.33133">
        <ele>2.5999999046326</ele>
        <time>2021-02-14T08:40:40.000Z</time>
      </trkpt>
      <trkpt lat="47.25397" lon="-2.33131">
        <ele>2.2000000476837</ele>
        <time>2021-02-14T08:40:41.000Z</time>
      </trkpt>
      <trkpt lat="47.254" lon="-2.3313">
        <ele>1.7999999523163</ele>
        <time>2021-02-14T08:40:42.000Z</time>
      </trkpt>
      <trkpt lat="47.25424" lon="-2.33119">
        <ele>1.7999999523163</ele>
        <time>2021-02-14T08:40:49.000Z</time>
      </trkpt>
      <trkpt lat="47.25428" lon="-2.33118">
        <ele>1.7999999523163</ele>
        <time>2021-02-14T08:40:50.000Z</time>
      </trkpt>
      <trkpt lat="47.25454" lon="-2.33106">
        <ele>1.7999999523163</ele>
        <time>2021-02-14T08:40:56.000Z</time>
      </trkpt>
      <trkpt lat="47.25481" lon="-2.33094">
        <ele>1.7999999523163</ele>
        <time>2021-02-14T08:41:02.000Z</time>
      </trkpt>
      <trkpt lat="47.25485" lon="-2.33091">
        <ele>1.7999999523163</ele>
        <time>2021-02-14T08:41:03.000Z</time>
      </trkpt>
      <trkpt lat="47.25495" lon="-2.33089">
        <ele>1.7999999523163</ele>
        <time>2021-02-14T08:41:06.000Z</time>
      </trkpt>
      <trkpt lat="47.25498" lon="-2.33093">
        <ele>1.7999999523163</ele>
        <time>2021-02-14T08:41:07.000Z</time>
      </trkpt>
      <trkpt lat="47.25505" lon="-2.33118">
        <ele>1.7999999523163</ele>
        <time>2021-02-14T08:41:11.000Z</time>
      </trkpt>
      <trkpt lat="47.25505" lon="-2.33125">
        <ele>1.7999999523163</ele>
        <time>2021-02-14T08:41:12.000Z</time>
      </trkpt>
      <trkpt lat="47.25509" lon="-2.3317">
        <ele>1.7999999523163</ele>
        <time>2021-02-14T08:41:18.000Z</time>
      </trkpt>
      <trkpt lat="47.25516" lon="-2.33227">
        <ele>1.7999999523163</ele>
        <time>2021-02-14T08:41:26.000Z</time>
      </trkpt>
      <trkpt lat="47.25522" lon="-2.33277">
        <ele>1.7999999523163</ele>
        <time>2021-02-14T08:41:34.000Z</time>
      </trkpt>
      <trkpt lat="47.25529" lon="-2.3333">
        <ele>1.7999999523163</ele>
        <time>2021-02-14T08:41:42.000Z</time>
      </trkpt>
      <trkpt lat="47.25536" lon="-2.33375">
        <ele>1.7999999523163</ele>
        <time>2021-02-14T08:41:49.000Z</time>
      </trkpt>
      <trkpt lat="47.2554" lon="-2.33401">
        <ele>1.7999999523163</ele>
        <time>2021-02-14T08:41:53.000Z</time>
      </trkpt>
      <trkpt lat="47.25541" lon="-2.33408">
        <ele>1.7999999523163</ele>
        <time>2021-02-14T08:41:54.000Z</time>
      </trkpt>
      <trkpt lat="47.25555" lon="-2.33451">
        <ele>1.7999999523163</ele>
        <time>2021-02-14T08:42:01.000Z</time>
      </trkpt>
      <trkpt lat="47.25571" lon="-2.33485">
        <ele>1.7999999523163</ele>
        <time>2021-02-14T08:42:07.000Z</time>
      </trkpt>
      <trkpt lat="47.25599" lon="-2.33527">
        <ele>1.7999999523163</ele>
        <time>2021-02-14T08:42:15.000Z</time>
      </trkpt>
      <trkpt lat="47.25625" lon="-2.33555">
        <ele>1.7999999523163</ele>
        <time>2021-02-14T08:42:22.000Z</time>
      </trkpt>
      <trkpt lat="47.25634" lon="-2.33561">
        <ele>1.7999999523163</ele>
        <time>2021-02-14T08:42:24.000Z</time>
      </trkpt>
      <trkpt lat="47.25657" lon="-2.33573">
        <ele>1.7999999523163</ele>
        <time>2021-02-14T08:42:29.000Z</time>
      </trkpt>
      <trkpt lat="47.25693" lon="-2.33581">
        <ele>1.7999999523163</ele>
        <time>2021-02-14T08:42:36.000Z</time>
      </trkpt>
      <trkpt lat="47.25726" lon="-2.3358">
        <ele>1.7999999523163</ele>
        <time>2021-02-14T08:42:42.000Z</time>
      </trkpt>
      <trkpt lat="47.25755" lon="-2.33577">
        <ele>1.7999999523163</ele>
        <time>2021-02-14T08:42:48.000Z</time>
      </trkpt>
      <trkpt lat="47.25765" lon="-2.33577">
        <ele>1.7999999523163</ele>
        <time>2021-02-14T08:42:50.000Z</time>
      </trkpt>
      <trkpt lat="47.25807" lon="-2.33574">
        <ele>1.7999999523163</ele>
        <time>2021-02-14T08:42:58.000Z</time>
      </trkpt>
      <trkpt lat="47.25842" lon="-2.33571">
        <ele>1.7999999523163</ele>
        <time>2021-02-14T08:43:05.000Z</time>
      </trkpt>
      <trkpt lat="47.25878" lon="-2.33566">
        <ele>1.7999999523163</ele>
        <time>2021-02-14T08:43:12.000Z</time>
      </trkpt>
      <trkpt lat="47.25887" lon="-2.3356">
        <ele>1.3999999761581</ele>
        <time>2021-02-14T08:43:14.000Z</time>
      </trkpt>
      <trkpt lat="47.25892" lon="-2.33558">
        <ele>1</ele>
        <time>2021-02-14T08:43:15.000Z</time>
      </trkpt>
      <trkpt lat="47.25897" lon="-2.33555">
        <ele>0.60000002384186</ele>
        <time>2021-02-14T08:43:16.000Z</time>
      </trkpt>
      <trkpt lat="47.25903" lon="-2.33551">
        <ele>-0.20000000298023</ele>
        <time>2021-02-14T08:43:17.000Z</time>
      </trkpt>
      <trkpt lat="47.25939" lon="-2.33517">
        <ele>-0.20000000298023</ele>
        <time>2021-02-14T08:43:24.000Z</time>
      </trkpt>
      <trkpt lat="47.25964" lon="-2.33494">
        <ele>-0.80000001192093</ele>
        <time>2021-02-14T08:43:29.000Z</time>
      </trkpt>
      <trkpt lat="47.25969" lon="-2.33492">
        <ele>-1.2000000476837</ele>
        <time>2021-02-14T08:43:30.000Z</time>
      </trkpt>
      <trkpt lat="47.25975" lon="-2.33492">
        <ele>-1.6000000238419</ele>
        <time>2021-02-14T08:43:31.000Z</time>
      </trkpt>
      <trkpt lat="47.2598" lon="-2.33492">
        <ele>-2</ele>
        <time>2021-02-14T08:43:32.000Z</time>
      </trkpt>
      <trkpt lat="47.25986" lon="-2.33492">
        <ele>-2.4000000953674</ele>
        <time>2021-02-14T08:43:33.000Z</time>
      </trkpt>
      <trkpt lat="47.25991" lon="-2.33491">
        <ele>-2.4000000953674</ele>
        <time>2021-02-14T08:43:34.000Z</time>
      </trkpt>
      <trkpt lat="47.26022" lon="-2.33486">
        <ele>-2.4000000953674</ele>
        <time>2021-02-14T08:43:40.000Z</time>
      </trkpt>
      <trkpt lat="47.26027" lon="-2.33484">
        <ele>-2.4000000953674</ele>
        <time>2021-02-14T08:43:41.000Z</time>
      </trkpt>
      <trkpt lat="47.26039" lon="-2.33471">
        <ele>-2.4000000953674</ele>
        <time>2021-02-14T08:43:44.000Z</time>
      </trkpt>
      <trkpt lat="47.26046" lon="-2.33453">
        <ele>-2.4000000953674</ele>
        <time>2021-02-14T08:43:47.000Z</time>
      </trkpt>
      <trkpt lat="47.26049" lon="-2.33448">
        <ele>-2.4000000953674</ele>
        <time>2021-02-14T08:43:48.000Z</time>
      </trkpt>
      <trkpt lat="47.26062" lon="-2.33434">
        <ele>-2.4000000953674</ele>
        <time>2021-02-14T08:43:51.000Z</time>
      </trkpt>
      <trkpt lat="47.26069" lon="-2.33415">
        <ele>-2.4000000953674</ele>
        <time>2021-02-14T08:43:54.000Z</time>
      </trkpt>
      <trkpt lat="47.26072" lon="-2.33409">
        <ele>-2.4000000953674</ele>
        <time>2021-02-14T08:43:55.000Z</time>
      </trkpt>
      <trkpt lat="47.26086" lon="-2.33398">
        <ele>-2.4000000953674</ele>
        <time>2021-02-14T08:43:58.000Z</time>
      </trkpt>
      <trkpt lat="47.26102" lon="-2.334">
        <ele>-2.4000000953674</ele>
        <time>2021-02-14T08:44:01.000Z</time>
      </trkpt>
      <trkpt lat="47.26121" lon="-2.33422">
        <ele>-2.4000000953674</ele>
        <time>2021-02-14T08:44:05.000Z</time>
      </trkpt>
      <trkpt lat="47.26125" lon="-2.33428">
        <ele>-2.4000000953674</ele>
        <time>2021-02-14T08:44:06.000Z</time>
      </trkpt>
      <trkpt lat="47.26129" lon="-2.33433">
        <ele>-2.4000000953674</ele>
        <time>2021-02-14T08:44:07.000Z</time>
      </trkpt>
      <trkpt lat="47.26138" lon="-2.33436">
        <ele>-2.4000000953674</ele>
        <time>2021-02-14T08:44:09.000Z</time>
      </trkpt>
      <trkpt lat="47.26152" lon="-2.33431">
        <ele>-2.4000000953674</ele>
        <time>2021-02-14T08:44:12.000Z</time>
      </trkpt>
      <trkpt lat="47.26168" lon="-2.33438">
        <ele>-2.4000000953674</ele>
        <time>2021-02-14T08:44:15.000Z</time>
      </trkpt>
      <trkpt lat="47.26173" lon="-2.33439">
        <ele>-2.4000000953674</ele>
        <time>2021-02-14T08:44:16.000Z</time>
      </trkpt>
      <trkpt lat="47.26178" lon="-2.3344">
        <ele>-2.4000000953674</ele>
        <time>2021-02-14T08:44:17.000Z</time>
      </trkpt>
      <trkpt lat="47.26193" lon="-2.33437">
        <ele>-2.4000000953674</ele>
        <time>2021-02-14T08:44:20.000Z</time>
      </trkpt>
      <trkpt lat="47.26232" lon="-2.33429">
        <ele>-2.4000000953674</ele>
        <time>2021-02-14T08:44:27.000Z</time>
      </trkpt>
      <trkpt lat="47.26249" lon="-2.33423">
        <ele>-2.4000000953674</ele>
        <time>2021-02-14T08:44:30.000Z</time>
      </trkpt>
      <trkpt lat="47.2626" lon="-2.33428">
        <ele>-2.4000000953674</ele>
        <time>2021-02-14T08:44:32.000Z</time>
      </trkpt>
      <trkpt lat="47.2628" lon="-2.33427">
        <ele>-2.4000000953674</ele>
        <time>2021-02-14T08:44:36.000Z</time>
      </trkpt>
      <trkpt lat="47.26286" lon="-2.33426">
        <ele>-2.4000000953674</ele>
        <time>2021-02-14T08:44:37.000Z</time>
      </trkpt>
      <trkpt lat="47.26315" lon="-2.33417">
        <ele>-2.4000000953674</ele>
        <time>2021-02-14T08:44:42.000Z</time>
      </trkpt>
      <trkpt lat="47.26337" lon="-2.334">
        <ele>-2.4000000953674</ele>
        <time>2021-02-14T08:44:46.000Z</time>
      </trkpt>
      <trkpt lat="47.26342" lon="-2.33397">
        <ele>-2.4000000953674</ele>
        <time>2021-02-14T08:44:47.000Z</time>
      </trkpt>
      <trkpt lat="47.26374" lon="-2.33381">
        <ele>-2.4000000953674</ele>
        <time>2021-02-14T08:44:53.000Z</time>
      </trkpt>
      <trkpt lat="47.26408" lon="-2.33359">
        <ele>-2.4000000953674</ele>
        <time>2021-02-14T08:45:00.000Z</time>
      </trkpt>
      <trkpt lat="47.26442" lon="-2.33334">
        <ele>-2.4000000953674</ele>
        <time>2021-02-14T08:45:07.000Z</time>
      </trkpt>
      <trkpt lat="47.26479" lon="-2.33303">
        <ele>-2.4000000953674</ele>
        <time>2021-02-14T08:45:15.000Z</time>
      </trkpt>
      <trkpt lat="47.26482" lon="-2.33298">
        <ele>-2.4000000953674</ele>
        <time>2021-02-14T08:45:16.000Z</time>
      </trkpt>
      <trkpt lat="47.2649" lon="-2.33292">
        <ele>-2.4000000953674</ele>
        <time>2021-02-14T08:45:19.000Z</time>
      </trkpt>
      <trkpt lat="47.26494" lon="-2.33292">
        <ele>-2.4000000953674</ele>
        <time>2021-02-14T08:45:21.000Z</time>
      </trkpt>
      <trkpt lat="47.26499" lon="-2.33292">
        <ele>-2.4000000953674</ele>
        <time>2021-02-14T08:45:24.000Z</time>
      </trkpt>
      <trkpt lat="47.2651" lon="-2.3329">
        <ele>-2.4000000953674</ele>
        <time>2021-02-14T08:45:27.000Z</time>
      </trkpt>
      <trkpt lat="47.26523" lon="-2.33291">
        <ele>-2.4000000953674</ele>
        <time>2021-02-14T08:45:30.000Z</time>
      </trkpt>
      <trkpt lat="47.26531" lon="-2.33293">
        <ele>-2.4000000953674</ele>
        <time>2021-02-14T08:45:32.000Z</time>
      </trkpt>
      <trkpt lat="47.26537" lon="-2.33302">
        <ele>-2.4000000953674</ele>
        <time>2021-02-14T08:45:35.000Z</time>
      </trkpt>
      <trkpt lat="47.26546" lon="-2.33294">
        <ele>-2.4000000953674</ele>
        <time>2021-02-14T08:45:38.000Z</time>
      </trkpt>
      <trkpt lat="47.26549" lon="-2.33291">
        <ele>-2.4000000953674</ele>
        <time>2021-02-14T08:45:39.000Z</time>
      </trkpt>
      <trkpt lat="47.26552" lon="-2.33287">
        <ele>-2.4000000953674</ele>
        <time>2021-02-14T08:45:40.000Z</time>
      </trkpt>
      <trkpt lat="47.26563" lon="-2.33276">
        <ele>-2.4000000953674</ele>
        <time>2021-02-14T08:45:43.000Z</time>
      </trkpt>
      <trkpt lat="47.26593" lon="-2.33244">
        <ele>-2.4000000953674</ele>
        <time>2021-02-14T08:45:51.000Z</time>
      </trkpt>
      <trkpt lat="47.26628" lon="-2.33208">
        <ele>-2.4000000953674</ele>
        <time>2021-02-14T08:46:00.000Z</time>
      </trkpt>
      <trkpt lat="47.26656" lon="-2.33179">
        <ele>-2.4000000953674</ele>
        <time>2021-02-14T08:46:08.000Z</time>
      </trkpt>
      <trkpt lat="47.26666" lon="-2.3317">
        <ele>-2.4000000953674</ele>
        <time>2021-02-14T08:46:13.000Z</time>
      </trkpt>
      <trkpt lat="47.26676" lon="-2.33165">
        <ele>-2.4000000953674</ele>
        <time>2021-02-14T08:46:18.000Z</time>
      </trkpt>
      <trkpt lat="47.26678" lon="-2.33166">
        <ele>-2.4000000953674</ele>
        <time>2021-02-14T08:46:19.000Z</time>
      </trkpt>
      <trkpt lat="47.2669" lon="-2.3318">
        <ele>-2.4000000953674</ele>
        <time>2021-02-14T08:46:24.000Z</time>
      </trkpt>
      <trkpt lat="47.26691" lon="-2.33185">
        <ele>-2.4000000953674</ele>
        <time>2021-02-14T08:46:25.000Z</time>
      </trkpt>
      <trkpt lat="47.26694" lon="-2.33197">
        <ele>-2.4000000953674</ele>
        <time>2021-02-14T08:46:27.000Z</time>
      </trkpt>
      <trkpt lat="47.26697" lon="-2.33223">
        <ele>-2.4000000953674</ele>
        <time>2021-02-14T08:46:32.000Z</time>
      </trkpt>
      <trkpt lat="47.26702" lon="-2.33237">
        <ele>-2.4000000953674</ele>
        <time>2021-02-14T08:46:35.000Z</time>
      </trkpt>
      <trkpt lat="47.26703" lon="-2.33242">
        <ele>-2.4000000953674</ele>
        <time>2021-02-14T08:46:36.000Z</time>
      </trkpt>
      <trkpt lat="47.26705" lon="-2.33254">
        <ele>-2.4000000953674</ele>
        <time>2021-02-14T08:46:38.000Z</time>
      </trkpt>
      <trkpt lat="47.26706" lon="-2.33276">
        <ele>-2.4000000953674</ele>
        <time>2021-02-14T08:46:41.000Z</time>
      </trkpt>
      <trkpt lat="47.26712" lon="-2.33308">
        <ele>-2.4000000953674</ele>
        <time>2021-02-14T08:46:45.000Z</time>
      </trkpt>
      <trkpt lat="47.26714" lon="-2.33314">
        <ele>-2.4000000953674</ele>
        <time>2021-02-14T08:46:46.000Z</time>
      </trkpt>
      <trkpt lat="47.26724" lon="-2.33327">
        <ele>-2.4000000953674</ele>
        <time>2021-02-14T08:46:49.000Z</time>
      </trkpt>
      <trkpt lat="47.26734" lon="-2.33333">
        <ele>-2.4000000953674</ele>
        <time>2021-02-14T08:46:51.000Z</time>
      </trkpt>
      <trkpt lat="47.26742" lon="-2.33337">
        <ele>-2.4000000953674</ele>
        <time>2021-02-14T08:46:53.000Z</time>
      </trkpt>
      <trkpt lat="47.26747" lon="-2.33343">
        <ele>-2.4000000953674</ele>
        <time>2021-02-14T08:46:55.000Z</time>
      </trkpt>
      <trkpt lat="47.26749" lon="-2.33348">
        <ele>-2.4000000953674</ele>
        <time>2021-02-14T08:46:56.000Z</time>
      </trkpt>
      <trkpt lat="47.26756" lon="-2.33364">
        <ele>-2.4000000953674</ele>
        <time>2021-02-14T08:46:59.000Z</time>
      </trkpt>
      <trkpt lat="47.26756" lon="-2.3337">
        <ele>-2.4000000953674</ele>
        <time>2021-02-14T08:47:00.000Z</time>
      </trkpt>
      <trkpt lat="47.26758" lon="-2.33408">
        <ele>-2.4000000953674</ele>
        <time>2021-02-14T08:47:05.000Z</time>
      </trkpt>
      <trkpt lat="47.26764" lon="-2.33462">
        <ele>-2.4000000953674</ele>
        <time>2021-02-14T08:47:12.000Z</time>
      </trkpt>
      <trkpt lat="47.26773" lon="-2.33514">
        <ele>-2.4000000953674</ele>
        <time>2021-02-14T08:47:18.000Z</time>
      </trkpt>
      <trkpt lat="47.2678" lon="-2.33563">
        <ele>-2.4000000953674</ele>
        <time>2021-02-14T08:47:24.000Z</time>
      </trkpt>
      <trkpt lat="47.26783" lon="-2.33567">
        <ele>-2.4000000953674</ele>
        <time>2021-02-14T08:47:25.000Z</time>
      </trkpt>
      <trkpt lat="47.26792" lon="-2.33566">
        <ele>-2.4000000953674</ele>
        <time>2021-02-14T08:47:28.000Z</time>
      </trkpt>
      <trkpt lat="47.26795" lon="-2.33565">
        <ele>-2.4000000953674</ele>
        <time>2021-02-14T08:47:29.000Z</time>
      </trkpt>
      <trkpt lat="47.2681" lon="-2.33558">
        <ele>-2.4000000953674</ele>
        <time>2021-02-14T08:47:33.000Z</time>
      </trkpt>
      <trkpt lat="47.26841" lon="-2.33549">
        <ele>-2.4000000953674</ele>
        <time>2021-02-14T08:47:39.000Z</time>
      </trkpt>
      <trkpt lat="47.26846" lon="-2.33546">
        <ele>-2.4000000953674</ele>
        <time>2021-02-14T08:47:40.000Z</time>
      </trkpt>
      <trkpt lat="47.26862" lon="-2.33538">
        <ele>-2.4000000953674</ele>
        <time>2021-02-14T08:47:43.000Z</time>
      </trkpt>
      <trkpt lat="47.26867" lon="-2.33537">
        <ele>-2.4000000953674</ele>
        <time>2021-02-14T08:47:44.000Z</time>
      </trkpt>
      <trkpt lat="47.26885" lon="-2.33529">
        <ele>-2.4000000953674</ele>
        <time>2021-02-14T08:47:48.000Z</time>
      </trkpt>
      <trkpt lat="47.26887" lon="-2.33519">
        <ele>-2</ele>
        <time>2021-02-14T08:47:50.000Z</time>
      </trkpt>
      <trkpt lat="47.26888" lon="-2.33514">
        <ele>-1.6000000238419</ele>
        <time>2021-02-14T08:47:51.000Z</time>
      </trkpt>
      <trkpt lat="47.26887" lon="-2.33508">
        <ele>-1</ele>
        <time>2021-02-14T08:47:52.000Z</time>
      </trkpt>
      <trkpt lat="47.26886" lon="-2.33501">
        <ele>-0.60000002384186</ele>
        <time>2021-02-14T08:47:53.000Z</time>
      </trkpt>
      <trkpt lat="47.26884" lon="-2.33496">
        <ele>-0.20000000298023</ele>
        <time>2021-02-14T08:47:54.000Z</time>
      </trkpt>
      <trkpt lat="47.26883" lon="-2.3349">
        <ele>-0.20000000298023</ele>
        <time>2021-02-14T08:47:55.000Z</time>
      </trkpt>
      <trkpt lat="47.26882" lon="-2.33484">
        <ele>0.20000000298023</ele>
        <time>2021-02-14T08:47:56.000Z</time>
      </trkpt>
      <trkpt lat="47.26881" lon="-2.33479">
        <ele>0.60000002384186</ele>
        <time>2021-02-14T08:47:57.000Z</time>
      </trkpt>
      <trkpt lat="47.26881" lon="-2.33474">
        <ele>1</ele>
        <time>2021-02-14T08:47:58.000Z</time>
      </trkpt>
      <trkpt lat="47.2688" lon="-2.3347">
        <ele>1.3999999761581</ele>
        <time>2021-02-14T08:47:59.000Z</time>
      </trkpt>
      <trkpt lat="47.26879" lon="-2.33466">
        <ele>1.7999999523163</ele>
        <time>2021-02-14T08:48:00.000Z</time>
      </trkpt>
      <trkpt lat="47.26877" lon="-2.33462">
        <ele>2.4000000953674</ele>
        <time>2021-02-14T08:48:01.000Z</time>
      </trkpt>
      <trkpt lat="47.26877" lon="-2.33458">
        <ele>2.7999999523163</ele>
        <time>2021-02-14T08:48:02.000Z</time>
      </trkpt>
      <trkpt lat="47.26876" lon="-2.33453">
        <ele>3.2000000476837</ele>
        <time>2021-02-14T08:48:03.000Z</time>
      </trkpt>
      <trkpt lat="47.26876" lon="-2.33448">
        <ele>3.5999999046326</ele>
        <time>2021-02-14T08:48:04.000Z</time>
      </trkpt>
      <trkpt lat="47.26877" lon="-2.33444">
        <ele>4.1999998092651</ele>
        <time>2021-02-14T08:48:05.000Z</time>
      </trkpt>
      <trkpt lat="47.26877" lon="-2.3344">
        <ele>4.1999998092651</ele>
        <time>2021-02-14T08:48:06.000Z</time>
      </trkpt>
      <trkpt lat="47.26879" lon="-2.33436">
        <ele>4.5999999046326</ele>
        <time>2021-02-14T08:48:07.000Z</time>
      </trkpt>
      <trkpt lat="47.2688" lon="-2.33432">
        <ele>5</ele>
        <time>2021-02-14T08:48:08.000Z</time>
      </trkpt>
      <trkpt lat="47.26882" lon="-2.33428">
        <ele>5.4000000953674</ele>
        <time>2021-02-14T08:48:09.000Z</time>
      </trkpt>
      <trkpt lat="47.26883" lon="-2.33425">
        <ele>5.8000001907349</ele>
        <time>2021-02-14T08:48:10.000Z</time>
      </trkpt>
      <trkpt lat="47.26885" lon="-2.33421">
        <ele>6.1999998092651</ele>
        <time>2021-02-14T08:48:11.000Z</time>
      </trkpt>
      <trkpt lat="47.26887" lon="-2.33418">
        <ele>6.5999999046326</ele>
        <time>2021-02-14T08:48:12.000Z</time>
      </trkpt>
      <trkpt lat="47.2689" lon="-2.33417">
        <ele>7</ele>
        <time>2021-02-14T08:48:13.000Z</time>
      </trkpt>
      <trkpt lat="47.26894" lon="-2.33415">
        <ele>7.5999999046326</ele>
        <time>2021-02-14T08:48:14.000Z</time>
      </trkpt>
      <trkpt lat="47.26898" lon="-2.33413">
        <ele>8</ele>
        <time>2021-02-14T08:48:15.000Z</time>
      </trkpt>
      <trkpt lat="47.26901" lon="-2.33412">
        <ele>8.3999996185303</ele>
        <time>2021-02-14T08:48:16.000Z</time>
      </trkpt>
      <trkpt lat="47.26913" lon="-2.33406">
        <ele>8.8000001907349</ele>
        <time>2021-02-14T08:48:19.000Z</time>
      </trkpt>
      <trkpt lat="47.26916" lon="-2.33404">
        <ele>9.1999998092651</ele>
        <time>2021-02-14T08:48:20.000Z</time>
      </trkpt>
      <trkpt lat="47.26919" lon="-2.33403">
        <ele>9.6000003814697</ele>
        <time>2021-02-14T08:48:21.000Z</time>
      </trkpt>
      <trkpt lat="47.26923" lon="-2.334">
        <ele>10</ele>
        <time>2021-02-14T08:48:22.000Z</time>
      </trkpt>
      <trkpt lat="47.26926" lon="-2.33399">
        <ele>10.39999961853</ele>
        <time>2021-02-14T08:48:23.000Z</time>
      </trkpt>
      <trkpt lat="47.26943" lon="-2.33391">
        <ele>10.39999961853</ele>
        <time>2021-02-14T08:48:28.000Z</time>
      </trkpt>
      <trkpt lat="47.26947" lon="-2.3339">
        <ele>10.800000190735</ele>
        <time>2021-02-14T08:48:29.000Z</time>
      </trkpt>
      <trkpt lat="47.26951" lon="-2.33388">
        <ele>11.199999809265</ele>
        <time>2021-02-14T08:48:30.000Z</time>
      </trkpt>
      <trkpt lat="47.26954" lon="-2.33386">
        <ele>11.800000190735</ele>
        <time>2021-02-14T08:48:31.000Z</time>
      </trkpt>
      <trkpt lat="47.26958" lon="-2.33385">
        <ele>12.199999809265</ele>
        <time>2021-02-14T08:48:32.000Z</time>
      </trkpt>
      <trkpt lat="47.2696" lon="-2.33384">
        <ele>12.60000038147</ele>
        <time>2021-02-14T08:48:33.000Z</time>
      </trkpt>
      <trkpt lat="47.26965" lon="-2.33382">
        <ele>12.60000038147</ele>
        <time>2021-02-14T08:48:35.000Z</time>
      </trkpt>
      <trkpt lat="47.26967" lon="-2.33378">
        <ele>12.60000038147</ele>
        <time>2021-02-14T08:48:37.000Z</time>
      </trkpt>
      <trkpt lat="47.26968" lon="-2.33374">
        <ele>12.60000038147</ele>
        <time>2021-02-14T08:48:39.000Z</time>
      </trkpt>
      <trkpt lat="47.26969" lon="-2.33368">
        <ele>12.60000038147</ele>
        <time>2021-02-14T08:48:42.000Z</time>
      </trkpt>
      <trkpt lat="47.2697" lon="-2.33366">
        <ele>12.60000038147</ele>
        <time>2021-02-14T08:48:45.000Z</time>
      </trkpt>
      <trkpt lat="47.26971" lon="-2.33367">
        <ele>12.60000038147</ele>
        <time>2021-02-14T08:48:46.000Z</time>
      </trkpt>
      <trkpt lat="47.26972" lon="-2.33373">
        <ele>12.60000038147</ele>
        <time>2021-02-14T08:48:50.000Z</time>
      </trkpt>
      <trkpt lat="47.26973" lon="-2.33374">
        <ele>12.60000038147</ele>
        <time>2021-02-14T08:48:51.000Z</time>
      </trkpt>
      <trkpt lat="47.26975" lon="-2.33379">
        <ele>12.60000038147</ele>
        <time>2021-02-14T08:48:55.000Z</time>
      </trkpt>
      <trkpt lat="47.26974" lon="-2.3338">
        <ele>12.60000038147</ele>
        <time>2021-02-14T08:48:56.000Z</time>
      </trkpt>
      <trkpt lat="47.26973" lon="-2.33379">
        <ele>12.60000038147</ele>
        <time>2021-02-14T08:48:57.000Z</time>
      </trkpt>
      <trkpt lat="47.26969" lon="-2.33376">
        <ele>12.60000038147</ele>
        <time>2021-02-14T08:49:00.000Z</time>
      </trkpt>
      <trkpt lat="47.26971" lon="-2.33368">
        <ele>12.60000038147</ele>
        <time>2021-02-14T08:49:05.000Z</time>
      </trkpt>
      <trkpt lat="47.26968" lon="-2.3336">
        <ele>12.60000038147</ele>
        <time>2021-02-14T08:49:09.000Z</time>
      </trkpt>
      <trkpt lat="47.26967" lon="-2.33359">
        <ele>12.60000038147</ele>
        <time>2021-02-14T08:49:10.000Z</time>
      </trkpt>
      <trkpt lat="47.26964" lon="-2.33355">
        <ele>12.60000038147</ele>
        <time>2021-02-14T08:49:13.000Z</time>
      </trkpt>
      <trkpt lat="47.26962" lon="-2.33347">
        <ele>12.60000038147</ele>
        <time>2021-02-14T08:49:16.000Z</time>
      </trkpt>
      <trkpt lat="47.26961" lon="-2.3334">
        <ele>12.60000038147</ele>
        <time>2021-02-14T08:49:19.000Z</time>
      </trkpt>
      <trkpt lat="47.26964" lon="-2.3334">
        <ele>12.60000038147</ele>
        <time>2021-02-14T08:49:21.000Z</time>
      </trkpt>
      <trkpt lat="47.26965" lon="-2.33345">
        <ele>12.60000038147</ele>
        <time>2021-02-14T08:49:23.000Z</time>
      </trkpt>
      <trkpt lat="47.26967" lon="-2.33351">
        <ele>12.60000038147</ele>
        <time>2021-02-14T08:49:25.000Z</time>
      </trkpt>
      <trkpt lat="47.26966" lon="-2.33356">
        <ele>12.60000038147</ele>
        <time>2021-02-14T08:49:27.000Z</time>
      </trkpt>
      <trkpt lat="47.26964" lon="-2.33355">
        <ele>12.60000038147</ele>
        <time>2021-02-14T08:49:29.000Z</time>
      </trkpt>
      <trkpt lat="47.26962" lon="-2.33344">
        <ele>12.60000038147</ele>
        <time>2021-02-14T08:49:33.000Z</time>
      </trkpt>
      <trkpt lat="47.26958" lon="-2.33335">
        <ele>13</ele>
        <time>2021-02-14T08:49:35.000Z</time>
      </trkpt>
      <trkpt lat="47.26957" lon="-2.3333">
        <ele>13.39999961853</ele>
        <time>2021-02-14T08:49:36.000Z</time>
      </trkpt>
      <trkpt lat="47.26956" lon="-2.33324">
        <ele>13.800000190735</ele>
        <time>2021-02-14T08:49:37.000Z</time>
      </trkpt>
      <trkpt lat="47.26954" lon="-2.33319">
        <ele>14.39999961853</ele>
        <time>2021-02-14T08:49:38.000Z</time>
      </trkpt>
      <trkpt lat="47.26952" lon="-2.33314">
        <ele>14.800000190735</ele>
        <time>2021-02-14T08:49:39.000Z</time>
      </trkpt>
      <trkpt lat="47.26942" lon="-2.33282">
        <ele>14.800000190735</ele>
        <time>2021-02-14T08:49:46.000Z</time>
      </trkpt>
      <trkpt lat="47.26931" lon="-2.33249">
        <ele>14.800000190735</ele>
        <time>2021-02-14T08:49:53.000Z</time>
      </trkpt>
      <trkpt lat="47.26931" lon="-2.33224">
        <ele>14.800000190735</ele>
        <time>2021-02-14T08:49:58.000Z</time>
      </trkpt>
      <trkpt lat="47.26933" lon="-2.33222">
        <ele>14.800000190735</ele>
        <time>2021-02-14T08:49:59.000Z</time>
      </trkpt>
      <trkpt lat="47.2694" lon="-2.33218">
        <ele>14.800000190735</ele>
        <time>2021-02-14T08:50:01.000Z</time>
      </trkpt>
      <trkpt lat="47.26954" lon="-2.33209">
        <ele>14.800000190735</ele>
        <time>2021-02-14T08:50:05.000Z</time>
      </trkpt>
      <trkpt lat="47.26965" lon="-2.33202">
        <ele>14.800000190735</ele>
        <time>2021-02-14T08:50:08.000Z</time>
      </trkpt>
      <trkpt lat="47.26982" lon="-2.3318">
        <ele>14.800000190735</ele>
        <time>2021-02-14T08:50:14.000Z</time>
      </trkpt>
      <trkpt lat="47.26999" lon="-2.33166">
        <ele>14.800000190735</ele>
        <time>2021-02-14T08:50:19.000Z</time>
      </trkpt>
      <trkpt lat="47.27021" lon="-2.33145">
        <ele>14.800000190735</ele>
        <time>2021-02-14T08:50:25.000Z</time>
      </trkpt>
      <trkpt lat="47.2705" lon="-2.33115">
        <ele>14.800000190735</ele>
        <time>2021-02-14T08:50:33.000Z</time>
      </trkpt>
      <trkpt lat="47.27074" lon="-2.33089">
        <ele>14.800000190735</ele>
        <time>2021-02-14T08:50:40.000Z</time>
      </trkpt>
      <trkpt lat="47.27101" lon="-2.33062">
        <ele>14.800000190735</ele>
        <time>2021-02-14T08:50:47.000Z</time>
      </trkpt>
      <trkpt lat="47.2712" lon="-2.33048">
        <ele>14.800000190735</ele>
        <time>2021-02-14T08:50:51.000Z</time>
      </trkpt>
      <trkpt lat="47.27132" lon="-2.33038">
        <ele>14.800000190735</ele>
        <time>2021-02-14T08:50:54.000Z</time>
      </trkpt>
      <trkpt lat="47.27167" lon="-2.33012">
        <ele>14.800000190735</ele>
        <time>2021-02-14T08:51:02.000Z</time>
      </trkpt>
      <trkpt lat="47.27181" lon="-2.33004">
        <ele>14.800000190735</ele>
        <time>2021-02-14T08:51:05.000Z</time>
      </trkpt>
      <trkpt lat="47.27195" lon="-2.32994">
        <ele>14.800000190735</ele>
        <time>2021-02-14T08:51:08.000Z</time>
      </trkpt>
      <trkpt lat="47.27212" lon="-2.32983">
        <ele>14.800000190735</ele>
        <time>2021-02-14T08:51:12.000Z</time>
      </trkpt>
      <trkpt lat="47.27221" lon="-2.32988">
        <ele>14.39999961853</ele>
        <time>2021-02-14T08:51:14.000Z</time>
      </trkpt>
      <trkpt lat="47.27224" lon="-2.32992">
        <ele>13.800000190735</ele>
        <time>2021-02-14T08:51:15.000Z</time>
      </trkpt>
      <trkpt lat="47.27227" lon="-2.32998">
        <ele>13.39999961853</ele>
        <time>2021-02-14T08:51:16.000Z</time>
      </trkpt>
      <trkpt lat="47.27231" lon="-2.33003">
        <ele>13</ele>
        <time>2021-02-14T08:51:17.000Z</time>
      </trkpt>
      <trkpt lat="47.27234" lon="-2.33009">
        <ele>12.60000038147</ele>
        <time>2021-02-14T08:51:18.000Z</time>
      </trkpt>
      <trkpt lat="47.27259" lon="-2.33047">
        <ele>13</ele>
        <time>2021-02-14T08:51:26.000Z</time>
      </trkpt>
      <trkpt lat="47.27261" lon="-2.33051">
        <ele>13.39999961853</ele>
        <time>2021-02-14T08:51:27.000Z</time>
      </trkpt>
      <trkpt lat="47.27265" lon="-2.33056">
        <ele>13.800000190735</ele>
        <time>2021-02-14T08:51:28.000Z</time>
      </trkpt>
      <trkpt lat="47.27268" lon="-2.33061">
        <ele>14.60000038147</ele>
        <time>2021-02-14T08:51:29.000Z</time>
      </trkpt>
      <trkpt lat="47.27286" lon="-2.33085">
        <ele>14.60000038147</ele>
        <time>2021-02-14T08:51:35.000Z</time>
      </trkpt>
      <trkpt lat="47.27295" lon="-2.33098">
        <ele>14.60000038147</ele>
        <time>2021-02-14T08:51:38.000Z</time>
      </trkpt>
      <trkpt lat="47.27306" lon="-2.33106">
        <ele>14.60000038147</ele>
        <time>2021-02-14T08:51:41.000Z</time>
      </trkpt>
      <trkpt lat="47.27319" lon="-2.33104">
        <ele>14.60000038147</ele>
        <time>2021-02-14T08:51:45.000Z</time>
      </trkpt>
      <trkpt lat="47.27324" lon="-2.3309">
        <ele>14.60000038147</ele>
        <time>2021-02-14T08:51:48.000Z</time>
      </trkpt>
      <trkpt lat="47.27326" lon="-2.33084">
        <ele>14.60000038147</ele>
        <time>2021-02-14T08:51:49.000Z</time>
      </trkpt>
      <trkpt lat="47.27337" lon="-2.33052">
        <ele>14.60000038147</ele>
        <time>2021-02-14T08:51:54.000Z</time>
      </trkpt>
      <trkpt lat="47.27351" lon="-2.33007">
        <ele>14.60000038147</ele>
        <time>2021-02-14T08:52:01.000Z</time>
      </trkpt>
      <trkpt lat="47.2736" lon="-2.32984">
        <ele>14.60000038147</ele>
        <time>2021-02-14T08:52:05.000Z</time>
      </trkpt>
      <trkpt lat="47.27368" lon="-2.32967">
        <ele>14.60000038147</ele>
        <time>2021-02-14T08:52:08.000Z</time>
      </trkpt>
      <trkpt lat="47.27386" lon="-2.32934">
        <ele>14.60000038147</ele>
        <time>2021-02-14T08:52:14.000Z</time>
      </trkpt>
      <trkpt lat="47.27389" lon="-2.3293">
        <ele>14.60000038147</ele>
        <time>2021-02-14T08:52:15.000Z</time>
      </trkpt>
      <trkpt lat="47.27396" lon="-2.32914">
        <ele>14.60000038147</ele>
        <time>2021-02-14T08:52:18.000Z</time>
      </trkpt>
      <trkpt lat="47.27398" lon="-2.3291">
        <ele>14.60000038147</ele>
        <time>2021-02-14T08:52:19.000Z</time>
      </trkpt>
      <trkpt lat="47.27405" lon="-2.32891">
        <ele>14.199999809265</ele>
        <time>2021-02-14T08:52:23.000Z</time>
      </trkpt>
      <trkpt lat="47.27407" lon="-2.32885">
        <ele>13.800000190735</ele>
        <time>2021-02-14T08:52:24.000Z</time>
      </trkpt>
      <trkpt lat="47.27409" lon="-2.3288">
        <ele>13.39999961853</ele>
        <time>2021-02-14T08:52:25.000Z</time>
      </trkpt>
      <trkpt lat="47.27411" lon="-2.32874">
        <ele>13</ele>
        <time>2021-02-14T08:52:26.000Z</time>
      </trkpt>
      <trkpt lat="47.27414" lon="-2.32869">
        <ele>12.60000038147</ele>
        <time>2021-02-14T08:52:27.000Z</time>
      </trkpt>
      <trkpt lat="47.27423" lon="-2.32842">
        <ele>12.60000038147</ele>
        <time>2021-02-14T08:52:31.000Z</time>
      </trkpt>
      <trkpt lat="47.27432" lon="-2.32797">
        <ele>12.60000038147</ele>
        <time>2021-02-14T08:52:36.000Z</time>
      </trkpt>
      <trkpt lat="47.27435" lon="-2.3278">
        <ele>12.199999809265</ele>
        <time>2021-02-14T08:52:38.000Z</time>
      </trkpt>
      <trkpt lat="47.27438" lon="-2.32771">
        <ele>11.800000190735</ele>
        <time>2021-02-14T08:52:39.000Z</time>
      </trkpt>
      <trkpt lat="47.27441" lon="-2.32763">
        <ele>11.199999809265</ele>
        <time>2021-02-14T08:52:40.000Z</time>
      </trkpt>
      <trkpt lat="47.27444" lon="-2.32754">
        <ele>10.800000190735</ele>
        <time>2021-02-14T08:52:41.000Z</time>
      </trkpt>
      <trkpt lat="47.27448" lon="-2.32744">
        <ele>10.39999961853</ele>
        <time>2021-02-14T08:52:42.000Z</time>
      </trkpt>
      <trkpt lat="47.2746" lon="-2.32716">
        <ele>10</ele>
        <time>2021-02-14T08:52:45.000Z</time>
      </trkpt>
      <trkpt lat="47.27464" lon="-2.32707">
        <ele>9.3999996185303</ele>
        <time>2021-02-14T08:52:46.000Z</time>
      </trkpt>
      <trkpt lat="47.27469" lon="-2.32699">
        <ele>8.8000001907349</ele>
        <time>2021-02-14T08:52:47.000Z</time>
      </trkpt>
      <trkpt lat="47.27473" lon="-2.32692">
        <ele>8.1999998092651</ele>
        <time>2021-02-14T08:52:48.000Z</time>
      </trkpt>
      <trkpt lat="47.27478" lon="-2.32687">
        <ele>7.5999999046326</ele>
        <time>2021-02-14T08:52:49.000Z</time>
      </trkpt>
      <trkpt lat="47.27482" lon="-2.32684">
        <ele>7</ele>
        <time>2021-02-14T08:52:50.000Z</time>
      </trkpt>
      <trkpt lat="47.27488" lon="-2.32682">
        <ele>6.4000000953674</ele>
        <time>2021-02-14T08:52:51.000Z</time>
      </trkpt>
      <trkpt lat="47.27495" lon="-2.32678">
        <ele>5.8000001907349</ele>
        <time>2021-02-14T08:52:52.000Z</time>
      </trkpt>
      <trkpt lat="47.27501" lon="-2.32673">
        <ele>5.8000001907349</ele>
        <time>2021-02-14T08:52:53.000Z</time>
      </trkpt>
      <trkpt lat="47.27506" lon="-2.32666">
        <ele>5.8000001907349</ele>
        <time>2021-02-14T08:52:54.000Z</time>
      </trkpt>
      <trkpt lat="47.2751" lon="-2.32658">
        <ele>5.4000000953674</ele>
        <time>2021-02-14T08:52:55.000Z</time>
      </trkpt>
      <trkpt lat="47.27513" lon="-2.32649">
        <ele>5</ele>
        <time>2021-02-14T08:52:56.000Z</time>
      </trkpt>
      <trkpt lat="47.27516" lon="-2.3264">
        <ele>4.5999999046326</ele>
        <time>2021-02-14T08:52:57.000Z</time>
      </trkpt>
      <trkpt lat="47.27519" lon="-2.32632">
        <ele>4.1999998092651</ele>
        <time>2021-02-14T08:52:58.000Z</time>
      </trkpt>
      <trkpt lat="47.27523" lon="-2.32626">
        <ele>3.7999999523163</ele>
        <time>2021-02-14T08:52:59.000Z</time>
      </trkpt>
      <trkpt lat="47.27534" lon="-2.32619">
        <ele>3.7999999523163</ele>
        <time>2021-02-14T08:53:01.000Z</time>
      </trkpt>
      <trkpt lat="47.27553" lon="-2.32598">
        <ele>3.7999999523163</ele>
        <time>2021-02-14T08:53:05.000Z</time>
      </trkpt>
      <trkpt lat="47.27557" lon="-2.32585">
        <ele>3.7999999523163</ele>
        <time>2021-02-14T08:53:07.000Z</time>
      </trkpt>
      <trkpt lat="47.27553" lon="-2.32572">
        <ele>3.7999999523163</ele>
        <time>2021-02-14T08:53:09.000Z</time>
      </trkpt>
      <trkpt lat="47.27544" lon="-2.32561">
        <ele>3.7999999523163</ele>
        <time>2021-02-14T08:53:11.000Z</time>
      </trkpt>
      <trkpt lat="47.27541" lon="-2.32555">
        <ele>3.7999999523163</ele>
        <time>2021-02-14T08:53:12.000Z</time>
      </trkpt>
      <trkpt lat="47.27538" lon="-2.32532">
        <ele>3.7999999523163</ele>
        <time>2021-02-14T08:53:16.000Z</time>
      </trkpt>
      <trkpt lat="47.2754" lon="-2.32522">
        <ele>4.1999998092651</ele>
        <time>2021-02-14T08:53:18.000Z</time>
      </trkpt>
      <trkpt lat="47.27542" lon="-2.32518">
        <ele>4.5999999046326</ele>
        <time>2021-02-14T08:53:19.000Z</time>
      </trkpt>
      <trkpt lat="47.27544" lon="-2.32514">
        <ele>5</ele>
        <time>2021-02-14T08:53:20.000Z</time>
      </trkpt>
      <trkpt lat="47.27544" lon="-2.3251">
        <ele>5.4000000953674</ele>
        <time>2021-02-14T08:53:21.000Z</time>
      </trkpt>
      <trkpt lat="47.27544" lon="-2.32505">
        <ele>5.8000001907349</ele>
        <time>2021-02-14T08:53:22.000Z</time>
      </trkpt>
      <trkpt lat="47.27544" lon="-2.32502">
        <ele>6.4000000953674</ele>
        <time>2021-02-14T08:53:23.000Z</time>
      </trkpt>
      <trkpt lat="47.27545" lon="-2.32498">
        <ele>6.8000001907349</ele>
        <time>2021-02-14T08:53:24.000Z</time>
      </trkpt>
      <trkpt lat="47.27545" lon="-2.32494">
        <ele>7.4000000953674</ele>
        <time>2021-02-14T08:53:25.000Z</time>
      </trkpt>
      <trkpt lat="47.27545" lon="-2.32491">
        <ele>7.8000001907349</ele>
        <time>2021-02-14T08:53:26.000Z</time>
      </trkpt>
      <trkpt lat="47.27545" lon="-2.32486">
        <ele>8.3999996185303</ele>
        <time>2021-02-14T08:53:27.000Z</time>
      </trkpt>
      <trkpt lat="47.27546" lon="-2.32476">
        <ele>8.8000001907349</ele>
        <time>2021-02-14T08:53:29.000Z</time>
      </trkpt>
      <trkpt lat="47.27546" lon="-2.32471">
        <ele>9.1999998092651</ele>
        <time>2021-02-14T08:53:30.000Z</time>
      </trkpt>
      <trkpt lat="47.27547" lon="-2.32466">
        <ele>9.8000001907349</ele>
        <time>2021-02-14T08:53:31.000Z</time>
      </trkpt>
      <trkpt lat="47.27548" lon="-2.32461">
        <ele>10.60000038147</ele>
        <time>2021-02-14T08:53:32.000Z</time>
      </trkpt>
      <trkpt lat="47.27563" lon="-2.32432">
        <ele>10.60000038147</ele>
        <time>2021-02-14T08:53:37.000Z</time>
      </trkpt>
      <trkpt lat="47.27568" lon="-2.3243">
        <ele>11.199999809265</ele>
        <time>2021-02-14T08:53:38.000Z</time>
      </trkpt>
      <trkpt lat="47.27571" lon="-2.32429">
        <ele>11.60000038147</ele>
        <time>2021-02-14T08:53:39.000Z</time>
      </trkpt>
      <trkpt lat="47.27575" lon="-2.32429">
        <ele>12</ele>
        <time>2021-02-14T08:53:40.000Z</time>
      </trkpt>
      <trkpt lat="47.27579" lon="-2.32429">
        <ele>12.39999961853</ele>
        <time>2021-02-14T08:53:41.000Z</time>
      </trkpt>
      <trkpt lat="47.27584" lon="-2.32432">
        <ele>12.800000190735</ele>
        <time>2021-02-14T08:53:42.000Z</time>
      </trkpt>
      <trkpt lat="47.27592" lon="-2.32437">
        <ele>12.800000190735</ele>
        <time>2021-02-14T08:53:44.000Z</time>
      </trkpt>
      <trkpt lat="47.27596" lon="-2.3244">
        <ele>12.800000190735</ele>
        <time>2021-02-14T08:53:45.000Z</time>
      </trkpt>
      <trkpt lat="47.27609" lon="-2.32456">
        <ele>12.800000190735</ele>
        <time>2021-02-14T08:53:50.000Z</time>
      </trkpt>
      <trkpt lat="47.27624" lon="-2.32482">
        <ele>12.800000190735</ele>
        <time>2021-02-14T08:53:57.000Z</time>
      </trkpt>
      <trkpt lat="47.27632" lon="-2.32512">
        <ele>12.800000190735</ele>
        <time>2021-02-14T08:54:03.000Z</time>
      </trkpt>
      <trkpt lat="47.2764" lon="-2.3255">
        <ele>12.800000190735</ele>
        <time>2021-02-14T08:54:08.000Z</time>
      </trkpt>
      <trkpt lat="47.27652" lon="-2.32595">
        <ele>12.199999809265</ele>
        <time>2021-02-14T08:54:13.000Z</time>
      </trkpt>
      <trkpt lat="47.27655" lon="-2.32605">
        <ele>11.800000190735</ele>
        <time>2021-02-14T08:54:14.000Z</time>
      </trkpt>
      <trkpt lat="47.27659" lon="-2.32616">
        <ele>11.199999809265</ele>
        <time>2021-02-14T08:54:15.000Z</time>
      </trkpt>
      <trkpt lat="47.27663" lon="-2.32627">
        <ele>10.800000190735</ele>
        <time>2021-02-14T08:54:16.000Z</time>
      </trkpt>
      <trkpt lat="47.27668" lon="-2.32639">
        <ele>10.199999809265</ele>
        <time>2021-02-14T08:54:17.000Z</time>
      </trkpt>
      <trkpt lat="47.27672" lon="-2.32649">
        <ele>9.8000001907349</ele>
        <time>2021-02-14T08:54:18.000Z</time>
      </trkpt>
      <trkpt lat="47.27677" lon="-2.32659">
        <ele>9.1999998092651</ele>
        <time>2021-02-14T08:54:19.000Z</time>
      </trkpt>
      <trkpt lat="47.27681" lon="-2.32668">
        <ele>8.8000001907349</ele>
        <time>2021-02-14T08:54:20.000Z</time>
      </trkpt>
      <trkpt lat="47.27685" lon="-2.32677">
        <ele>7.5999999046326</ele>
        <time>2021-02-14T08:54:21.000Z</time>
      </trkpt>
      <trkpt lat="47.27689" lon="-2.32684">
        <ele>7.1999998092651</ele>
        <time>2021-02-14T08:54:22.000Z</time>
      </trkpt>
      <trkpt lat="47.27693" lon="-2.32691">
        <ele>6.5999999046326</ele>
        <time>2021-02-14T08:54:23.000Z</time>
      </trkpt>
      <trkpt lat="47.27695" lon="-2.32696">
        <ele>6</ele>
        <time>2021-02-14T08:54:24.000Z</time>
      </trkpt>
      <trkpt lat="47.27697" lon="-2.32699">
        <ele>5.4000000953674</ele>
        <time>2021-02-14T08:54:25.000Z</time>
      </trkpt>
      <trkpt lat="47.27699" lon="-2.32702">
        <ele>5</ele>
        <time>2021-02-14T08:54:26.000Z</time>
      </trkpt>
      <trkpt lat="47.277" lon="-2.32704">
        <ele>4.5999999046326</ele>
        <time>2021-02-14T08:54:27.000Z</time>
      </trkpt>
      <trkpt lat="47.27701" lon="-2.32706">
        <ele>4.1999998092651</ele>
        <time>2021-02-14T08:54:28.000Z</time>
      </trkpt>
      <trkpt lat="47.27703" lon="-2.32708">
        <ele>3.7999999523163</ele>
        <time>2021-02-14T08:54:29.000Z</time>
      </trkpt>
      <trkpt lat="47.27704" lon="-2.3271">
        <ele>3.4000000953674</ele>
        <time>2021-02-14T08:54:30.000Z</time>
      </trkpt>
      <trkpt lat="47.27705" lon="-2.32718">
        <ele>3.4000000953674</ele>
        <time>2021-02-14T08:54:34.000Z</time>
      </trkpt>
      <trkpt lat="47.27699" lon="-2.32725">
        <ele>3.4000000953674</ele>
        <time>2021-02-14T08:54:39.000Z</time>
      </trkpt>
      <trkpt lat="47.27686" lon="-2.32733">
        <ele>3.4000000953674</ele>
        <time>2021-02-14T08:54:44.000Z</time>
      </trkpt>
      <trkpt lat="47.27668" lon="-2.32724">
        <ele>3.4000000953674</ele>
        <time>2021-02-14T08:54:50.000Z</time>
      </trkpt>
      <trkpt lat="47.27648" lon="-2.32711">
        <ele>3.4000000953674</ele>
        <time>2021-02-14T08:54:57.000Z</time>
      </trkpt>
      <trkpt lat="47.27632" lon="-2.32702">
        <ele>3.4000000953674</ele>
        <time>2021-02-14T08:55:03.000Z</time>
      </trkpt>
      <trkpt lat="47.27623" lon="-2.32691">
        <ele>3.4000000953674</ele>
        <time>2021-02-14T08:55:08.000Z</time>
      </trkpt>
      <trkpt lat="47.27615" lon="-2.32692">
        <ele>3.4000000953674</ele>
        <time>2021-02-14T08:55:11.000Z</time>
      </trkpt>
      <trkpt lat="47.27607" lon="-2.32696">
        <ele>3.4000000953674</ele>
        <time>2021-02-14T08:55:13.000Z</time>
      </trkpt>
      <trkpt lat="47.27597" lon="-2.32717">
        <ele>3.4000000953674</ele>
        <time>2021-02-14T08:55:18.000Z</time>
      </trkpt>
      <trkpt lat="47.27589" lon="-2.32736">
        <ele>3.4000000953674</ele>
        <time>2021-02-14T08:55:24.000Z</time>
      </trkpt>
      <trkpt lat="47.27588" lon="-2.32744">
        <ele>3.7999999523163</ele>
        <time>2021-02-14T08:55:27.000Z</time>
      </trkpt>
      <trkpt lat="47.27588" lon="-2.32748">
        <ele>4.4000000953674</ele>
        <time>2021-02-14T08:55:28.000Z</time>
      </trkpt>
      <trkpt lat="47.27588" lon="-2.32749">
        <ele>4.8000001907349</ele>
        <time>2021-02-14T08:55:29.000Z</time>
      </trkpt>
      <trkpt lat="47.27587" lon="-2.32752">
        <ele>5.4000000953674</ele>
        <time>2021-02-14T08:55:30.000Z</time>
      </trkpt>
      <trkpt lat="47.27587" lon="-2.32754">
        <ele>5.8000001907349</ele>
        <time>2021-02-14T08:55:31.000Z</time>
      </trkpt>
      <trkpt lat="47.27586" lon="-2.32761">
        <ele>6.1999998092651</ele>
        <time>2021-02-14T08:55:33.000Z</time>
      </trkpt>
      <trkpt lat="47.27585" lon="-2.32765">
        <ele>6.5999999046326</ele>
        <time>2021-02-14T08:55:34.000Z</time>
      </trkpt>
      <trkpt lat="47.27584" lon="-2.32768">
        <ele>7.5999999046326</ele>
        <time>2021-02-14T08:55:35.000Z</time>
      </trkpt>
      <trkpt lat="47.27583" lon="-2.3277">
        <ele>8</ele>
        <time>2021-02-14T08:55:36.000Z</time>
      </trkpt>
      <trkpt lat="47.27577" lon="-2.32786">
        <ele>8</ele>
        <time>2021-02-14T08:55:41.000Z</time>
      </trkpt>
      <trkpt lat="47.27577" lon="-2.32789">
        <ele>8</ele>
        <time>2021-02-14T08:55:42.000Z</time>
      </trkpt>
      <trkpt lat="47.27574" lon="-2.32802">
        <ele>8</ele>
        <time>2021-02-14T08:55:45.000Z</time>
      </trkpt>
      <trkpt lat="47.27572" lon="-2.32806">
        <ele>8</ele>
        <time>2021-02-14T08:55:46.000Z</time>
      </trkpt>
      <trkpt lat="47.27569" lon="-2.32816">
        <ele>8.3999996185303</ele>
        <time>2021-02-14T08:55:49.000Z</time>
      </trkpt>
      <trkpt lat="47.27568" lon="-2.32819">
        <ele>8.8000001907349</ele>
        <time>2021-02-14T08:55:50.000Z</time>
      </trkpt>
      <trkpt lat="47.27567" lon="-2.32822">
        <ele>9.3999996185303</ele>
        <time>2021-02-14T08:55:51.000Z</time>
      </trkpt>
      <trkpt lat="47.27566" lon="-2.32825">
        <ele>9.8000001907349</ele>
        <time>2021-02-14T08:55:52.000Z</time>
      </trkpt>
      <trkpt lat="47.27565" lon="-2.32828">
        <ele>10.199999809265</ele>
        <time>2021-02-14T08:55:53.000Z</time>
      </trkpt>
      <trkpt lat="47.27558" lon="-2.32838">
        <ele>10.199999809265</ele>
        <time>2021-02-14T08:55:57.000Z</time>
      </trkpt>
      <trkpt lat="47.27547" lon="-2.32854">
        <ele>10.199999809265</ele>
        <time>2021-02-14T08:56:02.000Z</time>
      </trkpt>
      <trkpt lat="47.27547" lon="-2.32858">
        <ele>10.199999809265</ele>
        <time>2021-02-14T08:56:03.000Z</time>
      </trkpt>
      <trkpt lat="47.27549" lon="-2.32865">
        <ele>10.60000038147</ele>
        <time>2021-02-14T08:56:05.000Z</time>
      </trkpt>
      <trkpt lat="47.27551" lon="-2.32868">
        <ele>11</ele>
        <time>2021-02-14T08:56:06.000Z</time>
      </trkpt>
      <trkpt lat="47.27553" lon="-2.32872">
        <ele>11.39999961853</ele>
        <time>2021-02-14T08:56:07.000Z</time>
      </trkpt>
      <trkpt lat="47.27555" lon="-2.32875">
        <ele>11.800000190735</ele>
        <time>2021-02-14T08:56:08.000Z</time>
      </trkpt>
      <trkpt lat="47.27557" lon="-2.32879">
        <ele>12.39999961853</ele>
        <time>2021-02-14T08:56:09.000Z</time>
      </trkpt>
      <trkpt lat="47.27566" lon="-2.32906">
        <ele>12.39999961853</ele>
        <time>2021-02-14T08:56:15.000Z</time>
      </trkpt>
      <trkpt lat="47.27557" lon="-2.32929">
        <ele>12.39999961853</ele>
        <time>2021-02-14T08:56:20.000Z</time>
      </trkpt>
      <trkpt lat="47.2755" lon="-2.32946">
        <ele>12.39999961853</ele>
        <time>2021-02-14T08:56:25.000Z</time>
      </trkpt>
      <trkpt lat="47.27547" lon="-2.32953">
        <ele>12.39999961853</ele>
        <time>2021-02-14T08:56:30.000Z</time>
      </trkpt>
      <trkpt lat="47.27545" lon="-2.32957">
        <ele>12.39999961853</ele>
        <time>2021-02-14T08:56:32.000Z</time>
      </trkpt>
      <trkpt lat="47.2754" lon="-2.32957">
        <ele>12.39999961853</ele>
        <time>2021-02-14T08:56:35.000Z</time>
      </trkpt>
      <trkpt lat="47.27542" lon="-2.32948">
        <ele>12.39999961853</ele>
        <time>2021-02-14T08:56:38.000Z</time>
      </trkpt>
      <trkpt lat="47.27545" lon="-2.32943">
        <ele>12.39999961853</ele>
        <time>2021-02-14T08:56:40.000Z</time>
      </trkpt>
      <trkpt lat="47.27551" lon="-2.32931">
        <ele>12.39999961853</ele>
        <time>2021-02-14T08:56:43.000Z</time>
      </trkpt>
      <trkpt lat="47.27565" lon="-2.32902">
        <ele>12.39999961853</ele>
        <time>2021-02-14T08:56:51.000Z</time>
      </trkpt>
      <trkpt lat="47.27567" lon="-2.32892">
        <ele>12.39999961853</ele>
        <time>2021-02-14T08:56:55.000Z</time>
      </trkpt>
      <trkpt lat="47.27568" lon="-2.32893">
        <ele>12.39999961853</ele>
        <time>2021-02-14T08:56:56.000Z</time>
      </trkpt>
      <trkpt lat="47.27573" lon="-2.32898">
        <ele>12.39999961853</ele>
        <time>2021-02-14T08:57:00.000Z</time>
      </trkpt>
      <trkpt lat="47.27574" lon="-2.32899">
        <ele>12.39999961853</ele>
        <time>2021-02-14T08:57:04.000Z</time>
      </trkpt>
      <trkpt lat="47.2758" lon="-2.32904">
        <ele>12.39999961853</ele>
        <time>2021-02-14T08:57:20.000Z</time>
      </trkpt>
      <trkpt lat="47.27586" lon="-2.32909">
        <ele>12.39999961853</ele>
        <time>2021-02-14T08:57:23.000Z</time>
      </trkpt>
      <trkpt lat="47.27588" lon="-2.3291">
        <ele>12.800000190735</ele>
        <time>2021-02-14T08:57:24.000Z</time>
      </trkpt>
      <trkpt lat="47.2759" lon="-2.32912">
        <ele>13.199999809265</ele>
        <time>2021-02-14T08:57:25.000Z</time>
      </trkpt>
      <trkpt lat="47.27592" lon="-2.32914">
        <ele>13.60000038147</ele>
        <time>2021-02-14T08:57:26.000Z</time>
      </trkpt>
      <trkpt lat="47.27595" lon="-2.32917">
        <ele>14</ele>
        <time>2021-02-14T08:57:27.000Z</time>
      </trkpt>
      <trkpt lat="47.27598" lon="-2.3292">
        <ele>14.39999961853</ele>
        <time>2021-02-14T08:57:28.000Z</time>
      </trkpt>
      <trkpt lat="47.27601" lon="-2.32923">
        <ele>14.39999961853</ele>
        <time>2021-02-14T08:57:29.000Z</time>
      </trkpt>
      <trkpt lat="47.27625" lon="-2.32943">
        <ele>14.39999961853</ele>
        <time>2021-02-14T08:57:36.000Z</time>
      </trkpt>
      <trkpt lat="47.27644" lon="-2.32961">
        <ele>14.39999961853</ele>
        <time>2021-02-14T08:57:42.000Z</time>
      </trkpt>
      <trkpt lat="47.27661" lon="-2.32975">
        <ele>14.39999961853</ele>
        <time>2021-02-14T08:57:47.000Z</time>
      </trkpt>
      <trkpt lat="47.27671" lon="-2.3298">
        <ele>14.39999961853</ele>
        <time>2021-02-14T08:57:51.000Z</time>
      </trkpt>
      <trkpt lat="47.27673" lon="-2.32983">
        <ele>14.39999961853</ele>
        <time>2021-02-14T08:57:52.000Z</time>
      </trkpt>
      <trkpt lat="47.27679" lon="-2.32989">
        <ele>14.39999961853</ele>
        <time>2021-02-14T08:57:54.000Z</time>
      </trkpt>
      <trkpt lat="47.27687" lon="-2.32994">
        <ele>14.39999961853</ele>
        <time>2021-02-14T08:57:56.000Z</time>
      </trkpt>
      <trkpt lat="47.27699" lon="-2.33001">
        <ele>14.39999961853</ele>
        <time>2021-02-14T08:57:59.000Z</time>
      </trkpt>
      <trkpt lat="47.27703" lon="-2.33004">
        <ele>14.39999961853</ele>
        <time>2021-02-14T08:58:00.000Z</time>
      </trkpt>
      <trkpt lat="47.27719" lon="-2.33007">
        <ele>14.39999961853</ele>
        <time>2021-02-14T08:58:04.000Z</time>
      </trkpt>
      <trkpt lat="47.27721" lon="-2.32995">
        <ele>14.39999961853</ele>
        <time>2021-02-14T08:58:06.000Z</time>
      </trkpt>
      <trkpt lat="47.27722" lon="-2.32977">
        <ele>14.39999961853</ele>
        <time>2021-02-14T08:58:09.000Z</time>
      </trkpt>
      <trkpt lat="47.27729" lon="-2.32979">
        <ele>14.39999961853</ele>
        <time>2021-02-14T08:58:11.000Z</time>
      </trkpt>
      <trkpt lat="47.2773" lon="-2.32992">
        <ele>14.39999961853</ele>
        <time>2021-02-14T08:58:13.000Z</time>
      </trkpt>
      <trkpt lat="47.27729" lon="-2.32998">
        <ele>14.39999961853</ele>
        <time>2021-02-14T08:58:14.000Z</time>
      </trkpt>
      <trkpt lat="47.27731" lon="-2.33015">
        <ele>14.39999961853</ele>
        <time>2021-02-14T08:58:17.000Z</time>
      </trkpt>
      <trkpt lat="47.27737" lon="-2.33009">
        <ele>14.39999961853</ele>
        <time>2021-02-14T08:58:20.000Z</time>
      </trkpt>
      <trkpt lat="47.27737" lon="-2.32982">
        <ele>14.39999961853</ele>
        <time>2021-02-14T08:58:25.000Z</time>
      </trkpt>
      <trkpt lat="47.27736" lon="-2.32947">
        <ele>14.39999961853</ele>
        <time>2021-02-14T08:58:29.000Z</time>
      </trkpt>
      <trkpt lat="47.27734" lon="-2.3294">
        <ele>14.39999961853</ele>
        <time>2021-02-14T08:58:30.000Z</time>
      </trkpt>
      <trkpt lat="47.27725" lon="-2.32937">
        <ele>14.39999961853</ele>
        <time>2021-02-14T08:58:32.000Z</time>
      </trkpt>
      <trkpt lat="47.27717" lon="-2.32947">
        <ele>14.39999961853</ele>
        <time>2021-02-14T08:58:34.000Z</time>
      </trkpt>
      <trkpt lat="47.27712" lon="-2.32965">
        <ele>14.39999961853</ele>
        <time>2021-02-14T08:58:37.000Z</time>
      </trkpt>
      <trkpt lat="47.2771" lon="-2.3297">
        <ele>14.39999961853</ele>
        <time>2021-02-14T08:58:38.000Z</time>
      </trkpt>
      <trkpt lat="47.27698" lon="-2.32976">
        <ele>14.39999961853</ele>
        <time>2021-02-14T08:58:41.000Z</time>
      </trkpt>
      <trkpt lat="47.27693" lon="-2.32992">
        <ele>14.39999961853</ele>
        <time>2021-02-14T08:58:44.000Z</time>
      </trkpt>
      <trkpt lat="47.27701" lon="-2.33007">
        <ele>14.39999961853</ele>
        <time>2021-02-14T08:58:47.000Z</time>
      </trkpt>
      <trkpt lat="47.27704" lon="-2.3301">
        <ele>14.39999961853</ele>
        <time>2021-02-14T08:58:48.000Z</time>
      </trkpt>
      <trkpt lat="47.27707" lon="-2.33014">
        <ele>14.39999961853</ele>
        <time>2021-02-14T08:58:49.000Z</time>
      </trkpt>
      <trkpt lat="47.27712" lon="-2.33022">
        <ele>14.39999961853</ele>
        <time>2021-02-14T08:58:51.000Z</time>
      </trkpt>
      <trkpt lat="47.27722" lon="-2.3303">
        <ele>14.39999961853</ele>
        <time>2021-02-14T08:58:55.000Z</time>
      </trkpt>
      <trkpt lat="47.27731" lon="-2.33037">
        <ele>14.39999961853</ele>
        <time>2021-02-14T08:59:00.000Z</time>
      </trkpt>
      <trkpt lat="47.27733" lon="-2.33037">
        <ele>14.39999961853</ele>
        <time>2021-02-14T08:59:01.000Z</time>
      </trkpt>
      <trkpt lat="47.27736" lon="-2.33028">
        <ele>14.39999961853</ele>
        <time>2021-02-14T08:59:04.000Z</time>
      </trkpt>
      <trkpt lat="47.27735" lon="-2.33022">
        <ele>14.39999961853</ele>
        <time>2021-02-14T08:59:07.000Z</time>
      </trkpt>
      <trkpt lat="47.27736" lon="-2.33029">
        <ele>14.39999961853</ele>
        <time>2021-02-14T09:00:30.000Z</time>
      </trkpt>
      <trkpt lat="47.27741" lon="-2.33043">
        <ele>14.39999961853</ele>
        <time>2021-02-14T09:00:35.000Z</time>
      </trkpt>
      <trkpt lat="47.27751" lon="-2.33053">
        <ele>14.39999961853</ele>
        <time>2021-02-14T09:00:39.000Z</time>
      </trkpt>
      <trkpt lat="47.27755" lon="-2.33067">
        <ele>14.39999961853</ele>
        <time>2021-02-14T09:00:42.000Z</time>
      </trkpt>
      <trkpt lat="47.27755" lon="-2.33073">
        <ele>14.39999961853</ele>
        <time>2021-02-14T09:00:43.000Z</time>
      </trkpt>
      <trkpt lat="47.27758" lon="-2.33114">
        <ele>14.39999961853</ele>
        <time>2021-02-14T09:00:50.000Z</time>
      </trkpt>
      <trkpt lat="47.27764" lon="-2.33142">
        <ele>14.39999961853</ele>
        <time>2021-02-14T09:00:55.000Z</time>
      </trkpt>
      <trkpt lat="47.27767" lon="-2.33148">
        <ele>14.39999961853</ele>
        <time>2021-02-14T09:00:56.000Z</time>
      </trkpt>
      <trkpt lat="47.27768" lon="-2.33174">
        <ele>14.39999961853</ele>
        <time>2021-02-14T09:01:00.000Z</time>
      </trkpt>
      <trkpt lat="47.27765" lon="-2.33194">
        <ele>14.39999961853</ele>
        <time>2021-02-14T09:01:03.000Z</time>
      </trkpt>
      <trkpt lat="47.27766" lon="-2.33209">
        <ele>14.39999961853</ele>
        <time>2021-02-14T09:01:05.000Z</time>
      </trkpt>
      <trkpt lat="47.27768" lon="-2.33223">
        <ele>14.39999961853</ele>
        <time>2021-02-14T09:01:07.000Z</time>
      </trkpt>
      <trkpt lat="47.27771" lon="-2.3326">
        <ele>14.39999961853</ele>
        <time>2021-02-14T09:01:12.000Z</time>
      </trkpt>
      <trkpt lat="47.27774" lon="-2.33296">
        <ele>14.800000190735</ele>
        <time>2021-02-14T09:01:17.000Z</time>
      </trkpt>
      <trkpt lat="47.27774" lon="-2.33303">
        <ele>15.199999809265</ele>
        <time>2021-02-14T09:01:18.000Z</time>
      </trkpt>
      <trkpt lat="47.27775" lon="-2.33311">
        <ele>15.60000038147</ele>
        <time>2021-02-14T09:01:19.000Z</time>
      </trkpt>
      <trkpt lat="47.27776" lon="-2.33318">
        <ele>16</ele>
        <time>2021-02-14T09:01:20.000Z</time>
      </trkpt>
      <trkpt lat="47.27776" lon="-2.33325">
        <ele>16.39999961853</ele>
        <time>2021-02-14T09:01:21.000Z</time>
      </trkpt>
      <trkpt lat="47.27777" lon="-2.33347">
        <ele>16.39999961853</ele>
        <time>2021-02-14T09:01:24.000Z</time>
      </trkpt>
      <trkpt lat="47.27778" lon="-2.33369">
        <ele>16.39999961853</ele>
        <time>2021-02-14T09:01:27.000Z</time>
      </trkpt>
      <trkpt lat="47.27775" lon="-2.33441">
        <ele>16.39999961853</ele>
        <time>2021-02-14T09:01:37.000Z</time>
      </trkpt>
      <trkpt lat="47.27774" lon="-2.33462">
        <ele>16.799999237061</ele>
        <time>2021-02-14T09:01:40.000Z</time>
      </trkpt>
      <trkpt lat="47.27774" lon="-2.3347">
        <ele>17.200000762939</ele>
        <time>2021-02-14T09:01:41.000Z</time>
      </trkpt>
      <trkpt lat="47.27773" lon="-2.33477">
        <ele>17.60000038147</ele>
        <time>2021-02-14T09:01:42.000Z</time>
      </trkpt>
      <trkpt lat="47.27772" lon="-2.33484">
        <ele>18</ele>
        <time>2021-02-14T09:01:43.000Z</time>
      </trkpt>
      <trkpt lat="47.27772" lon="-2.33491">
        <ele>18.39999961853</ele>
        <time>2021-02-14T09:01:44.000Z</time>
      </trkpt>
      <trkpt lat="47.2777" lon="-2.33533">
        <ele>18.39999961853</ele>
        <time>2021-02-14T09:01:50.000Z</time>
      </trkpt>
      <trkpt lat="47.2777" lon="-2.33585">
        <ele>18.39999961853</ele>
        <time>2021-02-14T09:01:57.000Z</time>
      </trkpt>
      <trkpt lat="47.27773" lon="-2.3365">
        <ele>18.39999961853</ele>
        <time>2021-02-14T09:02:06.000Z</time>
      </trkpt>
      <trkpt lat="47.27773" lon="-2.33657">
        <ele>18.39999961853</ele>
        <time>2021-02-14T09:02:07.000Z</time>
      </trkpt>
      <trkpt lat="47.27769" lon="-2.3367">
        <ele>18.39999961853</ele>
        <time>2021-02-14T09:02:09.000Z</time>
      </trkpt>
      <trkpt lat="47.27761" lon="-2.33679">
        <ele>18.799999237061</ele>
        <time>2021-02-14T09:02:11.000Z</time>
      </trkpt>
      <trkpt lat="47.27757" lon="-2.33683">
        <ele>19.200000762939</ele>
        <time>2021-02-14T09:02:12.000Z</time>
      </trkpt>
      <trkpt lat="47.27753" lon="-2.33687">
        <ele>19.60000038147</ele>
        <time>2021-02-14T09:02:13.000Z</time>
      </trkpt>
      <trkpt lat="47.27748" lon="-2.33691">
        <ele>20</ele>
        <time>2021-02-14T09:02:14.000Z</time>
      </trkpt>
      <trkpt lat="47.27744" lon="-2.33695">
        <ele>20.39999961853</ele>
        <time>2021-02-14T09:02:15.000Z</time>
      </trkpt>
      <trkpt lat="47.27726" lon="-2.33713">
        <ele>20.39999961853</ele>
        <time>2021-02-14T09:02:19.000Z</time>
      </trkpt>
      <trkpt lat="47.2772" lon="-2.3374">
        <ele>20.39999961853</ele>
        <time>2021-02-14T09:02:23.000Z</time>
      </trkpt>
      <trkpt lat="47.27719" lon="-2.33771">
        <ele>20.39999961853</ele>
        <time>2021-02-14T09:02:27.000Z</time>
      </trkpt>
      <trkpt lat="47.27721" lon="-2.33786">
        <ele>20.799999237061</ele>
        <time>2021-02-14T09:02:29.000Z</time>
      </trkpt>
      <trkpt lat="47.27723" lon="-2.33793">
        <ele>21.200000762939</ele>
        <time>2021-02-14T09:02:30.000Z</time>
      </trkpt>
      <trkpt lat="47.27725" lon="-2.338">
        <ele>21.60000038147</ele>
        <time>2021-02-14T09:02:31.000Z</time>
      </trkpt>
      <trkpt lat="47.27727" lon="-2.33807">
        <ele>22</ele>
        <time>2021-02-14T09:02:32.000Z</time>
      </trkpt>
      <trkpt lat="47.27729" lon="-2.33814">
        <ele>22.39999961853</ele>
        <time>2021-02-14T09:02:33.000Z</time>
      </trkpt>
      <trkpt lat="47.27737" lon="-2.33836">
        <ele>22.39999961853</ele>
        <time>2021-02-14T09:02:36.000Z</time>
      </trkpt>
      <trkpt lat="47.2776" lon="-2.33905">
        <ele>22.39999961853</ele>
        <time>2021-02-14T09:02:45.000Z</time>
      </trkpt>
      <trkpt lat="47.27775" lon="-2.33957">
        <ele>22.39999961853</ele>
        <time>2021-02-14T09:02:52.000Z</time>
      </trkpt>
      <trkpt lat="47.2779" lon="-2.34015">
        <ele>22.39999961853</ele>
        <time>2021-02-14T09:03:00.000Z</time>
      </trkpt>
      <trkpt lat="47.2779" lon="-2.34021">
        <ele>22.39999961853</ele>
        <time>2021-02-14T09:03:01.000Z</time>
      </trkpt>
      <trkpt lat="47.27786" lon="-2.34031">
        <ele>22.39999961853</ele>
        <time>2021-02-14T09:03:03.000Z</time>
      </trkpt>
      <trkpt lat="47.27774" lon="-2.34058">
        <ele>22.39999961853</ele>
        <time>2021-02-14T09:03:08.000Z</time>
      </trkpt>
      <trkpt lat="47.27767" lon="-2.34073">
        <ele>22.39999961853</ele>
        <time>2021-02-14T09:03:11.000Z</time>
      </trkpt>
      <trkpt lat="47.27765" lon="-2.34076">
        <ele>22.39999961853</ele>
        <time>2021-02-14T09:03:12.000Z</time>
      </trkpt>
      <trkpt lat="47.27765" lon="-2.34078">
        <ele>22.39999961853</ele>
        <time>2021-02-14T09:03:13.000Z</time>
      </trkpt>
      <trkpt lat="47.27766" lon="-2.34082">
        <ele>22.39999961853</ele>
        <time>2021-02-14T09:03:15.000Z</time>
      </trkpt>
      <trkpt lat="47.2777" lon="-2.34082">
        <ele>22.39999961853</ele>
        <time>2021-02-14T09:03:19.000Z</time>
      </trkpt>
      <trkpt lat="47.27772" lon="-2.34081">
        <ele>22.39999961853</ele>
        <time>2021-02-14T09:03:30.000Z</time>
      </trkpt>
      <trkpt lat="47.27778" lon="-2.34085">
        <ele>22.39999961853</ele>
        <time>2021-02-14T09:03:33.000Z</time>
      </trkpt>
      <trkpt lat="47.27781" lon="-2.34089">
        <ele>22.39999961853</ele>
        <time>2021-02-14T09:03:34.000Z</time>
      </trkpt>
      <trkpt lat="47.27791" lon="-2.341">
        <ele>22.39999961853</ele>
        <time>2021-02-14T09:03:37.000Z</time>
      </trkpt>
      <trkpt lat="47.27801" lon="-2.34113">
        <ele>22.39999961853</ele>
        <time>2021-02-14T09:03:40.000Z</time>
      </trkpt>
      <trkpt lat="47.27812" lon="-2.34125">
        <ele>22.39999961853</ele>
        <time>2021-02-14T09:03:43.000Z</time>
      </trkpt>
      <trkpt lat="47.27836" lon="-2.34152">
        <ele>22.39999961853</ele>
        <time>2021-02-14T09:03:49.000Z</time>
      </trkpt>
      <trkpt lat="47.27848" lon="-2.34174">
        <ele>22.39999961853</ele>
        <time>2021-02-14T09:03:53.000Z</time>
      </trkpt>
      <trkpt lat="47.27866" lon="-2.34213">
        <ele>22.39999961853</ele>
        <time>2021-02-14T09:04:00.000Z</time>
      </trkpt>
      <trkpt lat="47.27881" lon="-2.34247">
        <ele>22.39999961853</ele>
        <time>2021-02-14T09:04:06.000Z</time>
      </trkpt>
      <trkpt lat="47.27901" lon="-2.34282">
        <ele>22.39999961853</ele>
        <time>2021-02-14T09:04:12.000Z</time>
      </trkpt>
      <trkpt lat="47.27922" lon="-2.34322">
        <ele>22.39999961853</ele>
        <time>2021-02-14T09:04:18.000Z</time>
      </trkpt>
      <trkpt lat="47.27951" lon="-2.34373">
        <ele>22.39999961853</ele>
        <time>2021-02-14T09:04:25.000Z</time>
      </trkpt>
      <trkpt lat="47.27978" lon="-2.34412">
        <ele>22.39999961853</ele>
        <time>2021-02-14T09:04:31.000Z</time>
      </trkpt>
      <trkpt lat="47.28005" lon="-2.34451">
        <ele>22.39999961853</ele>
        <time>2021-02-14T09:04:37.000Z</time>
      </trkpt>
      <trkpt lat="47.28008" lon="-2.34476">
        <ele>22.39999961853</ele>
        <time>2021-02-14T09:04:40.000Z</time>
      </trkpt>
      <trkpt lat="47.27995" lon="-2.34508">
        <ele>22.39999961853</ele>
        <time>2021-02-14T09:04:44.000Z</time>
      </trkpt>
      <trkpt lat="47.27979" lon="-2.34539">
        <ele>22.39999961853</ele>
        <time>2021-02-14T09:04:48.000Z</time>
      </trkpt>
      <trkpt lat="47.27977" lon="-2.34557">
        <ele>22.39999961853</ele>
        <time>2021-02-14T09:04:50.000Z</time>
      </trkpt>
      <trkpt lat="47.27983" lon="-2.34587">
        <ele>22.39999961853</ele>
        <time>2021-02-14T09:04:54.000Z</time>
      </trkpt>
      <trkpt lat="47.27986" lon="-2.34594">
        <ele>22.39999961853</ele>
        <time>2021-02-14T09:04:55.000Z</time>
      </trkpt>
      <trkpt lat="47.27995" lon="-2.34632">
        <ele>22.39999961853</ele>
        <time>2021-02-14T09:05:00.000Z</time>
      </trkpt>
      <trkpt lat="47.27996" lon="-2.34639">
        <ele>22.39999961853</ele>
        <time>2021-02-14T09:05:01.000Z</time>
      </trkpt>
      <trkpt lat="47.28001" lon="-2.34671">
        <ele>22.39999961853</ele>
        <time>2021-02-14T09:05:05.000Z</time>
      </trkpt>
      <trkpt lat="47.28003" lon="-2.34688">
        <ele>22.39999961853</ele>
        <time>2021-02-14T09:05:07.000Z</time>
      </trkpt>
      <trkpt lat="47.28003" lon="-2.34713">
        <ele>22.39999961853</ele>
        <time>2021-02-14T09:05:10.000Z</time>
      </trkpt>
      <trkpt lat="47.28008" lon="-2.34773">
        <ele>22.39999961853</ele>
        <time>2021-02-14T09:05:17.000Z</time>
      </trkpt>
      <trkpt lat="47.28011" lon="-2.34781">
        <ele>22.39999961853</ele>
        <time>2021-02-14T09:05:18.000Z</time>
      </trkpt>
      <trkpt lat="47.28016" lon="-2.34797">
        <ele>22.39999961853</ele>
        <time>2021-02-14T09:05:20.000Z</time>
      </trkpt>
      <trkpt lat="47.28022" lon="-2.34811">
        <ele>22.39999961853</ele>
        <time>2021-02-14T09:05:22.000Z</time>
      </trkpt>
      <trkpt lat="47.28038" lon="-2.34853">
        <ele>22</ele>
        <time>2021-02-14T09:05:28.000Z</time>
      </trkpt>
      <trkpt lat="47.28041" lon="-2.34861">
        <ele>21.200000762939</ele>
        <time>2021-02-14T09:05:29.000Z</time>
      </trkpt>
      <trkpt lat="47.28044" lon="-2.34869">
        <ele>20.799999237061</ele>
        <time>2021-02-14T09:05:30.000Z</time>
      </trkpt>
      <trkpt lat="47.28046" lon="-2.34877">
        <ele>20.39999961853</ele>
        <time>2021-02-14T09:05:31.000Z</time>
      </trkpt>
      <trkpt lat="47.28057" lon="-2.34919">
        <ele>20.39999961853</ele>
        <time>2021-02-14T09:05:36.000Z</time>
      </trkpt>
      <trkpt lat="47.28066" lon="-2.34976">
        <ele>20.39999961853</ele>
        <time>2021-02-14T09:05:42.000Z</time>
      </trkpt>
      <trkpt lat="47.28069" lon="-2.34985">
        <ele>20</ele>
        <time>2021-02-14T09:05:43.000Z</time>
      </trkpt>
      <trkpt lat="47.28072" lon="-2.34994">
        <ele>19.39999961853</ele>
        <time>2021-02-14T09:05:44.000Z</time>
      </trkpt>
      <trkpt lat="47.28075" lon="-2.35002">
        <ele>19</ele>
        <time>2021-02-14T09:05:45.000Z</time>
      </trkpt>
      <trkpt lat="47.28078" lon="-2.35009">
        <ele>18.60000038147</ele>
        <time>2021-02-14T09:05:46.000Z</time>
      </trkpt>
      <trkpt lat="47.28082" lon="-2.35016">
        <ele>18.200000762939</ele>
        <time>2021-02-14T09:05:47.000Z</time>
      </trkpt>
      <trkpt lat="47.28114" lon="-2.35068">
        <ele>18.200000762939</ele>
        <time>2021-02-14T09:05:55.000Z</time>
      </trkpt>
      <trkpt lat="47.28142" lon="-2.35108">
        <ele>18.200000762939</ele>
        <time>2021-02-14T09:06:02.000Z</time>
      </trkpt>
      <trkpt lat="47.28169" lon="-2.35134">
        <ele>18.200000762939</ele>
        <time>2021-02-14T09:06:08.000Z</time>
      </trkpt>
      <trkpt lat="47.28172" lon="-2.35139">
        <ele>18.60000038147</ele>
        <time>2021-02-14T09:06:09.000Z</time>
      </trkpt>
      <trkpt lat="47.28176" lon="-2.35145">
        <ele>19</ele>
        <time>2021-02-14T09:06:10.000Z</time>
      </trkpt>
      <trkpt lat="47.28179" lon="-2.35151">
        <ele>19.60000038147</ele>
        <time>2021-02-14T09:06:11.000Z</time>
      </trkpt>
      <trkpt lat="47.28182" lon="-2.35157">
        <ele>20</ele>
        <time>2021-02-14T09:06:12.000Z</time>
      </trkpt>
      <trkpt lat="47.28185" lon="-2.35163">
        <ele>20.39999961853</ele>
        <time>2021-02-14T09:06:13.000Z</time>
      </trkpt>
      <trkpt lat="47.28208" lon="-2.35203">
        <ele>20.39999961853</ele>
        <time>2021-02-14T09:06:20.000Z</time>
      </trkpt>
      <trkpt lat="47.28229" lon="-2.35245">
        <ele>20.39999961853</ele>
        <time>2021-02-14T09:06:27.000Z</time>
      </trkpt>
      <trkpt lat="47.28233" lon="-2.35249">
        <ele>20.39999961853</ele>
        <time>2021-02-14T09:06:28.000Z</time>
      </trkpt>
      <trkpt lat="47.28242" lon="-2.35251">
        <ele>20.39999961853</ele>
        <time>2021-02-14T09:06:30.000Z</time>
      </trkpt>
      <trkpt lat="47.28255" lon="-2.35241">
        <ele>20.39999961853</ele>
        <time>2021-02-14T09:06:33.000Z</time>
      </trkpt>
      <trkpt lat="47.28264" lon="-2.35235">
        <ele>20.39999961853</ele>
        <time>2021-02-14T09:06:35.000Z</time>
      </trkpt>
      <trkpt lat="47.28274" lon="-2.3523">
        <ele>20.39999961853</ele>
        <time>2021-02-14T09:06:37.000Z</time>
      </trkpt>
      <trkpt lat="47.28283" lon="-2.35234">
        <ele>20.39999961853</ele>
        <time>2021-02-14T09:06:39.000Z</time>
      </trkpt>
      <trkpt lat="47.28295" lon="-2.35249">
        <ele>20.39999961853</ele>
        <time>2021-02-14T09:06:42.000Z</time>
      </trkpt>
      <trkpt lat="47.28303" lon="-2.35261">
        <ele>20.39999961853</ele>
        <time>2021-02-14T09:06:44.000Z</time>
      </trkpt>
      <trkpt lat="47.28313" lon="-2.35285">
        <ele>20.39999961853</ele>
        <time>2021-02-14T09:06:48.000Z</time>
      </trkpt>
      <trkpt lat="47.28314" lon="-2.35299">
        <ele>20.39999961853</ele>
        <time>2021-02-14T09:06:50.000Z</time>
      </trkpt>
      <trkpt lat="47.28319" lon="-2.35308">
        <ele>20.39999961853</ele>
        <time>2021-02-14T09:06:52.000Z</time>
      </trkpt>
      <trkpt lat="47.28323" lon="-2.35309">
        <ele>20.39999961853</ele>
        <time>2021-02-14T09:06:53.000Z</time>
      </trkpt>
      <trkpt lat="47.28335" lon="-2.35305">
        <ele>20.39999961853</ele>
        <time>2021-02-14T09:06:56.000Z</time>
      </trkpt>
      <trkpt lat="47.28339" lon="-2.35303">
        <ele>20.39999961853</ele>
        <time>2021-02-14T09:06:57.000Z</time>
      </trkpt>
      <trkpt lat="47.28346" lon="-2.353">
        <ele>20.39999961853</ele>
        <time>2021-02-14T09:07:00.000Z</time>
      </trkpt>
      <trkpt lat="47.28349" lon="-2.35301">
        <ele>20.39999961853</ele>
        <time>2021-02-14T09:07:01.000Z</time>
      </trkpt>
      <trkpt lat="47.28351" lon="-2.35303">
        <ele>20.39999961853</ele>
        <time>2021-02-14T09:07:02.000Z</time>
      </trkpt>
      <trkpt lat="47.28355" lon="-2.35313">
        <ele>20.39999961853</ele>
        <time>2021-02-14T09:07:05.000Z</time>
      </trkpt>
      <trkpt lat="47.28363" lon="-2.35336">
        <ele>20.39999961853</ele>
        <time>2021-02-14T09:07:10.000Z</time>
      </trkpt>
      <trkpt lat="47.28366" lon="-2.35348">
        <ele>20.39999961853</ele>
        <time>2021-02-14T09:07:15.000Z</time>
      </trkpt>
      <trkpt lat="47.28367" lon="-2.3535">
        <ele>20.39999961853</ele>
        <time>2021-02-14T09:07:16.000Z</time>
      </trkpt>
      <trkpt lat="47.28369" lon="-2.35355">
        <ele>20.39999961853</ele>
        <time>2021-02-14T09:07:20.000Z</time>
      </trkpt>
      <trkpt lat="47.28374" lon="-2.3537">
        <ele>20.799999237061</ele>
        <time>2021-02-14T09:07:27.000Z</time>
      </trkpt>
      <trkpt lat="47.28375" lon="-2.35372">
        <ele>21.39999961853</ele>
        <time>2021-02-14T09:07:28.000Z</time>
      </trkpt>
      <trkpt lat="47.28375" lon="-2.35373">
        <ele>21.799999237061</ele>
        <time>2021-02-14T09:07:29.000Z</time>
      </trkpt>
      <trkpt lat="47.28375" lon="-2.35375">
        <ele>22.200000762939</ele>
        <time>2021-02-14T09:07:30.000Z</time>
      </trkpt>
      <trkpt lat="47.28376" lon="-2.35376">
        <ele>22.60000038147</ele>
        <time>2021-02-14T09:07:31.000Z</time>
      </trkpt>
      <trkpt lat="47.28378" lon="-2.3538">
        <ele>23.200000762939</ele>
        <time>2021-02-14T09:07:33.000Z</time>
      </trkpt>
      <trkpt lat="47.28378" lon="-2.35382">
        <ele>23.60000038147</ele>
        <time>2021-02-14T09:07:34.000Z</time>
      </trkpt>
      <trkpt lat="47.28379" lon="-2.35384">
        <ele>24.200000762939</ele>
        <time>2021-02-14T09:07:35.000Z</time>
      </trkpt>
      <trkpt lat="47.2838" lon="-2.35386">
        <ele>24.60000038147</ele>
        <time>2021-02-14T09:07:36.000Z</time>
      </trkpt>
      <trkpt lat="47.28382" lon="-2.35388">
        <ele>25.200000762939</ele>
        <time>2021-02-14T09:07:37.000Z</time>
      </trkpt>
      <trkpt lat="47.28383" lon="-2.35391">
        <ele>25.799999237061</ele>
        <time>2021-02-14T09:07:38.000Z</time>
      </trkpt>
      <trkpt lat="47.28385" lon="-2.35393">
        <ele>26.200000762939</ele>
        <time>2021-02-14T09:07:39.000Z</time>
      </trkpt>
      <trkpt lat="47.28386" lon="-2.35395">
        <ele>26.799999237061</ele>
        <time>2021-02-14T09:07:40.000Z</time>
      </trkpt>
      <trkpt lat="47.28388" lon="-2.35398">
        <ele>27.39999961853</ele>
        <time>2021-02-14T09:07:41.000Z</time>
      </trkpt>
      <trkpt lat="47.28392" lon="-2.35404">
        <ele>27.799999237061</ele>
        <time>2021-02-14T09:07:44.000Z</time>
      </trkpt>
      <trkpt lat="47.28393" lon="-2.35406">
        <ele>28.200000762939</ele>
        <time>2021-02-14T09:07:45.000Z</time>
      </trkpt>
      <trkpt lat="47.28394" lon="-2.35408">
        <ele>28.60000038147</ele>
        <time>2021-02-14T09:07:46.000Z</time>
      </trkpt>
      <trkpt lat="47.28395" lon="-2.3541">
        <ele>29</ele>
        <time>2021-02-14T09:07:47.000Z</time>
      </trkpt>
      <trkpt lat="47.28397" lon="-2.35415">
        <ele>29.39999961853</ele>
        <time>2021-02-14T09:07:48.000Z</time>
      </trkpt>
      <trkpt lat="47.28405" lon="-2.35426">
        <ele>29.39999961853</ele>
        <time>2021-02-14T09:07:52.000Z</time>
      </trkpt>
      <trkpt lat="47.28411" lon="-2.35429">
        <ele>29.39999961853</ele>
        <time>2021-02-14T09:07:55.000Z</time>
      </trkpt>
      <trkpt lat="47.28414" lon="-2.35426">
        <ele>29.39999961853</ele>
        <time>2021-02-14T09:07:57.000Z</time>
      </trkpt>
      <trkpt lat="47.28416" lon="-2.35424">
        <ele>29.39999961853</ele>
        <time>2021-02-14T09:07:58.000Z</time>
      </trkpt>
      <trkpt lat="47.28419" lon="-2.35418">
        <ele>29.39999961853</ele>
        <time>2021-02-14T09:08:01.000Z</time>
      </trkpt>
      <trkpt lat="47.2842" lon="-2.35416">
        <ele>29.39999961853</ele>
        <time>2021-02-14T09:08:02.000Z</time>
      </trkpt>
      <trkpt lat="47.28428" lon="-2.35412">
        <ele>29.39999961853</ele>
        <time>2021-02-14T09:08:07.000Z</time>
      </trkpt>
      <trkpt lat="47.28431" lon="-2.3541">
        <ele>29.799999237061</ele>
        <time>2021-02-14T09:08:09.000Z</time>
      </trkpt>
      <trkpt lat="47.28432" lon="-2.3541">
        <ele>30.200000762939</ele>
        <time>2021-02-14T09:08:10.000Z</time>
      </trkpt>
      <trkpt lat="47.28433" lon="-2.35409">
        <ele>30.60000038147</ele>
        <time>2021-02-14T09:08:11.000Z</time>
      </trkpt>
      <trkpt lat="47.28434" lon="-2.3541">
        <ele>31.200000762939</ele>
        <time>2021-02-14T09:08:12.000Z</time>
      </trkpt>
      <trkpt lat="47.28436" lon="-2.3541">
        <ele>31.60000038147</ele>
        <time>2021-02-14T09:08:13.000Z</time>
      </trkpt>
      <trkpt lat="47.28438" lon="-2.35411">
        <ele>31.60000038147</ele>
        <time>2021-02-14T09:08:14.000Z</time>
      </trkpt>
      <trkpt lat="47.28442" lon="-2.35407">
        <ele>31.60000038147</ele>
        <time>2021-02-14T09:08:17.000Z</time>
      </trkpt>
      <trkpt lat="47.28442" lon="-2.35402">
        <ele>31.200000762939</ele>
        <time>2021-02-14T09:08:18.000Z</time>
      </trkpt>
      <trkpt lat="47.28442" lon="-2.35395">
        <ele>30.60000038147</ele>
        <time>2021-02-14T09:08:19.000Z</time>
      </trkpt>
      <trkpt lat="47.28441" lon="-2.35387">
        <ele>30.200000762939</ele>
        <time>2021-02-14T09:08:20.000Z</time>
      </trkpt>
      <trkpt lat="47.28442" lon="-2.35381">
        <ele>29.799999237061</ele>
        <time>2021-02-14T09:08:21.000Z</time>
      </trkpt>
      <trkpt lat="47.28442" lon="-2.35376">
        <ele>29</ele>
        <time>2021-02-14T09:08:22.000Z</time>
      </trkpt>
      <trkpt lat="47.28443" lon="-2.3537">
        <ele>28.60000038147</ele>
        <time>2021-02-14T09:08:23.000Z</time>
      </trkpt>
      <trkpt lat="47.28444" lon="-2.35364">
        <ele>28</ele>
        <time>2021-02-14T09:08:24.000Z</time>
      </trkpt>
      <trkpt lat="47.28445" lon="-2.3536">
        <ele>27.60000038147</ele>
        <time>2021-02-14T09:08:25.000Z</time>
      </trkpt>
      <trkpt lat="47.28448" lon="-2.35354">
        <ele>27</ele>
        <time>2021-02-14T09:08:26.000Z</time>
      </trkpt>
      <trkpt lat="47.2845" lon="-2.35349">
        <ele>26.39999961853</ele>
        <time>2021-02-14T09:08:27.000Z</time>
      </trkpt>
      <trkpt lat="47.28453" lon="-2.35345">
        <ele>25.799999237061</ele>
        <time>2021-02-14T09:08:28.000Z</time>
      </trkpt>
      <trkpt lat="47.28456" lon="-2.35342">
        <ele>25.200000762939</ele>
        <time>2021-02-14T09:08:29.000Z</time>
      </trkpt>
      <trkpt lat="47.28459" lon="-2.35341">
        <ele>24.39999961853</ele>
        <time>2021-02-14T09:08:30.000Z</time>
      </trkpt>
      <trkpt lat="47.28462" lon="-2.35343">
        <ele>23.799999237061</ele>
        <time>2021-02-14T09:08:31.000Z</time>
      </trkpt>
      <trkpt lat="47.28465" lon="-2.35345">
        <ele>23.200000762939</ele>
        <time>2021-02-14T09:08:32.000Z</time>
      </trkpt>
      <trkpt lat="47.28468" lon="-2.35349">
        <ele>22.60000038147</ele>
        <time>2021-02-14T09:08:33.000Z</time>
      </trkpt>
      <trkpt lat="47.28473" lon="-2.35358">
        <ele>22.60000038147</ele>
        <time>2021-02-14T09:08:35.000Z</time>
      </trkpt>
      <trkpt lat="47.28481" lon="-2.35392">
        <ele>22.60000038147</ele>
        <time>2021-02-14T09:08:40.000Z</time>
      </trkpt>
      <trkpt lat="47.28483" lon="-2.35398">
        <ele>22.60000038147</ele>
        <time>2021-02-14T09:08:41.000Z</time>
      </trkpt>
      <trkpt lat="47.28487" lon="-2.35415">
        <ele>22.60000038147</ele>
        <time>2021-02-14T09:08:45.000Z</time>
      </trkpt>
      <trkpt lat="47.2849" lon="-2.35422">
        <ele>22.60000038147</ele>
        <time>2021-02-14T09:08:48.000Z</time>
      </trkpt>
      <trkpt lat="47.28489" lon="-2.35428">
        <ele>22.60000038147</ele>
        <time>2021-02-14T09:08:51.000Z</time>
      </trkpt>
      <trkpt lat="47.28488" lon="-2.3543">
        <ele>23</ele>
        <time>2021-02-14T09:08:52.000Z</time>
      </trkpt>
      <trkpt lat="47.28486" lon="-2.35432">
        <ele>23.39999961853</ele>
        <time>2021-02-14T09:08:53.000Z</time>
      </trkpt>
      <trkpt lat="47.28485" lon="-2.35433">
        <ele>23.799999237061</ele>
        <time>2021-02-14T09:08:54.000Z</time>
      </trkpt>
      <trkpt lat="47.28483" lon="-2.35435">
        <ele>24.200000762939</ele>
        <time>2021-02-14T09:08:55.000Z</time>
      </trkpt>
      <trkpt lat="47.28482" lon="-2.35436">
        <ele>24.60000038147</ele>
        <time>2021-02-14T09:08:56.000Z</time>
      </trkpt>
      <trkpt lat="47.2848" lon="-2.35437">
        <ele>24.60000038147</ele>
        <time>2021-02-14T09:08:57.000Z</time>
      </trkpt>
      <trkpt lat="47.28476" lon="-2.3544">
        <ele>25.200000762939</ele>
        <time>2021-02-14T09:09:00.000Z</time>
      </trkpt>
      <trkpt lat="47.28475" lon="-2.3544">
        <ele>25.60000038147</ele>
        <time>2021-02-14T09:09:01.000Z</time>
      </trkpt>
      <trkpt lat="47.28474" lon="-2.3544">
        <ele>26</ele>
        <time>2021-02-14T09:09:02.000Z</time>
      </trkpt>
      <trkpt lat="47.28473" lon="-2.3544">
        <ele>26.39999961853</ele>
        <time>2021-02-14T09:09:03.000Z</time>
      </trkpt>
      <trkpt lat="47.28471" lon="-2.3544">
        <ele>26.799999237061</ele>
        <time>2021-02-14T09:09:04.000Z</time>
      </trkpt>
      <trkpt lat="47.28466" lon="-2.35437">
        <ele>26.799999237061</ele>
        <time>2021-02-14T09:09:08.000Z</time>
      </trkpt>
      <trkpt lat="47.28465" lon="-2.35435">
        <ele>27.39999961853</ele>
        <time>2021-02-14T09:09:09.000Z</time>
      </trkpt>
      <trkpt lat="47.28463" lon="-2.35433">
        <ele>27.799999237061</ele>
        <time>2021-02-14T09:09:10.000Z</time>
      </trkpt>
      <trkpt lat="47.28462" lon="-2.35431">
        <ele>28.60000038147</ele>
        <time>2021-02-14T09:09:11.000Z</time>
      </trkpt>
      <trkpt lat="47.28461" lon="-2.35428">
        <ele>29.200000762939</ele>
        <time>2021-02-14T09:09:12.000Z</time>
      </trkpt>
      <trkpt lat="47.28457" lon="-2.35427">
        <ele>29.200000762939</ele>
        <time>2021-02-14T09:09:14.000Z</time>
      </trkpt>
      <trkpt lat="47.28455" lon="-2.35428">
        <ele>29.200000762939</ele>
        <time>2021-02-14T09:09:15.000Z</time>
      </trkpt>
      <trkpt lat="47.28442" lon="-2.35432">
        <ele>29.200000762939</ele>
        <time>2021-02-14T09:09:21.000Z</time>
      </trkpt>
      <trkpt lat="47.28432" lon="-2.35436">
        <ele>29.200000762939</ele>
        <time>2021-02-14T09:09:26.000Z</time>
      </trkpt>
      <trkpt lat="47.28431" lon="-2.35439">
        <ele>29.200000762939</ele>
        <time>2021-02-14T09:09:28.000Z</time>
      </trkpt>
      <trkpt lat="47.2843" lon="-2.35443">
        <ele>29.200000762939</ele>
        <time>2021-02-14T09:09:30.000Z</time>
      </trkpt>
      <trkpt lat="47.28423" lon="-2.35458">
        <ele>29.200000762939</ele>
        <time>2021-02-14T09:09:35.000Z</time>
      </trkpt>
      <trkpt lat="47.28413" lon="-2.35472">
        <ele>28.60000038147</ele>
        <time>2021-02-14T09:09:40.000Z</time>
      </trkpt>
      <trkpt lat="47.28411" lon="-2.35474">
        <ele>28.200000762939</ele>
        <time>2021-02-14T09:09:41.000Z</time>
      </trkpt>
      <trkpt lat="47.2841" lon="-2.35476">
        <ele>27.799999237061</ele>
        <time>2021-02-14T09:09:42.000Z</time>
      </trkpt>
      <trkpt lat="47.28409" lon="-2.35479">
        <ele>27.39999961853</ele>
        <time>2021-02-14T09:09:43.000Z</time>
      </trkpt>
      <trkpt lat="47.28408" lon="-2.35482">
        <ele>27</ele>
        <time>2021-02-14T09:09:44.000Z</time>
      </trkpt>
      <trkpt lat="47.28406" lon="-2.3549">
        <ele>27</ele>
        <time>2021-02-14T09:09:46.000Z</time>
      </trkpt>
      <trkpt lat="47.28401" lon="-2.35512">
        <ele>27</ele>
        <time>2021-02-14T09:09:51.000Z</time>
      </trkpt>
      <trkpt lat="47.28399" lon="-2.3552">
        <ele>26.60000038147</ele>
        <time>2021-02-14T09:09:53.000Z</time>
      </trkpt>
      <trkpt lat="47.28397" lon="-2.35526">
        <ele>26.200000762939</ele>
        <time>2021-02-14T09:09:54.000Z</time>
      </trkpt>
      <trkpt lat="47.28395" lon="-2.35531">
        <ele>25.799999237061</ele>
        <time>2021-02-14T09:09:55.000Z</time>
      </trkpt>
      <trkpt lat="47.28393" lon="-2.35537">
        <ele>25.39999961853</ele>
        <time>2021-02-14T09:09:56.000Z</time>
      </trkpt>
      <trkpt lat="47.28392" lon="-2.35542">
        <ele>25</ele>
        <time>2021-02-14T09:09:57.000Z</time>
      </trkpt>
      <trkpt lat="47.28387" lon="-2.3556">
        <ele>25</ele>
        <time>2021-02-14T09:10:01.000Z</time>
      </trkpt>
      <trkpt lat="47.28386" lon="-2.35587">
        <ele>25</ele>
        <time>2021-02-14T09:10:07.000Z</time>
      </trkpt>
      <trkpt lat="47.28386" lon="-2.35601">
        <ele>25</ele>
        <time>2021-02-14T09:10:11.000Z</time>
      </trkpt>
      <trkpt lat="47.28391" lon="-2.35614">
        <ele>25</ele>
        <time>2021-02-14T09:10:16.000Z</time>
      </trkpt>
      <trkpt lat="47.28403" lon="-2.35628">
        <ele>25</ele>
        <time>2021-02-14T09:10:22.000Z</time>
      </trkpt>
      <trkpt lat="47.28404" lon="-2.35636">
        <ele>25</ele>
        <time>2021-02-14T09:10:25.000Z</time>
      </trkpt>
      <trkpt lat="47.28405" lon="-2.35646">
        <ele>25</ele>
        <time>2021-02-14T09:10:28.000Z</time>
      </trkpt>
      <trkpt lat="47.28405" lon="-2.35661">
        <ele>25</ele>
        <time>2021-02-14T09:10:31.000Z</time>
      </trkpt>
      <trkpt lat="47.28405" lon="-2.35673">
        <ele>25</ele>
        <time>2021-02-14T09:10:34.000Z</time>
      </trkpt>
      <trkpt lat="47.28406" lon="-2.35693">
        <ele>25</ele>
        <time>2021-02-14T09:10:39.000Z</time>
      </trkpt>
      <trkpt lat="47.28412" lon="-2.35721">
        <ele>25</ele>
        <time>2021-02-14T09:10:45.000Z</time>
      </trkpt>
      <trkpt lat="47.28413" lon="-2.35727">
        <ele>25</ele>
        <time>2021-02-14T09:10:46.000Z</time>
      </trkpt>
      <trkpt lat="47.28415" lon="-2.35745">
        <ele>25</ele>
        <time>2021-02-14T09:10:49.000Z</time>
      </trkpt>
      <trkpt lat="47.28417" lon="-2.35767">
        <ele>25</ele>
        <time>2021-02-14T09:10:54.000Z</time>
      </trkpt>
      <trkpt lat="47.2842" lon="-2.35784">
        <ele>25</ele>
        <time>2021-02-14T09:11:00.000Z</time>
      </trkpt>
      <trkpt lat="47.28433" lon="-2.35792">
        <ele>25.39999961853</ele>
        <time>2021-02-14T09:11:05.000Z</time>
      </trkpt>
      <trkpt lat="47.28437" lon="-2.35794">
        <ele>25.799999237061</ele>
        <time>2021-02-14T09:11:06.000Z</time>
      </trkpt>
      <trkpt lat="47.28441" lon="-2.35796">
        <ele>26.200000762939</ele>
        <time>2021-02-14T09:11:07.000Z</time>
      </trkpt>
      <trkpt lat="47.28444" lon="-2.35798">
        <ele>26.60000038147</ele>
        <time>2021-02-14T09:11:08.000Z</time>
      </trkpt>
      <trkpt lat="47.28447" lon="-2.358">
        <ele>27</ele>
        <time>2021-02-14T09:11:09.000Z</time>
      </trkpt>
      <trkpt lat="47.28459" lon="-2.35806">
        <ele>27</ele>
        <time>2021-02-14T09:11:12.000Z</time>
      </trkpt>
      <trkpt lat="47.28475" lon="-2.35821">
        <ele>27</ele>
        <time>2021-02-14T09:11:18.000Z</time>
      </trkpt>
      <trkpt lat="47.28475" lon="-2.35825">
        <ele>27</ele>
        <time>2021-02-14T09:11:19.000Z</time>
      </trkpt>
      <trkpt lat="47.28471" lon="-2.35849">
        <ele>27</ele>
        <time>2021-02-14T09:11:24.000Z</time>
      </trkpt>
      <trkpt lat="47.28466" lon="-2.35869">
        <ele>27</ele>
        <time>2021-02-14T09:11:29.000Z</time>
      </trkpt>
      <trkpt lat="47.28465" lon="-2.35894">
        <ele>27</ele>
        <time>2021-02-14T09:11:35.000Z</time>
      </trkpt>
      <trkpt lat="47.28456" lon="-2.3591">
        <ele>27</ele>
        <time>2021-02-14T09:11:39.000Z</time>
      </trkpt>
      <trkpt lat="47.28453" lon="-2.35916">
        <ele>27</ele>
        <time>2021-02-14T09:11:41.000Z</time>
      </trkpt>
      <trkpt lat="47.28452" lon="-2.35919">
        <ele>27</ele>
        <time>2021-02-14T09:11:42.000Z</time>
      </trkpt>
      <trkpt lat="47.28452" lon="-2.35921">
        <ele>27</ele>
        <time>2021-02-14T09:11:43.000Z</time>
      </trkpt>
      <trkpt lat="47.28453" lon="-2.35924">
        <ele>27.39999961853</ele>
        <time>2021-02-14T09:11:44.000Z</time>
      </trkpt>
      <trkpt lat="47.28453" lon="-2.35926">
        <ele>28</ele>
        <time>2021-02-14T09:11:45.000Z</time>
      </trkpt>
      <trkpt lat="47.28453" lon="-2.35929">
        <ele>28.39999961853</ele>
        <time>2021-02-14T09:11:46.000Z</time>
      </trkpt>
      <trkpt lat="47.28454" lon="-2.35931">
        <ele>28.799999237061</ele>
        <time>2021-02-14T09:11:47.000Z</time>
      </trkpt>
      <trkpt lat="47.28453" lon="-2.35933">
        <ele>29.39999961853</ele>
        <time>2021-02-14T09:11:48.000Z</time>
      </trkpt>
      <trkpt lat="47.28453" lon="-2.35935">
        <ele>29.799999237061</ele>
        <time>2021-02-14T09:11:49.000Z</time>
      </trkpt>
      <trkpt lat="47.28451" lon="-2.35938">
        <ele>30.39999961853</ele>
        <time>2021-02-14T09:11:50.000Z</time>
      </trkpt>
      <trkpt lat="47.2845" lon="-2.35941">
        <ele>31</ele>
        <time>2021-02-14T09:11:51.000Z</time>
      </trkpt>
      <trkpt lat="47.2845" lon="-2.35945">
        <ele>31.39999961853</ele>
        <time>2021-02-14T09:11:52.000Z</time>
      </trkpt>
      <trkpt lat="47.2845" lon="-2.35949">
        <ele>31.39999961853</ele>
        <time>2021-02-14T09:11:53.000Z</time>
      </trkpt>
      <trkpt lat="47.2845" lon="-2.35952">
        <ele>32</ele>
        <time>2021-02-14T09:11:54.000Z</time>
      </trkpt>
      <trkpt lat="47.28449" lon="-2.35955">
        <ele>32.400001525879</ele>
        <time>2021-02-14T09:11:55.000Z</time>
      </trkpt>
      <trkpt lat="47.28449" lon="-2.35957">
        <ele>32.799999237061</ele>
        <time>2021-02-14T09:11:56.000Z</time>
      </trkpt>
      <trkpt lat="47.28449" lon="-2.3596">
        <ele>33.200000762939</ele>
        <time>2021-02-14T09:11:57.000Z</time>
      </trkpt>
      <trkpt lat="47.28449" lon="-2.35962">
        <ele>33.599998474121</ele>
        <time>2021-02-14T09:11:58.000Z</time>
      </trkpt>
      <trkpt lat="47.28449" lon="-2.35963">
        <ele>33.599998474121</ele>
        <time>2021-02-14T09:11:59.000Z</time>
      </trkpt>
      <trkpt lat="47.28452" lon="-2.35997">
        <ele>37.799999237061</ele>
        <time>2021-02-14T09:14:08.000Z</time>
      </trkpt>
      <trkpt lat="47.28455" lon="-2.36002">
        <ele>37.799999237061</ele>
        <time>2021-02-14T09:14:10.000Z</time>
      </trkpt>
      <trkpt lat="47.28465" lon="-2.36019">
        <ele>37.799999237061</ele>
        <time>2021-02-14T09:14:16.000Z</time>
      </trkpt>
      <trkpt lat="47.28484" lon="-2.36029">
        <ele>37.799999237061</ele>
        <time>2021-02-14T09:14:23.000Z</time>
      </trkpt>
      <trkpt lat="47.28499" lon="-2.3604">
        <ele>37.799999237061</ele>
        <time>2021-02-14T09:14:28.000Z</time>
      </trkpt>
      <trkpt lat="47.28515" lon="-2.36059">
        <ele>37.799999237061</ele>
        <time>2021-02-14T09:14:33.000Z</time>
      </trkpt>
      <trkpt lat="47.28529" lon="-2.36081">
        <ele>37.799999237061</ele>
        <time>2021-02-14T09:14:38.000Z</time>
      </trkpt>
      <trkpt lat="47.28533" lon="-2.36106">
        <ele>37.799999237061</ele>
        <time>2021-02-14T09:14:42.000Z</time>
      </trkpt>
      <trkpt lat="47.28535" lon="-2.36114">
        <ele>37.799999237061</ele>
        <time>2021-02-14T09:14:43.000Z</time>
      </trkpt>
      <trkpt lat="47.28543" lon="-2.36144">
        <ele>37.799999237061</ele>
        <time>2021-02-14T09:14:47.000Z</time>
      </trkpt>
      <trkpt lat="47.28544" lon="-2.3615">
        <ele>37.799999237061</ele>
        <time>2021-02-14T09:14:48.000Z</time>
      </trkpt>
      <trkpt lat="47.2855" lon="-2.36154">
        <ele>37.799999237061</ele>
        <time>2021-02-14T09:14:50.000Z</time>
      </trkpt>
      <trkpt lat="47.28561" lon="-2.36149">
        <ele>37.799999237061</ele>
        <time>2021-02-14T09:14:54.000Z</time>
      </trkpt>
      <trkpt lat="47.28563" lon="-2.36148">
        <ele>37.799999237061</ele>
        <time>2021-02-14T09:14:55.000Z</time>
      </trkpt>
      <trkpt lat="47.28564" lon="-2.36146">
        <ele>38.200000762939</ele>
        <time>2021-02-14T09:14:56.000Z</time>
      </trkpt>
      <trkpt lat="47.28566" lon="-2.36144">
        <ele>38.599998474121</ele>
        <time>2021-02-14T09:14:57.000Z</time>
      </trkpt>
      <trkpt lat="47.28569" lon="-2.36144">
        <ele>39.200000762939</ele>
        <time>2021-02-14T09:14:58.000Z</time>
      </trkpt>
      <trkpt lat="47.28572" lon="-2.36144">
        <ele>39.599998474121</ele>
        <time>2021-02-14T09:14:59.000Z</time>
      </trkpt>
      <trkpt lat="47.28574" lon="-2.36145">
        <ele>40</ele>
        <time>2021-02-14T09:15:00.000Z</time>
      </trkpt>
      <trkpt lat="47.28577" lon="-2.36146">
        <ele>40.400001525879</ele>
        <time>2021-02-14T09:15:01.000Z</time>
      </trkpt>
      <trkpt lat="47.28579" lon="-2.36147">
        <ele>40.799999237061</ele>
        <time>2021-02-14T09:15:02.000Z</time>
      </trkpt>
      <trkpt lat="47.28582" lon="-2.36149">
        <ele>41.200000762939</ele>
        <time>2021-02-14T09:15:03.000Z</time>
      </trkpt>
      <trkpt lat="47.28584" lon="-2.3615">
        <ele>41.599998474121</ele>
        <time>2021-02-14T09:15:04.000Z</time>
      </trkpt>
      <trkpt lat="47.28588" lon="-2.36152">
        <ele>42</ele>
        <time>2021-02-14T09:15:05.000Z</time>
      </trkpt>
      <trkpt lat="47.28595" lon="-2.36153">
        <ele>42</ele>
        <time>2021-02-14T09:15:07.000Z</time>
      </trkpt>
      <trkpt lat="47.28599" lon="-2.36152">
        <ele>42</ele>
        <time>2021-02-14T09:15:08.000Z</time>
      </trkpt>
      <trkpt lat="47.28608" lon="-2.36144">
        <ele>42</ele>
        <time>2021-02-14T09:15:11.000Z</time>
      </trkpt>
      <trkpt lat="47.2861" lon="-2.36142">
        <ele>42</ele>
        <time>2021-02-14T09:15:12.000Z</time>
      </trkpt>
      <trkpt lat="47.28626" lon="-2.36137">
        <ele>42</ele>
        <time>2021-02-14T09:15:18.000Z</time>
      </trkpt>
      <trkpt lat="47.2863" lon="-2.36141">
        <ele>42</ele>
        <time>2021-02-14T09:15:22.000Z</time>
      </trkpt>
      <trkpt lat="47.28631" lon="-2.36143">
        <ele>42</ele>
        <time>2021-02-14T09:15:23.000Z</time>
      </trkpt>
      <trkpt lat="47.28637" lon="-2.36149">
        <ele>42</ele>
        <time>2021-02-14T09:15:27.000Z</time>
      </trkpt>
      <trkpt lat="47.28638" lon="-2.36151">
        <ele>42</ele>
        <time>2021-02-14T09:15:29.000Z</time>
      </trkpt>
      <trkpt lat="47.28639" lon="-2.36152">
        <ele>41.599998474121</ele>
        <time>2021-02-14T09:15:30.000Z</time>
      </trkpt>
      <trkpt lat="47.2864" lon="-2.36152">
        <ele>41.200000762939</ele>
        <time>2021-02-14T09:15:31.000Z</time>
      </trkpt>
      <trkpt lat="47.28642" lon="-2.36152">
        <ele>40.799999237061</ele>
        <time>2021-02-14T09:15:32.000Z</time>
      </trkpt>
      <trkpt lat="47.28643" lon="-2.36153">
        <ele>40.400001525879</ele>
        <time>2021-02-14T09:15:33.000Z</time>
      </trkpt>
      <trkpt lat="47.28643" lon="-2.36155">
        <ele>40</ele>
        <time>2021-02-14T09:15:34.000Z</time>
      </trkpt>
      <trkpt lat="47.28653" lon="-2.36174">
        <ele>40</ele>
        <time>2021-02-14T09:15:40.000Z</time>
      </trkpt>
      <trkpt lat="47.2866" lon="-2.36202">
        <ele>40</ele>
        <time>2021-02-14T09:15:45.000Z</time>
      </trkpt>
      <trkpt lat="47.28659" lon="-2.3622">
        <ele>39.400001525879</ele>
        <time>2021-02-14T09:15:48.000Z</time>
      </trkpt>
      <trkpt lat="47.28659" lon="-2.36229">
        <ele>39</ele>
        <time>2021-02-14T09:15:49.000Z</time>
      </trkpt>
      <trkpt lat="47.2866" lon="-2.36238">
        <ele>38.599998474121</ele>
        <time>2021-02-14T09:15:50.000Z</time>
      </trkpt>
      <trkpt lat="47.2866" lon="-2.36245">
        <ele>38</ele>
        <time>2021-02-14T09:15:51.000Z</time>
      </trkpt>
      <trkpt lat="47.2866" lon="-2.36253">
        <ele>37.599998474121</ele>
        <time>2021-02-14T09:15:52.000Z</time>
      </trkpt>
      <trkpt lat="47.28661" lon="-2.36275">
        <ele>37.200000762939</ele>
        <time>2021-02-14T09:15:56.000Z</time>
      </trkpt>
      <trkpt lat="47.28666" lon="-2.36277">
        <ele>36.799999237061</ele>
        <time>2021-02-14T09:15:57.000Z</time>
      </trkpt>
      <trkpt lat="47.28668" lon="-2.36279">
        <ele>36.400001525879</ele>
        <time>2021-02-14T09:15:58.000Z</time>
      </trkpt>
      <trkpt lat="47.2867" lon="-2.36279">
        <ele>36</ele>
        <time>2021-02-14T09:15:59.000Z</time>
      </trkpt>
      <trkpt lat="47.28671" lon="-2.3628">
        <ele>35.599998474121</ele>
        <time>2021-02-14T09:16:00.000Z</time>
      </trkpt>
      <trkpt lat="47.28675" lon="-2.36281">
        <ele>35.599998474121</ele>
        <time>2021-02-14T09:16:04.000Z</time>
      </trkpt>
      <trkpt lat="47.28684" lon="-2.36283">
        <ele>35.599998474121</ele>
        <time>2021-02-14T09:16:10.000Z</time>
      </trkpt>
      <trkpt lat="47.28694" lon="-2.36282">
        <ele>35.599998474121</ele>
        <time>2021-02-14T09:16:14.000Z</time>
      </trkpt>
      <trkpt lat="47.28696" lon="-2.36283">
        <ele>35.200000762939</ele>
        <time>2021-02-14T09:16:15.000Z</time>
      </trkpt>
      <trkpt lat="47.28698" lon="-2.36285">
        <ele>34.799999237061</ele>
        <time>2021-02-14T09:16:16.000Z</time>
      </trkpt>
      <trkpt lat="47.28701" lon="-2.36286">
        <ele>34.400001525879</ele>
        <time>2021-02-14T09:16:17.000Z</time>
      </trkpt>
      <trkpt lat="47.28703" lon="-2.36288">
        <ele>34</ele>
        <time>2021-02-14T09:16:18.000Z</time>
      </trkpt>
      <trkpt lat="47.28704" lon="-2.3629">
        <ele>33.599998474121</ele>
        <time>2021-02-14T09:16:19.000Z</time>
      </trkpt>
      <trkpt lat="47.28706" lon="-2.363">
        <ele>33.599998474121</ele>
        <time>2021-02-14T09:16:22.000Z</time>
      </trkpt>
      <trkpt lat="47.28706" lon="-2.36317">
        <ele>34</ele>
        <time>2021-02-14T09:16:27.000Z</time>
      </trkpt>
      <trkpt lat="47.28706" lon="-2.3632">
        <ele>34.400001525879</ele>
        <time>2021-02-14T09:16:28.000Z</time>
      </trkpt>
      <trkpt lat="47.28706" lon="-2.36323">
        <ele>34.799999237061</ele>
        <time>2021-02-14T09:16:29.000Z</time>
      </trkpt>
      <trkpt lat="47.28706" lon="-2.36326">
        <ele>35.200000762939</ele>
        <time>2021-02-14T09:16:30.000Z</time>
      </trkpt>
      <trkpt lat="47.28705" lon="-2.36329">
        <ele>35.599998474121</ele>
        <time>2021-02-14T09:16:31.000Z</time>
      </trkpt>
      <trkpt lat="47.28705" lon="-2.36337">
        <ele>35.599998474121</ele>
        <time>2021-02-14T09:16:34.000Z</time>
      </trkpt>
      <trkpt lat="47.28704" lon="-2.36345">
        <ele>36</ele>
        <time>2021-02-14T09:16:37.000Z</time>
      </trkpt>
      <trkpt lat="47.28704" lon="-2.36348">
        <ele>36.400001525879</ele>
        <time>2021-02-14T09:16:38.000Z</time>
      </trkpt>
      <trkpt lat="47.28703" lon="-2.36351">
        <ele>36.799999237061</ele>
        <time>2021-02-14T09:16:39.000Z</time>
      </trkpt>
      <trkpt lat="47.28702" lon="-2.36354">
        <ele>37.200000762939</ele>
        <time>2021-02-14T09:16:40.000Z</time>
      </trkpt>
      <trkpt lat="47.28701" lon="-2.36357">
        <ele>37.599998474121</ele>
        <time>2021-02-14T09:16:41.000Z</time>
      </trkpt>
      <trkpt lat="47.28699" lon="-2.36363">
        <ele>37.599998474121</ele>
        <time>2021-02-14T09:16:43.000Z</time>
      </trkpt>
      <trkpt lat="47.28696" lon="-2.36372">
        <ele>37.599998474121</ele>
        <time>2021-02-14T09:16:46.000Z</time>
      </trkpt>
      <trkpt lat="47.28694" lon="-2.36383">
        <ele>37.599998474121</ele>
        <time>2021-02-14T09:16:49.000Z</time>
      </trkpt>
      <trkpt lat="47.28693" lon="-2.36388">
        <ele>37.599998474121</ele>
        <time>2021-02-14T09:16:50.000Z</time>
      </trkpt>
      <trkpt lat="47.28691" lon="-2.36398">
        <ele>38</ele>
        <time>2021-02-14T09:16:53.000Z</time>
      </trkpt>
      <trkpt lat="47.2869" lon="-2.36401">
        <ele>38.400001525879</ele>
        <time>2021-02-14T09:16:54.000Z</time>
      </trkpt>
      <trkpt lat="47.28691" lon="-2.36405">
        <ele>38.799999237061</ele>
        <time>2021-02-14T09:16:55.000Z</time>
      </trkpt>
      <trkpt lat="47.28692" lon="-2.3641">
        <ele>39.200000762939</ele>
        <time>2021-02-14T09:16:56.000Z</time>
      </trkpt>
      <trkpt lat="47.28692" lon="-2.36416">
        <ele>39.799999237061</ele>
        <time>2021-02-14T09:16:57.000Z</time>
      </trkpt>
      <trkpt lat="47.28692" lon="-2.36436">
        <ele>39.799999237061</ele>
        <time>2021-02-14T09:17:01.000Z</time>
      </trkpt>
      <trkpt lat="47.2869" lon="-2.36463">
        <ele>39.799999237061</ele>
        <time>2021-02-14T09:17:07.000Z</time>
      </trkpt>
      <trkpt lat="47.28687" lon="-2.36479">
        <ele>39.799999237061</ele>
        <time>2021-02-14T09:17:11.000Z</time>
      </trkpt>
      <trkpt lat="47.28687" lon="-2.36485">
        <ele>39.799999237061</ele>
        <time>2021-02-14T09:17:12.000Z</time>
      </trkpt>
      <trkpt lat="47.28689" lon="-2.36517">
        <ele>39.799999237061</ele>
        <time>2021-02-14T09:17:18.000Z</time>
      </trkpt>
      <trkpt lat="47.28694" lon="-2.3655">
        <ele>39.200000762939</ele>
        <time>2021-02-14T09:17:23.000Z</time>
      </trkpt>
      <trkpt lat="47.28694" lon="-2.36556">
        <ele>38.799999237061</ele>
        <time>2021-02-14T09:17:24.000Z</time>
      </trkpt>
      <trkpt lat="47.28692" lon="-2.36564">
        <ele>37.799999237061</ele>
        <time>2021-02-14T09:17:25.000Z</time>
      </trkpt>
      <trkpt lat="47.2869" lon="-2.3657">
        <ele>37.200000762939</ele>
        <time>2021-02-14T09:17:26.000Z</time>
      </trkpt>
      <trkpt lat="47.28687" lon="-2.36577">
        <ele>36.799999237061</ele>
        <time>2021-02-14T09:17:27.000Z</time>
      </trkpt>
      <trkpt lat="47.28686" lon="-2.36584">
        <ele>36.200000762939</ele>
        <time>2021-02-14T09:17:28.000Z</time>
      </trkpt>
      <trkpt lat="47.28684" lon="-2.3659">
        <ele>35.599998474121</ele>
        <time>2021-02-14T09:17:29.000Z</time>
      </trkpt>
      <trkpt lat="47.28681" lon="-2.36595">
        <ele>35</ele>
        <time>2021-02-14T09:17:30.000Z</time>
      </trkpt>
      <trkpt lat="47.28678" lon="-2.36601">
        <ele>34.400001525879</ele>
        <time>2021-02-14T09:17:31.000Z</time>
      </trkpt>
      <trkpt lat="47.28674" lon="-2.36605">
        <ele>33.799999237061</ele>
        <time>2021-02-14T09:17:32.000Z</time>
      </trkpt>
      <trkpt lat="47.2867" lon="-2.36609">
        <ele>33.200000762939</ele>
        <time>2021-02-14T09:17:33.000Z</time>
      </trkpt>
      <trkpt lat="47.28665" lon="-2.36613">
        <ele>32.599998474121</ele>
        <time>2021-02-14T09:17:34.000Z</time>
      </trkpt>
      <trkpt lat="47.28661" lon="-2.36616">
        <ele>32.599998474121</ele>
        <time>2021-02-14T09:17:35.000Z</time>
      </trkpt>
      <trkpt lat="47.28651" lon="-2.36618">
        <ele>32</ele>
        <time>2021-02-14T09:17:37.000Z</time>
      </trkpt>
      <trkpt lat="47.28647" lon="-2.36618">
        <ele>31.60000038147</ele>
        <time>2021-02-14T09:17:38.000Z</time>
      </trkpt>
      <trkpt lat="47.28643" lon="-2.3662">
        <ele>31.200000762939</ele>
        <time>2021-02-14T09:17:39.000Z</time>
      </trkpt>
      <trkpt lat="47.28638" lon="-2.36622">
        <ele>30.799999237061</ele>
        <time>2021-02-14T09:17:40.000Z</time>
      </trkpt>
      <trkpt lat="47.28634" lon="-2.36625">
        <ele>30.39999961853</ele>
        <time>2021-02-14T09:17:41.000Z</time>
      </trkpt>
      <trkpt lat="47.28623" lon="-2.3663">
        <ele>30.39999961853</ele>
        <time>2021-02-14T09:17:44.000Z</time>
      </trkpt>
      <trkpt lat="47.2862" lon="-2.36632">
        <ele>30</ele>
        <time>2021-02-14T09:17:45.000Z</time>
      </trkpt>
      <trkpt lat="47.28616" lon="-2.36634">
        <ele>29.60000038147</ele>
        <time>2021-02-14T09:17:46.000Z</time>
      </trkpt>
      <trkpt lat="47.28614" lon="-2.36636">
        <ele>29.200000762939</ele>
        <time>2021-02-14T09:17:47.000Z</time>
      </trkpt>
      <trkpt lat="47.28611" lon="-2.36637">
        <ele>28.799999237061</ele>
        <time>2021-02-14T09:17:48.000Z</time>
      </trkpt>
      <trkpt lat="47.28609" lon="-2.36637">
        <ele>28.39999961853</ele>
        <time>2021-02-14T09:17:49.000Z</time>
      </trkpt>
      <trkpt lat="47.28607" lon="-2.36638">
        <ele>27.39999961853</ele>
        <time>2021-02-14T09:17:50.000Z</time>
      </trkpt>
      <trkpt lat="47.28604" lon="-2.36639">
        <ele>26.799999237061</ele>
        <time>2021-02-14T09:17:51.000Z</time>
      </trkpt>
      <trkpt lat="47.28602" lon="-2.3664">
        <ele>26.39999961853</ele>
        <time>2021-02-14T09:17:52.000Z</time>
      </trkpt>
      <trkpt lat="47.286" lon="-2.36642">
        <ele>26</ele>
        <time>2021-02-14T09:17:53.000Z</time>
      </trkpt>
      <trkpt lat="47.28598" lon="-2.36643">
        <ele>25.39999961853</ele>
        <time>2021-02-14T09:17:54.000Z</time>
      </trkpt>
      <trkpt lat="47.28597" lon="-2.36644">
        <ele>25</ele>
        <time>2021-02-14T09:17:55.000Z</time>
      </trkpt>
      <trkpt lat="47.28596" lon="-2.36645">
        <ele>24.60000038147</ele>
        <time>2021-02-14T09:17:56.000Z</time>
      </trkpt>
      <trkpt lat="47.28594" lon="-2.36646">
        <ele>24</ele>
        <time>2021-02-14T09:17:57.000Z</time>
      </trkpt>
      <trkpt lat="47.28592" lon="-2.36646">
        <ele>23.60000038147</ele>
        <time>2021-02-14T09:17:58.000Z</time>
      </trkpt>
      <trkpt lat="47.28585" lon="-2.36651">
        <ele>23.60000038147</ele>
        <time>2021-02-14T09:18:00.000Z</time>
      </trkpt>
      <trkpt lat="47.2857" lon="-2.36664">
        <ele>23.200000762939</ele>
        <time>2021-02-14T09:18:03.000Z</time>
      </trkpt>
      <trkpt lat="47.28565" lon="-2.36665">
        <ele>22.60000038147</ele>
        <time>2021-02-14T09:18:04.000Z</time>
      </trkpt>
      <trkpt lat="47.28559" lon="-2.36666">
        <ele>22.200000762939</ele>
        <time>2021-02-14T09:18:05.000Z</time>
      </trkpt>
      <trkpt lat="47.28554" lon="-2.36667">
        <ele>21.799999237061</ele>
        <time>2021-02-14T09:18:06.000Z</time>
      </trkpt>
      <trkpt lat="47.28549" lon="-2.36667">
        <ele>21.200000762939</ele>
        <time>2021-02-14T09:18:07.000Z</time>
      </trkpt>
      <trkpt lat="47.28534" lon="-2.36667">
        <ele>21.200000762939</ele>
        <time>2021-02-14T09:18:10.000Z</time>
      </trkpt>
      <trkpt lat="47.28528" lon="-2.36665">
        <ele>21.200000762939</ele>
        <time>2021-02-14T09:18:13.000Z</time>
      </trkpt>
      <trkpt lat="47.28527" lon="-2.36665">
        <ele>20.799999237061</ele>
        <time>2021-02-14T09:18:14.000Z</time>
      </trkpt>
      <trkpt lat="47.28526" lon="-2.36666">
        <ele>20</ele>
        <time>2021-02-14T09:18:15.000Z</time>
      </trkpt>
      <trkpt lat="47.28525" lon="-2.36667">
        <ele>19.60000038147</ele>
        <time>2021-02-14T09:18:16.000Z</time>
      </trkpt>
      <trkpt lat="47.28525" lon="-2.36669">
        <ele>19.200000762939</ele>
        <time>2021-02-14T09:18:17.000Z</time>
      </trkpt>
      <trkpt lat="47.28525" lon="-2.36671">
        <ele>19.200000762939</ele>
        <time>2021-02-14T09:18:18.000Z</time>
      </trkpt>
      <trkpt lat="47.28522" lon="-2.36674">
        <ele>19.200000762939</ele>
        <time>2021-02-14T09:18:19.000Z</time>
      </trkpt>
      <trkpt lat="47.28517" lon="-2.36682">
        <ele>19.200000762939</ele>
        <time>2021-02-14T09:18:22.000Z</time>
      </trkpt>
      <trkpt lat="47.28516" lon="-2.36688">
        <ele>19.200000762939</ele>
        <time>2021-02-14T09:18:26.000Z</time>
      </trkpt>
      <trkpt lat="47.28518" lon="-2.36693">
        <ele>17</ele>
        <time>2021-02-14T09:20:31.000Z</time>
      </trkpt>
      <trkpt lat="47.28525" lon="-2.36711">
        <ele>17</ele>
        <time>2021-02-14T09:20:35.000Z</time>
      </trkpt>
      <trkpt lat="47.28542" lon="-2.36745">
        <ele>17</ele>
        <time>2021-02-14T09:20:40.000Z</time>
      </trkpt>
      <trkpt lat="47.2855" lon="-2.3676">
        <ele>16.60000038147</ele>
        <time>2021-02-14T09:20:42.000Z</time>
      </trkpt>
      <trkpt lat="47.28555" lon="-2.36767">
        <ele>16.200000762939</ele>
        <time>2021-02-14T09:20:43.000Z</time>
      </trkpt>
      <trkpt lat="47.28559" lon="-2.36775">
        <ele>15.39999961853</ele>
        <time>2021-02-14T09:20:44.000Z</time>
      </trkpt>
      <trkpt lat="47.28564" lon="-2.36782">
        <ele>15</ele>
        <time>2021-02-14T09:20:45.000Z</time>
      </trkpt>
      <trkpt lat="47.28568" lon="-2.36788">
        <ele>15</ele>
        <time>2021-02-14T09:20:46.000Z</time>
      </trkpt>
      <trkpt lat="47.28571" lon="-2.36794">
        <ele>14.60000038147</ele>
        <time>2021-02-14T09:20:47.000Z</time>
      </trkpt>
      <trkpt lat="47.28575" lon="-2.368">
        <ele>14.199999809265</ele>
        <time>2021-02-14T09:20:48.000Z</time>
      </trkpt>
      <trkpt lat="47.28578" lon="-2.36804">
        <ele>13.800000190735</ele>
        <time>2021-02-14T09:20:49.000Z</time>
      </trkpt>
      <trkpt lat="47.28581" lon="-2.36808">
        <ele>13.39999961853</ele>
        <time>2021-02-14T09:20:50.000Z</time>
      </trkpt>
      <trkpt lat="47.28583" lon="-2.3681">
        <ele>12.800000190735</ele>
        <time>2021-02-14T09:20:51.000Z</time>
      </trkpt>
      <trkpt lat="47.28588" lon="-2.36816">
        <ele>12.800000190735</ele>
        <time>2021-02-14T09:20:55.000Z</time>
      </trkpt>
      <trkpt lat="47.28597" lon="-2.36832">
        <ele>12.800000190735</ele>
        <time>2021-02-14T09:21:00.000Z</time>
      </trkpt>
      <trkpt lat="47.28603" lon="-2.36843">
        <ele>12.39999961853</ele>
        <time>2021-02-14T09:21:03.000Z</time>
      </trkpt>
      <trkpt lat="47.28605" lon="-2.36844">
        <ele>12</ele>
        <time>2021-02-14T09:21:04.000Z</time>
      </trkpt>
      <trkpt lat="47.28607" lon="-2.36844">
        <ele>11.60000038147</ele>
        <time>2021-02-14T09:21:05.000Z</time>
      </trkpt>
      <trkpt lat="47.2861" lon="-2.36843">
        <ele>11.199999809265</ele>
        <time>2021-02-14T09:21:06.000Z</time>
      </trkpt>
      <trkpt lat="47.28612" lon="-2.36841">
        <ele>10.800000190735</ele>
        <time>2021-02-14T09:21:07.000Z</time>
      </trkpt>
      <trkpt lat="47.28618" lon="-2.36832">
        <ele>10.800000190735</ele>
        <time>2021-02-14T09:21:10.000Z</time>
      </trkpt>
      <trkpt lat="47.2862" lon="-2.3683">
        <ele>10.800000190735</ele>
        <time>2021-02-14T09:21:11.000Z</time>
      </trkpt>
      <trkpt lat="47.28632" lon="-2.36817">
        <ele>10.800000190735</ele>
        <time>2021-02-14T09:21:17.000Z</time>
      </trkpt>
      <trkpt lat="47.28647" lon="-2.36802">
        <ele>11.199999809265</ele>
        <time>2021-02-14T09:21:25.000Z</time>
      </trkpt>
      <trkpt lat="47.28649" lon="-2.368">
        <ele>11.60000038147</ele>
        <time>2021-02-14T09:21:26.000Z</time>
      </trkpt>
      <trkpt lat="47.28652" lon="-2.36799">
        <ele>12</ele>
        <time>2021-02-14T09:21:27.000Z</time>
      </trkpt>
      <trkpt lat="47.28654" lon="-2.36797">
        <ele>12.39999961853</ele>
        <time>2021-02-14T09:21:28.000Z</time>
      </trkpt>
      <trkpt lat="47.28657" lon="-2.36796">
        <ele>13</ele>
        <time>2021-02-14T09:21:29.000Z</time>
      </trkpt>
      <trkpt lat="47.28659" lon="-2.36796">
        <ele>13</ele>
        <time>2021-02-14T09:21:30.000Z</time>
      </trkpt>
      <trkpt lat="47.28669" lon="-2.36803">
        <ele>13</ele>
        <time>2021-02-14T09:21:35.000Z</time>
      </trkpt>
      <trkpt lat="47.28678" lon="-2.36825">
        <ele>13</ele>
        <time>2021-02-14T09:21:40.000Z</time>
      </trkpt>
      <trkpt lat="47.28693" lon="-2.36862">
        <ele>13</ele>
        <time>2021-02-14T09:21:46.000Z</time>
      </trkpt>
      <trkpt lat="47.28698" lon="-2.36874">
        <ele>13</ele>
        <time>2021-02-14T09:21:48.000Z</time>
      </trkpt>
      <trkpt lat="47.28707" lon="-2.36892">
        <ele>13</ele>
        <time>2021-02-14T09:21:51.000Z</time>
      </trkpt>
      <trkpt lat="47.28713" lon="-2.36904">
        <ele>12.39999961853</ele>
        <time>2021-02-14T09:21:53.000Z</time>
      </trkpt>
      <trkpt lat="47.28716" lon="-2.36908">
        <ele>12</ele>
        <time>2021-02-14T09:21:54.000Z</time>
      </trkpt>
      <trkpt lat="47.28719" lon="-2.36913">
        <ele>11.60000038147</ele>
        <time>2021-02-14T09:21:55.000Z</time>
      </trkpt>
      <trkpt lat="47.28722" lon="-2.36917">
        <ele>11.199999809265</ele>
        <time>2021-02-14T09:21:56.000Z</time>
      </trkpt>
      <trkpt lat="47.28725" lon="-2.3692">
        <ele>10.800000190735</ele>
        <time>2021-02-14T09:21:57.000Z</time>
      </trkpt>
      <trkpt lat="47.28728" lon="-2.36924">
        <ele>10</ele>
        <time>2021-02-14T09:21:58.000Z</time>
      </trkpt>
      <trkpt lat="47.28732" lon="-2.36927">
        <ele>9.6000003814697</ele>
        <time>2021-02-14T09:21:59.000Z</time>
      </trkpt>
      <trkpt lat="47.28734" lon="-2.36929">
        <ele>9.1999998092651</ele>
        <time>2021-02-14T09:22:00.000Z</time>
      </trkpt>
      <trkpt lat="47.28737" lon="-2.36932">
        <ele>8.8000001907349</ele>
        <time>2021-02-14T09:22:01.000Z</time>
      </trkpt>
      <trkpt lat="47.2874" lon="-2.36936">
        <ele>8.8000001907349</ele>
        <time>2021-02-14T09:22:02.000Z</time>
      </trkpt>
      <trkpt lat="47.28745" lon="-2.36946">
        <ele>8.8000001907349</ele>
        <time>2021-02-14T09:22:08.000Z</time>
      </trkpt>
      <trkpt lat="47.28746" lon="-2.36947">
        <ele>9.1999998092651</ele>
        <time>2021-02-14T09:22:09.000Z</time>
      </trkpt>
      <trkpt lat="47.28749" lon="-2.36959">
        <ele>10.800000190735</ele>
        <time>2021-02-14T09:22:15.000Z</time>
      </trkpt>
      <trkpt lat="47.2875" lon="-2.36961">
        <ele>11.199999809265</ele>
        <time>2021-02-14T09:22:16.000Z</time>
      </trkpt>
      <trkpt lat="47.2875" lon="-2.36963">
        <ele>11.60000038147</ele>
        <time>2021-02-14T09:22:17.000Z</time>
      </trkpt>
      <trkpt lat="47.2875" lon="-2.36963">
        <ele>12</ele>
        <time>2021-02-14T09:22:18.000Z</time>
      </trkpt>
      <trkpt lat="47.2875" lon="-2.36966">
        <ele>12.39999961853</ele>
        <time>2021-02-14T09:22:19.000Z</time>
      </trkpt>
      <trkpt lat="47.2875" lon="-2.36968">
        <ele>12.800000190735</ele>
        <time>2021-02-14T09:22:20.000Z</time>
      </trkpt>
      <trkpt lat="47.28754" lon="-2.36978">
        <ele>12.800000190735</ele>
        <time>2021-02-14T09:22:25.000Z</time>
      </trkpt>
      <trkpt lat="47.28755" lon="-2.3698">
        <ele>13.199999809265</ele>
        <time>2021-02-14T09:22:26.000Z</time>
      </trkpt>
      <trkpt lat="47.28757" lon="-2.36983">
        <ele>13.60000038147</ele>
        <time>2021-02-14T09:22:27.000Z</time>
      </trkpt>
      <trkpt lat="47.28758" lon="-2.36986">
        <ele>14</ele>
        <time>2021-02-14T09:22:28.000Z</time>
      </trkpt>
      <trkpt lat="47.2876" lon="-2.36988">
        <ele>14.39999961853</ele>
        <time>2021-02-14T09:22:29.000Z</time>
      </trkpt>
      <trkpt lat="47.28762" lon="-2.3699">
        <ele>14.800000190735</ele>
        <time>2021-02-14T09:22:30.000Z</time>
      </trkpt>
      <trkpt lat="47.28764" lon="-2.36993">
        <ele>14.800000190735</ele>
        <time>2021-02-14T09:22:31.000Z</time>
      </trkpt>
      <trkpt lat="47.28773" lon="-2.37007">
        <ele>14.800000190735</ele>
        <time>2021-02-14T09:22:35.000Z</time>
      </trkpt>
      <trkpt lat="47.28777" lon="-2.37018">
        <ele>14.800000190735</ele>
        <time>2021-02-14T09:22:37.000Z</time>
      </trkpt>
      <trkpt lat="47.28782" lon="-2.37036">
        <ele>14.800000190735</ele>
        <time>2021-02-14T09:22:41.000Z</time>
      </trkpt>
      <trkpt lat="47.28786" lon="-2.3705">
        <ele>14.199999809265</ele>
        <time>2021-02-14T09:22:43.000Z</time>
      </trkpt>
      <trkpt lat="47.28787" lon="-2.37056">
        <ele>13.800000190735</ele>
        <time>2021-02-14T09:22:44.000Z</time>
      </trkpt>
      <trkpt lat="47.28787" lon="-2.37062">
        <ele>13.39999961853</ele>
        <time>2021-02-14T09:22:45.000Z</time>
      </trkpt>
      <trkpt lat="47.28786" lon="-2.37069">
        <ele>12.800000190735</ele>
        <time>2021-02-14T09:22:46.000Z</time>
      </trkpt>
      <trkpt lat="47.28786" lon="-2.37074">
        <ele>12.39999961853</ele>
        <time>2021-02-14T09:22:47.000Z</time>
      </trkpt>
      <trkpt lat="47.28786" lon="-2.37083">
        <ele>12</ele>
        <time>2021-02-14T09:22:48.000Z</time>
      </trkpt>
      <trkpt lat="47.28787" lon="-2.37091">
        <ele>11.60000038147</ele>
        <time>2021-02-14T09:22:49.000Z</time>
      </trkpt>
      <trkpt lat="47.28788" lon="-2.37099">
        <ele>11.199999809265</ele>
        <time>2021-02-14T09:22:50.000Z</time>
      </trkpt>
      <trkpt lat="47.28788" lon="-2.37105">
        <ele>10.800000190735</ele>
        <time>2021-02-14T09:22:51.000Z</time>
      </trkpt>
      <trkpt lat="47.28792" lon="-2.37109">
        <ele>10.199999809265</ele>
        <time>2021-02-14T09:22:52.000Z</time>
      </trkpt>
      <trkpt lat="47.28799" lon="-2.37114">
        <ele>10.199999809265</ele>
        <time>2021-02-14T09:22:54.000Z</time>
      </trkpt>
      <trkpt lat="47.28803" lon="-2.37114">
        <ele>9.8000001907349</ele>
        <time>2021-02-14T09:22:55.000Z</time>
      </trkpt>
      <trkpt lat="47.28806" lon="-2.37115">
        <ele>9.1999998092651</ele>
        <time>2021-02-14T09:22:56.000Z</time>
      </trkpt>
      <trkpt lat="47.2881" lon="-2.37113">
        <ele>8.8000001907349</ele>
        <time>2021-02-14T09:22:57.000Z</time>
      </trkpt>
      <trkpt lat="47.28813" lon="-2.37112">
        <ele>8</ele>
        <time>2021-02-14T09:22:58.000Z</time>
      </trkpt>
      <trkpt lat="47.28816" lon="-2.37109">
        <ele>7.4000000953674</ele>
        <time>2021-02-14T09:22:59.000Z</time>
      </trkpt>
      <trkpt lat="47.28818" lon="-2.37109">
        <ele>6.8000001907349</ele>
        <time>2021-02-14T09:23:00.000Z</time>
      </trkpt>
      <trkpt lat="47.28821" lon="-2.37111">
        <ele>6.1999998092651</ele>
        <time>2021-02-14T09:23:01.000Z</time>
      </trkpt>
      <trkpt lat="47.28823" lon="-2.37114">
        <ele>5.5999999046326</ele>
        <time>2021-02-14T09:23:02.000Z</time>
      </trkpt>
      <trkpt lat="47.28825" lon="-2.37117">
        <ele>5</ele>
        <time>2021-02-14T09:23:03.000Z</time>
      </trkpt>
      <trkpt lat="47.28827" lon="-2.37122">
        <ele>4.5999999046326</ele>
        <time>2021-02-14T09:23:04.000Z</time>
      </trkpt>
      <trkpt lat="47.28829" lon="-2.37128">
        <ele>4.1999998092651</ele>
        <time>2021-02-14T09:23:05.000Z</time>
      </trkpt>
      <trkpt lat="47.28829" lon="-2.37134">
        <ele>3.7999999523163</ele>
        <time>2021-02-14T09:23:06.000Z</time>
      </trkpt>
      <trkpt lat="47.28829" lon="-2.37141">
        <ele>3.4000000953674</ele>
        <time>2021-02-14T09:23:07.000Z</time>
      </trkpt>
      <trkpt lat="47.28832" lon="-2.37169">
        <ele>3.4000000953674</ele>
        <time>2021-02-14T09:23:11.000Z</time>
      </trkpt>
      <trkpt lat="47.2884" lon="-2.37219">
        <ele>3.4000000953674</ele>
        <time>2021-02-14T09:23:18.000Z</time>
      </trkpt>
      <trkpt lat="47.28848" lon="-2.37241">
        <ele>3.4000000953674</ele>
        <time>2021-02-14T09:23:22.000Z</time>
      </trkpt>
      <trkpt lat="47.28852" lon="-2.37243">
        <ele>3.4000000953674</ele>
        <time>2021-02-14T09:23:23.000Z</time>
      </trkpt>
      <trkpt lat="47.28868" lon="-2.37238">
        <ele>3.4000000953674</ele>
        <time>2021-02-14T09:23:27.000Z</time>
      </trkpt>
      <trkpt lat="47.28872" lon="-2.37236">
        <ele>3.4000000953674</ele>
        <time>2021-02-14T09:23:28.000Z</time>
      </trkpt>
      <trkpt lat="47.28882" lon="-2.37233">
        <ele>3.4000000953674</ele>
        <time>2021-02-14T09:23:32.000Z</time>
      </trkpt>
      <trkpt lat="47.28897" lon="-2.37224">
        <ele>3.4000000953674</ele>
        <time>2021-02-14T09:23:39.000Z</time>
      </trkpt>
      <trkpt lat="47.28916" lon="-2.37215">
        <ele>3.4000000953674</ele>
        <time>2021-02-14T09:23:45.000Z</time>
      </trkpt>
      <trkpt lat="47.28936" lon="-2.37208">
        <ele>3.4000000953674</ele>
        <time>2021-02-14T09:23:52.000Z</time>
      </trkpt>
      <trkpt lat="47.28943" lon="-2.37205">
        <ele>3.4000000953674</ele>
        <time>2021-02-14T09:23:58.000Z</time>
      </trkpt>
      <trkpt lat="47.28945" lon="-2.37205">
        <ele>3.4000000953674</ele>
        <time>2021-02-14T09:24:02.000Z</time>
      </trkpt>
      <trkpt lat="47.28948" lon="-2.37203">
        <ele>3.4000000953674</ele>
        <time>2021-02-14T09:24:38.000Z</time>
      </trkpt>
      <trkpt lat="47.28957" lon="-2.372">
        <ele>3.7999999523163</ele>
        <time>2021-02-14T09:24:41.000Z</time>
      </trkpt>
      <trkpt lat="47.2896" lon="-2.37198">
        <ele>4.1999998092651</ele>
        <time>2021-02-14T09:24:42.000Z</time>
      </trkpt>
      <trkpt lat="47.28963" lon="-2.37196">
        <ele>4.5999999046326</ele>
        <time>2021-02-14T09:24:43.000Z</time>
      </trkpt>
      <trkpt lat="47.28967" lon="-2.37194">
        <ele>5</ele>
        <time>2021-02-14T09:24:44.000Z</time>
      </trkpt>
      <trkpt lat="47.2897" lon="-2.37192">
        <ele>5.5999999046326</ele>
        <time>2021-02-14T09:24:45.000Z</time>
      </trkpt>
      <trkpt lat="47.28979" lon="-2.37184">
        <ele>5.5999999046326</ele>
        <time>2021-02-14T09:24:48.000Z</time>
      </trkpt>
      <trkpt lat="47.28989" lon="-2.37177">
        <ele>6</ele>
        <time>2021-02-14T09:24:51.000Z</time>
      </trkpt>
      <trkpt lat="47.28991" lon="-2.37175">
        <ele>6.8000001907349</ele>
        <time>2021-02-14T09:24:52.000Z</time>
      </trkpt>
      <trkpt lat="47.28994" lon="-2.37173">
        <ele>7.1999998092651</ele>
        <time>2021-02-14T09:24:53.000Z</time>
      </trkpt>
      <trkpt lat="47.28997" lon="-2.37173">
        <ele>7.8000001907349</ele>
        <time>2021-02-14T09:24:54.000Z</time>
      </trkpt>
      <trkpt lat="47.29006" lon="-2.37172">
        <ele>8.1999998092651</ele>
        <time>2021-02-14T09:24:57.000Z</time>
      </trkpt>
      <trkpt lat="47.29008" lon="-2.37176">
        <ele>8.6000003814697</ele>
        <time>2021-02-14T09:24:58.000Z</time>
      </trkpt>
      <trkpt lat="47.29011" lon="-2.3718">
        <ele>9</ele>
        <time>2021-02-14T09:24:59.000Z</time>
      </trkpt>
      <trkpt lat="47.29013" lon="-2.37183">
        <ele>9.3999996185303</ele>
        <time>2021-02-14T09:25:00.000Z</time>
      </trkpt>
      <trkpt lat="47.29016" lon="-2.37186">
        <ele>9.8000001907349</ele>
        <time>2021-02-14T09:25:01.000Z</time>
      </trkpt>
      <trkpt lat="47.29022" lon="-2.37192">
        <ele>9.8000001907349</ele>
        <time>2021-02-14T09:25:03.000Z</time>
      </trkpt>
      <trkpt lat="47.2903" lon="-2.372">
        <ele>10.199999809265</ele>
        <time>2021-02-14T09:25:06.000Z</time>
      </trkpt>
      <trkpt lat="47.29032" lon="-2.37203">
        <ele>10.60000038147</ele>
        <time>2021-02-14T09:25:07.000Z</time>
      </trkpt>
      <trkpt lat="47.29035" lon="-2.37206">
        <ele>11</ele>
        <time>2021-02-14T09:25:08.000Z</time>
      </trkpt>
      <trkpt lat="47.29038" lon="-2.37209">
        <ele>11.39999961853</ele>
        <time>2021-02-14T09:25:09.000Z</time>
      </trkpt>
      <trkpt lat="47.2904" lon="-2.37211">
        <ele>11.800000190735</ele>
        <time>2021-02-14T09:25:10.000Z</time>
      </trkpt>
      <trkpt lat="47.29053" lon="-2.37225">
        <ele>11.800000190735</ele>
        <time>2021-02-14T09:25:15.000Z</time>
      </trkpt>
      <trkpt lat="47.29066" lon="-2.37237">
        <ele>12.199999809265</ele>
        <time>2021-02-14T09:25:20.000Z</time>
      </trkpt>
      <trkpt lat="47.29068" lon="-2.3724">
        <ele>12.60000038147</ele>
        <time>2021-02-14T09:25:21.000Z</time>
      </trkpt>
      <trkpt lat="47.2907" lon="-2.37242">
        <ele>13</ele>
        <time>2021-02-14T09:25:22.000Z</time>
      </trkpt>
      <trkpt lat="47.29073" lon="-2.37244">
        <ele>13.39999961853</ele>
        <time>2021-02-14T09:25:23.000Z</time>
      </trkpt>
      <trkpt lat="47.29075" lon="-2.37247">
        <ele>13.800000190735</ele>
        <time>2021-02-14T09:25:24.000Z</time>
      </trkpt>
      <trkpt lat="47.29097" lon="-2.37269">
        <ele>13.800000190735</ele>
        <time>2021-02-14T09:25:33.000Z</time>
      </trkpt>
      <trkpt lat="47.29117" lon="-2.37289">
        <ele>13.800000190735</ele>
        <time>2021-02-14T09:25:41.000Z</time>
      </trkpt>
      <trkpt lat="47.29129" lon="-2.37302">
        <ele>14.199999809265</ele>
        <time>2021-02-14T09:25:46.000Z</time>
      </trkpt>
      <trkpt lat="47.29132" lon="-2.37305">
        <ele>14.60000038147</ele>
        <time>2021-02-14T09:25:47.000Z</time>
      </trkpt>
      <trkpt lat="47.29135" lon="-2.37308">
        <ele>15</ele>
        <time>2021-02-14T09:25:48.000Z</time>
      </trkpt>
      <trkpt lat="47.29138" lon="-2.37312">
        <ele>15.39999961853</ele>
        <time>2021-02-14T09:25:49.000Z</time>
      </trkpt>
      <trkpt lat="47.29141" lon="-2.37316">
        <ele>15.800000190735</ele>
        <time>2021-02-14T09:25:50.000Z</time>
      </trkpt>
      <trkpt lat="47.29156" lon="-2.37344">
        <ele>15.800000190735</ele>
        <time>2021-02-14T09:25:56.000Z</time>
      </trkpt>
      <trkpt lat="47.29158" lon="-2.3735">
        <ele>15.800000190735</ele>
        <time>2021-02-14T09:25:57.000Z</time>
      </trkpt>
      <trkpt lat="47.29169" lon="-2.37372">
        <ele>15.800000190735</ele>
        <time>2021-02-14T09:26:01.000Z</time>
      </trkpt>
      <trkpt lat="47.29172" lon="-2.37377">
        <ele>15.800000190735</ele>
        <time>2021-02-14T09:26:02.000Z</time>
      </trkpt>
      <trkpt lat="47.29197" lon="-2.37419">
        <ele>15.800000190735</ele>
        <time>2021-02-14T09:26:09.000Z</time>
      </trkpt>
      <trkpt lat="47.29214" lon="-2.37447">
        <ele>15.39999961853</ele>
        <time>2021-02-14T09:26:13.000Z</time>
      </trkpt>
      <trkpt lat="47.29218" lon="-2.37454">
        <ele>15</ele>
        <time>2021-02-14T09:26:14.000Z</time>
      </trkpt>
      <trkpt lat="47.29223" lon="-2.37462">
        <ele>14.60000038147</ele>
        <time>2021-02-14T09:26:15.000Z</time>
      </trkpt>
      <trkpt lat="47.29227" lon="-2.37469">
        <ele>14.199999809265</ele>
        <time>2021-02-14T09:26:16.000Z</time>
      </trkpt>
      <trkpt lat="47.29232" lon="-2.37477">
        <ele>13.800000190735</ele>
        <time>2021-02-14T09:26:17.000Z</time>
      </trkpt>
      <trkpt lat="47.29258" lon="-2.37512">
        <ele>13.800000190735</ele>
        <time>2021-02-14T09:26:22.000Z</time>
      </trkpt>
      <trkpt lat="47.29265" lon="-2.37519">
        <ele>13.199999809265</ele>
        <time>2021-02-14T09:26:23.000Z</time>
      </trkpt>
      <trkpt lat="47.2927" lon="-2.37526">
        <ele>12.800000190735</ele>
        <time>2021-02-14T09:26:24.000Z</time>
      </trkpt>
      <trkpt lat="47.29275" lon="-2.37535">
        <ele>12.39999961853</ele>
        <time>2021-02-14T09:26:25.000Z</time>
      </trkpt>
      <trkpt lat="47.2928" lon="-2.37544">
        <ele>12</ele>
        <time>2021-02-14T09:26:26.000Z</time>
      </trkpt>
      <trkpt lat="47.29285" lon="-2.37553">
        <ele>11.39999961853</ele>
        <time>2021-02-14T09:26:27.000Z</time>
      </trkpt>
      <trkpt lat="47.2929" lon="-2.37562">
        <ele>11.39999961853</ele>
        <time>2021-02-14T09:26:28.000Z</time>
      </trkpt>
      <trkpt lat="47.29317" lon="-2.37606">
        <ele>11.39999961853</ele>
        <time>2021-02-14T09:26:34.000Z</time>
      </trkpt>
      <trkpt lat="47.29323" lon="-2.37621">
        <ele>11.39999961853</ele>
        <time>2021-02-14T09:26:36.000Z</time>
      </trkpt>
      <trkpt lat="47.29331" lon="-2.37645">
        <ele>11.39999961853</ele>
        <time>2021-02-14T09:26:39.000Z</time>
      </trkpt>
      <trkpt lat="47.29337" lon="-2.37669">
        <ele>11.39999961853</ele>
        <time>2021-02-14T09:26:42.000Z</time>
      </trkpt>
      <trkpt lat="47.29336" lon="-2.37679">
        <ele>11.39999961853</ele>
        <time>2021-02-14T09:26:43.000Z</time>
      </trkpt>
      <trkpt lat="47.2933" lon="-2.37709">
        <ele>11.39999961853</ele>
        <time>2021-02-14T09:26:46.000Z</time>
      </trkpt>
      <trkpt lat="47.2933" lon="-2.3772">
        <ele>11.39999961853</ele>
        <time>2021-02-14T09:26:47.000Z</time>
      </trkpt>
      <trkpt lat="47.29329" lon="-2.37732">
        <ele>11</ele>
        <time>2021-02-14T09:26:48.000Z</time>
      </trkpt>
      <trkpt lat="47.29329" lon="-2.37744">
        <ele>10.60000038147</ele>
        <time>2021-02-14T09:26:49.000Z</time>
      </trkpt>
      <trkpt lat="47.2933" lon="-2.37756">
        <ele>10</ele>
        <time>2021-02-14T09:26:50.000Z</time>
      </trkpt>
      <trkpt lat="47.29331" lon="-2.37769">
        <ele>9.6000003814697</ele>
        <time>2021-02-14T09:26:51.000Z</time>
      </trkpt>
      <trkpt lat="47.29331" lon="-2.37782">
        <ele>9.1999998092651</ele>
        <time>2021-02-14T09:26:52.000Z</time>
      </trkpt>
      <trkpt lat="47.29333" lon="-2.37809">
        <ele>8.8000001907349</ele>
        <time>2021-02-14T09:26:54.000Z</time>
      </trkpt>
      <trkpt lat="47.29334" lon="-2.37823">
        <ele>7.8000001907349</ele>
        <time>2021-02-14T09:26:55.000Z</time>
      </trkpt>
      <trkpt lat="47.29335" lon="-2.37836">
        <ele>7.4000000953674</ele>
        <time>2021-02-14T09:26:56.000Z</time>
      </trkpt>
      <trkpt lat="47.29338" lon="-2.37849">
        <ele>7</ele>
        <time>2021-02-14T09:26:57.000Z</time>
      </trkpt>
      <trkpt lat="47.29344" lon="-2.37875">
        <ele>7</ele>
        <time>2021-02-14T09:26:59.000Z</time>
      </trkpt>
      <trkpt lat="47.29348" lon="-2.37888">
        <ele>6.5999999046326</ele>
        <time>2021-02-14T09:27:00.000Z</time>
      </trkpt>
      <trkpt lat="47.29351" lon="-2.37899">
        <ele>6.1999998092651</ele>
        <time>2021-02-14T09:27:01.000Z</time>
      </trkpt>
      <trkpt lat="47.29356" lon="-2.37911">
        <ele>5.8000001907349</ele>
        <time>2021-02-14T09:27:02.000Z</time>
      </trkpt>
      <trkpt lat="47.2936" lon="-2.37922">
        <ele>5.1999998092651</ele>
        <time>2021-02-14T09:27:03.000Z</time>
      </trkpt>
      <trkpt lat="47.29364" lon="-2.37933">
        <ele>4.8000001907349</ele>
        <time>2021-02-14T09:27:04.000Z</time>
      </trkpt>
      <trkpt lat="47.2938" lon="-2.37978">
        <ele>4.4000000953674</ele>
        <time>2021-02-14T09:27:08.000Z</time>
      </trkpt>
      <trkpt lat="47.29384" lon="-2.3799">
        <ele>3.7999999523163</ele>
        <time>2021-02-14T09:27:09.000Z</time>
      </trkpt>
      <trkpt lat="47.29388" lon="-2.38001">
        <ele>3.4000000953674</ele>
        <time>2021-02-14T09:27:10.000Z</time>
      </trkpt>
      <trkpt lat="47.29392" lon="-2.38012">
        <ele>3</ele>
        <time>2021-02-14T09:27:11.000Z</time>
      </trkpt>
      <trkpt lat="47.29396" lon="-2.38023">
        <ele>2.4000000953674</ele>
        <time>2021-02-14T09:27:12.000Z</time>
      </trkpt>
      <trkpt lat="47.29408" lon="-2.38055">
        <ele>2</ele>
        <time>2021-02-14T09:27:15.000Z</time>
      </trkpt>
      <trkpt lat="47.29412" lon="-2.38066">
        <ele>1.6000000238419</ele>
        <time>2021-02-14T09:27:16.000Z</time>
      </trkpt>
      <trkpt lat="47.29416" lon="-2.38076">
        <ele>1.2000000476837</ele>
        <time>2021-02-14T09:27:17.000Z</time>
      </trkpt>
      <trkpt lat="47.29419" lon="-2.38086">
        <ele>0.80000001192093</ele>
        <time>2021-02-14T09:27:18.000Z</time>
      </trkpt>
      <trkpt lat="47.29423" lon="-2.38095">
        <ele>0.40000000596046</ele>
        <time>2021-02-14T09:27:19.000Z</time>
      </trkpt>
      <trkpt lat="47.29426" lon="-2.38105">
        <ele>0.40000000596046</ele>
        <time>2021-02-14T09:27:20.000Z</time>
      </trkpt>
      <trkpt lat="47.29449" lon="-2.38163">
        <ele>0.40000000596046</ele>
        <time>2021-02-14T09:27:27.000Z</time>
      </trkpt>
      <trkpt lat="47.29453" lon="-2.38163">
        <ele>0.40000000596046</ele>
        <time>2021-02-14T09:27:29.000Z</time>
      </trkpt>
      <trkpt lat="47.29463" lon="-2.38152">
        <ele>0.40000000596046</ele>
        <time>2021-02-14T09:27:33.000Z</time>
      </trkpt>
      <trkpt lat="47.29465" lon="-2.38149">
        <ele>0.40000000596046</ele>
        <time>2021-02-14T09:27:34.000Z</time>
      </trkpt>
      <trkpt lat="47.29484" lon="-2.38131">
        <ele>0.40000000596046</ele>
        <time>2021-02-14T09:27:41.000Z</time>
      </trkpt>
      <trkpt lat="47.29503" lon="-2.38127">
        <ele>0.40000000596046</ele>
        <time>2021-02-14T09:27:46.000Z</time>
      </trkpt>
      <trkpt lat="47.2953" lon="-2.38126">
        <ele>0.40000000596046</ele>
        <time>2021-02-14T09:27:53.000Z</time>
      </trkpt>
      <trkpt lat="47.29552" lon="-2.38125">
        <ele>0.80000001192093</ele>
        <time>2021-02-14T09:27:59.000Z</time>
      </trkpt>
      <trkpt lat="47.29555" lon="-2.38125">
        <ele>1.2000000476837</ele>
        <time>2021-02-14T09:28:00.000Z</time>
      </trkpt>
      <trkpt lat="47.29559" lon="-2.38125">
        <ele>1.6000000238419</ele>
        <time>2021-02-14T09:28:01.000Z</time>
      </trkpt>
      <trkpt lat="47.29562" lon="-2.38124">
        <ele>2</ele>
        <time>2021-02-14T09:28:02.000Z</time>
      </trkpt>
      <trkpt lat="47.29565" lon="-2.38123">
        <ele>2.4000000953674</ele>
        <time>2021-02-14T09:28:03.000Z</time>
      </trkpt>
      <trkpt lat="47.29572" lon="-2.38122">
        <ele>2.4000000953674</ele>
        <time>2021-02-14T09:28:05.000Z</time>
      </trkpt>
      <trkpt lat="47.29598" lon="-2.38116">
        <ele>2.7999999523163</ele>
        <time>2021-02-14T09:28:13.000Z</time>
      </trkpt>
      <trkpt lat="47.29601" lon="-2.38116">
        <ele>3.2000000476837</ele>
        <time>2021-02-14T09:28:14.000Z</time>
      </trkpt>
      <trkpt lat="47.29604" lon="-2.38115">
        <ele>3.5999999046326</ele>
        <time>2021-02-14T09:28:15.000Z</time>
      </trkpt>
      <trkpt lat="47.29607" lon="-2.38114">
        <ele>4</ele>
        <time>2021-02-14T09:28:16.000Z</time>
      </trkpt>
      <trkpt lat="47.29611" lon="-2.38113">
        <ele>4.4000000953674</ele>
        <time>2021-02-14T09:28:17.000Z</time>
      </trkpt>
      <trkpt lat="47.29622" lon="-2.38109">
        <ele>4.4000000953674</ele>
        <time>2021-02-14T09:28:21.000Z</time>
      </trkpt>
      <trkpt lat="47.29643" lon="-2.38098">
        <ele>4.4000000953674</ele>
        <time>2021-02-14T09:28:29.000Z</time>
      </trkpt>
      <trkpt lat="47.2965" lon="-2.38094">
        <ele>4.8000001907349</ele>
        <time>2021-02-14T09:28:32.000Z</time>
      </trkpt>
      <trkpt lat="47.29652" lon="-2.38093">
        <ele>5.1999998092651</ele>
        <time>2021-02-14T09:28:33.000Z</time>
      </trkpt>
      <trkpt lat="47.29654" lon="-2.38093">
        <ele>5.5999999046326</ele>
        <time>2021-02-14T09:28:34.000Z</time>
      </trkpt>
      <trkpt lat="47.29657" lon="-2.38091">
        <ele>6.5999999046326</ele>
        <time>2021-02-14T09:28:35.000Z</time>
      </trkpt>
      <trkpt lat="47.29661" lon="-2.38089">
        <ele>6.5999999046326</ele>
        <time>2021-02-14T09:28:37.000Z</time>
      </trkpt>
      <trkpt lat="47.29675" lon="-2.38078">
        <ele>6.5999999046326</ele>
        <time>2021-02-14T09:28:43.000Z</time>
      </trkpt>
      <trkpt lat="47.29678" lon="-2.38076">
        <ele>7</ele>
        <time>2021-02-14T09:28:44.000Z</time>
      </trkpt>
      <trkpt lat="47.2968" lon="-2.38075">
        <ele>7.4000000953674</ele>
        <time>2021-02-14T09:28:45.000Z</time>
      </trkpt>
      <trkpt lat="47.29683" lon="-2.38074">
        <ele>7.8000001907349</ele>
        <time>2021-02-14T09:28:46.000Z</time>
      </trkpt>
      <trkpt lat="47.29685" lon="-2.38073">
        <ele>8.1999998092651</ele>
        <time>2021-02-14T09:28:47.000Z</time>
      </trkpt>
      <trkpt lat="47.29688" lon="-2.38071">
        <ele>8.6000003814697</ele>
        <time>2021-02-14T09:28:48.000Z</time>
      </trkpt>
      <trkpt lat="47.29693" lon="-2.38068">
        <ele>8.6000003814697</ele>
        <time>2021-02-14T09:28:50.000Z</time>
      </trkpt>
      <trkpt lat="47.29697" lon="-2.38064">
        <ele>9</ele>
        <time>2021-02-14T09:28:52.000Z</time>
      </trkpt>
      <trkpt lat="47.297" lon="-2.38063">
        <ele>9.3999996185303</ele>
        <time>2021-02-14T09:28:53.000Z</time>
      </trkpt>
      <trkpt lat="47.29702" lon="-2.38061">
        <ele>9.8000001907349</ele>
        <time>2021-02-14T09:28:54.000Z</time>
      </trkpt>
      <trkpt lat="47.29704" lon="-2.3806">
        <ele>10.39999961853</ele>
        <time>2021-02-14T09:28:55.000Z</time>
      </trkpt>
      <trkpt lat="47.29706" lon="-2.38059">
        <ele>10.800000190735</ele>
        <time>2021-02-14T09:28:56.000Z</time>
      </trkpt>
      <trkpt lat="47.29709" lon="-2.38056">
        <ele>10.800000190735</ele>
        <time>2021-02-14T09:28:58.000Z</time>
      </trkpt>
      <trkpt lat="47.29711" lon="-2.38054">
        <ele>11.199999809265</ele>
        <time>2021-02-14T09:28:59.000Z</time>
      </trkpt>
      <trkpt lat="47.29713" lon="-2.38053">
        <ele>11.60000038147</ele>
        <time>2021-02-14T09:29:00.000Z</time>
      </trkpt>
      <trkpt lat="47.29714" lon="-2.38051">
        <ele>12.199999809265</ele>
        <time>2021-02-14T09:29:01.000Z</time>
      </trkpt>
      <trkpt lat="47.29714" lon="-2.3805">
        <ele>12.60000038147</ele>
        <time>2021-02-14T09:29:02.000Z</time>
      </trkpt>
      <trkpt lat="47.29716" lon="-2.3805">
        <ele>13</ele>
        <time>2021-02-14T09:29:03.000Z</time>
      </trkpt>
      <trkpt lat="47.29725" lon="-2.38043">
        <ele>13.39999961853</ele>
        <time>2021-02-14T09:29:08.000Z</time>
      </trkpt>
      <trkpt lat="47.29726" lon="-2.38042">
        <ele>13.800000190735</ele>
        <time>2021-02-14T09:29:09.000Z</time>
      </trkpt>
      <trkpt lat="47.29728" lon="-2.3804">
        <ele>14.39999961853</ele>
        <time>2021-02-14T09:29:10.000Z</time>
      </trkpt>
      <trkpt lat="47.29729" lon="-2.38039">
        <ele>14.800000190735</ele>
        <time>2021-02-14T09:29:11.000Z</time>
      </trkpt>
      <trkpt lat="47.2973" lon="-2.38037">
        <ele>15.199999809265</ele>
        <time>2021-02-14T09:29:12.000Z</time>
      </trkpt>
      <trkpt lat="47.29733" lon="-2.38035">
        <ele>15.199999809265</ele>
        <time>2021-02-14T09:29:14.000Z</time>
      </trkpt>
      <trkpt lat="47.29734" lon="-2.38032">
        <ele>15.60000038147</ele>
        <time>2021-02-14T09:29:15.000Z</time>
      </trkpt>
      <trkpt lat="47.29735" lon="-2.3803">
        <ele>16</ele>
        <time>2021-02-14T09:29:16.000Z</time>
      </trkpt>
      <trkpt lat="47.29735" lon="-2.38028">
        <ele>16.39999961853</ele>
        <time>2021-02-14T09:29:17.000Z</time>
      </trkpt>
      <trkpt lat="47.29734" lon="-2.38026">
        <ele>17</ele>
        <time>2021-02-14T09:29:18.000Z</time>
      </trkpt>
      <trkpt lat="47.29734" lon="-2.38023">
        <ele>17.39999961853</ele>
        <time>2021-02-14T09:29:19.000Z</time>
      </trkpt>
      <trkpt lat="47.29731" lon="-2.38015">
        <ele>17.799999237061</ele>
        <time>2021-02-14T09:29:22.000Z</time>
      </trkpt>
      <trkpt lat="47.2973" lon="-2.38014">
        <ele>18.200000762939</ele>
        <time>2021-02-14T09:29:23.000Z</time>
      </trkpt>
      <trkpt lat="47.29729" lon="-2.38011">
        <ele>19</ele>
        <time>2021-02-14T09:29:24.000Z</time>
      </trkpt>
      <trkpt lat="47.29729" lon="-2.38008">
        <ele>19.39999961853</ele>
        <time>2021-02-14T09:29:25.000Z</time>
      </trkpt>
      <trkpt lat="47.29729" lon="-2.38005">
        <ele>19.39999961853</ele>
        <time>2021-02-14T09:29:26.000Z</time>
      </trkpt>
      <trkpt lat="47.2973" lon="-2.38">
        <ele>19.799999237061</ele>
        <time>2021-02-14T09:29:28.000Z</time>
      </trkpt>
      <trkpt lat="47.2973" lon="-2.37997">
        <ele>20.39999961853</ele>
        <time>2021-02-14T09:29:29.000Z</time>
      </trkpt>
      <trkpt lat="47.2973" lon="-2.37994">
        <ele>20.799999237061</ele>
        <time>2021-02-14T09:29:30.000Z</time>
      </trkpt>
      <trkpt lat="47.2973" lon="-2.37991">
        <ele>21.200000762939</ele>
        <time>2021-02-14T09:29:31.000Z</time>
      </trkpt>
      <trkpt lat="47.2973" lon="-2.37988">
        <ele>21.60000038147</ele>
        <time>2021-02-14T09:29:32.000Z</time>
      </trkpt>
      <trkpt lat="47.2973" lon="-2.37986">
        <ele>21.60000038147</ele>
        <time>2021-02-14T09:29:33.000Z</time>
      </trkpt>
      <trkpt lat="47.29732" lon="-2.37979">
        <ele>22.200000762939</ele>
        <time>2021-02-14T09:29:35.000Z</time>
      </trkpt>
      <trkpt lat="47.29733" lon="-2.37977">
        <ele>22.60000038147</ele>
        <time>2021-02-14T09:29:36.000Z</time>
      </trkpt>
      <trkpt lat="47.29735" lon="-2.37974">
        <ele>23</ele>
        <time>2021-02-14T09:29:37.000Z</time>
      </trkpt>
      <trkpt lat="47.29736" lon="-2.37972">
        <ele>23.60000038147</ele>
        <time>2021-02-14T09:29:38.000Z</time>
      </trkpt>
      <trkpt lat="47.29738" lon="-2.37971">
        <ele>24</ele>
        <time>2021-02-14T09:29:39.000Z</time>
      </trkpt>
      <trkpt lat="47.29741" lon="-2.37962">
        <ele>24</ele>
        <time>2021-02-14T09:29:43.000Z</time>
      </trkpt>
      <trkpt lat="47.29741" lon="-2.3796">
        <ele>24.39999961853</ele>
        <time>2021-02-14T09:29:44.000Z</time>
      </trkpt>
      <trkpt lat="47.29742" lon="-2.37957">
        <ele>24.799999237061</ele>
        <time>2021-02-14T09:29:45.000Z</time>
      </trkpt>
      <trkpt lat="47.29743" lon="-2.37955">
        <ele>25.200000762939</ele>
        <time>2021-02-14T09:29:46.000Z</time>
      </trkpt>
      <trkpt lat="47.29745" lon="-2.37952">
        <ele>25.60000038147</ele>
        <time>2021-02-14T09:29:47.000Z</time>
      </trkpt>
      <trkpt lat="47.29747" lon="-2.3795">
        <ele>26.200000762939</ele>
        <time>2021-02-14T09:29:48.000Z</time>
      </trkpt>
      <trkpt lat="47.29749" lon="-2.37946">
        <ele>26.200000762939</ele>
        <time>2021-02-14T09:29:50.000Z</time>
      </trkpt>
      <trkpt lat="47.29753" lon="-2.3794">
        <ele>26.60000038147</ele>
        <time>2021-02-14T09:29:53.000Z</time>
      </trkpt>
      <trkpt lat="47.29755" lon="-2.37938">
        <ele>27</ele>
        <time>2021-02-14T09:29:54.000Z</time>
      </trkpt>
      <trkpt lat="47.29757" lon="-2.37936">
        <ele>27.39999961853</ele>
        <time>2021-02-14T09:29:55.000Z</time>
      </trkpt>
      <trkpt lat="47.29758" lon="-2.37934">
        <ele>27.799999237061</ele>
        <time>2021-02-14T09:29:56.000Z</time>
      </trkpt>
      <trkpt lat="47.2976" lon="-2.37933">
        <ele>28.200000762939</ele>
        <time>2021-02-14T09:29:57.000Z</time>
      </trkpt>
      <trkpt lat="47.29777" lon="-2.37918">
        <ele>28.200000762939</ele>
        <time>2021-02-14T09:30:06.000Z</time>
      </trkpt>
      <trkpt lat="47.2979" lon="-2.3791">
        <ele>28.200000762939</ele>
        <time>2021-02-14T09:30:12.000Z</time>
      </trkpt>
      <trkpt lat="47.29801" lon="-2.37902">
        <ele>28.60000038147</ele>
        <time>2021-02-14T09:30:17.000Z</time>
      </trkpt>
      <trkpt lat="47.29803" lon="-2.379">
        <ele>29</ele>
        <time>2021-02-14T09:30:18.000Z</time>
      </trkpt>
      <trkpt lat="47.29806" lon="-2.37899">
        <ele>29.39999961853</ele>
        <time>2021-02-14T09:30:19.000Z</time>
      </trkpt>
      <trkpt lat="47.29809" lon="-2.37897">
        <ele>29.799999237061</ele>
        <time>2021-02-14T09:30:20.000Z</time>
      </trkpt>
      <trkpt lat="47.29812" lon="-2.37896">
        <ele>30.200000762939</ele>
        <time>2021-02-14T09:30:21.000Z</time>
      </trkpt>
      <trkpt lat="47.29828" lon="-2.37886">
        <ele>30.200000762939</ele>
        <time>2021-02-14T09:30:26.000Z</time>
      </trkpt>
      <trkpt lat="47.29848" lon="-2.37868">
        <ele>30.200000762939</ele>
        <time>2021-02-14T09:30:32.000Z</time>
      </trkpt>
      <trkpt lat="47.29854" lon="-2.37858">
        <ele>30.200000762939</ele>
        <time>2021-02-14T09:30:34.000Z</time>
      </trkpt>
      <trkpt lat="47.29861" lon="-2.37843">
        <ele>30.200000762939</ele>
        <time>2021-02-14T09:30:37.000Z</time>
      </trkpt>
      <trkpt lat="47.29866" lon="-2.3783">
        <ele>30.200000762939</ele>
        <time>2021-02-14T09:30:42.000Z</time>
      </trkpt>
      <trkpt lat="47.29873" lon="-2.37807">
        <ele>30.200000762939</ele>
        <time>2021-02-14T09:30:50.000Z</time>
      </trkpt>
      <trkpt lat="47.29872" lon="-2.37785">
        <ele>30.200000762939</ele>
        <time>2021-02-14T09:30:58.000Z</time>
      </trkpt>
      <trkpt lat="47.29878" lon="-2.37791">
        <ele>30.200000762939</ele>
        <time>2021-02-14T09:31:02.000Z</time>
      </trkpt>
      <trkpt lat="47.29873" lon="-2.37799">
        <ele>30.200000762939</ele>
        <time>2021-02-14T09:31:05.000Z</time>
      </trkpt>
      <trkpt lat="47.29863" lon="-2.37798">
        <ele>30.200000762939</ele>
        <time>2021-02-14T09:31:09.000Z</time>
      </trkpt>
      <trkpt lat="47.29861" lon="-2.37795">
        <ele>30.200000762939</ele>
        <time>2021-02-14T09:31:11.000Z</time>
      </trkpt>
      <trkpt lat="47.2986" lon="-2.37792">
        <ele>30.200000762939</ele>
        <time>2021-02-14T09:31:12.000Z</time>
      </trkpt>
      <trkpt lat="47.29861" lon="-2.37789">
        <ele>30.200000762939</ele>
        <time>2021-02-14T09:31:14.000Z</time>
      </trkpt>
      <trkpt lat="47.29869" lon="-2.37792">
        <ele>30.200000762939</ele>
        <time>2021-02-14T09:31:18.000Z</time>
      </trkpt>
      <trkpt lat="47.29872" lon="-2.37795">
        <ele>30.200000762939</ele>
        <time>2021-02-14T09:31:20.000Z</time>
      </trkpt>
      <trkpt lat="47.29874" lon="-2.37803">
        <ele>30.200000762939</ele>
        <time>2021-02-14T09:31:24.000Z</time>
      </trkpt>
      <trkpt lat="47.29874" lon="-2.37805">
        <ele>28.200000762939</ele>
        <time>2021-02-14T09:32:22.000Z</time>
      </trkpt>
      <trkpt lat="47.29878" lon="-2.37815">
        <ele>28.200000762939</ele>
        <time>2021-02-14T09:32:25.000Z</time>
      </trkpt>
      <trkpt lat="47.2988" lon="-2.37819">
        <ele>28.200000762939</ele>
        <time>2021-02-14T09:32:26.000Z</time>
      </trkpt>
      <trkpt lat="47.29892" lon="-2.37836">
        <ele>28.200000762939</ele>
        <time>2021-02-14T09:32:29.000Z</time>
      </trkpt>
      <trkpt lat="47.29903" lon="-2.3785">
        <ele>27.799999237061</ele>
        <time>2021-02-14T09:32:31.000Z</time>
      </trkpt>
      <trkpt lat="47.29909" lon="-2.37858">
        <ele>27.200000762939</ele>
        <time>2021-02-14T09:32:32.000Z</time>
      </trkpt>
      <trkpt lat="47.29915" lon="-2.37866">
        <ele>26.799999237061</ele>
        <time>2021-02-14T09:32:33.000Z</time>
      </trkpt>
      <trkpt lat="47.29922" lon="-2.37873">
        <ele>26.39999961853</ele>
        <time>2021-02-14T09:32:34.000Z</time>
      </trkpt>
      <trkpt lat="47.29929" lon="-2.37881">
        <ele>25.799999237061</ele>
        <time>2021-02-14T09:32:35.000Z</time>
      </trkpt>
      <trkpt lat="47.29937" lon="-2.3789">
        <ele>25.200000762939</ele>
        <time>2021-02-14T09:32:36.000Z</time>
      </trkpt>
      <trkpt lat="47.29944" lon="-2.37898">
        <ele>24.60000038147</ele>
        <time>2021-02-14T09:32:37.000Z</time>
      </trkpt>
      <trkpt lat="47.2995" lon="-2.37906">
        <ele>24</ele>
        <time>2021-02-14T09:32:38.000Z</time>
      </trkpt>
      <trkpt lat="47.29957" lon="-2.37914">
        <ele>23.39999961853</ele>
        <time>2021-02-14T09:32:39.000Z</time>
      </trkpt>
      <trkpt lat="47.29964" lon="-2.37922">
        <ele>23</ele>
        <time>2021-02-14T09:32:40.000Z</time>
      </trkpt>
      <trkpt lat="47.2997" lon="-2.37929">
        <ele>22.60000038147</ele>
        <time>2021-02-14T09:32:41.000Z</time>
      </trkpt>
      <trkpt lat="47.29977" lon="-2.37936">
        <ele>22.200000762939</ele>
        <time>2021-02-14T09:32:42.000Z</time>
      </trkpt>
      <trkpt lat="47.29982" lon="-2.37941">
        <ele>21.799999237061</ele>
        <time>2021-02-14T09:32:43.000Z</time>
      </trkpt>
      <trkpt lat="47.29987" lon="-2.37945">
        <ele>21.39999961853</ele>
        <time>2021-02-14T09:32:44.000Z</time>
      </trkpt>
      <trkpt lat="47.29997" lon="-2.3795">
        <ele>21.39999961853</ele>
        <time>2021-02-14T09:32:46.000Z</time>
      </trkpt>
      <trkpt lat="47.3" lon="-2.37965">
        <ele>21.39999961853</ele>
        <time>2021-02-14T09:32:49.000Z</time>
      </trkpt>
      <trkpt lat="47.29995" lon="-2.37976">
        <ele>21.39999961853</ele>
        <time>2021-02-14T09:32:51.000Z</time>
      </trkpt>
      <trkpt lat="47.29992" lon="-2.37982">
        <ele>21.39999961853</ele>
        <time>2021-02-14T09:32:52.000Z</time>
      </trkpt>
      <trkpt lat="47.2999" lon="-2.3799">
        <ele>21.39999961853</ele>
        <time>2021-02-14T09:32:53.000Z</time>
      </trkpt>
      <trkpt lat="47.29985" lon="-2.38025">
        <ele>21.39999961853</ele>
        <time>2021-02-14T09:32:57.000Z</time>
      </trkpt>
      <trkpt lat="47.29985" lon="-2.38069">
        <ele>21.39999961853</ele>
        <time>2021-02-14T09:33:02.000Z</time>
      </trkpt>
      <trkpt lat="47.29984" lon="-2.38093">
        <ele>21.39999961853</ele>
        <time>2021-02-14T09:33:05.000Z</time>
      </trkpt>
      <trkpt lat="47.29985" lon="-2.38155">
        <ele>21.39999961853</ele>
        <time>2021-02-14T09:33:13.000Z</time>
      </trkpt>
      <trkpt lat="47.29988" lon="-2.38193">
        <ele>21.799999237061</ele>
        <time>2021-02-14T09:33:18.000Z</time>
      </trkpt>
      <trkpt lat="47.29988" lon="-2.38201">
        <ele>22.200000762939</ele>
        <time>2021-02-14T09:33:19.000Z</time>
      </trkpt>
      <trkpt lat="47.29989" lon="-2.38209">
        <ele>22.60000038147</ele>
        <time>2021-02-14T09:33:20.000Z</time>
      </trkpt>
      <trkpt lat="47.29989" lon="-2.38216">
        <ele>23</ele>
        <time>2021-02-14T09:33:21.000Z</time>
      </trkpt>
      <trkpt lat="47.29989" lon="-2.38224">
        <ele>23.39999961853</ele>
        <time>2021-02-14T09:33:22.000Z</time>
      </trkpt>
      <trkpt lat="47.29993" lon="-2.3826">
        <ele>23.39999961853</ele>
        <time>2021-02-14T09:33:27.000Z</time>
      </trkpt>
      <trkpt lat="47.29993" lon="-2.38268">
        <ele>23.39999961853</ele>
        <time>2021-02-14T09:33:28.000Z</time>
      </trkpt>
      <trkpt lat="47.29993" lon="-2.38297">
        <ele>23.799999237061</ele>
        <time>2021-02-14T09:33:32.000Z</time>
      </trkpt>
      <trkpt lat="47.29994" lon="-2.38305">
        <ele>24.39999961853</ele>
        <time>2021-02-14T09:33:33.000Z</time>
      </trkpt>
      <trkpt lat="47.29994" lon="-2.38312">
        <ele>24.799999237061</ele>
        <time>2021-02-14T09:33:34.000Z</time>
      </trkpt>
      <trkpt lat="47.29994" lon="-2.3832">
        <ele>25.200000762939</ele>
        <time>2021-02-14T09:33:35.000Z</time>
      </trkpt>
      <trkpt lat="47.29995" lon="-2.38327">
        <ele>25.60000038147</ele>
        <time>2021-02-14T09:33:36.000Z</time>
      </trkpt>
      <trkpt lat="47.29999" lon="-2.38399">
        <ele>25.60000038147</ele>
        <time>2021-02-14T09:33:45.000Z</time>
      </trkpt>
      <trkpt lat="47.30008" lon="-2.38466">
        <ele>25.60000038147</ele>
        <time>2021-02-14T09:33:54.000Z</time>
      </trkpt>
      <trkpt lat="47.30018" lon="-2.38523">
        <ele>25.60000038147</ele>
        <time>2021-02-14T09:34:01.000Z</time>
      </trkpt>
      <trkpt lat="47.30024" lon="-2.3858">
        <ele>25</ele>
        <time>2021-02-14T09:34:07.000Z</time>
      </trkpt>
      <trkpt lat="47.30025" lon="-2.38589">
        <ele>24.60000038147</ele>
        <time>2021-02-14T09:34:08.000Z</time>
      </trkpt>
      <trkpt lat="47.30026" lon="-2.38597">
        <ele>24</ele>
        <time>2021-02-14T09:34:09.000Z</time>
      </trkpt>
      <trkpt lat="47.30027" lon="-2.38603">
        <ele>23.39999961853</ele>
        <time>2021-02-14T09:34:10.000Z</time>
      </trkpt>
      <trkpt lat="47.30027" lon="-2.38608">
        <ele>23</ele>
        <time>2021-02-14T09:34:11.000Z</time>
      </trkpt>
      <trkpt lat="47.30026" lon="-2.38614">
        <ele>22.39999961853</ele>
        <time>2021-02-14T09:34:12.000Z</time>
      </trkpt>
      <trkpt lat="47.30025" lon="-2.3862">
        <ele>21.799999237061</ele>
        <time>2021-02-14T09:34:13.000Z</time>
      </trkpt>
      <trkpt lat="47.30025" lon="-2.38627">
        <ele>21.39999961853</ele>
        <time>2021-02-14T09:34:14.000Z</time>
      </trkpt>
      <trkpt lat="47.30024" lon="-2.38634">
        <ele>20.799999237061</ele>
        <time>2021-02-14T09:34:15.000Z</time>
      </trkpt>
      <trkpt lat="47.30027" lon="-2.38657">
        <ele>20.799999237061</ele>
        <time>2021-02-14T09:34:18.000Z</time>
      </trkpt>
      <trkpt lat="47.30028" lon="-2.38665">
        <ele>20.39999961853</ele>
        <time>2021-02-14T09:34:19.000Z</time>
      </trkpt>
      <trkpt lat="47.30029" lon="-2.38674">
        <ele>20</ele>
        <time>2021-02-14T09:34:20.000Z</time>
      </trkpt>
      <trkpt lat="47.3003" lon="-2.38684">
        <ele>19.39999961853</ele>
        <time>2021-02-14T09:34:21.000Z</time>
      </trkpt>
      <trkpt lat="47.3003" lon="-2.38694">
        <ele>19</ele>
        <time>2021-02-14T09:34:22.000Z</time>
      </trkpt>
      <trkpt lat="47.30029" lon="-2.38704">
        <ele>18.60000038147</ele>
        <time>2021-02-14T09:34:23.000Z</time>
      </trkpt>
      <trkpt lat="47.30027" lon="-2.38715">
        <ele>18.60000038147</ele>
        <time>2021-02-14T09:34:24.000Z</time>
      </trkpt>
      <trkpt lat="47.30019" lon="-2.38761">
        <ele>18.200000762939</ele>
        <time>2021-02-14T09:34:28.000Z</time>
      </trkpt>
      <trkpt lat="47.30017" lon="-2.38773">
        <ele>17.799999237061</ele>
        <time>2021-02-14T09:34:29.000Z</time>
      </trkpt>
      <trkpt lat="47.30016" lon="-2.38786">
        <ele>17.39999961853</ele>
        <time>2021-02-14T09:34:30.000Z</time>
      </trkpt>
      <trkpt lat="47.30014" lon="-2.38799">
        <ele>17</ele>
        <time>2021-02-14T09:34:31.000Z</time>
      </trkpt>
      <trkpt lat="47.30012" lon="-2.38813">
        <ele>16.39999961853</ele>
        <time>2021-02-14T09:34:32.000Z</time>
      </trkpt>
      <trkpt lat="47.30011" lon="-2.38826">
        <ele>16</ele>
        <time>2021-02-14T09:34:33.000Z</time>
      </trkpt>
      <trkpt lat="47.3001" lon="-2.38841">
        <ele>15.60000038147</ele>
        <time>2021-02-14T09:34:34.000Z</time>
      </trkpt>
      <trkpt lat="47.30009" lon="-2.38855">
        <ele>15.199999809265</ele>
        <time>2021-02-14T09:34:35.000Z</time>
      </trkpt>
      <trkpt lat="47.30008" lon="-2.38869">
        <ele>14.800000190735</ele>
        <time>2021-02-14T09:34:36.000Z</time>
      </trkpt>
      <trkpt lat="47.30007" lon="-2.38884">
        <ele>14.199999809265</ele>
        <time>2021-02-14T09:34:37.000Z</time>
      </trkpt>
      <trkpt lat="47.30007" lon="-2.38924">
        <ele>13.800000190735</ele>
        <time>2021-02-14T09:34:40.000Z</time>
      </trkpt>
      <trkpt lat="47.30007" lon="-2.38936">
        <ele>13.199999809265</ele>
        <time>2021-02-14T09:34:41.000Z</time>
      </trkpt>
      <trkpt lat="47.30007" lon="-2.38948">
        <ele>12.800000190735</ele>
        <time>2021-02-14T09:34:42.000Z</time>
      </trkpt>
      <trkpt lat="47.30007" lon="-2.38958">
        <ele>11.199999809265</ele>
        <time>2021-02-14T09:34:43.000Z</time>
      </trkpt>
      <trkpt lat="47.30008" lon="-2.38968">
        <ele>10.39999961853</ele>
        <time>2021-02-14T09:34:44.000Z</time>
      </trkpt>
      <trkpt lat="47.30011" lon="-2.38974">
        <ele>9.6000003814697</ele>
        <time>2021-02-14T09:34:45.000Z</time>
      </trkpt>
      <trkpt lat="47.30014" lon="-2.38978">
        <ele>8.8000001907349</ele>
        <time>2021-02-14T09:34:46.000Z</time>
      </trkpt>
      <trkpt lat="47.30019" lon="-2.3898">
        <ele>8.1999998092651</ele>
        <time>2021-02-14T09:34:47.000Z</time>
      </trkpt>
      <trkpt lat="47.30025" lon="-2.38979">
        <ele>7.4000000953674</ele>
        <time>2021-02-14T09:34:48.000Z</time>
      </trkpt>
      <trkpt lat="47.30032" lon="-2.38977">
        <ele>6.5999999046326</ele>
        <time>2021-02-14T09:34:49.000Z</time>
      </trkpt>
      <trkpt lat="47.30043" lon="-2.38967">
        <ele>6.5999999046326</ele>
        <time>2021-02-14T09:34:51.000Z</time>
      </trkpt>
      <trkpt lat="47.30048" lon="-2.38961">
        <ele>6.5999999046326</ele>
        <time>2021-02-14T09:34:52.000Z</time>
      </trkpt>
      <trkpt lat="47.30058" lon="-2.3895">
        <ele>6.5999999046326</ele>
        <time>2021-02-14T09:34:54.000Z</time>
      </trkpt>
      <trkpt lat="47.30072" lon="-2.38938">
        <ele>6.5999999046326</ele>
        <time>2021-02-14T09:34:57.000Z</time>
      </trkpt>
      <trkpt lat="47.30082" lon="-2.38931">
        <ele>6.5999999046326</ele>
        <time>2021-02-14T09:34:59.000Z</time>
      </trkpt>
      <trkpt lat="47.30099" lon="-2.38917">
        <ele>7</ele>
        <time>2021-02-14T09:35:03.000Z</time>
      </trkpt>
      <trkpt lat="47.30103" lon="-2.38913">
        <ele>7.5999999046326</ele>
        <time>2021-02-14T09:35:04.000Z</time>
      </trkpt>
      <trkpt lat="47.30106" lon="-2.38909">
        <ele>8</ele>
        <time>2021-02-14T09:35:05.000Z</time>
      </trkpt>
      <trkpt lat="47.30109" lon="-2.38906">
        <ele>8.6000003814697</ele>
        <time>2021-02-14T09:35:06.000Z</time>
      </trkpt>
      <trkpt lat="47.30113" lon="-2.38902">
        <ele>9</ele>
        <time>2021-02-14T09:35:07.000Z</time>
      </trkpt>
      <trkpt lat="47.30119" lon="-2.38893">
        <ele>9</ele>
        <time>2021-02-14T09:35:09.000Z</time>
      </trkpt>
      <trkpt lat="47.30122" lon="-2.38888">
        <ele>9</ele>
        <time>2021-02-14T09:35:10.000Z</time>
      </trkpt>
      <trkpt lat="47.30125" lon="-2.38883">
        <ele>9.3999996185303</ele>
        <time>2021-02-14T09:35:11.000Z</time>
      </trkpt>
      <trkpt lat="47.30128" lon="-2.38878">
        <ele>9.8000001907349</ele>
        <time>2021-02-14T09:35:12.000Z</time>
      </trkpt>
      <trkpt lat="47.30131" lon="-2.38873">
        <ele>10.199999809265</ele>
        <time>2021-02-14T09:35:13.000Z</time>
      </trkpt>
      <trkpt lat="47.30134" lon="-2.38867">
        <ele>10.60000038147</ele>
        <time>2021-02-14T09:35:14.000Z</time>
      </trkpt>
      <trkpt lat="47.30137" lon="-2.38861">
        <ele>11.199999809265</ele>
        <time>2021-02-14T09:35:15.000Z</time>
      </trkpt>
      <trkpt lat="47.30147" lon="-2.38842">
        <ele>11.60000038147</ele>
        <time>2021-02-14T09:35:19.000Z</time>
      </trkpt>
      <trkpt lat="47.3015" lon="-2.38837">
        <ele>12</ele>
        <time>2021-02-14T09:35:20.000Z</time>
      </trkpt>
      <trkpt lat="47.30152" lon="-2.38832">
        <ele>12.39999961853</ele>
        <time>2021-02-14T09:35:21.000Z</time>
      </trkpt>
      <trkpt lat="47.30155" lon="-2.38827">
        <ele>12.800000190735</ele>
        <time>2021-02-14T09:35:22.000Z</time>
      </trkpt>
      <trkpt lat="47.30159" lon="-2.38823">
        <ele>13.39999961853</ele>
        <time>2021-02-14T09:35:23.000Z</time>
      </trkpt>
      <trkpt lat="47.30174" lon="-2.38802">
        <ele>13.39999961853</ele>
        <time>2021-02-14T09:35:28.000Z</time>
      </trkpt>
      <trkpt lat="47.30177" lon="-2.38798">
        <ele>13.800000190735</ele>
        <time>2021-02-14T09:35:29.000Z</time>
      </trkpt>
      <trkpt lat="47.3018" lon="-2.38795">
        <ele>14.199999809265</ele>
        <time>2021-02-14T09:35:30.000Z</time>
      </trkpt>
      <trkpt lat="47.30183" lon="-2.38791">
        <ele>14.60000038147</ele>
        <time>2021-02-14T09:35:31.000Z</time>
      </trkpt>
      <trkpt lat="47.30186" lon="-2.38788">
        <ele>15.39999961853</ele>
        <time>2021-02-14T09:35:32.000Z</time>
      </trkpt>
      <trkpt lat="47.30198" lon="-2.38775">
        <ele>15.39999961853</ele>
        <time>2021-02-14T09:35:36.000Z</time>
      </trkpt>
      <trkpt lat="47.30201" lon="-2.38774">
        <ele>15.800000190735</ele>
        <time>2021-02-14T09:35:37.000Z</time>
      </trkpt>
      <trkpt lat="47.30204" lon="-2.38773">
        <ele>16.39999961853</ele>
        <time>2021-02-14T09:35:38.000Z</time>
      </trkpt>
      <trkpt lat="47.30208" lon="-2.38773">
        <ele>16.799999237061</ele>
        <time>2021-02-14T09:35:39.000Z</time>
      </trkpt>
      <trkpt lat="47.30211" lon="-2.38775">
        <ele>17.200000762939</ele>
        <time>2021-02-14T09:35:40.000Z</time>
      </trkpt>
      <trkpt lat="47.30214" lon="-2.38776">
        <ele>17.60000038147</ele>
        <time>2021-02-14T09:35:41.000Z</time>
      </trkpt>
      <trkpt lat="47.30221" lon="-2.3878">
        <ele>18.200000762939</ele>
        <time>2021-02-14T09:35:43.000Z</time>
      </trkpt>
      <trkpt lat="47.30224" lon="-2.38783">
        <ele>18.60000038147</ele>
        <time>2021-02-14T09:35:44.000Z</time>
      </trkpt>
      <trkpt lat="47.30226" lon="-2.38785">
        <ele>19</ele>
        <time>2021-02-14T09:35:45.000Z</time>
      </trkpt>
      <trkpt lat="47.30229" lon="-2.38788">
        <ele>19.39999961853</ele>
        <time>2021-02-14T09:35:46.000Z</time>
      </trkpt>
      <trkpt lat="47.30232" lon="-2.3879">
        <ele>20</ele>
        <time>2021-02-14T09:35:47.000Z</time>
      </trkpt>
      <trkpt lat="47.30235" lon="-2.38793">
        <ele>20.39999961853</ele>
        <time>2021-02-14T09:35:48.000Z</time>
      </trkpt>
      <trkpt lat="47.30239" lon="-2.38796">
        <ele>20.799999237061</ele>
        <time>2021-02-14T09:35:49.000Z</time>
      </trkpt>
      <trkpt lat="47.30242" lon="-2.38799">
        <ele>21.200000762939</ele>
        <time>2021-02-14T09:35:50.000Z</time>
      </trkpt>
      <trkpt lat="47.30245" lon="-2.38802">
        <ele>21.799999237061</ele>
        <time>2021-02-14T09:35:51.000Z</time>
      </trkpt>
      <trkpt lat="47.30247" lon="-2.38806">
        <ele>22.200000762939</ele>
        <time>2021-02-14T09:35:52.000Z</time>
      </trkpt>
      <trkpt lat="47.30252" lon="-2.38814">
        <ele>22.60000038147</ele>
        <time>2021-02-14T09:35:54.000Z</time>
      </trkpt>
      <trkpt lat="47.30255" lon="-2.38818">
        <ele>23</ele>
        <time>2021-02-14T09:35:55.000Z</time>
      </trkpt>
      <trkpt lat="47.30257" lon="-2.38823">
        <ele>23.39999961853</ele>
        <time>2021-02-14T09:35:56.000Z</time>
      </trkpt>
      <trkpt lat="47.30259" lon="-2.38827">
        <ele>24.200000762939</ele>
        <time>2021-02-14T09:35:57.000Z</time>
      </trkpt>
      <trkpt lat="47.30269" lon="-2.38845">
        <ele>24.200000762939</ele>
        <time>2021-02-14T09:36:01.000Z</time>
      </trkpt>
      <trkpt lat="47.30271" lon="-2.38851">
        <ele>24.60000038147</ele>
        <time>2021-02-14T09:36:02.000Z</time>
      </trkpt>
      <trkpt lat="47.30273" lon="-2.38856">
        <ele>25</ele>
        <time>2021-02-14T09:36:03.000Z</time>
      </trkpt>
      <trkpt lat="47.30275" lon="-2.38862">
        <ele>25.60000038147</ele>
        <time>2021-02-14T09:36:04.000Z</time>
      </trkpt>
      <trkpt lat="47.30277" lon="-2.38867">
        <ele>26</ele>
        <time>2021-02-14T09:36:05.000Z</time>
      </trkpt>
      <trkpt lat="47.30279" lon="-2.38873">
        <ele>26.39999961853</ele>
        <time>2021-02-14T09:36:06.000Z</time>
      </trkpt>
      <trkpt lat="47.30285" lon="-2.38895">
        <ele>26.39999961853</ele>
        <time>2021-02-14T09:36:10.000Z</time>
      </trkpt>
      <trkpt lat="47.30301" lon="-2.38931">
        <ele>26.39999961853</ele>
        <time>2021-02-14T09:36:17.000Z</time>
      </trkpt>
      <trkpt lat="47.30319" lon="-2.38965">
        <ele>26.39999961853</ele>
        <time>2021-02-14T09:36:24.000Z</time>
      </trkpt>
      <trkpt lat="47.30322" lon="-2.38969">
        <ele>26.799999237061</ele>
        <time>2021-02-14T09:36:25.000Z</time>
      </trkpt>
      <trkpt lat="47.30324" lon="-2.38973">
        <ele>27.200000762939</ele>
        <time>2021-02-14T09:36:26.000Z</time>
      </trkpt>
      <trkpt lat="47.30327" lon="-2.38976">
        <ele>27.60000038147</ele>
        <time>2021-02-14T09:36:27.000Z</time>
      </trkpt>
      <trkpt lat="47.30329" lon="-2.3898">
        <ele>28</ele>
        <time>2021-02-14T09:36:28.000Z</time>
      </trkpt>
      <trkpt lat="47.30331" lon="-2.38985">
        <ele>28.39999961853</ele>
        <time>2021-02-14T09:36:29.000Z</time>
      </trkpt>
      <trkpt lat="47.30336" lon="-2.38994">
        <ele>28.39999961853</ele>
        <time>2021-02-14T09:36:31.000Z</time>
      </trkpt>
      <trkpt lat="47.30347" lon="-2.39024">
        <ele>28.39999961853</ele>
        <time>2021-02-14T09:36:37.000Z</time>
      </trkpt>
      <trkpt lat="47.3035" lon="-2.39035">
        <ele>29</ele>
        <time>2021-02-14T09:36:39.000Z</time>
      </trkpt>
      <trkpt lat="47.30351" lon="-2.39041">
        <ele>29.39999961853</ele>
        <time>2021-02-14T09:36:40.000Z</time>
      </trkpt>
      <trkpt lat="47.30352" lon="-2.39046">
        <ele>29.799999237061</ele>
        <time>2021-02-14T09:36:41.000Z</time>
      </trkpt>
      <trkpt lat="47.30354" lon="-2.39052">
        <ele>30.200000762939</ele>
        <time>2021-02-14T09:36:42.000Z</time>
      </trkpt>
      <trkpt lat="47.30355" lon="-2.39058">
        <ele>30.60000038147</ele>
        <time>2021-02-14T09:36:43.000Z</time>
      </trkpt>
      <trkpt lat="47.30356" lon="-2.39065">
        <ele>30.60000038147</ele>
        <time>2021-02-14T09:36:44.000Z</time>
      </trkpt>
      <trkpt lat="47.30366" lon="-2.3911">
        <ele>30.60000038147</ele>
        <time>2021-02-14T09:36:50.000Z</time>
      </trkpt>
      <trkpt lat="47.30383" lon="-2.39151">
        <ele>30.60000038147</ele>
        <time>2021-02-14T09:36:55.000Z</time>
      </trkpt>
      <trkpt lat="47.30387" lon="-2.39159">
        <ele>30.60000038147</ele>
        <time>2021-02-14T09:36:56.000Z</time>
      </trkpt>
      <trkpt lat="47.3041" lon="-2.39174">
        <ele>30.60000038147</ele>
        <time>2021-02-14T09:37:00.000Z</time>
      </trkpt>
      <trkpt lat="47.30432" lon="-2.39167">
        <ele>30.60000038147</ele>
        <time>2021-02-14T09:37:04.000Z</time>
      </trkpt>
      <trkpt lat="47.30446" lon="-2.39156">
        <ele>30.60000038147</ele>
        <time>2021-02-14T09:37:07.000Z</time>
      </trkpt>
      <trkpt lat="47.30454" lon="-2.39147">
        <ele>30.60000038147</ele>
        <time>2021-02-14T09:37:09.000Z</time>
      </trkpt>
      <trkpt lat="47.30479" lon="-2.39117">
        <ele>30.60000038147</ele>
        <time>2021-02-14T09:37:16.000Z</time>
      </trkpt>
      <trkpt lat="47.30496" lon="-2.391">
        <ele>31</ele>
        <time>2021-02-14T09:37:20.000Z</time>
      </trkpt>
      <trkpt lat="47.305" lon="-2.39096">
        <ele>31.39999961853</ele>
        <time>2021-02-14T09:37:21.000Z</time>
      </trkpt>
      <trkpt lat="47.30505" lon="-2.39091">
        <ele>31.799999237061</ele>
        <time>2021-02-14T09:37:22.000Z</time>
      </trkpt>
      <trkpt lat="47.30509" lon="-2.39086">
        <ele>32.400001525879</ele>
        <time>2021-02-14T09:37:23.000Z</time>
      </trkpt>
      <trkpt lat="47.30514" lon="-2.39082">
        <ele>32.799999237061</ele>
        <time>2021-02-14T09:37:24.000Z</time>
      </trkpt>
      <trkpt lat="47.3054" lon="-2.39058">
        <ele>32.799999237061</ele>
        <time>2021-02-14T09:37:30.000Z</time>
      </trkpt>
      <trkpt lat="47.30558" lon="-2.39036">
        <ele>33.200000762939</ele>
        <time>2021-02-14T09:37:35.000Z</time>
      </trkpt>
      <trkpt lat="47.30562" lon="-2.39031">
        <ele>34</ele>
        <time>2021-02-14T09:37:36.000Z</time>
      </trkpt>
      <trkpt lat="47.30566" lon="-2.39026">
        <ele>34.400001525879</ele>
        <time>2021-02-14T09:37:37.000Z</time>
      </trkpt>
      <trkpt lat="47.30569" lon="-2.39021">
        <ele>35</ele>
        <time>2021-02-14T09:37:38.000Z</time>
      </trkpt>
      <trkpt lat="47.30592" lon="-2.38993">
        <ele>35</ele>
        <time>2021-02-14T09:37:44.000Z</time>
      </trkpt>
      <trkpt lat="47.30619" lon="-2.38963">
        <ele>35.400001525879</ele>
        <time>2021-02-14T09:37:51.000Z</time>
      </trkpt>
      <trkpt lat="47.30624" lon="-2.3896">
        <ele>35.799999237061</ele>
        <time>2021-02-14T09:37:52.000Z</time>
      </trkpt>
      <trkpt lat="47.30627" lon="-2.38956">
        <ele>36.200000762939</ele>
        <time>2021-02-14T09:37:53.000Z</time>
      </trkpt>
      <trkpt lat="47.30631" lon="-2.38952">
        <ele>36.599998474121</ele>
        <time>2021-02-14T09:37:54.000Z</time>
      </trkpt>
      <trkpt lat="47.30635" lon="-2.38949">
        <ele>37</ele>
        <time>2021-02-14T09:37:55.000Z</time>
      </trkpt>
      <trkpt lat="47.30649" lon="-2.38936">
        <ele>37</ele>
        <time>2021-02-14T09:37:59.000Z</time>
      </trkpt>
      <trkpt lat="47.30677" lon="-2.38912">
        <ele>37</ele>
        <time>2021-02-14T09:38:07.000Z</time>
      </trkpt>
      <trkpt lat="47.30693" lon="-2.38903">
        <ele>37</ele>
        <time>2021-02-14T09:38:13.000Z</time>
      </trkpt>
      <trkpt lat="47.30695" lon="-2.38907">
        <ele>37</ele>
        <time>2021-02-14T09:38:17.000Z</time>
      </trkpt>
      <trkpt lat="47.30696" lon="-2.3891">
        <ele>39</ele>
        <time>2021-02-14T09:39:37.000Z</time>
      </trkpt>
      <trkpt lat="47.30699" lon="-2.38917">
        <ele>39</ele>
        <time>2021-02-14T09:39:39.000Z</time>
      </trkpt>
      <trkpt lat="47.30701" lon="-2.38933">
        <ele>39</ele>
        <time>2021-02-14T09:39:42.000Z</time>
      </trkpt>
      <trkpt lat="47.307" lon="-2.38946">
        <ele>39</ele>
        <time>2021-02-14T09:39:44.000Z</time>
      </trkpt>
      <trkpt lat="47.30701" lon="-2.38953">
        <ele>39</ele>
        <time>2021-02-14T09:39:45.000Z</time>
      </trkpt>
      <trkpt lat="47.30705" lon="-2.38964">
        <ele>39</ele>
        <time>2021-02-14T09:39:47.000Z</time>
      </trkpt>
      <trkpt lat="47.30711" lon="-2.38967">
        <ele>39</ele>
        <time>2021-02-14T09:39:50.000Z</time>
      </trkpt>
      <trkpt lat="47.30716" lon="-2.38968">
        <ele>39</ele>
        <time>2021-02-14T09:39:54.000Z</time>
      </trkpt>
      <trkpt lat="47.30719" lon="-2.38967">
        <ele>39</ele>
        <time>2021-02-14T09:39:55.000Z</time>
      </trkpt>
      <trkpt lat="47.30735" lon="-2.38958">
        <ele>39</ele>
        <time>2021-02-14T09:39:59.000Z</time>
      </trkpt>
      <trkpt lat="47.30757" lon="-2.38956">
        <ele>39</ele>
        <time>2021-02-14T09:40:03.000Z</time>
      </trkpt>
      <trkpt lat="47.30763" lon="-2.38953">
        <ele>39</ele>
        <time>2021-02-14T09:40:04.000Z</time>
      </trkpt>
      <trkpt lat="47.30782" lon="-2.38939">
        <ele>38.599998474121</ele>
        <time>2021-02-14T09:40:07.000Z</time>
      </trkpt>
      <trkpt lat="47.30788" lon="-2.38934">
        <ele>38.200000762939</ele>
        <time>2021-02-14T09:40:08.000Z</time>
      </trkpt>
      <trkpt lat="47.30795" lon="-2.3893">
        <ele>37.799999237061</ele>
        <time>2021-02-14T09:40:09.000Z</time>
      </trkpt>
      <trkpt lat="47.30801" lon="-2.38924">
        <ele>37.400001525879</ele>
        <time>2021-02-14T09:40:10.000Z</time>
      </trkpt>
      <trkpt lat="47.30807" lon="-2.38919">
        <ele>37</ele>
        <time>2021-02-14T09:40:11.000Z</time>
      </trkpt>
      <trkpt lat="47.30813" lon="-2.38913">
        <ele>37</ele>
        <time>2021-02-14T09:40:12.000Z</time>
      </trkpt>
      <trkpt lat="47.30824" lon="-2.38903">
        <ele>37</ele>
        <time>2021-02-14T09:40:14.000Z</time>
      </trkpt>
      <trkpt lat="47.30846" lon="-2.38885">
        <ele>37</ele>
        <time>2021-02-14T09:40:19.000Z</time>
      </trkpt>
      <trkpt lat="47.30863" lon="-2.38867">
        <ele>37</ele>
        <time>2021-02-14T09:40:24.000Z</time>
      </trkpt>
      <trkpt lat="47.30866" lon="-2.38862">
        <ele>37</ele>
        <time>2021-02-14T09:40:25.000Z</time>
      </trkpt>
      <trkpt lat="47.30875" lon="-2.38841">
        <ele>37.400001525879</ele>
        <time>2021-02-14T09:40:29.000Z</time>
      </trkpt>
      <trkpt lat="47.30879" lon="-2.38838">
        <ele>37.799999237061</ele>
        <time>2021-02-14T09:40:30.000Z</time>
      </trkpt>
      <trkpt lat="47.30883" lon="-2.38836">
        <ele>38.200000762939</ele>
        <time>2021-02-14T09:40:31.000Z</time>
      </trkpt>
      <trkpt lat="47.30887" lon="-2.38836">
        <ele>38.599998474121</ele>
        <time>2021-02-14T09:40:32.000Z</time>
      </trkpt>
      <trkpt lat="47.30891" lon="-2.38837">
        <ele>39</ele>
        <time>2021-02-14T09:40:33.000Z</time>
      </trkpt>
      <trkpt lat="47.30901" lon="-2.38848">
        <ele>39</ele>
        <time>2021-02-14T09:40:36.000Z</time>
      </trkpt>
      <trkpt lat="47.30906" lon="-2.38867">
        <ele>39</ele>
        <time>2021-02-14T09:40:39.000Z</time>
      </trkpt>
      <trkpt lat="47.30908" lon="-2.38874">
        <ele>39</ele>
        <time>2021-02-14T09:40:40.000Z</time>
      </trkpt>
      <trkpt lat="47.30919" lon="-2.3889">
        <ele>39</ele>
        <time>2021-02-14T09:40:43.000Z</time>
      </trkpt>
      <trkpt lat="47.30926" lon="-2.38901">
        <ele>39</ele>
        <time>2021-02-14T09:40:45.000Z</time>
      </trkpt>
      <trkpt lat="47.3093" lon="-2.38914">
        <ele>39</ele>
        <time>2021-02-14T09:40:47.000Z</time>
      </trkpt>
      <trkpt lat="47.30929" lon="-2.38935">
        <ele>39</ele>
        <time>2021-02-14T09:40:50.000Z</time>
      </trkpt>
      <trkpt lat="47.30923" lon="-2.38947">
        <ele>39</ele>
        <time>2021-02-14T09:40:52.000Z</time>
      </trkpt>
      <trkpt lat="47.30917" lon="-2.38959">
        <ele>39</ele>
        <time>2021-02-14T09:40:54.000Z</time>
      </trkpt>
      <trkpt lat="47.30908" lon="-2.38979">
        <ele>39</ele>
        <time>2021-02-14T09:40:57.000Z</time>
      </trkpt>
      <trkpt lat="47.30904" lon="-2.38994">
        <ele>39</ele>
        <time>2021-02-14T09:40:59.000Z</time>
      </trkpt>
      <trkpt lat="47.30902" lon="-2.39019">
        <ele>39</ele>
        <time>2021-02-14T09:41:02.000Z</time>
      </trkpt>
      <trkpt lat="47.30901" lon="-2.39045">
        <ele>39</ele>
        <time>2021-02-14T09:41:05.000Z</time>
      </trkpt>
      <trkpt lat="47.309" lon="-2.39087">
        <ele>39</ele>
        <time>2021-02-14T09:41:10.000Z</time>
      </trkpt>
      <trkpt lat="47.30902" lon="-2.39095">
        <ele>39</ele>
        <time>2021-02-14T09:41:11.000Z</time>
      </trkpt>
      <trkpt lat="47.30909" lon="-2.39118">
        <ele>39</ele>
        <time>2021-02-14T09:41:14.000Z</time>
      </trkpt>
      <trkpt lat="47.30917" lon="-2.3914">
        <ele>39</ele>
        <time>2021-02-14T09:41:17.000Z</time>
      </trkpt>
      <trkpt lat="47.30944" lon="-2.39202">
        <ele>39</ele>
        <time>2021-02-14T09:41:25.000Z</time>
      </trkpt>
      <trkpt lat="47.30974" lon="-2.39273">
        <ele>39</ele>
        <time>2021-02-14T09:41:34.000Z</time>
      </trkpt>
      <trkpt lat="47.30997" lon="-2.39339">
        <ele>39</ele>
        <time>2021-02-14T09:41:42.000Z</time>
      </trkpt>
      <trkpt lat="47.31024" lon="-2.39417">
        <ele>39</ele>
        <time>2021-02-14T09:41:51.000Z</time>
      </trkpt>
      <trkpt lat="47.31042" lon="-2.39473">
        <ele>39</ele>
        <time>2021-02-14T09:41:57.000Z</time>
      </trkpt>
      <trkpt lat="47.31063" lon="-2.39535">
        <ele>39</ele>
        <time>2021-02-14T09:42:04.000Z</time>
      </trkpt>
      <trkpt lat="47.31084" lon="-2.39593">
        <ele>39</ele>
        <time>2021-02-14T09:42:12.000Z</time>
      </trkpt>
      <trkpt lat="47.31101" lon="-2.3964">
        <ele>39</ele>
        <time>2021-02-14T09:42:19.000Z</time>
      </trkpt>
      <trkpt lat="47.31126" lon="-2.39709">
        <ele>39</ele>
        <time>2021-02-14T09:42:28.000Z</time>
      </trkpt>
      <trkpt lat="47.31145" lon="-2.39769">
        <ele>39</ele>
        <time>2021-02-14T09:42:35.000Z</time>
      </trkpt>
      <trkpt lat="47.3116" lon="-2.39809">
        <ele>38.599998474121</ele>
        <time>2021-02-14T09:42:40.000Z</time>
      </trkpt>
      <trkpt lat="47.31163" lon="-2.39816">
        <ele>38.200000762939</ele>
        <time>2021-02-14T09:42:41.000Z</time>
      </trkpt>
      <trkpt lat="47.31167" lon="-2.39823">
        <ele>37.799999237061</ele>
        <time>2021-02-14T09:42:42.000Z</time>
      </trkpt>
      <trkpt lat="47.3117" lon="-2.3983">
        <ele>37.400001525879</ele>
        <time>2021-02-14T09:42:43.000Z</time>
      </trkpt>
      <trkpt lat="47.31174" lon="-2.39836">
        <ele>37</ele>
        <time>2021-02-14T09:42:44.000Z</time>
      </trkpt>
      <trkpt lat="47.31179" lon="-2.3985">
        <ele>37</ele>
        <time>2021-02-14T09:42:46.000Z</time>
      </trkpt>
      <trkpt lat="47.31182" lon="-2.39864">
        <ele>37</ele>
        <time>2021-02-14T09:42:48.000Z</time>
      </trkpt>
      <trkpt lat="47.31184" lon="-2.3987">
        <ele>37</ele>
        <time>2021-02-14T09:42:49.000Z</time>
      </trkpt>
      <trkpt lat="47.31188" lon="-2.39883">
        <ele>37</ele>
        <time>2021-02-14T09:42:52.000Z</time>
      </trkpt>
      <trkpt lat="47.3119" lon="-2.39889">
        <ele>37</ele>
        <time>2021-02-14T09:42:54.000Z</time>
      </trkpt>
      <trkpt lat="47.31193" lon="-2.39902">
        <ele>37</ele>
        <time>2021-02-14T09:42:57.000Z</time>
      </trkpt>
      <trkpt lat="47.31196" lon="-2.39909">
        <ele>36.599998474121</ele>
        <time>2021-02-14T09:42:59.000Z</time>
      </trkpt>
      <trkpt lat="47.31197" lon="-2.39912">
        <ele>36.200000762939</ele>
        <time>2021-02-14T09:43:00.000Z</time>
      </trkpt>
      <trkpt lat="47.31199" lon="-2.39917">
        <ele>35.599998474121</ele>
        <time>2021-02-14T09:43:01.000Z</time>
      </trkpt>
      <trkpt lat="47.31201" lon="-2.39921">
        <ele>35.200000762939</ele>
        <time>2021-02-14T09:43:02.000Z</time>
      </trkpt>
      <trkpt lat="47.31202" lon="-2.39925">
        <ele>34.799999237061</ele>
        <time>2021-02-14T09:43:03.000Z</time>
      </trkpt>
      <trkpt lat="47.31211" lon="-2.39952">
        <ele>34.799999237061</ele>
        <time>2021-02-14T09:43:09.000Z</time>
      </trkpt>
      <trkpt lat="47.3122" lon="-2.3998">
        <ele>34.400001525879</ele>
        <time>2021-02-14T09:43:15.000Z</time>
      </trkpt>
      <trkpt lat="47.31222" lon="-2.39985">
        <ele>34</ele>
        <time>2021-02-14T09:43:16.000Z</time>
      </trkpt>
      <trkpt lat="47.31223" lon="-2.39989">
        <ele>33.599998474121</ele>
        <time>2021-02-14T09:43:17.000Z</time>
      </trkpt>
      <trkpt lat="47.31225" lon="-2.39993">
        <ele>33.200000762939</ele>
        <time>2021-02-14T09:43:18.000Z</time>
      </trkpt>
      <trkpt lat="47.31227" lon="-2.39997">
        <ele>32.799999237061</ele>
        <time>2021-02-14T09:43:19.000Z</time>
      </trkpt>
      <trkpt lat="47.3123" lon="-2.40011">
        <ele>32.799999237061</ele>
        <time>2021-02-14T09:43:22.000Z</time>
      </trkpt>
      <trkpt lat="47.31231" lon="-2.40016">
        <ele>32.400001525879</ele>
        <time>2021-02-14T09:43:23.000Z</time>
      </trkpt>
      <trkpt lat="47.31232" lon="-2.40021">
        <ele>32</ele>
        <time>2021-02-14T09:43:24.000Z</time>
      </trkpt>
      <trkpt lat="47.31234" lon="-2.40025">
        <ele>31.60000038147</ele>
        <time>2021-02-14T09:43:25.000Z</time>
      </trkpt>
      <trkpt lat="47.31235" lon="-2.40029">
        <ele>31.200000762939</ele>
        <time>2021-02-14T09:43:26.000Z</time>
      </trkpt>
      <trkpt lat="47.31236" lon="-2.40033">
        <ele>30.60000038147</ele>
        <time>2021-02-14T09:43:27.000Z</time>
      </trkpt>
      <trkpt lat="47.31238" lon="-2.40041">
        <ele>30.60000038147</ele>
        <time>2021-02-14T09:43:29.000Z</time>
      </trkpt>
      <trkpt lat="47.31243" lon="-2.40043">
        <ele>30.60000038147</ele>
        <time>2021-02-14T09:43:31.000Z</time>
      </trkpt>
      <trkpt lat="47.31249" lon="-2.40047">
        <ele>30.60000038147</ele>
        <time>2021-02-14T09:43:35.000Z</time>
      </trkpt>
      <trkpt lat="47.31255" lon="-2.40054">
        <ele>30.60000038147</ele>
        <time>2021-02-14T09:43:38.000Z</time>
      </trkpt>
      <trkpt lat="47.3126" lon="-2.40057">
        <ele>30.60000038147</ele>
        <time>2021-02-14T09:43:39.000Z</time>
      </trkpt>
      <trkpt lat="47.31282" lon="-2.40063">
        <ele>30.60000038147</ele>
        <time>2021-02-14T09:43:44.000Z</time>
      </trkpt>
      <trkpt lat="47.313" lon="-2.40069">
        <ele>30.60000038147</ele>
        <time>2021-02-14T09:43:49.000Z</time>
      </trkpt>
      <trkpt lat="47.31322" lon="-2.4008">
        <ele>30.60000038147</ele>
        <time>2021-02-14T09:43:55.000Z</time>
      </trkpt>
      <trkpt lat="47.31343" lon="-2.40091">
        <ele>30.60000038147</ele>
        <time>2021-02-14T09:44:00.000Z</time>
      </trkpt>
      <trkpt lat="47.31384" lon="-2.40113">
        <ele>30.60000038147</ele>
        <time>2021-02-14T09:44:09.000Z</time>
      </trkpt>
      <trkpt lat="47.31388" lon="-2.40116">
        <ele>30.60000038147</ele>
        <time>2021-02-14T09:44:10.000Z</time>
      </trkpt>
      <trkpt lat="47.31409" lon="-2.4013">
        <ele>30.60000038147</ele>
        <time>2021-02-14T09:44:15.000Z</time>
      </trkpt>
      <trkpt lat="47.3144" lon="-2.40149">
        <ele>30.60000038147</ele>
        <time>2021-02-14T09:44:22.000Z</time>
      </trkpt>
      <trkpt lat="47.31448" lon="-2.40155">
        <ele>31</ele>
        <time>2021-02-14T09:44:24.000Z</time>
      </trkpt>
      <trkpt lat="47.31452" lon="-2.40158">
        <ele>31.39999961853</ele>
        <time>2021-02-14T09:44:25.000Z</time>
      </trkpt>
      <trkpt lat="47.31456" lon="-2.40161">
        <ele>31.799999237061</ele>
        <time>2021-02-14T09:44:26.000Z</time>
      </trkpt>
      <trkpt lat="47.3146" lon="-2.40164">
        <ele>32.200000762939</ele>
        <time>2021-02-14T09:44:27.000Z</time>
      </trkpt>
      <trkpt lat="47.31463" lon="-2.40166">
        <ele>32.599998474121</ele>
        <time>2021-02-14T09:44:28.000Z</time>
      </trkpt>
      <trkpt lat="47.31474" lon="-2.40175">
        <ele>32.599998474121</ele>
        <time>2021-02-14T09:44:31.000Z</time>
      </trkpt>
      <trkpt lat="47.31491" lon="-2.40187">
        <ele>32.599998474121</ele>
        <time>2021-02-14T09:44:36.000Z</time>
      </trkpt>
      <trkpt lat="47.31521" lon="-2.40211">
        <ele>32.599998474121</ele>
        <time>2021-02-14T09:44:44.000Z</time>
      </trkpt>
      <trkpt lat="47.31534" lon="-2.40222">
        <ele>33</ele>
        <time>2021-02-14T09:44:47.000Z</time>
      </trkpt>
      <trkpt lat="47.31539" lon="-2.40225">
        <ele>33.599998474121</ele>
        <time>2021-02-14T09:44:48.000Z</time>
      </trkpt>
      <trkpt lat="47.31544" lon="-2.40229">
        <ele>34</ele>
        <time>2021-02-14T09:44:49.000Z</time>
      </trkpt>
      <trkpt lat="47.31549" lon="-2.40232">
        <ele>34.400001525879</ele>
        <time>2021-02-14T09:44:50.000Z</time>
      </trkpt>
      <trkpt lat="47.31553" lon="-2.40235">
        <ele>34.799999237061</ele>
        <time>2021-02-14T09:44:51.000Z</time>
      </trkpt>
      <trkpt lat="47.31567" lon="-2.40246">
        <ele>34.799999237061</ele>
        <time>2021-02-14T09:44:54.000Z</time>
      </trkpt>
      <trkpt lat="47.3158" lon="-2.40254">
        <ele>34.799999237061</ele>
        <time>2021-02-14T09:44:57.000Z</time>
      </trkpt>
      <trkpt lat="47.31608" lon="-2.40275">
        <ele>34.799999237061</ele>
        <time>2021-02-14T09:45:04.000Z</time>
      </trkpt>
      <trkpt lat="47.31632" lon="-2.40291">
        <ele>34.799999237061</ele>
        <time>2021-02-14T09:45:10.000Z</time>
      </trkpt>
      <trkpt lat="47.31642" lon="-2.40299">
        <ele>35.200000762939</ele>
        <time>2021-02-14T09:45:13.000Z</time>
      </trkpt>
      <trkpt lat="47.31645" lon="-2.40301">
        <ele>35.599998474121</ele>
        <time>2021-02-14T09:45:14.000Z</time>
      </trkpt>
      <trkpt lat="47.31649" lon="-2.40305">
        <ele>36</ele>
        <time>2021-02-14T09:45:15.000Z</time>
      </trkpt>
      <trkpt lat="47.31652" lon="-2.40307">
        <ele>36.400001525879</ele>
        <time>2021-02-14T09:45:16.000Z</time>
      </trkpt>
      <trkpt lat="47.31655" lon="-2.40309">
        <ele>36.799999237061</ele>
        <time>2021-02-14T09:45:17.000Z</time>
      </trkpt>
      <trkpt lat="47.31671" lon="-2.40326">
        <ele>36.799999237061</ele>
        <time>2021-02-14T09:45:23.000Z</time>
      </trkpt>
      <trkpt lat="47.31677" lon="-2.40332">
        <ele>36.799999237061</ele>
        <time>2021-02-14T09:45:26.000Z</time>
      </trkpt>
      <trkpt lat="47.31682" lon="-2.40326">
        <ele>36.799999237061</ele>
        <time>2021-02-14T09:45:28.000Z</time>
      </trkpt>
      <trkpt lat="47.31685" lon="-2.4032">
        <ele>37.200000762939</ele>
        <time>2021-02-14T09:45:30.000Z</time>
      </trkpt>
      <trkpt lat="47.31686" lon="-2.40317">
        <ele>37.599998474121</ele>
        <time>2021-02-14T09:45:31.000Z</time>
      </trkpt>
      <trkpt lat="47.31687" lon="-2.40315">
        <ele>38</ele>
        <time>2021-02-14T09:45:32.000Z</time>
      </trkpt>
      <trkpt lat="47.31688" lon="-2.40313">
        <ele>38.400001525879</ele>
        <time>2021-02-14T09:45:33.000Z</time>
      </trkpt>
      <trkpt lat="47.31689" lon="-2.40311">
        <ele>38.799999237061</ele>
        <time>2021-02-14T09:45:34.000Z</time>
      </trkpt>
      <trkpt lat="47.3169" lon="-2.40308">
        <ele>38.799999237061</ele>
        <time>2021-02-14T09:45:37.000Z</time>
      </trkpt>
      <trkpt lat="47.31692" lon="-2.40305">
        <ele>38.799999237061</ele>
        <time>2021-02-14T09:46:35.000Z</time>
      </trkpt>
      <trkpt lat="47.317" lon="-2.40294">
        <ele>38.799999237061</ele>
        <time>2021-02-14T09:46:39.000Z</time>
      </trkpt>
      <trkpt lat="47.31705" lon="-2.40288">
        <ele>38.799999237061</ele>
        <time>2021-02-14T09:46:41.000Z</time>
      </trkpt>
      <trkpt lat="47.31722" lon="-2.40269">
        <ele>38.799999237061</ele>
        <time>2021-02-14T09:46:46.000Z</time>
      </trkpt>
      <trkpt lat="47.31731" lon="-2.40256">
        <ele>38.799999237061</ele>
        <time>2021-02-14T09:46:50.000Z</time>
      </trkpt>
      <trkpt lat="47.31747" lon="-2.40222">
        <ele>38.799999237061</ele>
        <time>2021-02-14T09:46:56.000Z</time>
      </trkpt>
      <trkpt lat="47.31754" lon="-2.40208">
        <ele>38.799999237061</ele>
        <time>2021-02-14T09:46:58.000Z</time>
      </trkpt>
      <trkpt lat="47.31765" lon="-2.40185">
        <ele>38.799999237061</ele>
        <time>2021-02-14T09:47:02.000Z</time>
      </trkpt>
      <trkpt lat="47.31773" lon="-2.40169">
        <ele>38.799999237061</ele>
        <time>2021-02-14T09:47:05.000Z</time>
      </trkpt>
      <trkpt lat="47.3178" lon="-2.40159">
        <ele>38.799999237061</ele>
        <time>2021-02-14T09:47:07.000Z</time>
      </trkpt>
      <trkpt lat="47.31805" lon="-2.40123">
        <ele>38.799999237061</ele>
        <time>2021-02-14T09:47:14.000Z</time>
      </trkpt>
      <trkpt lat="47.31831" lon="-2.40087">
        <ele>38.799999237061</ele>
        <time>2021-02-14T09:47:21.000Z</time>
      </trkpt>
      <trkpt lat="47.31838" lon="-2.40077">
        <ele>38.799999237061</ele>
        <time>2021-02-14T09:47:23.000Z</time>
      </trkpt>
      <trkpt lat="47.31848" lon="-2.4006">
        <ele>38.799999237061</ele>
        <time>2021-02-14T09:47:26.000Z</time>
      </trkpt>
      <trkpt lat="47.31877" lon="-2.4002">
        <ele>38.799999237061</ele>
        <time>2021-02-14T09:47:33.000Z</time>
      </trkpt>
      <trkpt lat="47.31898" lon="-2.39992">
        <ele>38.799999237061</ele>
        <time>2021-02-14T09:47:38.000Z</time>
      </trkpt>
      <trkpt lat="47.31919" lon="-2.39963">
        <ele>38.799999237061</ele>
        <time>2021-02-14T09:47:44.000Z</time>
      </trkpt>
      <trkpt lat="47.3195" lon="-2.39935">
        <ele>39.200000762939</ele>
        <time>2021-02-14T09:47:51.000Z</time>
      </trkpt>
      <trkpt lat="47.31954" lon="-2.39932">
        <ele>39.599998474121</ele>
        <time>2021-02-14T09:47:52.000Z</time>
      </trkpt>
      <trkpt lat="47.31959" lon="-2.39929">
        <ele>40</ele>
        <time>2021-02-14T09:47:53.000Z</time>
      </trkpt>
      <trkpt lat="47.31963" lon="-2.39926">
        <ele>40.599998474121</ele>
        <time>2021-02-14T09:47:54.000Z</time>
      </trkpt>
      <trkpt lat="47.31968" lon="-2.39922">
        <ele>41</ele>
        <time>2021-02-14T09:47:55.000Z</time>
      </trkpt>
      <trkpt lat="47.31976" lon="-2.39914">
        <ele>41</ele>
        <time>2021-02-14T09:47:57.000Z</time>
      </trkpt>
      <trkpt lat="47.32" lon="-2.39893">
        <ele>41</ele>
        <time>2021-02-14T09:48:03.000Z</time>
      </trkpt>
      <trkpt lat="47.32003" lon="-2.39891">
        <ele>41.400001525879</ele>
        <time>2021-02-14T09:48:04.000Z</time>
      </trkpt>
      <trkpt lat="47.32007" lon="-2.39887">
        <ele>41.799999237061</ele>
        <time>2021-02-14T09:48:05.000Z</time>
      </trkpt>
      <trkpt lat="47.32011" lon="-2.39885">
        <ele>42.200000762939</ele>
        <time>2021-02-14T09:48:06.000Z</time>
      </trkpt>
      <trkpt lat="47.32015" lon="-2.39882">
        <ele>42.599998474121</ele>
        <time>2021-02-14T09:48:07.000Z</time>
      </trkpt>
      <trkpt lat="47.32019" lon="-2.39879">
        <ele>43.200000762939</ele>
        <time>2021-02-14T09:48:08.000Z</time>
      </trkpt>
      <trkpt lat="47.32026" lon="-2.39873">
        <ele>43.200000762939</ele>
        <time>2021-02-14T09:48:10.000Z</time>
      </trkpt>
      <trkpt lat="47.32047" lon="-2.39854">
        <ele>43.599998474121</ele>
        <time>2021-02-14T09:48:16.000Z</time>
      </trkpt>
      <trkpt lat="47.3205" lon="-2.3985">
        <ele>44</ele>
        <time>2021-02-14T09:48:17.000Z</time>
      </trkpt>
      <trkpt lat="47.32054" lon="-2.39847">
        <ele>44.400001525879</ele>
        <time>2021-02-14T09:48:18.000Z</time>
      </trkpt>
      <trkpt lat="47.32058" lon="-2.39844">
        <ele>44.799999237061</ele>
        <time>2021-02-14T09:48:19.000Z</time>
      </trkpt>
      <trkpt lat="47.32062" lon="-2.39841">
        <ele>45.200000762939</ele>
        <time>2021-02-14T09:48:20.000Z</time>
      </trkpt>
      <trkpt lat="47.32072" lon="-2.39831">
        <ele>45.200000762939</ele>
        <time>2021-02-14T09:48:23.000Z</time>
      </trkpt>
      <trkpt lat="47.32085" lon="-2.39821">
        <ele>45.200000762939</ele>
        <time>2021-02-14T09:48:27.000Z</time>
      </trkpt>
      <trkpt lat="47.32087" lon="-2.39816">
        <ele>45.200000762939</ele>
        <time>2021-02-14T09:48:28.000Z</time>
      </trkpt>
      <trkpt lat="47.32085" lon="-2.39799">
        <ele>45.200000762939</ele>
        <time>2021-02-14T09:48:31.000Z</time>
      </trkpt>
      <trkpt lat="47.32084" lon="-2.39794">
        <ele>45.200000762939</ele>
        <time>2021-02-14T09:48:32.000Z</time>
      </trkpt>
      <trkpt lat="47.32078" lon="-2.39774">
        <ele>45.200000762939</ele>
        <time>2021-02-14T09:48:36.000Z</time>
      </trkpt>
      <trkpt lat="47.32066" lon="-2.39731">
        <ele>45.200000762939</ele>
        <time>2021-02-14T09:48:43.000Z</time>
      </trkpt>
      <trkpt lat="47.32062" lon="-2.39717">
        <ele>45.200000762939</ele>
        <time>2021-02-14T09:48:45.000Z</time>
      </trkpt>
      <trkpt lat="47.32056" lon="-2.39694">
        <ele>45.200000762939</ele>
        <time>2021-02-14T09:48:48.000Z</time>
      </trkpt>
      <trkpt lat="47.3205" lon="-2.39672">
        <ele>45.200000762939</ele>
        <time>2021-02-14T09:48:51.000Z</time>
      </trkpt>
      <trkpt lat="47.32046" lon="-2.39656">
        <ele>45.200000762939</ele>
        <time>2021-02-14T09:48:53.000Z</time>
      </trkpt>
      <trkpt lat="47.3204" lon="-2.3963">
        <ele>45.200000762939</ele>
        <time>2021-02-14T09:48:56.000Z</time>
      </trkpt>
      <trkpt lat="47.32035" lon="-2.39603">
        <ele>45.200000762939</ele>
        <time>2021-02-14T09:48:59.000Z</time>
      </trkpt>
      <trkpt lat="47.32018" lon="-2.39533">
        <ele>45.200000762939</ele>
        <time>2021-02-14T09:49:06.000Z</time>
      </trkpt>
      <trkpt lat="47.32003" lon="-2.39468">
        <ele>45.200000762939</ele>
        <time>2021-02-14T09:49:13.000Z</time>
      </trkpt>
      <trkpt lat="47.31988" lon="-2.39411">
        <ele>44.799999237061</ele>
        <time>2021-02-14T09:49:19.000Z</time>
      </trkpt>
      <trkpt lat="47.31986" lon="-2.39401">
        <ele>44.200000762939</ele>
        <time>2021-02-14T09:49:20.000Z</time>
      </trkpt>
      <trkpt lat="47.31984" lon="-2.39391">
        <ele>43.799999237061</ele>
        <time>2021-02-14T09:49:21.000Z</time>
      </trkpt>
      <trkpt lat="47.31982" lon="-2.39382">
        <ele>43.400001525879</ele>
        <time>2021-02-14T09:49:22.000Z</time>
      </trkpt>
      <trkpt lat="47.3198" lon="-2.39372">
        <ele>43</ele>
        <time>2021-02-14T09:49:23.000Z</time>
      </trkpt>
      <trkpt lat="47.31978" lon="-2.39362">
        <ele>43</ele>
        <time>2021-02-14T09:49:24.000Z</time>
      </trkpt>
      <trkpt lat="47.31977" lon="-2.39352">
        <ele>43</ele>
        <time>2021-02-14T09:49:25.000Z</time>
      </trkpt>
      <trkpt lat="47.31974" lon="-2.39341">
        <ele>43</ele>
        <time>2021-02-14T09:49:26.000Z</time>
      </trkpt>
      <trkpt lat="47.31965" lon="-2.39303">
        <ele>43</ele>
        <time>2021-02-14T09:49:30.000Z</time>
      </trkpt>
      <trkpt lat="47.31957" lon="-2.39275">
        <ele>42.599998474121</ele>
        <time>2021-02-14T09:49:33.000Z</time>
      </trkpt>
      <trkpt lat="47.31954" lon="-2.39265">
        <ele>41.799999237061</ele>
        <time>2021-02-14T09:49:34.000Z</time>
      </trkpt>
      <trkpt lat="47.31951" lon="-2.39256">
        <ele>41.400001525879</ele>
        <time>2021-02-14T09:49:35.000Z</time>
      </trkpt>
      <trkpt lat="47.31949" lon="-2.39247">
        <ele>41</ele>
        <time>2021-02-14T09:49:36.000Z</time>
      </trkpt>
      <trkpt lat="47.31931" lon="-2.39182">
        <ele>41</ele>
        <time>2021-02-14T09:49:43.000Z</time>
      </trkpt>
      <trkpt lat="47.31929" lon="-2.39174">
        <ele>40.599998474121</ele>
        <time>2021-02-14T09:49:44.000Z</time>
      </trkpt>
      <trkpt lat="47.31926" lon="-2.39165">
        <ele>40.200000762939</ele>
        <time>2021-02-14T09:49:45.000Z</time>
      </trkpt>
      <trkpt lat="47.31923" lon="-2.39156">
        <ele>39.799999237061</ele>
        <time>2021-02-14T09:49:46.000Z</time>
      </trkpt>
      <trkpt lat="47.3192" lon="-2.39148">
        <ele>39.400001525879</ele>
        <time>2021-02-14T09:49:47.000Z</time>
      </trkpt>
      <trkpt lat="47.31917" lon="-2.39139">
        <ele>39</ele>
        <time>2021-02-14T09:49:48.000Z</time>
      </trkpt>
      <trkpt lat="47.31908" lon="-2.39111">
        <ele>39</ele>
        <time>2021-02-14T09:49:51.000Z</time>
      </trkpt>
      <trkpt lat="47.31888" lon="-2.39038">
        <ele>39</ele>
        <time>2021-02-14T09:49:59.000Z</time>
      </trkpt>
      <trkpt lat="47.31865" lon="-2.38976">
        <ele>39</ele>
        <time>2021-02-14T09:50:06.000Z</time>
      </trkpt>
      <trkpt lat="47.31846" lon="-2.38917">
        <ele>38.599998474121</ele>
        <time>2021-02-14T09:50:13.000Z</time>
      </trkpt>
      <trkpt lat="47.31844" lon="-2.38909">
        <ele>38.200000762939</ele>
        <time>2021-02-14T09:50:14.000Z</time>
      </trkpt>
      <trkpt lat="47.31842" lon="-2.389">
        <ele>37.799999237061</ele>
        <time>2021-02-14T09:50:15.000Z</time>
      </trkpt>
      <trkpt lat="47.3184" lon="-2.38892">
        <ele>37.400001525879</ele>
        <time>2021-02-14T09:50:16.000Z</time>
      </trkpt>
      <trkpt lat="47.31838" lon="-2.38884">
        <ele>37</ele>
        <time>2021-02-14T09:50:17.000Z</time>
      </trkpt>
      <trkpt lat="47.31828" lon="-2.38842">
        <ele>37</ele>
        <time>2021-02-14T09:50:22.000Z</time>
      </trkpt>
      <trkpt lat="47.3182" lon="-2.38783">
        <ele>37</ele>
        <time>2021-02-14T09:50:29.000Z</time>
      </trkpt>
      <trkpt lat="47.31819" lon="-2.38723">
        <ele>37</ele>
        <time>2021-02-14T09:50:36.000Z</time>
      </trkpt>
      <trkpt lat="47.31815" lon="-2.38656">
        <ele>37</ele>
        <time>2021-02-14T09:50:44.000Z</time>
      </trkpt>
      <trkpt lat="47.31813" lon="-2.38624">
        <ele>37.799999237061</ele>
        <time>2021-02-14T09:50:48.000Z</time>
      </trkpt>
      <trkpt lat="47.31812" lon="-2.38616">
        <ele>38.200000762939</ele>
        <time>2021-02-14T09:50:49.000Z</time>
      </trkpt>
      <trkpt lat="47.31812" lon="-2.38609">
        <ele>38.799999237061</ele>
        <time>2021-02-14T09:50:50.000Z</time>
      </trkpt>
      <trkpt lat="47.31811" lon="-2.38602">
        <ele>39.200000762939</ele>
        <time>2021-02-14T09:50:51.000Z</time>
      </trkpt>
      <trkpt lat="47.31809" lon="-2.3856">
        <ele>39.200000762939</ele>
        <time>2021-02-14T09:50:58.000Z</time>
      </trkpt>
      <trkpt lat="47.31808" lon="-2.38542">
        <ele>39.200000762939</ele>
        <time>2021-02-14T09:51:03.000Z</time>
      </trkpt>
      <trkpt lat="47.31817" lon="-2.38537">
        <ele>39.200000762939</ele>
        <time>2021-02-14T09:51:07.000Z</time>
      </trkpt>
      <trkpt lat="47.3183" lon="-2.38535">
        <ele>39.200000762939</ele>
        <time>2021-02-14T09:51:11.000Z</time>
      </trkpt>
      <trkpt lat="47.31835" lon="-2.38534">
        <ele>39.200000762939</ele>
        <time>2021-02-14T09:51:12.000Z</time>
      </trkpt>
      <trkpt lat="47.31839" lon="-2.38532">
        <ele>38.400001525879</ele>
        <time>2021-02-14T09:51:13.000Z</time>
      </trkpt>
      <trkpt lat="47.31844" lon="-2.3853">
        <ele>38</ele>
        <time>2021-02-14T09:51:14.000Z</time>
      </trkpt>
      <trkpt lat="47.31849" lon="-2.38529">
        <ele>37.599998474121</ele>
        <time>2021-02-14T09:51:15.000Z</time>
      </trkpt>
      <trkpt lat="47.31853" lon="-2.38527">
        <ele>37.200000762939</ele>
        <time>2021-02-14T09:51:16.000Z</time>
      </trkpt>
      <trkpt lat="47.31863" lon="-2.38523">
        <ele>37.200000762939</ele>
        <time>2021-02-14T09:51:18.000Z</time>
      </trkpt>
      <trkpt lat="47.31885" lon="-2.38514">
        <ele>36.799999237061</ele>
        <time>2021-02-14T09:51:22.000Z</time>
      </trkpt>
      <trkpt lat="47.3189" lon="-2.38512">
        <ele>36.400001525879</ele>
        <time>2021-02-14T09:51:23.000Z</time>
      </trkpt>
      <trkpt lat="47.31895" lon="-2.38509">
        <ele>36</ele>
        <time>2021-02-14T09:51:24.000Z</time>
      </trkpt>
      <trkpt lat="47.31901" lon="-2.38506">
        <ele>35.400001525879</ele>
        <time>2021-02-14T09:51:25.000Z</time>
      </trkpt>
      <trkpt lat="47.31906" lon="-2.38504">
        <ele>35</ele>
        <time>2021-02-14T09:51:26.000Z</time>
      </trkpt>
      <trkpt lat="47.31921" lon="-2.38496">
        <ele>34.599998474121</ele>
        <time>2021-02-14T09:51:29.000Z</time>
      </trkpt>
      <trkpt lat="47.31926" lon="-2.38494">
        <ele>34.200000762939</ele>
        <time>2021-02-14T09:51:30.000Z</time>
      </trkpt>
      <trkpt lat="47.31931" lon="-2.38493">
        <ele>33.799999237061</ele>
        <time>2021-02-14T09:51:31.000Z</time>
      </trkpt>
      <trkpt lat="47.31935" lon="-2.38492">
        <ele>33.400001525879</ele>
        <time>2021-02-14T09:51:32.000Z</time>
      </trkpt>
      <trkpt lat="47.31939" lon="-2.38491">
        <ele>33</ele>
        <time>2021-02-14T09:51:33.000Z</time>
      </trkpt>
      <trkpt lat="47.31962" lon="-2.38486">
        <ele>33</ele>
        <time>2021-02-14T09:51:38.000Z</time>
      </trkpt>
      <trkpt lat="47.31972" lon="-2.38482">
        <ele>33</ele>
        <time>2021-02-14T09:51:40.000Z</time>
      </trkpt>
      <trkpt lat="47.31977" lon="-2.3848">
        <ele>32.400001525879</ele>
        <time>2021-02-14T09:51:41.000Z</time>
      </trkpt>
      <trkpt lat="47.31981" lon="-2.38477">
        <ele>32</ele>
        <time>2021-02-14T09:51:42.000Z</time>
      </trkpt>
      <trkpt lat="47.31986" lon="-2.38475">
        <ele>31.60000038147</ele>
        <time>2021-02-14T09:51:43.000Z</time>
      </trkpt>
      <trkpt lat="47.31991" lon="-2.38473">
        <ele>31.200000762939</ele>
        <time>2021-02-14T09:51:44.000Z</time>
      </trkpt>
      <trkpt lat="47.31996" lon="-2.38472">
        <ele>30.799999237061</ele>
        <time>2021-02-14T09:51:45.000Z</time>
      </trkpt>
      <trkpt lat="47.32025" lon="-2.38458">
        <ele>30.799999237061</ele>
        <time>2021-02-14T09:51:51.000Z</time>
      </trkpt>
      <trkpt lat="47.32035" lon="-2.38454">
        <ele>30.799999237061</ele>
        <time>2021-02-14T09:51:53.000Z</time>
      </trkpt>
      <trkpt lat="47.32055" lon="-2.38448">
        <ele>30.39999961853</ele>
        <time>2021-02-14T09:51:57.000Z</time>
      </trkpt>
      <trkpt lat="47.3206" lon="-2.38447">
        <ele>30</ele>
        <time>2021-02-14T09:51:58.000Z</time>
      </trkpt>
      <trkpt lat="47.32065" lon="-2.38444">
        <ele>29.39999961853</ele>
        <time>2021-02-14T09:51:59.000Z</time>
      </trkpt>
      <trkpt lat="47.3207" lon="-2.38442">
        <ele>29</ele>
        <time>2021-02-14T09:52:00.000Z</time>
      </trkpt>
      <trkpt lat="47.32075" lon="-2.38439">
        <ele>28.60000038147</ele>
        <time>2021-02-14T09:52:01.000Z</time>
      </trkpt>
      <trkpt lat="47.32083" lon="-2.38435">
        <ele>28.60000038147</ele>
        <time>2021-02-14T09:52:03.000Z</time>
      </trkpt>
      <trkpt lat="47.32092" lon="-2.38431">
        <ele>28.60000038147</ele>
        <time>2021-02-14T09:52:05.000Z</time>
      </trkpt>
      <trkpt lat="47.32108" lon="-2.38424">
        <ele>28.60000038147</ele>
        <time>2021-02-14T09:52:09.000Z</time>
      </trkpt>
      <trkpt lat="47.32112" lon="-2.38422">
        <ele>28.60000038147</ele>
        <time>2021-02-14T09:52:10.000Z</time>
      </trkpt>
      <trkpt lat="47.32117" lon="-2.3842">
        <ele>28.60000038147</ele>
        <time>2021-02-14T09:52:11.000Z</time>
      </trkpt>
      <trkpt lat="47.32129" lon="-2.3841">
        <ele>28.60000038147</ele>
        <time>2021-02-14T09:52:14.000Z</time>
      </trkpt>
      <trkpt lat="47.32137" lon="-2.38401">
        <ele>28.60000038147</ele>
        <time>2021-02-14T09:52:16.000Z</time>
      </trkpt>
      <trkpt lat="47.32144" lon="-2.38391">
        <ele>28.200000762939</ele>
        <time>2021-02-14T09:52:18.000Z</time>
      </trkpt>
      <trkpt lat="47.32148" lon="-2.38386">
        <ele>27.799999237061</ele>
        <time>2021-02-14T09:52:19.000Z</time>
      </trkpt>
      <trkpt lat="47.32151" lon="-2.3838">
        <ele>27.39999961853</ele>
        <time>2021-02-14T09:52:20.000Z</time>
      </trkpt>
      <trkpt lat="47.32153" lon="-2.38375">
        <ele>27</ele>
        <time>2021-02-14T09:52:21.000Z</time>
      </trkpt>
      <trkpt lat="47.32155" lon="-2.38371">
        <ele>26.60000038147</ele>
        <time>2021-02-14T09:52:22.000Z</time>
      </trkpt>
      <trkpt lat="47.32159" lon="-2.38365">
        <ele>26.60000038147</ele>
        <time>2021-02-14T09:52:24.000Z</time>
      </trkpt>
      <trkpt lat="47.3217" lon="-2.38353">
        <ele>26.60000038147</ele>
        <time>2021-02-14T09:52:29.000Z</time>
      </trkpt>
      <trkpt lat="47.32184" lon="-2.38336">
        <ele>26.60000038147</ele>
        <time>2021-02-14T09:52:36.000Z</time>
      </trkpt>
      <trkpt lat="47.322" lon="-2.38318">
        <ele>26.60000038147</ele>
        <time>2021-02-14T09:52:42.000Z</time>
      </trkpt>
      <trkpt lat="47.32211" lon="-2.383">
        <ele>26.60000038147</ele>
        <time>2021-02-14T09:52:48.000Z</time>
      </trkpt>
      <trkpt lat="47.32222" lon="-2.38297">
        <ele>26.60000038147</ele>
        <time>2021-02-14T09:52:53.000Z</time>
      </trkpt>
      <trkpt lat="47.3224" lon="-2.38293">
        <ele>26.60000038147</ele>
        <time>2021-02-14T09:52:59.000Z</time>
      </trkpt>
      <trkpt lat="47.32268" lon="-2.38287">
        <ele>26.60000038147</ele>
        <time>2021-02-14T09:53:06.000Z</time>
      </trkpt>
      <trkpt lat="47.32287" lon="-2.38289">
        <ele>26.60000038147</ele>
        <time>2021-02-14T09:53:12.000Z</time>
      </trkpt>
      <trkpt lat="47.32308" lon="-2.38298">
        <ele>26.60000038147</ele>
        <time>2021-02-14T09:53:18.000Z</time>
      </trkpt>
      <trkpt lat="47.32326" lon="-2.38306">
        <ele>26.60000038147</ele>
        <time>2021-02-14T09:53:23.000Z</time>
      </trkpt>
      <trkpt lat="47.32345" lon="-2.38317">
        <ele>26.60000038147</ele>
        <time>2021-02-14T09:53:29.000Z</time>
      </trkpt>
      <trkpt lat="47.32349" lon="-2.38319">
        <ele>27</ele>
        <time>2021-02-14T09:53:30.000Z</time>
      </trkpt>
      <trkpt lat="47.32353" lon="-2.38321">
        <ele>27.39999961853</ele>
        <time>2021-02-14T09:53:31.000Z</time>
      </trkpt>
      <trkpt lat="47.32357" lon="-2.38323">
        <ele>27.799999237061</ele>
        <time>2021-02-14T09:53:32.000Z</time>
      </trkpt>
      <trkpt lat="47.3236" lon="-2.38326">
        <ele>28.200000762939</ele>
        <time>2021-02-14T09:53:33.000Z</time>
      </trkpt>
      <trkpt lat="47.32363" lon="-2.38329">
        <ele>28.60000038147</ele>
        <time>2021-02-14T09:53:34.000Z</time>
      </trkpt>
      <trkpt lat="47.32389" lon="-2.38344">
        <ele>29</ele>
        <time>2021-02-14T09:53:41.000Z</time>
      </trkpt>
      <trkpt lat="47.32393" lon="-2.38346">
        <ele>29.39999961853</ele>
        <time>2021-02-14T09:53:42.000Z</time>
      </trkpt>
      <trkpt lat="47.32397" lon="-2.38348">
        <ele>29.799999237061</ele>
        <time>2021-02-14T09:53:43.000Z</time>
      </trkpt>
      <trkpt lat="47.32401" lon="-2.3835">
        <ele>30.39999961853</ele>
        <time>2021-02-14T09:53:44.000Z</time>
      </trkpt>
      <trkpt lat="47.32405" lon="-2.38352">
        <ele>30.799999237061</ele>
        <time>2021-02-14T09:53:45.000Z</time>
      </trkpt>
      <trkpt lat="47.32414" lon="-2.38356">
        <ele>30.799999237061</ele>
        <time>2021-02-14T09:53:47.000Z</time>
      </trkpt>
      <trkpt lat="47.32424" lon="-2.38361">
        <ele>30.799999237061</ele>
        <time>2021-02-14T09:53:49.000Z</time>
      </trkpt>
      <trkpt lat="47.32447" lon="-2.38369">
        <ele>30.799999237061</ele>
        <time>2021-02-14T09:53:53.000Z</time>
      </trkpt>
      <trkpt lat="47.32479" lon="-2.38379">
        <ele>30.799999237061</ele>
        <time>2021-02-14T09:53:58.000Z</time>
      </trkpt>
      <trkpt lat="47.32505" lon="-2.38387">
        <ele>30.799999237061</ele>
        <time>2021-02-14T09:54:04.000Z</time>
      </trkpt>
      <trkpt lat="47.32516" lon="-2.38385">
        <ele>30.799999237061</ele>
        <time>2021-02-14T09:54:08.000Z</time>
      </trkpt>
      <trkpt lat="47.32521" lon="-2.38367">
        <ele>30.799999237061</ele>
        <time>2021-02-14T09:54:12.000Z</time>
      </trkpt>
      <trkpt lat="47.32526" lon="-2.38331">
        <ele>30.799999237061</ele>
        <time>2021-02-14T09:54:18.000Z</time>
      </trkpt>
      <trkpt lat="47.32526" lon="-2.38325">
        <ele>30.799999237061</ele>
        <time>2021-02-14T09:54:19.000Z</time>
      </trkpt>
      <trkpt lat="47.32532" lon="-2.38312">
        <ele>30.799999237061</ele>
        <time>2021-02-14T09:54:22.000Z</time>
      </trkpt>
      <trkpt lat="47.32536" lon="-2.38311">
        <ele>30.200000762939</ele>
        <time>2021-02-14T09:54:23.000Z</time>
      </trkpt>
      <trkpt lat="47.3254" lon="-2.3831">
        <ele>29.799999237061</ele>
        <time>2021-02-14T09:54:24.000Z</time>
      </trkpt>
      <trkpt lat="47.32545" lon="-2.38309">
        <ele>29.39999961853</ele>
        <time>2021-02-14T09:54:25.000Z</time>
      </trkpt>
      <trkpt lat="47.3255" lon="-2.38307">
        <ele>28.799999237061</ele>
        <time>2021-02-14T09:54:26.000Z</time>
      </trkpt>
      <trkpt lat="47.32555" lon="-2.38305">
        <ele>28.39999961853</ele>
        <time>2021-02-14T09:54:27.000Z</time>
      </trkpt>
      <trkpt lat="47.3256" lon="-2.38304">
        <ele>27.799999237061</ele>
        <time>2021-02-14T09:54:28.000Z</time>
      </trkpt>
      <trkpt lat="47.32565" lon="-2.38302">
        <ele>27.39999961853</ele>
        <time>2021-02-14T09:54:29.000Z</time>
      </trkpt>
      <trkpt lat="47.3257" lon="-2.38301">
        <ele>26.799999237061</ele>
        <time>2021-02-14T09:54:30.000Z</time>
      </trkpt>
      <trkpt lat="47.32576" lon="-2.383">
        <ele>26.200000762939</ele>
        <time>2021-02-14T09:54:31.000Z</time>
      </trkpt>
      <trkpt lat="47.32586" lon="-2.38297">
        <ele>26.200000762939</ele>
        <time>2021-02-14T09:54:33.000Z</time>
      </trkpt>
      <trkpt lat="47.32597" lon="-2.38296">
        <ele>26.200000762939</ele>
        <time>2021-02-14T09:54:35.000Z</time>
      </trkpt>
      <trkpt lat="47.32611" lon="-2.38302">
        <ele>26.200000762939</ele>
        <time>2021-02-14T09:54:38.000Z</time>
      </trkpt>
      <trkpt lat="47.32623" lon="-2.38314">
        <ele>26.200000762939</ele>
        <time>2021-02-14T09:54:41.000Z</time>
      </trkpt>
      <trkpt lat="47.3263" lon="-2.38323">
        <ele>26.200000762939</ele>
        <time>2021-02-14T09:54:43.000Z</time>
      </trkpt>
      <trkpt lat="47.32647" lon="-2.38344">
        <ele>26.799999237061</ele>
        <time>2021-02-14T09:54:48.000Z</time>
      </trkpt>
      <trkpt lat="47.3265" lon="-2.38348">
        <ele>27.200000762939</ele>
        <time>2021-02-14T09:54:49.000Z</time>
      </trkpt>
      <trkpt lat="47.32653" lon="-2.38353">
        <ele>27.60000038147</ele>
        <time>2021-02-14T09:54:50.000Z</time>
      </trkpt>
      <trkpt lat="47.32656" lon="-2.38357">
        <ele>28</ele>
        <time>2021-02-14T09:54:51.000Z</time>
      </trkpt>
      <trkpt lat="47.32659" lon="-2.38362">
        <ele>28.39999961853</ele>
        <time>2021-02-14T09:54:52.000Z</time>
      </trkpt>
      <trkpt lat="47.32671" lon="-2.38375">
        <ele>28.799999237061</ele>
        <time>2021-02-14T09:54:55.000Z</time>
      </trkpt>
      <trkpt lat="47.32674" lon="-2.38379">
        <ele>29.200000762939</ele>
        <time>2021-02-14T09:54:56.000Z</time>
      </trkpt>
      <trkpt lat="47.32677" lon="-2.38383">
        <ele>29.60000038147</ele>
        <time>2021-02-14T09:54:57.000Z</time>
      </trkpt>
      <trkpt lat="47.3268" lon="-2.38388">
        <ele>30.200000762939</ele>
        <time>2021-02-14T09:54:58.000Z</time>
      </trkpt>
      <trkpt lat="47.32683" lon="-2.38392">
        <ele>30.60000038147</ele>
        <time>2021-02-14T09:54:59.000Z</time>
      </trkpt>
      <trkpt lat="47.32697" lon="-2.38405">
        <ele>31</ele>
        <time>2021-02-14T09:55:03.000Z</time>
      </trkpt>
      <trkpt lat="47.32701" lon="-2.38405">
        <ele>31.39999961853</ele>
        <time>2021-02-14T09:55:04.000Z</time>
      </trkpt>
      <trkpt lat="47.32705" lon="-2.38407">
        <ele>31.799999237061</ele>
        <time>2021-02-14T09:55:05.000Z</time>
      </trkpt>
      <trkpt lat="47.32708" lon="-2.38407">
        <ele>32.200000762939</ele>
        <time>2021-02-14T09:55:06.000Z</time>
      </trkpt>
      <trkpt lat="47.32711" lon="-2.38408">
        <ele>32.799999237061</ele>
        <time>2021-02-14T09:55:07.000Z</time>
      </trkpt>
      <trkpt lat="47.32732" lon="-2.38404">
        <ele>32.799999237061</ele>
        <time>2021-02-14T09:55:13.000Z</time>
      </trkpt>
      <trkpt lat="47.32743" lon="-2.38401">
        <ele>33.200000762939</ele>
        <time>2021-02-14T09:55:16.000Z</time>
      </trkpt>
      <trkpt lat="47.32747" lon="-2.38401">
        <ele>33.599998474121</ele>
        <time>2021-02-14T09:55:17.000Z</time>
      </trkpt>
      <trkpt lat="47.32751" lon="-2.38399">
        <ele>34</ele>
        <time>2021-02-14T09:55:18.000Z</time>
      </trkpt>
      <trkpt lat="47.32755" lon="-2.38398">
        <ele>34.400001525879</ele>
        <time>2021-02-14T09:55:19.000Z</time>
      </trkpt>
      <trkpt lat="47.32758" lon="-2.38397">
        <ele>35</ele>
        <time>2021-02-14T09:55:20.000Z</time>
      </trkpt>
      <trkpt lat="47.32774" lon="-2.38395">
        <ele>35</ele>
        <time>2021-02-14T09:55:26.000Z</time>
      </trkpt>
      <trkpt lat="47.32781" lon="-2.38387">
        <ele>35</ele>
        <time>2021-02-14T09:55:31.000Z</time>
      </trkpt>
      <trkpt lat="47.32782" lon="-2.38372">
        <ele>35</ele>
        <time>2021-02-14T09:55:37.000Z</time>
      </trkpt>
      <trkpt lat="47.32783" lon="-2.38369">
        <ele>35</ele>
        <time>2021-02-14T09:55:38.000Z</time>
      </trkpt>
      <trkpt lat="47.32785" lon="-2.38353">
        <ele>35</ele>
        <time>2021-02-14T09:55:44.000Z</time>
      </trkpt>
      <trkpt lat="47.32789" lon="-2.38335">
        <ele>35</ele>
        <time>2021-02-14T09:55:50.000Z</time>
      </trkpt>
      <trkpt lat="47.32793" lon="-2.38317">
        <ele>34.400001525879</ele>
        <time>2021-02-14T09:55:58.000Z</time>
      </trkpt>
      <trkpt lat="47.32793" lon="-2.38314">
        <ele>34</ele>
        <time>2021-02-14T09:55:59.000Z</time>
      </trkpt>
      <trkpt lat="47.32794" lon="-2.38311">
        <ele>33.599998474121</ele>
        <time>2021-02-14T09:56:00.000Z</time>
      </trkpt>
      <trkpt lat="47.32794" lon="-2.38308">
        <ele>33.200000762939</ele>
        <time>2021-02-14T09:56:01.000Z</time>
      </trkpt>
      <trkpt lat="47.32795" lon="-2.38305">
        <ele>32.799999237061</ele>
        <time>2021-02-14T09:56:02.000Z</time>
      </trkpt>
      <trkpt lat="47.32798" lon="-2.38296">
        <ele>32.799999237061</ele>
        <time>2021-02-14T09:56:05.000Z</time>
      </trkpt>
      <trkpt lat="47.32804" lon="-2.38272">
        <ele>32.799999237061</ele>
        <time>2021-02-14T09:56:13.000Z</time>
      </trkpt>
      <trkpt lat="47.32803" lon="-2.38269">
        <ele>32.400001525879</ele>
        <time>2021-02-14T09:56:14.000Z</time>
      </trkpt>
      <trkpt lat="47.32804" lon="-2.38266">
        <ele>32</ele>
        <time>2021-02-14T09:56:15.000Z</time>
      </trkpt>
      <trkpt lat="47.32805" lon="-2.38262">
        <ele>31.60000038147</ele>
        <time>2021-02-14T09:56:16.000Z</time>
      </trkpt>
      <trkpt lat="47.32806" lon="-2.38259">
        <ele>31.200000762939</ele>
        <time>2021-02-14T09:56:17.000Z</time>
      </trkpt>
      <trkpt lat="47.32806" lon="-2.38257">
        <ele>30.799999237061</ele>
        <time>2021-02-14T09:56:18.000Z</time>
      </trkpt>
      <trkpt lat="47.32807" lon="-2.38255">
        <ele>30.799999237061</ele>
        <time>2021-02-14T09:56:19.000Z</time>
      </trkpt>
      <trkpt lat="47.32809" lon="-2.38246">
        <ele>30.799999237061</ele>
        <time>2021-02-14T09:56:24.000Z</time>
      </trkpt>
      <trkpt lat="47.32812" lon="-2.38235">
        <ele>30.799999237061</ele>
        <time>2021-02-14T09:56:30.000Z</time>
      </trkpt>
      <trkpt lat="47.32814" lon="-2.38231">
        <ele>28.60000038147</ele>
        <time>2021-02-14T09:56:37.000Z</time>
      </trkpt>
      <trkpt lat="47.32817" lon="-2.38221">
        <ele>28.60000038147</ele>
        <time>2021-02-14T09:56:40.000Z</time>
      </trkpt>
      <trkpt lat="47.32828" lon="-2.38188">
        <ele>28.60000038147</ele>
        <time>2021-02-14T09:56:46.000Z</time>
      </trkpt>
      <trkpt lat="47.32848" lon="-2.38147">
        <ele>28.60000038147</ele>
        <time>2021-02-14T09:56:52.000Z</time>
      </trkpt>
      <trkpt lat="47.32851" lon="-2.38141">
        <ele>28.200000762939</ele>
        <time>2021-02-14T09:56:53.000Z</time>
      </trkpt>
      <trkpt lat="47.32855" lon="-2.38133">
        <ele>27.799999237061</ele>
        <time>2021-02-14T09:56:54.000Z</time>
      </trkpt>
      <trkpt lat="47.32858" lon="-2.38126">
        <ele>27.39999961853</ele>
        <time>2021-02-14T09:56:55.000Z</time>
      </trkpt>
      <trkpt lat="47.32862" lon="-2.38119">
        <ele>27</ele>
        <time>2021-02-14T09:56:56.000Z</time>
      </trkpt>
      <trkpt lat="47.32867" lon="-2.38113">
        <ele>26.60000038147</ele>
        <time>2021-02-14T09:56:57.000Z</time>
      </trkpt>
      <trkpt lat="47.32875" lon="-2.38099">
        <ele>26.60000038147</ele>
        <time>2021-02-14T09:56:59.000Z</time>
      </trkpt>
      <trkpt lat="47.32898" lon="-2.38059">
        <ele>26.60000038147</ele>
        <time>2021-02-14T09:57:05.000Z</time>
      </trkpt>
      <trkpt lat="47.32901" lon="-2.38053">
        <ele>26.60000038147</ele>
        <time>2021-02-14T09:57:06.000Z</time>
      </trkpt>
      <trkpt lat="47.32911" lon="-2.38034">
        <ele>26.200000762939</ele>
        <time>2021-02-14T09:57:09.000Z</time>
      </trkpt>
      <trkpt lat="47.32915" lon="-2.38028">
        <ele>25.799999237061</ele>
        <time>2021-02-14T09:57:10.000Z</time>
      </trkpt>
      <trkpt lat="47.32919" lon="-2.38022">
        <ele>25.39999961853</ele>
        <time>2021-02-14T09:57:11.000Z</time>
      </trkpt>
      <trkpt lat="47.32923" lon="-2.38016">
        <ele>25</ele>
        <time>2021-02-14T09:57:12.000Z</time>
      </trkpt>
      <trkpt lat="47.32927" lon="-2.38011">
        <ele>24.60000038147</ele>
        <time>2021-02-14T09:57:13.000Z</time>
      </trkpt>
      <trkpt lat="47.32936" lon="-2.38">
        <ele>24.60000038147</ele>
        <time>2021-02-14T09:57:15.000Z</time>
      </trkpt>
      <trkpt lat="47.32944" lon="-2.37986">
        <ele>24.60000038147</ele>
        <time>2021-02-14T09:57:17.000Z</time>
      </trkpt>
      <trkpt lat="47.32953" lon="-2.37973">
        <ele>24.60000038147</ele>
        <time>2021-02-14T09:57:19.000Z</time>
      </trkpt>
      <trkpt lat="47.3297" lon="-2.37947">
        <ele>24.60000038147</ele>
        <time>2021-02-14T09:57:23.000Z</time>
      </trkpt>
      <trkpt lat="47.32996" lon="-2.37908">
        <ele>24.60000038147</ele>
        <time>2021-02-14T09:57:29.000Z</time>
      </trkpt>
      <trkpt lat="47.33021" lon="-2.37864">
        <ele>24.60000038147</ele>
        <time>2021-02-14T09:57:35.000Z</time>
      </trkpt>
      <trkpt lat="47.33027" lon="-2.3785">
        <ele>24.60000038147</ele>
        <time>2021-02-14T09:57:37.000Z</time>
      </trkpt>
      <trkpt lat="47.33036" lon="-2.37838">
        <ele>24.60000038147</ele>
        <time>2021-02-14T09:57:39.000Z</time>
      </trkpt>
      <trkpt lat="47.3304" lon="-2.37832">
        <ele>24.200000762939</ele>
        <time>2021-02-14T09:57:40.000Z</time>
      </trkpt>
      <trkpt lat="47.33045" lon="-2.37827">
        <ele>23.799999237061</ele>
        <time>2021-02-14T09:57:41.000Z</time>
      </trkpt>
      <trkpt lat="47.3305" lon="-2.37822">
        <ele>23.39999961853</ele>
        <time>2021-02-14T09:57:42.000Z</time>
      </trkpt>
      <trkpt lat="47.33055" lon="-2.37816">
        <ele>22.799999237061</ele>
        <time>2021-02-14T09:57:43.000Z</time>
      </trkpt>
      <trkpt lat="47.33061" lon="-2.37812">
        <ele>22.39999961853</ele>
        <time>2021-02-14T09:57:44.000Z</time>
      </trkpt>
      <trkpt lat="47.3309" lon="-2.37783">
        <ele>22</ele>
        <time>2021-02-14T09:57:50.000Z</time>
      </trkpt>
      <trkpt lat="47.33094" lon="-2.37779">
        <ele>21.60000038147</ele>
        <time>2021-02-14T09:57:51.000Z</time>
      </trkpt>
      <trkpt lat="47.33098" lon="-2.37775">
        <ele>21.200000762939</ele>
        <time>2021-02-14T09:57:52.000Z</time>
      </trkpt>
      <trkpt lat="47.33102" lon="-2.37771">
        <ele>20.799999237061</ele>
        <time>2021-02-14T09:57:53.000Z</time>
      </trkpt>
      <trkpt lat="47.33106" lon="-2.37767">
        <ele>20.39999961853</ele>
        <time>2021-02-14T09:57:54.000Z</time>
      </trkpt>
      <trkpt lat="47.33113" lon="-2.3776">
        <ele>20.39999961853</ele>
        <time>2021-02-14T09:57:56.000Z</time>
      </trkpt>
      <trkpt lat="47.3312" lon="-2.3775">
        <ele>20.39999961853</ele>
        <time>2021-02-14T09:57:58.000Z</time>
      </trkpt>
      <trkpt lat="47.3313" lon="-2.37738">
        <ele>20</ele>
        <time>2021-02-14T09:58:01.000Z</time>
      </trkpt>
      <trkpt lat="47.33135" lon="-2.37736">
        <ele>19.60000038147</ele>
        <time>2021-02-14T09:58:02.000Z</time>
      </trkpt>
      <trkpt lat="47.33141" lon="-2.37736">
        <ele>19.200000762939</ele>
        <time>2021-02-14T09:58:03.000Z</time>
      </trkpt>
      <trkpt lat="47.33147" lon="-2.37738">
        <ele>18.799999237061</ele>
        <time>2021-02-14T09:58:04.000Z</time>
      </trkpt>
      <trkpt lat="47.33154" lon="-2.37743">
        <ele>18.39999961853</ele>
        <time>2021-02-14T09:58:05.000Z</time>
      </trkpt>
      <trkpt lat="47.33169" lon="-2.37763">
        <ele>18.39999961853</ele>
        <time>2021-02-14T09:58:08.000Z</time>
      </trkpt>
      <trkpt lat="47.33172" lon="-2.3777">
        <ele>18.39999961853</ele>
        <time>2021-02-14T09:58:09.000Z</time>
      </trkpt>
      <trkpt lat="47.3319" lon="-2.37802">
        <ele>18.39999961853</ele>
        <time>2021-02-14T09:58:14.000Z</time>
      </trkpt>
      <trkpt lat="47.33196" lon="-2.37814">
        <ele>18.799999237061</ele>
        <time>2021-02-14T09:58:16.000Z</time>
      </trkpt>
      <trkpt lat="47.332" lon="-2.3782">
        <ele>19.200000762939</ele>
        <time>2021-02-14T09:58:17.000Z</time>
      </trkpt>
      <trkpt lat="47.33203" lon="-2.37826">
        <ele>19.60000038147</ele>
        <time>2021-02-14T09:58:18.000Z</time>
      </trkpt>
      <trkpt lat="47.33207" lon="-2.37832">
        <ele>20</ele>
        <time>2021-02-14T09:58:19.000Z</time>
      </trkpt>
      <trkpt lat="47.33211" lon="-2.37838">
        <ele>20.39999961853</ele>
        <time>2021-02-14T09:58:20.000Z</time>
      </trkpt>
      <trkpt lat="47.33219" lon="-2.37849">
        <ele>20.39999961853</ele>
        <time>2021-02-14T09:58:22.000Z</time>
      </trkpt>
      <trkpt lat="47.33238" lon="-2.37872">
        <ele>20.39999961853</ele>
        <time>2021-02-14T09:58:27.000Z</time>
      </trkpt>
      <trkpt lat="47.33247" lon="-2.37878">
        <ele>20.39999961853</ele>
        <time>2021-02-14T09:58:29.000Z</time>
      </trkpt>
      <trkpt lat="47.33251" lon="-2.3788">
        <ele>20.799999237061</ele>
        <time>2021-02-14T09:58:30.000Z</time>
      </trkpt>
      <trkpt lat="47.33255" lon="-2.37882">
        <ele>21.200000762939</ele>
        <time>2021-02-14T09:58:31.000Z</time>
      </trkpt>
      <trkpt lat="47.33259" lon="-2.37883">
        <ele>21.60000038147</ele>
        <time>2021-02-14T09:58:32.000Z</time>
      </trkpt>
      <trkpt lat="47.33263" lon="-2.37881">
        <ele>22</ele>
        <time>2021-02-14T09:58:33.000Z</time>
      </trkpt>
      <trkpt lat="47.33267" lon="-2.37879">
        <ele>22.39999961853</ele>
        <time>2021-02-14T09:58:34.000Z</time>
      </trkpt>
      <trkpt lat="47.33281" lon="-2.37874">
        <ele>22.799999237061</ele>
        <time>2021-02-14T09:58:38.000Z</time>
      </trkpt>
      <trkpt lat="47.33284" lon="-2.37873">
        <ele>23.39999961853</ele>
        <time>2021-02-14T09:58:39.000Z</time>
      </trkpt>
      <trkpt lat="47.33287" lon="-2.37872">
        <ele>23.799999237061</ele>
        <time>2021-02-14T09:58:40.000Z</time>
      </trkpt>
      <trkpt lat="47.3329" lon="-2.37871">
        <ele>24.200000762939</ele>
        <time>2021-02-14T09:58:41.000Z</time>
      </trkpt>
      <trkpt lat="47.33293" lon="-2.3787">
        <ele>24.799999237061</ele>
        <time>2021-02-14T09:58:42.000Z</time>
      </trkpt>
      <trkpt lat="47.33307" lon="-2.37866">
        <ele>25.200000762939</ele>
        <time>2021-02-14T09:58:46.000Z</time>
      </trkpt>
      <trkpt lat="47.3331" lon="-2.37866">
        <ele>25.60000038147</ele>
        <time>2021-02-14T09:58:47.000Z</time>
      </trkpt>
      <trkpt lat="47.33313" lon="-2.37865">
        <ele>26</ele>
        <time>2021-02-14T09:58:48.000Z</time>
      </trkpt>
      <trkpt lat="47.33316" lon="-2.37864">
        <ele>26.39999961853</ele>
        <time>2021-02-14T09:58:49.000Z</time>
      </trkpt>
      <trkpt lat="47.33319" lon="-2.37863">
        <ele>26.799999237061</ele>
        <time>2021-02-14T09:58:50.000Z</time>
      </trkpt>
      <trkpt lat="47.33327" lon="-2.3786">
        <ele>26.799999237061</ele>
        <time>2021-02-14T09:58:53.000Z</time>
      </trkpt>
      <trkpt lat="47.33344" lon="-2.37857">
        <ele>27.200000762939</ele>
        <time>2021-02-14T09:58:59.000Z</time>
      </trkpt>
      <trkpt lat="47.33346" lon="-2.37857">
        <ele>27.799999237061</ele>
        <time>2021-02-14T09:59:00.000Z</time>
      </trkpt>
      <trkpt lat="47.33348" lon="-2.37857">
        <ele>28.200000762939</ele>
        <time>2021-02-14T09:59:01.000Z</time>
      </trkpt>
      <trkpt lat="47.33351" lon="-2.37856">
        <ele>29</ele>
        <time>2021-02-14T09:59:02.000Z</time>
      </trkpt>
      <trkpt lat="47.33358" lon="-2.37854">
        <ele>29</ele>
        <time>2021-02-14T09:59:04.000Z</time>
      </trkpt>
      <trkpt lat="47.33361" lon="-2.3785">
        <ele>29</ele>
        <time>2021-02-14T09:59:05.000Z</time>
      </trkpt>
      <trkpt lat="47.33365" lon="-2.37837">
        <ele>29</ele>
        <time>2021-02-14T09:59:08.000Z</time>
      </trkpt>
      <trkpt lat="47.33367" lon="-2.37833">
        <ele>29</ele>
        <time>2021-02-14T09:59:09.000Z</time>
      </trkpt>
      <trkpt lat="47.33378" lon="-2.378">
        <ele>29.39999961853</ele>
        <time>2021-02-14T09:59:16.000Z</time>
      </trkpt>
      <trkpt lat="47.33379" lon="-2.37795">
        <ele>29.799999237061</ele>
        <time>2021-02-14T09:59:17.000Z</time>
      </trkpt>
      <trkpt lat="47.3338" lon="-2.3779">
        <ele>30.200000762939</ele>
        <time>2021-02-14T09:59:18.000Z</time>
      </trkpt>
      <trkpt lat="47.3338" lon="-2.37784">
        <ele>30.60000038147</ele>
        <time>2021-02-14T09:59:19.000Z</time>
      </trkpt>
      <trkpt lat="47.33381" lon="-2.3778">
        <ele>31</ele>
        <time>2021-02-14T09:59:20.000Z</time>
      </trkpt>
      <trkpt lat="47.33382" lon="-2.37769">
        <ele>31</ele>
        <time>2021-02-14T09:59:22.000Z</time>
      </trkpt>
      <trkpt lat="47.33384" lon="-2.37732">
        <ele>31</ele>
        <time>2021-02-14T09:59:29.000Z</time>
      </trkpt>
      <trkpt lat="47.33385" lon="-2.37685">
        <ele>31</ele>
        <time>2021-02-14T09:59:36.000Z</time>
      </trkpt>
      <trkpt lat="47.33392" lon="-2.37649">
        <ele>31</ele>
        <time>2021-02-14T09:59:41.000Z</time>
      </trkpt>
      <trkpt lat="47.33395" lon="-2.37644">
        <ele>31</ele>
        <time>2021-02-14T09:59:42.000Z</time>
      </trkpt>
      <trkpt lat="47.33402" lon="-2.37633">
        <ele>31</ele>
        <time>2021-02-14T09:59:44.000Z</time>
      </trkpt>
      <trkpt lat="47.33415" lon="-2.3762">
        <ele>31</ele>
        <time>2021-02-14T09:59:47.000Z</time>
      </trkpt>
      <trkpt lat="47.33419" lon="-2.37616">
        <ele>31</ele>
        <time>2021-02-14T09:59:48.000Z</time>
      </trkpt>
      <trkpt lat="47.33446" lon="-2.37592">
        <ele>31</ele>
        <time>2021-02-14T09:59:54.000Z</time>
      </trkpt>
      <trkpt lat="47.33473" lon="-2.37567">
        <ele>31</ele>
        <time>2021-02-14T10:00:00.000Z</time>
      </trkpt>
      <trkpt lat="47.33501" lon="-2.37529">
        <ele>31</ele>
        <time>2021-02-14T10:00:07.000Z</time>
      </trkpt>
      <trkpt lat="47.33522" lon="-2.37488">
        <ele>30.60000038147</ele>
        <time>2021-02-14T10:00:13.000Z</time>
      </trkpt>
      <trkpt lat="47.33525" lon="-2.37481">
        <ele>30.200000762939</ele>
        <time>2021-02-14T10:00:14.000Z</time>
      </trkpt>
      <trkpt lat="47.33528" lon="-2.37473">
        <ele>29.60000038147</ele>
        <time>2021-02-14T10:00:15.000Z</time>
      </trkpt>
      <trkpt lat="47.3353" lon="-2.37464">
        <ele>28.799999237061</ele>
        <time>2021-02-14T10:00:16.000Z</time>
      </trkpt>
      <trkpt lat="47.33534" lon="-2.37447">
        <ele>28.799999237061</ele>
        <time>2021-02-14T10:00:18.000Z</time>
      </trkpt>
      <trkpt lat="47.33537" lon="-2.37403">
        <ele>28.799999237061</ele>
        <time>2021-02-14T10:00:23.000Z</time>
      </trkpt>
      <trkpt lat="47.33537" lon="-2.37378">
        <ele>28.39999961853</ele>
        <time>2021-02-14T10:00:26.000Z</time>
      </trkpt>
      <trkpt lat="47.33536" lon="-2.3737">
        <ele>28</ele>
        <time>2021-02-14T10:00:27.000Z</time>
      </trkpt>
      <trkpt lat="47.33536" lon="-2.37362">
        <ele>27.60000038147</ele>
        <time>2021-02-14T10:00:28.000Z</time>
      </trkpt>
      <trkpt lat="47.33536" lon="-2.37355">
        <ele>27.200000762939</ele>
        <time>2021-02-14T10:00:29.000Z</time>
      </trkpt>
      <trkpt lat="47.33535" lon="-2.37347">
        <ele>26.799999237061</ele>
        <time>2021-02-14T10:00:30.000Z</time>
      </trkpt>
      <trkpt lat="47.33525" lon="-2.37312">
        <ele>26.799999237061</ele>
        <time>2021-02-14T10:00:34.000Z</time>
      </trkpt>
      <trkpt lat="47.33522" lon="-2.37303">
        <ele>26.200000762939</ele>
        <time>2021-02-14T10:00:35.000Z</time>
      </trkpt>
      <trkpt lat="47.3352" lon="-2.37293">
        <ele>25.799999237061</ele>
        <time>2021-02-14T10:00:36.000Z</time>
      </trkpt>
      <trkpt lat="47.33517" lon="-2.37285">
        <ele>25.39999961853</ele>
        <time>2021-02-14T10:00:37.000Z</time>
      </trkpt>
      <trkpt lat="47.33515" lon="-2.37277">
        <ele>25</ele>
        <time>2021-02-14T10:00:38.000Z</time>
      </trkpt>
      <trkpt lat="47.33513" lon="-2.37273">
        <ele>24.60000038147</ele>
        <time>2021-02-14T10:00:39.000Z</time>
      </trkpt>
      <trkpt lat="47.33512" lon="-2.3727">
        <ele>24.60000038147</ele>
        <time>2021-02-14T10:00:40.000Z</time>
      </trkpt>
      <trkpt lat="47.33511" lon="-2.37266">
        <ele>23.60000038147</ele>
        <time>2021-02-14T10:00:41.000Z</time>
      </trkpt>
      <trkpt lat="47.3351" lon="-2.37262">
        <ele>23.200000762939</ele>
        <time>2021-02-14T10:00:42.000Z</time>
      </trkpt>
      <trkpt lat="47.33509" lon="-2.37259">
        <ele>22.799999237061</ele>
        <time>2021-02-14T10:00:43.000Z</time>
      </trkpt>
      <trkpt lat="47.33508" lon="-2.37256">
        <ele>22.39999961853</ele>
        <time>2021-02-14T10:00:44.000Z</time>
      </trkpt>
      <trkpt lat="47.33503" lon="-2.37241">
        <ele>22.39999961853</ele>
        <time>2021-02-14T10:00:47.000Z</time>
      </trkpt>
      <trkpt lat="47.33503" lon="-2.37231">
        <ele>22.39999961853</ele>
        <time>2021-02-14T10:00:49.000Z</time>
      </trkpt>
      <trkpt lat="47.33505" lon="-2.37229">
        <ele>22</ele>
        <time>2021-02-14T10:00:50.000Z</time>
      </trkpt>
      <trkpt lat="47.33508" lon="-2.37228">
        <ele>21.39999961853</ele>
        <time>2021-02-14T10:00:51.000Z</time>
      </trkpt>
      <trkpt lat="47.3351" lon="-2.3723">
        <ele>21</ele>
        <time>2021-02-14T10:00:52.000Z</time>
      </trkpt>
      <trkpt lat="47.33513" lon="-2.3723">
        <ele>20.60000038147</ele>
        <time>2021-02-14T10:00:53.000Z</time>
      </trkpt>
      <trkpt lat="47.33515" lon="-2.37231">
        <ele>20.200000762939</ele>
        <time>2021-02-14T10:00:54.000Z</time>
      </trkpt>
      <trkpt lat="47.33533" lon="-2.37234">
        <ele>20.200000762939</ele>
        <time>2021-02-14T10:01:00.000Z</time>
      </trkpt>
      <trkpt lat="47.33545" lon="-2.3723">
        <ele>20.200000762939</ele>
        <time>2021-02-14T10:01:05.000Z</time>
      </trkpt>
      <trkpt lat="47.33546" lon="-2.37228">
        <ele>20.200000762939</ele>
        <time>2021-02-14T10:01:06.000Z</time>
      </trkpt>
      <trkpt lat="47.33548" lon="-2.37222">
        <ele>20.200000762939</ele>
        <time>2021-02-14T10:01:11.000Z</time>
      </trkpt>
      <trkpt lat="47.33553" lon="-2.37219">
        <ele>22.200000762939</ele>
        <time>2021-02-14T10:16:38.000Z</time>
      </trkpt>
      <trkpt lat="47.33556" lon="-2.37219">
        <ele>22.200000762939</ele>
        <time>2021-02-14T10:16:40.000Z</time>
      </trkpt>
      <trkpt lat="47.33571" lon="-2.37208">
        <ele>22.200000762939</ele>
        <time>2021-02-14T10:16:46.000Z</time>
      </trkpt>
      <trkpt lat="47.33585" lon="-2.37198">
        <ele>22.200000762939</ele>
        <time>2021-02-14T10:16:52.000Z</time>
      </trkpt>
      <trkpt lat="47.33596" lon="-2.37184">
        <ele>22.200000762939</ele>
        <time>2021-02-14T10:16:57.000Z</time>
      </trkpt>
      <trkpt lat="47.33601" lon="-2.37153">
        <ele>22.200000762939</ele>
        <time>2021-02-14T10:17:02.000Z</time>
      </trkpt>
      <trkpt lat="47.33602" lon="-2.37107">
        <ele>22.200000762939</ele>
        <time>2021-02-14T10:17:09.000Z</time>
      </trkpt>
      <trkpt lat="47.33602" lon="-2.37101">
        <ele>22.200000762939</ele>
        <time>2021-02-14T10:17:10.000Z</time>
      </trkpt>
      <trkpt lat="47.33603" lon="-2.37078">
        <ele>22.200000762939</ele>
        <time>2021-02-14T10:17:14.000Z</time>
      </trkpt>
      <trkpt lat="47.33602" lon="-2.37032">
        <ele>22.200000762939</ele>
        <time>2021-02-14T10:17:21.000Z</time>
      </trkpt>
      <trkpt lat="47.33601" lon="-2.36978">
        <ele>22.200000762939</ele>
        <time>2021-02-14T10:17:28.000Z</time>
      </trkpt>
      <trkpt lat="47.33603" lon="-2.36961">
        <ele>22.200000762939</ele>
        <time>2021-02-14T10:17:30.000Z</time>
      </trkpt>
      <trkpt lat="47.33611" lon="-2.36939">
        <ele>22.200000762939</ele>
        <time>2021-02-14T10:17:33.000Z</time>
      </trkpt>
      <trkpt lat="47.33614" lon="-2.36933">
        <ele>22.200000762939</ele>
        <time>2021-02-14T10:17:34.000Z</time>
      </trkpt>
      <trkpt lat="47.33634" lon="-2.36904">
        <ele>22.200000762939</ele>
        <time>2021-02-14T10:17:39.000Z</time>
      </trkpt>
      <trkpt lat="47.33663" lon="-2.36867">
        <ele>22.200000762939</ele>
        <time>2021-02-14T10:17:46.000Z</time>
      </trkpt>
      <trkpt lat="47.33668" lon="-2.36862">
        <ele>22.200000762939</ele>
        <time>2021-02-14T10:17:47.000Z</time>
      </trkpt>
      <trkpt lat="47.33684" lon="-2.36843">
        <ele>22.200000762939</ele>
        <time>2021-02-14T10:17:51.000Z</time>
      </trkpt>
      <trkpt lat="47.33696" lon="-2.3683">
        <ele>22.200000762939</ele>
        <time>2021-02-14T10:17:54.000Z</time>
      </trkpt>
      <trkpt lat="47.33709" lon="-2.36819">
        <ele>22.200000762939</ele>
        <time>2021-02-14T10:17:57.000Z</time>
      </trkpt>
      <trkpt lat="47.33732" lon="-2.36808">
        <ele>22.60000038147</ele>
        <time>2021-02-14T10:18:02.000Z</time>
      </trkpt>
      <trkpt lat="47.33737" lon="-2.36806">
        <ele>23</ele>
        <time>2021-02-14T10:18:03.000Z</time>
      </trkpt>
      <trkpt lat="47.33743" lon="-2.36804">
        <ele>23.39999961853</ele>
        <time>2021-02-14T10:18:04.000Z</time>
      </trkpt>
      <trkpt lat="47.33748" lon="-2.36802">
        <ele>23.799999237061</ele>
        <time>2021-02-14T10:18:05.000Z</time>
      </trkpt>
      <trkpt lat="47.33754" lon="-2.368">
        <ele>24.200000762939</ele>
        <time>2021-02-14T10:18:06.000Z</time>
      </trkpt>
      <trkpt lat="47.33766" lon="-2.36795">
        <ele>24.200000762939</ele>
        <time>2021-02-14T10:18:08.000Z</time>
      </trkpt>
      <trkpt lat="47.33813" lon="-2.3678">
        <ele>24.200000762939</ele>
        <time>2021-02-14T10:18:15.000Z</time>
      </trkpt>
      <trkpt lat="47.33826" lon="-2.36776">
        <ele>23.799999237061</ele>
        <time>2021-02-14T10:18:17.000Z</time>
      </trkpt>
      <trkpt lat="47.33831" lon="-2.36775">
        <ele>23.39999961853</ele>
        <time>2021-02-14T10:18:18.000Z</time>
      </trkpt>
      <trkpt lat="47.33837" lon="-2.36774">
        <ele>22.799999237061</ele>
        <time>2021-02-14T10:18:19.000Z</time>
      </trkpt>
      <trkpt lat="47.33843" lon="-2.36772">
        <ele>22.39999961853</ele>
        <time>2021-02-14T10:18:20.000Z</time>
      </trkpt>
      <trkpt lat="47.33848" lon="-2.36771">
        <ele>22</ele>
        <time>2021-02-14T10:18:21.000Z</time>
      </trkpt>
      <trkpt lat="47.33888" lon="-2.36763">
        <ele>22</ele>
        <time>2021-02-14T10:18:29.000Z</time>
      </trkpt>
      <trkpt lat="47.33905" lon="-2.36759">
        <ele>22</ele>
        <time>2021-02-14T10:18:34.000Z</time>
      </trkpt>
      <trkpt lat="47.33913" lon="-2.36756">
        <ele>22</ele>
        <time>2021-02-14T10:18:38.000Z</time>
      </trkpt>
      <trkpt lat="47.33927" lon="-2.36759">
        <ele>22</ele>
        <time>2021-02-14T10:18:42.000Z</time>
      </trkpt>
      <trkpt lat="47.3394" lon="-2.36757">
        <ele>22</ele>
        <time>2021-02-14T10:18:45.000Z</time>
      </trkpt>
      <trkpt lat="47.3395" lon="-2.36755">
        <ele>22</ele>
        <time>2021-02-14T10:18:47.000Z</time>
      </trkpt>
      <trkpt lat="47.33981" lon="-2.36748">
        <ele>21.60000038147</ele>
        <time>2021-02-14T10:18:53.000Z</time>
      </trkpt>
      <trkpt lat="47.33987" lon="-2.36746">
        <ele>21.200000762939</ele>
        <time>2021-02-14T10:18:54.000Z</time>
      </trkpt>
      <trkpt lat="47.33992" lon="-2.36744">
        <ele>20.799999237061</ele>
        <time>2021-02-14T10:18:55.000Z</time>
      </trkpt>
      <trkpt lat="47.33998" lon="-2.36742">
        <ele>20.200000762939</ele>
        <time>2021-02-14T10:18:56.000Z</time>
      </trkpt>
      <trkpt lat="47.34005" lon="-2.3674">
        <ele>19.799999237061</ele>
        <time>2021-02-14T10:18:57.000Z</time>
      </trkpt>
      <trkpt lat="47.34023" lon="-2.36731">
        <ele>19.799999237061</ele>
        <time>2021-02-14T10:19:00.000Z</time>
      </trkpt>
      <trkpt lat="47.34058" lon="-2.3671">
        <ele>19.799999237061</ele>
        <time>2021-02-14T10:19:06.000Z</time>
      </trkpt>
      <trkpt lat="47.34063" lon="-2.36707">
        <ele>19.39999961853</ele>
        <time>2021-02-14T10:19:07.000Z</time>
      </trkpt>
      <trkpt lat="47.34068" lon="-2.36705">
        <ele>19</ele>
        <time>2021-02-14T10:19:08.000Z</time>
      </trkpt>
      <trkpt lat="47.34072" lon="-2.36702">
        <ele>18.60000038147</ele>
        <time>2021-02-14T10:19:09.000Z</time>
      </trkpt>
      <trkpt lat="47.34077" lon="-2.36702">
        <ele>18.200000762939</ele>
        <time>2021-02-14T10:19:10.000Z</time>
      </trkpt>
      <trkpt lat="47.34081" lon="-2.36704">
        <ele>17.60000038147</ele>
        <time>2021-02-14T10:19:11.000Z</time>
      </trkpt>
      <trkpt lat="47.34088" lon="-2.36722">
        <ele>17.60000038147</ele>
        <time>2021-02-14T10:19:14.000Z</time>
      </trkpt>
      <trkpt lat="47.3409" lon="-2.36738">
        <ele>17.60000038147</ele>
        <time>2021-02-14T10:19:16.000Z</time>
      </trkpt>
      <trkpt lat="47.34094" lon="-2.36764">
        <ele>17.60000038147</ele>
        <time>2021-02-14T10:19:19.000Z</time>
      </trkpt>
      <trkpt lat="47.34103" lon="-2.36807">
        <ele>17.200000762939</ele>
        <time>2021-02-14T10:19:24.000Z</time>
      </trkpt>
      <trkpt lat="47.34105" lon="-2.36816">
        <ele>16.799999237061</ele>
        <time>2021-02-14T10:19:25.000Z</time>
      </trkpt>
      <trkpt lat="47.34106" lon="-2.36825">
        <ele>16.39999961853</ele>
        <time>2021-02-14T10:19:26.000Z</time>
      </trkpt>
      <trkpt lat="47.34108" lon="-2.36834">
        <ele>16</ele>
        <time>2021-02-14T10:19:27.000Z</time>
      </trkpt>
      <trkpt lat="47.3411" lon="-2.36843">
        <ele>15.60000038147</ele>
        <time>2021-02-14T10:19:28.000Z</time>
      </trkpt>
      <trkpt lat="47.34114" lon="-2.3686">
        <ele>15.60000038147</ele>
        <time>2021-02-14T10:19:30.000Z</time>
      </trkpt>
      <trkpt lat="47.3412" lon="-2.36877">
        <ele>15.60000038147</ele>
        <time>2021-02-14T10:19:32.000Z</time>
      </trkpt>
      <trkpt lat="47.34128" lon="-2.36891">
        <ele>15.60000038147</ele>
        <time>2021-02-14T10:19:34.000Z</time>
      </trkpt>
      <trkpt lat="47.34141" lon="-2.36913">
        <ele>15.60000038147</ele>
        <time>2021-02-14T10:19:37.000Z</time>
      </trkpt>
      <trkpt lat="47.34166" lon="-2.36956">
        <ele>15.60000038147</ele>
        <time>2021-02-14T10:19:44.000Z</time>
      </trkpt>
      <trkpt lat="47.3417" lon="-2.36961">
        <ele>15.60000038147</ele>
        <time>2021-02-14T10:19:45.000Z</time>
      </trkpt>
      <trkpt lat="47.34189" lon="-2.36985">
        <ele>15.60000038147</ele>
        <time>2021-02-14T10:19:50.000Z</time>
      </trkpt>
      <trkpt lat="47.34206" lon="-2.37011">
        <ele>16</ele>
        <time>2021-02-14T10:19:55.000Z</time>
      </trkpt>
      <trkpt lat="47.34209" lon="-2.37016">
        <ele>16.39999961853</ele>
        <time>2021-02-14T10:19:56.000Z</time>
      </trkpt>
      <trkpt lat="47.34211" lon="-2.37021">
        <ele>17</ele>
        <time>2021-02-14T10:19:57.000Z</time>
      </trkpt>
      <trkpt lat="47.34214" lon="-2.37027">
        <ele>17.39999961853</ele>
        <time>2021-02-14T10:19:58.000Z</time>
      </trkpt>
      <trkpt lat="47.34217" lon="-2.37032">
        <ele>17.799999237061</ele>
        <time>2021-02-14T10:19:59.000Z</time>
      </trkpt>
      <trkpt lat="47.34226" lon="-2.37047">
        <ele>18.200000762939</ele>
        <time>2021-02-14T10:20:02.000Z</time>
      </trkpt>
      <trkpt lat="47.34229" lon="-2.37053">
        <ele>18.60000038147</ele>
        <time>2021-02-14T10:20:03.000Z</time>
      </trkpt>
      <trkpt lat="47.34232" lon="-2.37057">
        <ele>19</ele>
        <time>2021-02-14T10:20:04.000Z</time>
      </trkpt>
      <trkpt lat="47.34235" lon="-2.37061">
        <ele>19.39999961853</ele>
        <time>2021-02-14T10:20:05.000Z</time>
      </trkpt>
      <trkpt lat="47.34239" lon="-2.37062">
        <ele>19.799999237061</ele>
        <time>2021-02-14T10:20:06.000Z</time>
      </trkpt>
      <trkpt lat="47.34247" lon="-2.37058">
        <ele>19.799999237061</ele>
        <time>2021-02-14T10:20:08.000Z</time>
      </trkpt>
      <trkpt lat="47.34255" lon="-2.3705">
        <ele>19.799999237061</ele>
        <time>2021-02-14T10:20:10.000Z</time>
      </trkpt>
      <trkpt lat="47.34268" lon="-2.37038">
        <ele>19.799999237061</ele>
        <time>2021-02-14T10:20:13.000Z</time>
      </trkpt>
      <trkpt lat="47.34295" lon="-2.37008">
        <ele>19.799999237061</ele>
        <time>2021-02-14T10:20:19.000Z</time>
      </trkpt>
      <trkpt lat="47.34313" lon="-2.36985">
        <ele>19.799999237061</ele>
        <time>2021-02-14T10:20:23.000Z</time>
      </trkpt>
      <trkpt lat="47.34351" lon="-2.36929">
        <ele>19.799999237061</ele>
        <time>2021-02-14T10:20:32.000Z</time>
      </trkpt>
      <trkpt lat="47.34384" lon="-2.36876">
        <ele>19.799999237061</ele>
        <time>2021-02-14T10:20:40.000Z</time>
      </trkpt>
      <trkpt lat="47.34421" lon="-2.36815">
        <ele>19.799999237061</ele>
        <time>2021-02-14T10:20:49.000Z</time>
      </trkpt>
      <trkpt lat="47.34455" lon="-2.36763">
        <ele>19.799999237061</ele>
        <time>2021-02-14T10:20:57.000Z</time>
      </trkpt>
      <trkpt lat="47.34482" lon="-2.36715">
        <ele>19.799999237061</ele>
        <time>2021-02-14T10:21:03.000Z</time>
      </trkpt>
      <trkpt lat="47.34495" lon="-2.36688">
        <ele>19.39999961853</ele>
        <time>2021-02-14T10:21:06.000Z</time>
      </trkpt>
      <trkpt lat="47.34499" lon="-2.36678">
        <ele>19</ele>
        <time>2021-02-14T10:21:07.000Z</time>
      </trkpt>
      <trkpt lat="47.34504" lon="-2.36669">
        <ele>18.60000038147</ele>
        <time>2021-02-14T10:21:08.000Z</time>
      </trkpt>
      <trkpt lat="47.34508" lon="-2.36659">
        <ele>18.200000762939</ele>
        <time>2021-02-14T10:21:09.000Z</time>
      </trkpt>
      <trkpt lat="47.34512" lon="-2.36649">
        <ele>17.799999237061</ele>
        <time>2021-02-14T10:21:10.000Z</time>
      </trkpt>
      <trkpt lat="47.34529" lon="-2.36609">
        <ele>17.39999961853</ele>
        <time>2021-02-14T10:21:14.000Z</time>
      </trkpt>
      <trkpt lat="47.34533" lon="-2.36599">
        <ele>16.799999237061</ele>
        <time>2021-02-14T10:21:15.000Z</time>
      </trkpt>
      <trkpt lat="47.34537" lon="-2.36589">
        <ele>16</ele>
        <time>2021-02-14T10:21:16.000Z</time>
      </trkpt>
      <trkpt lat="47.34541" lon="-2.3658">
        <ele>15.60000038147</ele>
        <time>2021-02-14T10:21:17.000Z</time>
      </trkpt>
      <trkpt lat="47.34545" lon="-2.3657">
        <ele>15.60000038147</ele>
        <time>2021-02-14T10:21:18.000Z</time>
      </trkpt>
      <trkpt lat="47.34567" lon="-2.36517">
        <ele>15.60000038147</ele>
        <time>2021-02-14T10:21:24.000Z</time>
      </trkpt>
      <trkpt lat="47.34586" lon="-2.36464">
        <ele>15</ele>
        <time>2021-02-14T10:21:30.000Z</time>
      </trkpt>
      <trkpt lat="47.34589" lon="-2.36457">
        <ele>14.60000038147</ele>
        <time>2021-02-14T10:21:31.000Z</time>
      </trkpt>
      <trkpt lat="47.34591" lon="-2.36451">
        <ele>14.199999809265</ele>
        <time>2021-02-14T10:21:32.000Z</time>
      </trkpt>
      <trkpt lat="47.34592" lon="-2.36444">
        <ele>13.800000190735</ele>
        <time>2021-02-14T10:21:33.000Z</time>
      </trkpt>
      <trkpt lat="47.34592" lon="-2.36437">
        <ele>13.199999809265</ele>
        <time>2021-02-14T10:21:34.000Z</time>
      </trkpt>
      <trkpt lat="47.34584" lon="-2.3642">
        <ele>13.199999809265</ele>
        <time>2021-02-14T10:21:37.000Z</time>
      </trkpt>
      <trkpt lat="47.3458" lon="-2.36415">
        <ele>13.199999809265</ele>
        <time>2021-02-14T10:21:38.000Z</time>
      </trkpt>
      <trkpt lat="47.34559" lon="-2.36384">
        <ele>13.199999809265</ele>
        <time>2021-02-14T10:21:43.000Z</time>
      </trkpt>
      <trkpt lat="47.34551" lon="-2.3637">
        <ele>13.199999809265</ele>
        <time>2021-02-14T10:21:45.000Z</time>
      </trkpt>
      <trkpt lat="47.34547" lon="-2.36363">
        <ele>12.800000190735</ele>
        <time>2021-02-14T10:21:46.000Z</time>
      </trkpt>
      <trkpt lat="47.34544" lon="-2.36355">
        <ele>12.39999961853</ele>
        <time>2021-02-14T10:21:47.000Z</time>
      </trkpt>
      <trkpt lat="47.34541" lon="-2.36346">
        <ele>12</ele>
        <time>2021-02-14T10:21:48.000Z</time>
      </trkpt>
      <trkpt lat="47.34538" lon="-2.36338">
        <ele>11.60000038147</ele>
        <time>2021-02-14T10:21:49.000Z</time>
      </trkpt>
      <trkpt lat="47.34535" lon="-2.3633">
        <ele>11.199999809265</ele>
        <time>2021-02-14T10:21:50.000Z</time>
      </trkpt>
      <trkpt lat="47.34526" lon="-2.36305">
        <ele>11.199999809265</ele>
        <time>2021-02-14T10:21:53.000Z</time>
      </trkpt>
      <trkpt lat="47.3451" lon="-2.36251">
        <ele>11.199999809265</ele>
        <time>2021-02-14T10:21:59.000Z</time>
      </trkpt>
      <trkpt lat="47.34507" lon="-2.36241">
        <ele>11.199999809265</ele>
        <time>2021-02-14T10:22:00.000Z</time>
      </trkpt>
      <trkpt lat="47.34494" lon="-2.36215">
        <ele>11.199999809265</ele>
        <time>2021-02-14T10:22:03.000Z</time>
      </trkpt>
      <trkpt lat="47.34463" lon="-2.36163">
        <ele>11.199999809265</ele>
        <time>2021-02-14T10:22:10.000Z</time>
      </trkpt>
      <trkpt lat="47.34449" lon="-2.36126">
        <ele>11.199999809265</ele>
        <time>2021-02-14T10:22:15.000Z</time>
      </trkpt>
      <trkpt lat="47.34446" lon="-2.36119">
        <ele>11.199999809265</ele>
        <time>2021-02-14T10:22:16.000Z</time>
      </trkpt>
      <trkpt lat="47.34437" lon="-2.36094">
        <ele>11.199999809265</ele>
        <time>2021-02-14T10:22:20.000Z</time>
      </trkpt>
      <trkpt lat="47.34432" lon="-2.36082">
        <ele>11.199999809265</ele>
        <time>2021-02-14T10:22:22.000Z</time>
      </trkpt>
      <trkpt lat="47.34426" lon="-2.3606">
        <ele>11.199999809265</ele>
        <time>2021-02-14T10:22:25.000Z</time>
      </trkpt>
      <trkpt lat="47.34425" lon="-2.36053">
        <ele>11.199999809265</ele>
        <time>2021-02-14T10:22:26.000Z</time>
      </trkpt>
      <trkpt lat="47.34418" lon="-2.36026">
        <ele>11.199999809265</ele>
        <time>2021-02-14T10:22:30.000Z</time>
      </trkpt>
      <trkpt lat="47.34414" lon="-2.36016">
        <ele>11.199999809265</ele>
        <time>2021-02-14T10:22:32.000Z</time>
      </trkpt>
      <trkpt lat="47.34403" lon="-2.35996">
        <ele>11.199999809265</ele>
        <time>2021-02-14T10:22:36.000Z</time>
      </trkpt>
      <trkpt lat="47.34395" lon="-2.3599">
        <ele>11.199999809265</ele>
        <time>2021-02-14T10:22:38.000Z</time>
      </trkpt>
      <trkpt lat="47.34364" lon="-2.35977">
        <ele>11.199999809265</ele>
        <time>2021-02-14T10:22:44.000Z</time>
      </trkpt>
      <trkpt lat="47.34354" lon="-2.35973">
        <ele>11.199999809265</ele>
        <time>2021-02-14T10:22:46.000Z</time>
      </trkpt>
      <trkpt lat="47.34326" lon="-2.3596">
        <ele>11.199999809265</ele>
        <time>2021-02-14T10:22:51.000Z</time>
      </trkpt>
      <trkpt lat="47.34291" lon="-2.35952">
        <ele>11.199999809265</ele>
        <time>2021-02-14T10:22:57.000Z</time>
      </trkpt>
      <trkpt lat="47.34257" lon="-2.35951">
        <ele>11.199999809265</ele>
        <time>2021-02-14T10:23:02.000Z</time>
      </trkpt>
      <trkpt lat="47.34246" lon="-2.3595">
        <ele>10.800000190735</ele>
        <time>2021-02-14T10:23:04.000Z</time>
      </trkpt>
      <trkpt lat="47.34243" lon="-2.35949">
        <ele>10.39999961853</ele>
        <time>2021-02-14T10:23:05.000Z</time>
      </trkpt>
      <trkpt lat="47.34242" lon="-2.35949">
        <ele>10</ele>
        <time>2021-02-14T10:23:06.000Z</time>
      </trkpt>
      <trkpt lat="47.34241" lon="-2.35947">
        <ele>9.6000003814697</ele>
        <time>2021-02-14T10:23:07.000Z</time>
      </trkpt>
      <trkpt lat="47.3424" lon="-2.35945">
        <ele>9</ele>
        <time>2021-02-14T10:23:08.000Z</time>
      </trkpt>
      <trkpt lat="47.34239" lon="-2.35942">
        <ele>8.6000003814697</ele>
        <time>2021-02-14T10:23:09.000Z</time>
      </trkpt>
      <trkpt lat="47.34239" lon="-2.35939">
        <ele>8</ele>
        <time>2021-02-14T10:23:10.000Z</time>
      </trkpt>
      <trkpt lat="47.34239" lon="-2.35934">
        <ele>7.5999999046326</ele>
        <time>2021-02-14T10:23:11.000Z</time>
      </trkpt>
      <trkpt lat="47.34238" lon="-2.3593">
        <ele>7</ele>
        <time>2021-02-14T10:23:12.000Z</time>
      </trkpt>
      <trkpt lat="47.34241" lon="-2.35917">
        <ele>7</ele>
        <time>2021-02-14T10:23:15.000Z</time>
      </trkpt>
      <trkpt lat="47.34242" lon="-2.35912">
        <ele>7</ele>
        <time>2021-02-14T10:23:16.000Z</time>
      </trkpt>
      <trkpt lat="47.34249" lon="-2.35871">
        <ele>7</ele>
        <time>2021-02-14T10:23:23.000Z</time>
      </trkpt>
      <trkpt lat="47.34249" lon="-2.35851">
        <ele>7</ele>
        <time>2021-02-14T10:23:26.000Z</time>
      </trkpt>
      <trkpt lat="47.34247" lon="-2.35837">
        <ele>7</ele>
        <time>2021-02-14T10:23:28.000Z</time>
      </trkpt>
      <trkpt lat="47.34235" lon="-2.35796">
        <ele>7</ele>
        <time>2021-02-14T10:23:35.000Z</time>
      </trkpt>
      <trkpt lat="47.34226" lon="-2.35779">
        <ele>6.5999999046326</ele>
        <time>2021-02-14T10:23:39.000Z</time>
      </trkpt>
      <trkpt lat="47.34225" lon="-2.35775">
        <ele>6.1999998092651</ele>
        <time>2021-02-14T10:23:40.000Z</time>
      </trkpt>
      <trkpt lat="47.34224" lon="-2.35771">
        <ele>5.8000001907349</ele>
        <time>2021-02-14T10:23:41.000Z</time>
      </trkpt>
      <trkpt lat="47.34224" lon="-2.35766">
        <ele>5.4000000953674</ele>
        <time>2021-02-14T10:23:42.000Z</time>
      </trkpt>
      <trkpt lat="47.34223" lon="-2.3576">
        <ele>5</ele>
        <time>2021-02-14T10:23:43.000Z</time>
      </trkpt>
      <trkpt lat="47.34222" lon="-2.35745">
        <ele>5</ele>
        <time>2021-02-14T10:23:46.000Z</time>
      </trkpt>
      <trkpt lat="47.34222" lon="-2.35734">
        <ele>5</ele>
        <time>2021-02-14T10:23:50.000Z</time>
      </trkpt>
      <trkpt lat="47.34226" lon="-2.35729">
        <ele>5</ele>
        <time>2021-02-14T10:24:11.000Z</time>
      </trkpt>
      <trkpt lat="47.34226" lon="-2.35735">
        <ele>5</ele>
        <time>2021-02-14T10:24:13.000Z</time>
      </trkpt>
      <trkpt lat="47.3422" lon="-2.35737">
        <ele>5</ele>
        <time>2021-02-14T10:24:16.000Z</time>
      </trkpt>
      <trkpt lat="47.34218" lon="-2.35736">
        <ele>5</ele>
        <time>2021-02-14T10:24:18.000Z</time>
      </trkpt>
      <trkpt lat="47.34214" lon="-2.35733">
        <ele>5</ele>
        <time>2021-02-14T10:24:21.000Z</time>
      </trkpt>
      <trkpt lat="47.34208" lon="-2.35723">
        <ele>5</ele>
        <time>2021-02-14T10:24:26.000Z</time>
      </trkpt>
      <trkpt lat="47.34208" lon="-2.35721">
        <ele>5</ele>
        <time>2021-02-14T10:24:27.000Z</time>
      </trkpt>
      <trkpt lat="47.34208" lon="-2.35719">
        <ele>5.5999999046326</ele>
        <time>2021-02-14T10:24:28.000Z</time>
      </trkpt>
      <trkpt lat="47.34207" lon="-2.35717">
        <ele>6</ele>
        <time>2021-02-14T10:24:29.000Z</time>
      </trkpt>
      <trkpt lat="47.34207" lon="-2.35715">
        <ele>6.4000000953674</ele>
        <time>2021-02-14T10:24:30.000Z</time>
      </trkpt>
      <trkpt lat="47.34207" lon="-2.35713">
        <ele>6.8000001907349</ele>
        <time>2021-02-14T10:24:31.000Z</time>
      </trkpt>
      <trkpt lat="47.34205" lon="-2.3571">
        <ele>7.1999998092651</ele>
        <time>2021-02-14T10:24:32.000Z</time>
      </trkpt>
      <trkpt lat="47.34203" lon="-2.35707">
        <ele>7.5999999046326</ele>
        <time>2021-02-14T10:24:33.000Z</time>
      </trkpt>
      <trkpt lat="47.342" lon="-2.35704">
        <ele>8.6000003814697</ele>
        <time>2021-02-14T10:24:34.000Z</time>
      </trkpt>
      <trkpt lat="47.34197" lon="-2.357">
        <ele>9</ele>
        <time>2021-02-14T10:24:35.000Z</time>
      </trkpt>
      <trkpt lat="47.34193" lon="-2.35696">
        <ele>9.3999996185303</ele>
        <time>2021-02-14T10:24:36.000Z</time>
      </trkpt>
      <trkpt lat="47.3419" lon="-2.35691">
        <ele>9.3999996185303</ele>
        <time>2021-02-14T10:24:37.000Z</time>
      </trkpt>
      <trkpt lat="47.34184" lon="-2.35683">
        <ele>9.8000001907349</ele>
        <time>2021-02-14T10:24:39.000Z</time>
      </trkpt>
      <trkpt lat="47.34181" lon="-2.35679">
        <ele>10.39999961853</ele>
        <time>2021-02-14T10:24:40.000Z</time>
      </trkpt>
      <trkpt lat="47.34178" lon="-2.35675">
        <ele>10.800000190735</ele>
        <time>2021-02-14T10:24:41.000Z</time>
      </trkpt>
      <trkpt lat="47.34176" lon="-2.35671">
        <ele>11.199999809265</ele>
        <time>2021-02-14T10:24:42.000Z</time>
      </trkpt>
      <trkpt lat="47.34173" lon="-2.35667">
        <ele>11.60000038147</ele>
        <time>2021-02-14T10:24:43.000Z</time>
      </trkpt>
      <trkpt lat="47.34171" lon="-2.35664">
        <ele>11.60000038147</ele>
        <time>2021-02-14T10:24:44.000Z</time>
      </trkpt>
      <trkpt lat="47.34162" lon="-2.35647">
        <ele>12</ele>
        <time>2021-02-14T10:24:48.000Z</time>
      </trkpt>
      <trkpt lat="47.34159" lon="-2.35643">
        <ele>12.39999961853</ele>
        <time>2021-02-14T10:24:49.000Z</time>
      </trkpt>
      <trkpt lat="47.34156" lon="-2.35638">
        <ele>12.800000190735</ele>
        <time>2021-02-14T10:24:50.000Z</time>
      </trkpt>
      <trkpt lat="47.34154" lon="-2.35634">
        <ele>13.39999961853</ele>
        <time>2021-02-14T10:24:51.000Z</time>
      </trkpt>
      <trkpt lat="47.34151" lon="-2.35628">
        <ele>13.800000190735</ele>
        <time>2021-02-14T10:24:52.000Z</time>
      </trkpt>
      <trkpt lat="47.34139" lon="-2.35598">
        <ele>13.800000190735</ele>
        <time>2021-02-14T10:24:58.000Z</time>
      </trkpt>
      <trkpt lat="47.34126" lon="-2.35558">
        <ele>13.800000190735</ele>
        <time>2021-02-14T10:25:06.000Z</time>
      </trkpt>
      <trkpt lat="47.34124" lon="-2.35552">
        <ele>13.800000190735</ele>
        <time>2021-02-14T10:25:07.000Z</time>
      </trkpt>
      <trkpt lat="47.34117" lon="-2.35528">
        <ele>13.800000190735</ele>
        <time>2021-02-14T10:25:11.000Z</time>
      </trkpt>
      <trkpt lat="47.34105" lon="-2.35489">
        <ele>13.800000190735</ele>
        <time>2021-02-14T10:25:17.000Z</time>
      </trkpt>
      <trkpt lat="47.34099" lon="-2.35471">
        <ele>13.800000190735</ele>
        <time>2021-02-14T10:25:20.000Z</time>
      </trkpt>
      <trkpt lat="47.34091" lon="-2.35453">
        <ele>13.800000190735</ele>
        <time>2021-02-14T10:25:23.000Z</time>
      </trkpt>
      <trkpt lat="47.34088" lon="-2.35446">
        <ele>13.800000190735</ele>
        <time>2021-02-14T10:25:24.000Z</time>
      </trkpt>
      <trkpt lat="47.34077" lon="-2.3542">
        <ele>13.800000190735</ele>
        <time>2021-02-14T10:25:28.000Z</time>
      </trkpt>
      <trkpt lat="47.34058" lon="-2.35373">
        <ele>13.800000190735</ele>
        <time>2021-02-14T10:25:36.000Z</time>
      </trkpt>
      <trkpt lat="47.34055" lon="-2.35368">
        <ele>13.800000190735</ele>
        <time>2021-02-14T10:25:37.000Z</time>
      </trkpt>
      <trkpt lat="47.34046" lon="-2.35355">
        <ele>13.800000190735</ele>
        <time>2021-02-14T10:25:40.000Z</time>
      </trkpt>
      <trkpt lat="47.34042" lon="-2.3535">
        <ele>14.199999809265</ele>
        <time>2021-02-14T10:25:41.000Z</time>
      </trkpt>
      <trkpt lat="47.34039" lon="-2.35346">
        <ele>14.60000038147</ele>
        <time>2021-02-14T10:25:42.000Z</time>
      </trkpt>
      <trkpt lat="47.34035" lon="-2.35342">
        <ele>15</ele>
        <time>2021-02-14T10:25:43.000Z</time>
      </trkpt>
      <trkpt lat="47.34031" lon="-2.35337">
        <ele>15.39999961853</ele>
        <time>2021-02-14T10:25:44.000Z</time>
      </trkpt>
      <trkpt lat="47.34027" lon="-2.35333">
        <ele>15.800000190735</ele>
        <time>2021-02-14T10:25:45.000Z</time>
      </trkpt>
      <trkpt lat="47.34015" lon="-2.35321">
        <ele>15.800000190735</ele>
        <time>2021-02-14T10:25:48.000Z</time>
      </trkpt>
      <trkpt lat="47.33982" lon="-2.3529">
        <ele>15.800000190735</ele>
        <time>2021-02-14T10:25:56.000Z</time>
      </trkpt>
      <trkpt lat="47.33967" lon="-2.35275">
        <ele>15.800000190735</ele>
        <time>2021-02-14T10:26:00.000Z</time>
      </trkpt>
      <trkpt lat="47.33964" lon="-2.35271">
        <ele>16.200000762939</ele>
        <time>2021-02-14T10:26:01.000Z</time>
      </trkpt>
      <trkpt lat="47.33961" lon="-2.35268">
        <ele>16.799999237061</ele>
        <time>2021-02-14T10:26:02.000Z</time>
      </trkpt>
      <trkpt lat="47.33959" lon="-2.35263">
        <ele>17.200000762939</ele>
        <time>2021-02-14T10:26:03.000Z</time>
      </trkpt>
      <trkpt lat="47.33956" lon="-2.35258">
        <ele>17.60000038147</ele>
        <time>2021-02-14T10:26:04.000Z</time>
      </trkpt>
      <trkpt lat="47.33954" lon="-2.35254">
        <ele>18</ele>
        <time>2021-02-14T10:26:05.000Z</time>
      </trkpt>
      <trkpt lat="47.33947" lon="-2.35238">
        <ele>18</ele>
        <time>2021-02-14T10:26:08.000Z</time>
      </trkpt>
      <trkpt lat="47.33945" lon="-2.35233">
        <ele>18.39999961853</ele>
        <time>2021-02-14T10:26:09.000Z</time>
      </trkpt>
      <trkpt lat="47.33943" lon="-2.35227">
        <ele>18.799999237061</ele>
        <time>2021-02-14T10:26:10.000Z</time>
      </trkpt>
      <trkpt lat="47.33941" lon="-2.35222">
        <ele>19.60000038147</ele>
        <time>2021-02-14T10:26:11.000Z</time>
      </trkpt>
      <trkpt lat="47.33939" lon="-2.35216">
        <ele>20</ele>
        <time>2021-02-14T10:26:12.000Z</time>
      </trkpt>
      <trkpt lat="47.33931" lon="-2.35201">
        <ele>20</ele>
        <time>2021-02-14T10:26:15.000Z</time>
      </trkpt>
      <trkpt lat="47.33913" lon="-2.35179">
        <ele>20</ele>
        <time>2021-02-14T10:26:20.000Z</time>
      </trkpt>
      <trkpt lat="47.33909" lon="-2.35175">
        <ele>20</ele>
        <time>2021-02-14T10:26:21.000Z</time>
      </trkpt>
      <trkpt lat="47.33883" lon="-2.35153">
        <ele>20</ele>
        <time>2021-02-14T10:26:27.000Z</time>
      </trkpt>
      <trkpt lat="47.33855" lon="-2.35129">
        <ele>20</ele>
        <time>2021-02-14T10:26:34.000Z</time>
      </trkpt>
      <trkpt lat="47.33821" lon="-2.35108">
        <ele>20</ele>
        <time>2021-02-14T10:26:41.000Z</time>
      </trkpt>
      <trkpt lat="47.33788" lon="-2.35087">
        <ele>20</ele>
        <time>2021-02-14T10:26:47.000Z</time>
      </trkpt>
      <trkpt lat="47.33746" lon="-2.35063">
        <ele>20</ele>
        <time>2021-02-14T10:26:54.000Z</time>
      </trkpt>
      <trkpt lat="47.33721" lon="-2.35038">
        <ele>20</ele>
        <time>2021-02-14T10:26:59.000Z</time>
      </trkpt>
      <trkpt lat="47.33708" lon="-2.35019">
        <ele>20</ele>
        <time>2021-02-14T10:27:02.000Z</time>
      </trkpt>
      <trkpt lat="47.33693" lon="-2.34993">
        <ele>20</ele>
        <time>2021-02-14T10:27:06.000Z</time>
      </trkpt>
      <trkpt lat="47.33661" lon="-2.34942">
        <ele>20</ele>
        <time>2021-02-14T10:27:14.000Z</time>
      </trkpt>
      <trkpt lat="47.33627" lon="-2.34897">
        <ele>20</ele>
        <time>2021-02-14T10:27:22.000Z</time>
      </trkpt>
      <trkpt lat="47.33603" lon="-2.34865">
        <ele>20</ele>
        <time>2021-02-14T10:27:28.000Z</time>
      </trkpt>
      <trkpt lat="47.33571" lon="-2.34826">
        <ele>20</ele>
        <time>2021-02-14T10:27:35.000Z</time>
      </trkpt>
      <trkpt lat="47.33551" lon="-2.34796">
        <ele>20</ele>
        <time>2021-02-14T10:27:40.000Z</time>
      </trkpt>
      <trkpt lat="47.33535" lon="-2.34773">
        <ele>20.39999961853</ele>
        <time>2021-02-14T10:27:44.000Z</time>
      </trkpt>
      <trkpt lat="47.33532" lon="-2.34767">
        <ele>20.799999237061</ele>
        <time>2021-02-14T10:27:45.000Z</time>
      </trkpt>
      <trkpt lat="47.33527" lon="-2.3476">
        <ele>21.200000762939</ele>
        <time>2021-02-14T10:27:46.000Z</time>
      </trkpt>
      <trkpt lat="47.33522" lon="-2.34754">
        <ele>21.60000038147</ele>
        <time>2021-02-14T10:27:47.000Z</time>
      </trkpt>
      <trkpt lat="47.33517" lon="-2.34747">
        <ele>22</ele>
        <time>2021-02-14T10:27:48.000Z</time>
      </trkpt>
      <trkpt lat="47.33502" lon="-2.34726">
        <ele>22</ele>
        <time>2021-02-14T10:27:51.000Z</time>
      </trkpt>
      <trkpt lat="47.3347" lon="-2.34679">
        <ele>22</ele>
        <time>2021-02-14T10:27:57.000Z</time>
      </trkpt>
      <trkpt lat="47.33454" lon="-2.34652">
        <ele>21.60000038147</ele>
        <time>2021-02-14T10:28:00.000Z</time>
      </trkpt>
      <trkpt lat="47.3345" lon="-2.34643">
        <ele>21.200000762939</ele>
        <time>2021-02-14T10:28:01.000Z</time>
      </trkpt>
      <trkpt lat="47.33444" lon="-2.34634">
        <ele>20.799999237061</ele>
        <time>2021-02-14T10:28:02.000Z</time>
      </trkpt>
      <trkpt lat="47.33439" lon="-2.34624">
        <ele>20.39999961853</ele>
        <time>2021-02-14T10:28:03.000Z</time>
      </trkpt>
      <trkpt lat="47.33434" lon="-2.34614">
        <ele>20</ele>
        <time>2021-02-14T10:28:04.000Z</time>
      </trkpt>
      <trkpt lat="47.33429" lon="-2.34605">
        <ele>20</ele>
        <time>2021-02-14T10:28:05.000Z</time>
      </trkpt>
      <trkpt lat="47.334" lon="-2.3455">
        <ele>19.60000038147</ele>
        <time>2021-02-14T10:28:11.000Z</time>
      </trkpt>
      <trkpt lat="47.33395" lon="-2.34541">
        <ele>19.200000762939</ele>
        <time>2021-02-14T10:28:12.000Z</time>
      </trkpt>
      <trkpt lat="47.3339" lon="-2.34533">
        <ele>18.799999237061</ele>
        <time>2021-02-14T10:28:13.000Z</time>
      </trkpt>
      <trkpt lat="47.33385" lon="-2.34525">
        <ele>18.39999961853</ele>
        <time>2021-02-14T10:28:14.000Z</time>
      </trkpt>
      <trkpt lat="47.33381" lon="-2.34516">
        <ele>18</ele>
        <time>2021-02-14T10:28:15.000Z</time>
      </trkpt>
      <trkpt lat="47.33369" lon="-2.34491">
        <ele>17.60000038147</ele>
        <time>2021-02-14T10:28:18.000Z</time>
      </trkpt>
      <trkpt lat="47.33366" lon="-2.34482">
        <ele>17.200000762939</ele>
        <time>2021-02-14T10:28:19.000Z</time>
      </trkpt>
      <trkpt lat="47.33364" lon="-2.34473">
        <ele>16.799999237061</ele>
        <time>2021-02-14T10:28:20.000Z</time>
      </trkpt>
      <trkpt lat="47.33364" lon="-2.34463">
        <ele>16.200000762939</ele>
        <time>2021-02-14T10:28:21.000Z</time>
      </trkpt>
      <trkpt lat="47.33366" lon="-2.34454">
        <ele>15.800000190735</ele>
        <time>2021-02-14T10:28:22.000Z</time>
      </trkpt>
      <trkpt lat="47.33368" lon="-2.34446">
        <ele>15.800000190735</ele>
        <time>2021-02-14T10:28:23.000Z</time>
      </trkpt>
      <trkpt lat="47.33375" lon="-2.3443">
        <ele>15.800000190735</ele>
        <time>2021-02-14T10:28:25.000Z</time>
      </trkpt>
      <trkpt lat="47.33384" lon="-2.34404">
        <ele>15.800000190735</ele>
        <time>2021-02-14T10:28:28.000Z</time>
      </trkpt>
      <trkpt lat="47.33409" lon="-2.34335">
        <ele>15.800000190735</ele>
        <time>2021-02-14T10:28:36.000Z</time>
      </trkpt>
      <trkpt lat="47.33432" lon="-2.34263">
        <ele>15.800000190735</ele>
        <time>2021-02-14T10:28:44.000Z</time>
      </trkpt>
      <trkpt lat="47.33438" lon="-2.34247">
        <ele>15.800000190735</ele>
        <time>2021-02-14T10:28:46.000Z</time>
      </trkpt>
      <trkpt lat="47.33452" lon="-2.34225">
        <ele>15.800000190735</ele>
        <time>2021-02-14T10:28:49.000Z</time>
      </trkpt>
      <trkpt lat="47.33457" lon="-2.34218">
        <ele>15.39999961853</ele>
        <time>2021-02-14T10:28:50.000Z</time>
      </trkpt>
      <trkpt lat="47.33462" lon="-2.3421">
        <ele>15</ele>
        <time>2021-02-14T10:28:51.000Z</time>
      </trkpt>
      <trkpt lat="47.33467" lon="-2.34204">
        <ele>14.60000038147</ele>
        <time>2021-02-14T10:28:52.000Z</time>
      </trkpt>
      <trkpt lat="47.33473" lon="-2.34198">
        <ele>14.199999809265</ele>
        <time>2021-02-14T10:28:53.000Z</time>
      </trkpt>
      <trkpt lat="47.33479" lon="-2.34192">
        <ele>13.800000190735</ele>
        <time>2021-02-14T10:28:54.000Z</time>
      </trkpt>
      <trkpt lat="47.33485" lon="-2.34187">
        <ele>13.800000190735</ele>
        <time>2021-02-14T10:28:55.000Z</time>
      </trkpt>
      <trkpt lat="47.33521" lon="-2.34161">
        <ele>13.800000190735</ele>
        <time>2021-02-14T10:29:01.000Z</time>
      </trkpt>
      <trkpt lat="47.33563" lon="-2.34133">
        <ele>13.800000190735</ele>
        <time>2021-02-14T10:29:08.000Z</time>
      </trkpt>
      <trkpt lat="47.3361" lon="-2.34096">
        <ele>13.800000190735</ele>
        <time>2021-02-14T10:29:16.000Z</time>
      </trkpt>
      <trkpt lat="47.33616" lon="-2.34092">
        <ele>13.800000190735</ele>
        <time>2021-02-14T10:29:17.000Z</time>
      </trkpt>
      <trkpt lat="47.33653" lon="-2.34062">
        <ele>13.800000190735</ele>
        <time>2021-02-14T10:29:23.000Z</time>
      </trkpt>
      <trkpt lat="47.33665" lon="-2.34052">
        <ele>13.39999961853</ele>
        <time>2021-02-14T10:29:25.000Z</time>
      </trkpt>
      <trkpt lat="47.33672" lon="-2.34047">
        <ele>12.800000190735</ele>
        <time>2021-02-14T10:29:26.000Z</time>
      </trkpt>
      <trkpt lat="47.33678" lon="-2.34041">
        <ele>12.39999961853</ele>
        <time>2021-02-14T10:29:27.000Z</time>
      </trkpt>
      <trkpt lat="47.33684" lon="-2.34036">
        <ele>12</ele>
        <time>2021-02-14T10:29:28.000Z</time>
      </trkpt>
      <trkpt lat="47.33689" lon="-2.3403">
        <ele>11.60000038147</ele>
        <time>2021-02-14T10:29:29.000Z</time>
      </trkpt>
      <trkpt lat="47.33695" lon="-2.34025">
        <ele>11.60000038147</ele>
        <time>2021-02-14T10:29:30.000Z</time>
      </trkpt>
      <trkpt lat="47.33738" lon="-2.3399">
        <ele>11.60000038147</ele>
        <time>2021-02-14T10:29:37.000Z</time>
      </trkpt>
      <trkpt lat="47.33778" lon="-2.33957">
        <ele>11.60000038147</ele>
        <time>2021-02-14T10:29:44.000Z</time>
      </trkpt>
      <trkpt lat="47.33789" lon="-2.3395">
        <ele>11.199999809265</ele>
        <time>2021-02-14T10:29:46.000Z</time>
      </trkpt>
      <trkpt lat="47.33794" lon="-2.33946">
        <ele>10.800000190735</ele>
        <time>2021-02-14T10:29:47.000Z</time>
      </trkpt>
      <trkpt lat="47.338" lon="-2.33942">
        <ele>10.39999961853</ele>
        <time>2021-02-14T10:29:48.000Z</time>
      </trkpt>
      <trkpt lat="47.33805" lon="-2.33938">
        <ele>10</ele>
        <time>2021-02-14T10:29:49.000Z</time>
      </trkpt>
      <trkpt lat="47.33809" lon="-2.33934">
        <ele>9.6000003814697</ele>
        <time>2021-02-14T10:29:50.000Z</time>
      </trkpt>
      <trkpt lat="47.33839" lon="-2.33907">
        <ele>9.6000003814697</ele>
        <time>2021-02-14T10:29:57.000Z</time>
      </trkpt>
      <trkpt lat="47.33858" lon="-2.33892">
        <ele>9.6000003814697</ele>
        <time>2021-02-14T10:30:02.000Z</time>
      </trkpt>
      <trkpt lat="47.33867" lon="-2.33884">
        <ele>9.1999998092651</ele>
        <time>2021-02-14T10:30:06.000Z</time>
      </trkpt>
      <trkpt lat="47.33869" lon="-2.33881">
        <ele>8.8000001907349</ele>
        <time>2021-02-14T10:30:07.000Z</time>
      </trkpt>
      <trkpt lat="47.33871" lon="-2.33878">
        <ele>8.3999996185303</ele>
        <time>2021-02-14T10:30:08.000Z</time>
      </trkpt>
      <trkpt lat="47.33873" lon="-2.33875">
        <ele>8</ele>
        <time>2021-02-14T10:30:09.000Z</time>
      </trkpt>
      <trkpt lat="47.33875" lon="-2.33872">
        <ele>7.5999999046326</ele>
        <time>2021-02-14T10:30:10.000Z</time>
      </trkpt>
      <trkpt lat="47.33877" lon="-2.33868">
        <ele>7.5999999046326</ele>
        <time>2021-02-14T10:30:11.000Z</time>
      </trkpt>
      <trkpt lat="47.33894" lon="-2.33844">
        <ele>7.5999999046326</ele>
        <time>2021-02-14T10:30:16.000Z</time>
      </trkpt>
      <trkpt lat="47.33915" lon="-2.33809">
        <ele>7.5999999046326</ele>
        <time>2021-02-14T10:30:21.000Z</time>
      </trkpt>
      <trkpt lat="47.3394" lon="-2.33761">
        <ele>7.5999999046326</ele>
        <time>2021-02-14T10:30:27.000Z</time>
      </trkpt>
      <trkpt lat="47.33973" lon="-2.33701">
        <ele>7.1999998092651</ele>
        <time>2021-02-14T10:30:35.000Z</time>
      </trkpt>
      <trkpt lat="47.33977" lon="-2.33695">
        <ele>6.8000001907349</ele>
        <time>2021-02-14T10:30:36.000Z</time>
      </trkpt>
      <trkpt lat="47.33981" lon="-2.33687">
        <ele>6.4000000953674</ele>
        <time>2021-02-14T10:30:37.000Z</time>
      </trkpt>
      <trkpt lat="47.33985" lon="-2.3368">
        <ele>6</ele>
        <time>2021-02-14T10:30:38.000Z</time>
      </trkpt>
      <trkpt lat="47.33989" lon="-2.33673">
        <ele>5.5999999046326</ele>
        <time>2021-02-14T10:30:39.000Z</time>
      </trkpt>
      <trkpt lat="47.34001" lon="-2.3365">
        <ele>5.5999999046326</ele>
        <time>2021-02-14T10:30:42.000Z</time>
      </trkpt>
      <trkpt lat="47.34026" lon="-2.33612">
        <ele>5.5999999046326</ele>
        <time>2021-02-14T10:30:47.000Z</time>
      </trkpt>
      <trkpt lat="47.34031" lon="-2.33604">
        <ele>5.5999999046326</ele>
        <time>2021-02-14T10:30:48.000Z</time>
      </trkpt>
      <trkpt lat="47.34044" lon="-2.33581">
        <ele>5.5999999046326</ele>
        <time>2021-02-14T10:30:51.000Z</time>
      </trkpt>
      <trkpt lat="47.34053" lon="-2.33568">
        <ele>5.1999998092651</ele>
        <time>2021-02-14T10:30:53.000Z</time>
      </trkpt>
      <trkpt lat="47.34058" lon="-2.33562">
        <ele>4.8000001907349</ele>
        <time>2021-02-14T10:30:54.000Z</time>
      </trkpt>
      <trkpt lat="47.34062" lon="-2.33555">
        <ele>4.4000000953674</ele>
        <time>2021-02-14T10:30:55.000Z</time>
      </trkpt>
      <trkpt lat="47.34065" lon="-2.33549">
        <ele>3.7999999523163</ele>
        <time>2021-02-14T10:30:56.000Z</time>
      </trkpt>
      <trkpt lat="47.34069" lon="-2.33542">
        <ele>3.4000000953674</ele>
        <time>2021-02-14T10:30:57.000Z</time>
      </trkpt>
      <trkpt lat="47.34085" lon="-2.33513">
        <ele>3.4000000953674</ele>
        <time>2021-02-14T10:31:02.000Z</time>
      </trkpt>
      <trkpt lat="47.34097" lon="-2.33494">
        <ele>3.4000000953674</ele>
        <time>2021-02-14T10:31:07.000Z</time>
      </trkpt>
      <trkpt lat="47.34101" lon="-2.33487">
        <ele>3</ele>
        <time>2021-02-14T10:31:12.000Z</time>
      </trkpt>
      <trkpt lat="47.34101" lon="-2.33487">
        <ele>2.5999999046326</ele>
        <time>2021-02-14T10:31:13.000Z</time>
      </trkpt>
      <trkpt lat="47.34103" lon="-2.33484">
        <ele>1.3999999761581</ele>
        <time>2021-02-14T10:31:30.000Z</time>
      </trkpt>
      <trkpt lat="47.34103" lon="-2.33482">
        <ele>1.3999999761581</ele>
        <time>2021-02-14T10:31:31.000Z</time>
      </trkpt>
      <trkpt lat="47.34106" lon="-2.33478">
        <ele>1.3999999761581</ele>
        <time>2021-02-14T10:31:33.000Z</time>
      </trkpt>
      <trkpt lat="47.34108" lon="-2.33474">
        <ele>1.3999999761581</ele>
        <time>2021-02-14T10:31:35.000Z</time>
      </trkpt>
      <trkpt lat="47.34115" lon="-2.33465">
        <ele>1.3999999761581</ele>
        <time>2021-02-14T10:31:38.000Z</time>
      </trkpt>
      <trkpt lat="47.3412" lon="-2.33456">
        <ele>1.3999999761581</ele>
        <time>2021-02-14T10:31:40.000Z</time>
      </trkpt>
      <trkpt lat="47.34122" lon="-2.33451">
        <ele>1.3999999761581</ele>
        <time>2021-02-14T10:31:41.000Z</time>
      </trkpt>
      <trkpt lat="47.34135" lon="-2.33431">
        <ele>1.3999999761581</ele>
        <time>2021-02-14T10:31:45.000Z</time>
      </trkpt>
      <trkpt lat="47.34146" lon="-2.33417">
        <ele>1.3999999761581</ele>
        <time>2021-02-14T10:31:48.000Z</time>
      </trkpt>
      <trkpt lat="47.34155" lon="-2.33399">
        <ele>1.3999999761581</ele>
        <time>2021-02-14T10:31:51.000Z</time>
      </trkpt>
      <trkpt lat="47.34156" lon="-2.33393">
        <ele>1.3999999761581</ele>
        <time>2021-02-14T10:31:52.000Z</time>
      </trkpt>
      <trkpt lat="47.34168" lon="-2.33358">
        <ele>1.3999999761581</ele>
        <time>2021-02-14T10:31:57.000Z</time>
      </trkpt>
      <trkpt lat="47.34185" lon="-2.33305">
        <ele>1.3999999761581</ele>
        <time>2021-02-14T10:32:04.000Z</time>
      </trkpt>
      <trkpt lat="47.34197" lon="-2.33272">
        <ele>1.3999999761581</ele>
        <time>2021-02-14T10:32:09.000Z</time>
      </trkpt>
      <trkpt lat="47.34201" lon="-2.33257">
        <ele>1.3999999761581</ele>
        <time>2021-02-14T10:32:11.000Z</time>
      </trkpt>
      <trkpt lat="47.34215" lon="-2.33215">
        <ele>1.3999999761581</ele>
        <time>2021-02-14T10:32:16.000Z</time>
      </trkpt>
      <trkpt lat="47.34218" lon="-2.33206">
        <ele>1.3999999761581</ele>
        <time>2021-02-14T10:32:17.000Z</time>
      </trkpt>
      <trkpt lat="47.34223" lon="-2.33189">
        <ele>1</ele>
        <time>2021-02-14T10:32:19.000Z</time>
      </trkpt>
      <trkpt lat="47.34226" lon="-2.3318">
        <ele>0.60000002384186</ele>
        <time>2021-02-14T10:32:20.000Z</time>
      </trkpt>
      <trkpt lat="47.34229" lon="-2.33172">
        <ele>0.20000000298023</ele>
        <time>2021-02-14T10:32:21.000Z</time>
      </trkpt>
      <trkpt lat="47.34231" lon="-2.33164">
        <ele>-0.80000001192093</ele>
        <time>2021-02-14T10:32:22.000Z</time>
      </trkpt>
      <trkpt lat="47.34239" lon="-2.3314">
        <ele>-0.80000001192093</ele>
        <time>2021-02-14T10:32:25.000Z</time>
      </trkpt>
      <trkpt lat="47.34248" lon="-2.33109">
        <ele>-0.80000001192093</ele>
        <time>2021-02-14T10:32:29.000Z</time>
      </trkpt>
      <trkpt lat="47.34253" lon="-2.33093">
        <ele>-0.80000001192093</ele>
        <time>2021-02-14T10:32:31.000Z</time>
      </trkpt>
      <trkpt lat="47.34255" lon="-2.33085">
        <ele>-0.80000001192093</ele>
        <time>2021-02-14T10:32:32.000Z</time>
      </trkpt>
      <trkpt lat="47.34261" lon="-2.33075">
        <ele>-0.80000001192093</ele>
        <time>2021-02-14T10:32:34.000Z</time>
      </trkpt>
      <trkpt lat="47.34263" lon="-2.33072">
        <ele>-0.80000001192093</ele>
        <time>2021-02-14T10:32:35.000Z</time>
      </trkpt>
      <trkpt lat="47.34274" lon="-2.33066">
        <ele>-1.2000000476837</ele>
        <time>2021-02-14T10:32:37.000Z</time>
      </trkpt>
      <trkpt lat="47.3428" lon="-2.33064">
        <ele>-1.6000000238419</ele>
        <time>2021-02-14T10:32:38.000Z</time>
      </trkpt>
      <trkpt lat="47.34286" lon="-2.33061">
        <ele>-2</ele>
        <time>2021-02-14T10:32:39.000Z</time>
      </trkpt>
      <trkpt lat="47.34292" lon="-2.33059">
        <ele>-2.4000000953674</ele>
        <time>2021-02-14T10:32:40.000Z</time>
      </trkpt>
      <trkpt lat="47.34298" lon="-2.33056">
        <ele>-2.7999999523163</ele>
        <time>2021-02-14T10:32:41.000Z</time>
      </trkpt>
      <trkpt lat="47.34315" lon="-2.3305">
        <ele>-2.7999999523163</ele>
        <time>2021-02-14T10:32:44.000Z</time>
      </trkpt>
      <trkpt lat="47.34356" lon="-2.33034">
        <ele>-2.7999999523163</ele>
        <time>2021-02-14T10:32:51.000Z</time>
      </trkpt>
      <trkpt lat="47.34359" lon="-2.33029">
        <ele>-2.7999999523163</ele>
        <time>2021-02-14T10:32:52.000Z</time>
      </trkpt>
      <trkpt lat="47.34362" lon="-2.33007">
        <ele>-2.7999999523163</ele>
        <time>2021-02-14T10:32:55.000Z</time>
      </trkpt>
      <trkpt lat="47.34362" lon="-2.32998">
        <ele>-2.7999999523163</ele>
        <time>2021-02-14T10:32:56.000Z</time>
      </trkpt>
      <trkpt lat="47.34357" lon="-2.32975">
        <ele>-2.7999999523163</ele>
        <time>2021-02-14T10:32:59.000Z</time>
      </trkpt>
      <trkpt lat="47.34356" lon="-2.32968">
        <ele>-2.7999999523163</ele>
        <time>2021-02-14T10:33:00.000Z</time>
      </trkpt>
      <trkpt lat="47.3435" lon="-2.32935">
        <ele>-2.7999999523163</ele>
        <time>2021-02-14T10:33:04.000Z</time>
      </trkpt>
      <trkpt lat="47.34342" lon="-2.3289">
        <ele>-2.7999999523163</ele>
        <time>2021-02-14T10:33:10.000Z</time>
      </trkpt>
      <trkpt lat="47.34331" lon="-2.32849">
        <ele>-2.7999999523163</ele>
        <time>2021-02-14T10:33:16.000Z</time>
      </trkpt>
      <trkpt lat="47.34326" lon="-2.32821">
        <ele>-2.2000000476837</ele>
        <time>2021-02-14T10:33:20.000Z</time>
      </trkpt>
      <trkpt lat="47.34325" lon="-2.32814">
        <ele>-1.7999999523163</ele>
        <time>2021-02-14T10:33:21.000Z</time>
      </trkpt>
      <trkpt lat="47.34324" lon="-2.32808">
        <ele>-1.3999999761581</ele>
        <time>2021-02-14T10:33:22.000Z</time>
      </trkpt>
      <trkpt lat="47.34323" lon="-2.32801">
        <ele>-1</ele>
        <time>2021-02-14T10:33:23.000Z</time>
      </trkpt>
      <trkpt lat="47.34322" lon="-2.32794">
        <ele>-0.60000002384186</ele>
        <time>2021-02-14T10:33:24.000Z</time>
      </trkpt>
      <trkpt lat="47.3432" lon="-2.3276">
        <ele>-0.60000002384186</ele>
        <time>2021-02-14T10:33:29.000Z</time>
      </trkpt>
      <trkpt lat="47.34319" lon="-2.32753">
        <ele>-0.20000000298023</ele>
        <time>2021-02-14T10:33:30.000Z</time>
      </trkpt>
      <trkpt lat="47.34319" lon="-2.32747">
        <ele>0.40000000596046</ele>
        <time>2021-02-14T10:33:31.000Z</time>
      </trkpt>
      <trkpt lat="47.34318" lon="-2.3274">
        <ele>0.80000001192093</ele>
        <time>2021-02-14T10:33:32.000Z</time>
      </trkpt>
      <trkpt lat="47.34317" lon="-2.32734">
        <ele>1.2000000476837</ele>
        <time>2021-02-14T10:33:33.000Z</time>
      </trkpt>
      <trkpt lat="47.34316" lon="-2.32727">
        <ele>1.6000000238419</ele>
        <time>2021-02-14T10:33:34.000Z</time>
      </trkpt>
      <trkpt lat="47.34316" lon="-2.32721">
        <ele>1.6000000238419</ele>
        <time>2021-02-14T10:33:35.000Z</time>
      </trkpt>
      <trkpt lat="47.34314" lon="-2.32677">
        <ele>1.6000000238419</ele>
        <time>2021-02-14T10:33:41.000Z</time>
      </trkpt>
      <trkpt lat="47.34308" lon="-2.32626">
        <ele>1.6000000238419</ele>
        <time>2021-02-14T10:33:48.000Z</time>
      </trkpt>
      <trkpt lat="47.34302" lon="-2.32585">
        <ele>1.6000000238419</ele>
        <time>2021-02-14T10:33:55.000Z</time>
      </trkpt>
      <trkpt lat="47.34298" lon="-2.32561">
        <ele>1.6000000238419</ele>
        <time>2021-02-14T10:34:01.000Z</time>
      </trkpt>
      <trkpt lat="47.34298" lon="-2.3256">
        <ele>1.6000000238419</ele>
        <time>2021-02-14T10:34:03.000Z</time>
      </trkpt>
      <trkpt lat="47.34294" lon="-2.32558">
        <ele>1.6000000238419</ele>
        <time>2021-02-14T10:34:28.000Z</time>
      </trkpt>
      <trkpt lat="47.34291" lon="-2.32558">
        <ele>1.6000000238419</ele>
        <time>2021-02-14T10:34:29.000Z</time>
      </trkpt>
      <trkpt lat="47.34271" lon="-2.32563">
        <ele>1.6000000238419</ele>
        <time>2021-02-14T10:34:34.000Z</time>
      </trkpt>
      <trkpt lat="47.34249" lon="-2.32566">
        <ele>2</ele>
        <time>2021-02-14T10:34:39.000Z</time>
      </trkpt>
      <trkpt lat="47.34245" lon="-2.32567">
        <ele>2.4000000953674</ele>
        <time>2021-02-14T10:34:40.000Z</time>
      </trkpt>
      <trkpt lat="47.34241" lon="-2.32567">
        <ele>2.7999999523163</ele>
        <time>2021-02-14T10:34:41.000Z</time>
      </trkpt>
      <trkpt lat="47.34237" lon="-2.32568">
        <ele>3.2000000476837</ele>
        <time>2021-02-14T10:34:42.000Z</time>
      </trkpt>
      <trkpt lat="47.34233" lon="-2.32569">
        <ele>3.5999999046326</ele>
        <time>2021-02-14T10:34:43.000Z</time>
      </trkpt>
      <trkpt lat="47.34196" lon="-2.32577">
        <ele>3.5999999046326</ele>
        <time>2021-02-14T10:34:51.000Z</time>
      </trkpt>
      <trkpt lat="47.34192" lon="-2.32577">
        <ele>3.5999999046326</ele>
        <time>2021-02-14T10:34:52.000Z</time>
      </trkpt>
      <trkpt lat="47.34166" lon="-2.32578">
        <ele>3.5999999046326</ele>
        <time>2021-02-14T10:34:58.000Z</time>
      </trkpt>
      <trkpt lat="47.34159" lon="-2.32574">
        <ele>3.5999999046326</ele>
        <time>2021-02-14T10:35:00.000Z</time>
      </trkpt>
      <trkpt lat="47.34154" lon="-2.32562">
        <ele>3.5999999046326</ele>
        <time>2021-02-14T10:35:02.000Z</time>
      </trkpt>
      <trkpt lat="47.34153" lon="-2.32548">
        <ele>3.5999999046326</ele>
        <time>2021-02-14T10:35:04.000Z</time>
      </trkpt>
      <trkpt lat="47.34154" lon="-2.32541">
        <ele>3.5999999046326</ele>
        <time>2021-02-14T10:35:05.000Z</time>
      </trkpt>
      <trkpt lat="47.34153" lon="-2.32533">
        <ele>3.5999999046326</ele>
        <time>2021-02-14T10:35:06.000Z</time>
      </trkpt>
      <trkpt lat="47.34149" lon="-2.32488">
        <ele>3.5999999046326</ele>
        <time>2021-02-14T10:35:11.000Z</time>
      </trkpt>
      <trkpt lat="47.34137" lon="-2.32434">
        <ele>3.5999999046326</ele>
        <time>2021-02-14T10:35:17.000Z</time>
      </trkpt>
      <trkpt lat="47.34121" lon="-2.32378">
        <ele>3.5999999046326</ele>
        <time>2021-02-14T10:35:23.000Z</time>
      </trkpt>
      <trkpt lat="47.34106" lon="-2.32327">
        <ele>3.5999999046326</ele>
        <time>2021-02-14T10:35:28.000Z</time>
      </trkpt>
      <trkpt lat="47.34085" lon="-2.3225">
        <ele>3.2000000476837</ele>
        <time>2021-02-14T10:35:35.000Z</time>
      </trkpt>
      <trkpt lat="47.34082" lon="-2.3224">
        <ele>2.7999999523163</ele>
        <time>2021-02-14T10:35:36.000Z</time>
      </trkpt>
      <trkpt lat="47.34078" lon="-2.32231">
        <ele>2.4000000953674</ele>
        <time>2021-02-14T10:35:37.000Z</time>
      </trkpt>
      <trkpt lat="47.34074" lon="-2.32223">
        <ele>2</ele>
        <time>2021-02-14T10:35:38.000Z</time>
      </trkpt>
      <trkpt lat="47.34069" lon="-2.32217">
        <ele>1.6000000238419</ele>
        <time>2021-02-14T10:35:39.000Z</time>
      </trkpt>
      <trkpt lat="47.34055" lon="-2.32213">
        <ele>1.2000000476837</ele>
        <time>2021-02-14T10:35:41.000Z</time>
      </trkpt>
      <trkpt lat="47.34047" lon="-2.32213">
        <ele>0.80000001192093</ele>
        <time>2021-02-14T10:35:42.000Z</time>
      </trkpt>
      <trkpt lat="47.3404" lon="-2.32214">
        <ele>0.20000000298023</ele>
        <time>2021-02-14T10:35:43.000Z</time>
      </trkpt>
      <trkpt lat="47.34033" lon="-2.32215">
        <ele>-0.20000000298023</ele>
        <time>2021-02-14T10:35:44.000Z</time>
      </trkpt>
      <trkpt lat="47.34025" lon="-2.32215">
        <ele>-0.60000002384186</ele>
        <time>2021-02-14T10:35:45.000Z</time>
      </trkpt>
      <trkpt lat="47.3401" lon="-2.32215">
        <ele>-0.60000002384186</ele>
        <time>2021-02-14T10:35:47.000Z</time>
      </trkpt>
      <trkpt lat="47.33968" lon="-2.32216">
        <ele>-0.60000002384186</ele>
        <time>2021-02-14T10:35:53.000Z</time>
      </trkpt>
      <trkpt lat="47.33942" lon="-2.32201">
        <ele>-0.60000002384186</ele>
        <time>2021-02-14T10:35:57.000Z</time>
      </trkpt>
      <trkpt lat="47.33935" lon="-2.32198">
        <ele>-0.60000002384186</ele>
        <time>2021-02-14T10:35:58.000Z</time>
      </trkpt>
      <trkpt lat="47.3392" lon="-2.32198">
        <ele>-0.60000002384186</ele>
        <time>2021-02-14T10:36:00.000Z</time>
      </trkpt>
      <trkpt lat="47.33905" lon="-2.322">
        <ele>-0.60000002384186</ele>
        <time>2021-02-14T10:36:02.000Z</time>
      </trkpt>
      <trkpt lat="47.33897" lon="-2.322">
        <ele>-0.60000002384186</ele>
        <time>2021-02-14T10:36:03.000Z</time>
      </trkpt>
      <trkpt lat="47.3389" lon="-2.32198">
        <ele>-0.60000002384186</ele>
        <time>2021-02-14T10:36:04.000Z</time>
      </trkpt>
      <trkpt lat="47.33867" lon="-2.32199">
        <ele>-0.60000002384186</ele>
        <time>2021-02-14T10:36:07.000Z</time>
      </trkpt>
      <trkpt lat="47.33852" lon="-2.322">
        <ele>-0.60000002384186</ele>
        <time>2021-02-14T10:36:09.000Z</time>
      </trkpt>
      <trkpt lat="47.33808" lon="-2.32206">
        <ele>-0.60000002384186</ele>
        <time>2021-02-14T10:36:15.000Z</time>
      </trkpt>
      <trkpt lat="47.33769" lon="-2.32215">
        <ele>-0.60000002384186</ele>
        <time>2021-02-14T10:36:20.000Z</time>
      </trkpt>
      <trkpt lat="47.33762" lon="-2.32218">
        <ele>-0.20000000298023</ele>
        <time>2021-02-14T10:36:21.000Z</time>
      </trkpt>
      <trkpt lat="47.33754" lon="-2.32221">
        <ele>0.20000000298023</ele>
        <time>2021-02-14T10:36:22.000Z</time>
      </trkpt>
      <trkpt lat="47.33747" lon="-2.32225">
        <ele>0.60000002384186</ele>
        <time>2021-02-14T10:36:23.000Z</time>
      </trkpt>
      <trkpt lat="47.33739" lon="-2.32229">
        <ele>1</ele>
        <time>2021-02-14T10:36:24.000Z</time>
      </trkpt>
      <trkpt lat="47.33732" lon="-2.32234">
        <ele>1.3999999761581</ele>
        <time>2021-02-14T10:36:25.000Z</time>
      </trkpt>
      <trkpt lat="47.3369" lon="-2.32262">
        <ele>1.3999999761581</ele>
        <time>2021-02-14T10:36:31.000Z</time>
      </trkpt>
      <trkpt lat="47.33645" lon="-2.32283">
        <ele>1.3999999761581</ele>
        <time>2021-02-14T10:36:37.000Z</time>
      </trkpt>
      <trkpt lat="47.33611" lon="-2.3229">
        <ele>1.3999999761581</ele>
        <time>2021-02-14T10:36:42.000Z</time>
      </trkpt>
      <trkpt lat="47.33579" lon="-2.32295">
        <ele>1.3999999761581</ele>
        <time>2021-02-14T10:36:47.000Z</time>
      </trkpt>
      <trkpt lat="47.33546" lon="-2.32303">
        <ele>1.3999999761581</ele>
        <time>2021-02-14T10:36:52.000Z</time>
      </trkpt>
      <trkpt lat="47.33533" lon="-2.32303">
        <ele>1.3999999761581</ele>
        <time>2021-02-14T10:36:54.000Z</time>
      </trkpt>
      <trkpt lat="47.33525" lon="-2.32304">
        <ele>1.3999999761581</ele>
        <time>2021-02-14T10:36:55.000Z</time>
      </trkpt>
      <trkpt lat="47.33518" lon="-2.32306">
        <ele>1</ele>
        <time>2021-02-14T10:36:56.000Z</time>
      </trkpt>
      <trkpt lat="47.3351" lon="-2.32309">
        <ele>0.60000002384186</ele>
        <time>2021-02-14T10:36:57.000Z</time>
      </trkpt>
      <trkpt lat="47.33502" lon="-2.32314">
        <ele>0.20000000298023</ele>
        <time>2021-02-14T10:36:58.000Z</time>
      </trkpt>
      <trkpt lat="47.33495" lon="-2.32318">
        <ele>-0.20000000298023</ele>
        <time>2021-02-14T10:36:59.000Z</time>
      </trkpt>
      <trkpt lat="47.33488" lon="-2.32322">
        <ele>-0.80000001192093</ele>
        <time>2021-02-14T10:37:00.000Z</time>
      </trkpt>
      <trkpt lat="47.3346" lon="-2.32337">
        <ele>-0.80000001192093</ele>
        <time>2021-02-14T10:37:04.000Z</time>
      </trkpt>
      <trkpt lat="47.3342" lon="-2.32364">
        <ele>-0.80000001192093</ele>
        <time>2021-02-14T10:37:10.000Z</time>
      </trkpt>
      <trkpt lat="47.33389" lon="-2.32391">
        <ele>-0.80000001192093</ele>
        <time>2021-02-14T10:37:15.000Z</time>
      </trkpt>
      <trkpt lat="47.33354" lon="-2.32424">
        <ele>-0.80000001192093</ele>
        <time>2021-02-14T10:37:21.000Z</time>
      </trkpt>
      <trkpt lat="47.33337" lon="-2.32448">
        <ele>-0.80000001192093</ele>
        <time>2021-02-14T10:37:25.000Z</time>
      </trkpt>
      <trkpt lat="47.33332" lon="-2.32453">
        <ele>-0.80000001192093</ele>
        <time>2021-02-14T10:37:26.000Z</time>
      </trkpt>
      <trkpt lat="47.33309" lon="-2.32462">
        <ele>-0.80000001192093</ele>
        <time>2021-02-14T10:37:30.000Z</time>
      </trkpt>
      <trkpt lat="47.33297" lon="-2.32469">
        <ele>-0.80000001192093</ele>
        <time>2021-02-14T10:37:32.000Z</time>
      </trkpt>
      <trkpt lat="47.33278" lon="-2.32477">
        <ele>-0.80000001192093</ele>
        <time>2021-02-14T10:37:35.000Z</time>
      </trkpt>
      <trkpt lat="47.33235" lon="-2.32498">
        <ele>-0.80000001192093</ele>
        <time>2021-02-14T10:37:42.000Z</time>
      </trkpt>
      <trkpt lat="47.33184" lon="-2.3252">
        <ele>-0.80000001192093</ele>
        <time>2021-02-14T10:37:50.000Z</time>
      </trkpt>
      <trkpt lat="47.33146" lon="-2.32544">
        <ele>-0.80000001192093</ele>
        <time>2021-02-14T10:37:56.000Z</time>
      </trkpt>
      <trkpt lat="47.33107" lon="-2.32573">
        <ele>-0.80000001192093</ele>
        <time>2021-02-14T10:38:02.000Z</time>
      </trkpt>
      <trkpt lat="47.3307" lon="-2.32606">
        <ele>-0.80000001192093</ele>
        <time>2021-02-14T10:38:08.000Z</time>
      </trkpt>
      <trkpt lat="47.33044" lon="-2.32628">
        <ele>-0.80000001192093</ele>
        <time>2021-02-14T10:38:12.000Z</time>
      </trkpt>
      <trkpt lat="47.3303" lon="-2.32637">
        <ele>-0.80000001192093</ele>
        <time>2021-02-14T10:38:14.000Z</time>
      </trkpt>
      <trkpt lat="47.33015" lon="-2.32639">
        <ele>-1.2000000476837</ele>
        <time>2021-02-14T10:38:16.000Z</time>
      </trkpt>
      <trkpt lat="47.33008" lon="-2.32636">
        <ele>-1.6000000238419</ele>
        <time>2021-02-14T10:38:17.000Z</time>
      </trkpt>
      <trkpt lat="47.33001" lon="-2.32632">
        <ele>-2</ele>
        <time>2021-02-14T10:38:18.000Z</time>
      </trkpt>
      <trkpt lat="47.32993" lon="-2.3263">
        <ele>-2.4000000953674</ele>
        <time>2021-02-14T10:38:19.000Z</time>
      </trkpt>
      <trkpt lat="47.32985" lon="-2.32631">
        <ele>-2.7999999523163</ele>
        <time>2021-02-14T10:38:20.000Z</time>
      </trkpt>
      <trkpt lat="47.32978" lon="-2.32635">
        <ele>-2.7999999523163</ele>
        <time>2021-02-14T10:38:21.000Z</time>
      </trkpt>
      <trkpt lat="47.32954" lon="-2.32647">
        <ele>-2.7999999523163</ele>
        <time>2021-02-14T10:38:25.000Z</time>
      </trkpt>
      <trkpt lat="47.32928" lon="-2.3265">
        <ele>-2.7999999523163</ele>
        <time>2021-02-14T10:38:29.000Z</time>
      </trkpt>
      <trkpt lat="47.32923" lon="-2.32648">
        <ele>-2.7999999523163</ele>
        <time>2021-02-14T10:38:30.000Z</time>
      </trkpt>
      <trkpt lat="47.32914" lon="-2.32631">
        <ele>-2.7999999523163</ele>
        <time>2021-02-14T10:38:33.000Z</time>
      </trkpt>
      <trkpt lat="47.32916" lon="-2.32608">
        <ele>-2.7999999523163</ele>
        <time>2021-02-14T10:38:36.000Z</time>
      </trkpt>
      <trkpt lat="47.32916" lon="-2.32599">
        <ele>-2.7999999523163</ele>
        <time>2021-02-14T10:38:37.000Z</time>
      </trkpt>
      <trkpt lat="47.32916" lon="-2.32581">
        <ele>-2.7999999523163</ele>
        <time>2021-02-14T10:38:39.000Z</time>
      </trkpt>
      <trkpt lat="47.32916" lon="-2.32571">
        <ele>-2.4000000953674</ele>
        <time>2021-02-14T10:38:40.000Z</time>
      </trkpt>
      <trkpt lat="47.32916" lon="-2.32561">
        <ele>-2</ele>
        <time>2021-02-14T10:38:41.000Z</time>
      </trkpt>
      <trkpt lat="47.32916" lon="-2.32551">
        <ele>-1.3999999761581</ele>
        <time>2021-02-14T10:38:42.000Z</time>
      </trkpt>
      <trkpt lat="47.32914" lon="-2.3254">
        <ele>-1</ele>
        <time>2021-02-14T10:38:43.000Z</time>
      </trkpt>
      <trkpt lat="47.32913" lon="-2.3253">
        <ele>-0.60000002384186</ele>
        <time>2021-02-14T10:38:44.000Z</time>
      </trkpt>
      <trkpt lat="47.32911" lon="-2.3252">
        <ele>-0.60000002384186</ele>
        <time>2021-02-14T10:38:45.000Z</time>
      </trkpt>
      <trkpt lat="47.32896" lon="-2.32469">
        <ele>-0.60000002384186</ele>
        <time>2021-02-14T10:38:50.000Z</time>
      </trkpt>
      <trkpt lat="47.32891" lon="-2.3246">
        <ele>-0.60000002384186</ele>
        <time>2021-02-14T10:38:51.000Z</time>
      </trkpt>
      <trkpt lat="47.3288" lon="-2.32448">
        <ele>-0.60000002384186</ele>
        <time>2021-02-14T10:38:53.000Z</time>
      </trkpt>
      <trkpt lat="47.32832" lon="-2.32412">
        <ele>-0.60000002384186</ele>
        <time>2021-02-14T10:39:00.000Z</time>
      </trkpt>
      <trkpt lat="47.32792" lon="-2.32375">
        <ele>-0.60000002384186</ele>
        <time>2021-02-14T10:39:06.000Z</time>
      </trkpt>
      <trkpt lat="47.32757" lon="-2.32354">
        <ele>-0.60000002384186</ele>
        <time>2021-02-14T10:39:11.000Z</time>
      </trkpt>
      <trkpt lat="47.32712" lon="-2.3233">
        <ele>-0.60000002384186</ele>
        <time>2021-02-14T10:39:18.000Z</time>
      </trkpt>
      <trkpt lat="47.32685" lon="-2.32321">
        <ele>-0.20000000298023</ele>
        <time>2021-02-14T10:39:22.000Z</time>
      </trkpt>
      <trkpt lat="47.32679" lon="-2.32319">
        <ele>0.20000000298023</ele>
        <time>2021-02-14T10:39:23.000Z</time>
      </trkpt>
      <trkpt lat="47.32673" lon="-2.32317">
        <ele>0.60000002384186</ele>
        <time>2021-02-14T10:39:24.000Z</time>
      </trkpt>
      <trkpt lat="47.32666" lon="-2.32316">
        <ele>1.2000000476837</ele>
        <time>2021-02-14T10:39:25.000Z</time>
      </trkpt>
      <trkpt lat="47.3266" lon="-2.32314">
        <ele>1.6000000238419</ele>
        <time>2021-02-14T10:39:26.000Z</time>
      </trkpt>
      <trkpt lat="47.32636" lon="-2.32312">
        <ele>1.6000000238419</ele>
        <time>2021-02-14T10:39:30.000Z</time>
      </trkpt>
      <trkpt lat="47.32593" lon="-2.32312">
        <ele>1.6000000238419</ele>
        <time>2021-02-14T10:39:37.000Z</time>
      </trkpt>
      <trkpt lat="47.32563" lon="-2.32316">
        <ele>1.6000000238419</ele>
        <time>2021-02-14T10:39:43.000Z</time>
      </trkpt>
      <trkpt lat="47.32546" lon="-2.32319">
        <ele>1.6000000238419</ele>
        <time>2021-02-14T10:39:48.000Z</time>
      </trkpt>
      <trkpt lat="47.32536" lon="-2.32319">
        <ele>1.6000000238419</ele>
        <time>2021-02-14T10:39:53.000Z</time>
      </trkpt>
      <trkpt lat="47.32536" lon="-2.32319">
        <ele>1.6000000238419</ele>
        <time>2021-02-14T10:39:54.000Z</time>
      </trkpt>
      <trkpt lat="47.32534" lon="-2.32312">
        <ele>1.6000000238419</ele>
        <time>2021-02-14T10:40:14.000Z</time>
      </trkpt>
      <trkpt lat="47.32534" lon="-2.32308">
        <ele>1.6000000238419</ele>
        <time>2021-02-14T10:40:16.000Z</time>
      </trkpt>
      <trkpt lat="47.32536" lon="-2.32295">
        <ele>1.6000000238419</ele>
        <time>2021-02-14T10:40:23.000Z</time>
      </trkpt>
      <trkpt lat="47.3254" lon="-2.3228">
        <ele>1.6000000238419</ele>
        <time>2021-02-14T10:40:28.000Z</time>
      </trkpt>
      <trkpt lat="47.32549" lon="-2.32249">
        <ele>1.6000000238419</ele>
        <time>2021-02-14T10:40:33.000Z</time>
      </trkpt>
      <trkpt lat="47.32562" lon="-2.32209">
        <ele>1.2000000476837</ele>
        <time>2021-02-14T10:40:38.000Z</time>
      </trkpt>
      <trkpt lat="47.32565" lon="-2.32201">
        <ele>0.80000001192093</ele>
        <time>2021-02-14T10:40:39.000Z</time>
      </trkpt>
      <trkpt lat="47.32567" lon="-2.32194">
        <ele>0.40000000596046</ele>
        <time>2021-02-14T10:40:40.000Z</time>
      </trkpt>
      <trkpt lat="47.32569" lon="-2.32188">
        <ele>-0.20000000298023</ele>
        <time>2021-02-14T10:40:41.000Z</time>
      </trkpt>
      <trkpt lat="47.32571" lon="-2.32181">
        <ele>-0.60000002384186</ele>
        <time>2021-02-14T10:40:42.000Z</time>
      </trkpt>
      <trkpt lat="47.32574" lon="-2.3217">
        <ele>-0.60000002384186</ele>
        <time>2021-02-14T10:40:44.000Z</time>
      </trkpt>
      <trkpt lat="47.3258" lon="-2.32145">
        <ele>-0.60000002384186</ele>
        <time>2021-02-14T10:40:49.000Z</time>
      </trkpt>
      <trkpt lat="47.32587" lon="-2.3211">
        <ele>-0.60000002384186</ele>
        <time>2021-02-14T10:40:56.000Z</time>
      </trkpt>
      <trkpt lat="47.32585" lon="-2.32101">
        <ele>-0.20000000298023</ele>
        <time>2021-02-14T10:40:58.000Z</time>
      </trkpt>
      <trkpt lat="47.32582" lon="-2.32099">
        <ele>0.40000000596046</ele>
        <time>2021-02-14T10:40:59.000Z</time>
      </trkpt>
      <trkpt lat="47.3258" lon="-2.32097">
        <ele>0.80000001192093</ele>
        <time>2021-02-14T10:41:00.000Z</time>
      </trkpt>
      <trkpt lat="47.32576" lon="-2.32097">
        <ele>1.2000000476837</ele>
        <time>2021-02-14T10:41:01.000Z</time>
      </trkpt>
      <trkpt lat="47.32573" lon="-2.32097">
        <ele>1.6000000238419</ele>
        <time>2021-02-14T10:41:02.000Z</time>
      </trkpt>
      <trkpt lat="47.32569" lon="-2.32098">
        <ele>1.6000000238419</ele>
        <time>2021-02-14T10:41:03.000Z</time>
      </trkpt>
      <trkpt lat="47.32545" lon="-2.32098">
        <ele>2</ele>
        <time>2021-02-14T10:41:08.000Z</time>
      </trkpt>
      <trkpt lat="47.3254" lon="-2.32098">
        <ele>2.4000000953674</ele>
        <time>2021-02-14T10:41:09.000Z</time>
      </trkpt>
      <trkpt lat="47.32535" lon="-2.32098">
        <ele>2.7999999523163</ele>
        <time>2021-02-14T10:41:10.000Z</time>
      </trkpt>
      <trkpt lat="47.32529" lon="-2.32099">
        <ele>3.2000000476837</ele>
        <time>2021-02-14T10:41:11.000Z</time>
      </trkpt>
      <trkpt lat="47.32524" lon="-2.32099">
        <ele>3.5999999046326</ele>
        <time>2021-02-14T10:41:12.000Z</time>
      </trkpt>
      <trkpt lat="47.32508" lon="-2.321">
        <ele>3.5999999046326</ele>
        <time>2021-02-14T10:41:15.000Z</time>
      </trkpt>
      <trkpt lat="47.32467" lon="-2.32104">
        <ele>3.5999999046326</ele>
        <time>2021-02-14T10:41:22.000Z</time>
      </trkpt>
      <trkpt lat="47.3242" lon="-2.32107">
        <ele>3.5999999046326</ele>
        <time>2021-02-14T10:41:30.000Z</time>
      </trkpt>
      <trkpt lat="47.32391" lon="-2.32109">
        <ele>3.5999999046326</ele>
        <time>2021-02-14T10:41:36.000Z</time>
      </trkpt>
      <trkpt lat="47.32375" lon="-2.3211">
        <ele>3.5999999046326</ele>
        <time>2021-02-14T10:41:40.000Z</time>
      </trkpt>
      <trkpt lat="47.3236" lon="-2.3211">
        <ele>3.5999999046326</ele>
        <time>2021-02-14T10:41:44.000Z</time>
      </trkpt>
      <trkpt lat="47.32337" lon="-2.32106">
        <ele>3.5999999046326</ele>
        <time>2021-02-14T10:41:50.000Z</time>
      </trkpt>
      <trkpt lat="47.32333" lon="-2.32104">
        <ele>3.5999999046326</ele>
        <time>2021-02-14T10:41:51.000Z</time>
      </trkpt>
      <trkpt lat="47.32329" lon="-2.32103">
        <ele>3.5999999046326</ele>
        <time>2021-02-14T10:41:52.000Z</time>
      </trkpt>
      <trkpt lat="47.32312" lon="-2.321">
        <ele>3.5999999046326</ele>
        <time>2021-02-14T10:41:56.000Z</time>
      </trkpt>
      <trkpt lat="47.32307" lon="-2.32099">
        <ele>3.5999999046326</ele>
        <time>2021-02-14T10:41:57.000Z</time>
      </trkpt>
      <trkpt lat="47.32271" lon="-2.32102">
        <ele>3.5999999046326</ele>
        <time>2021-02-14T10:42:05.000Z</time>
      </trkpt>
      <trkpt lat="47.32238" lon="-2.32107">
        <ele>3.5999999046326</ele>
        <time>2021-02-14T10:42:12.000Z</time>
      </trkpt>
      <trkpt lat="47.32208" lon="-2.32113">
        <ele>3.5999999046326</ele>
        <time>2021-02-14T10:42:18.000Z</time>
      </trkpt>
      <trkpt lat="47.32193" lon="-2.3212">
        <ele>3.5999999046326</ele>
        <time>2021-02-14T10:42:22.000Z</time>
      </trkpt>
      <trkpt lat="47.32189" lon="-2.32123">
        <ele>3.5999999046326</ele>
        <time>2021-02-14T10:42:23.000Z</time>
      </trkpt>
      <trkpt lat="47.32171" lon="-2.32137">
        <ele>3.2000000476837</ele>
        <time>2021-02-14T10:42:27.000Z</time>
      </trkpt>
      <trkpt lat="47.32167" lon="-2.32142">
        <ele>2.7999999523163</ele>
        <time>2021-02-14T10:42:28.000Z</time>
      </trkpt>
      <trkpt lat="47.32164" lon="-2.32146">
        <ele>2.4000000953674</ele>
        <time>2021-02-14T10:42:29.000Z</time>
      </trkpt>
      <trkpt lat="47.3216" lon="-2.3215">
        <ele>2</ele>
        <time>2021-02-14T10:42:30.000Z</time>
      </trkpt>
      <trkpt lat="47.32156" lon="-2.32154">
        <ele>1.6000000238419</ele>
        <time>2021-02-14T10:42:31.000Z</time>
      </trkpt>
      <trkpt lat="47.32145" lon="-2.32164">
        <ele>1.6000000238419</ele>
        <time>2021-02-14T10:42:34.000Z</time>
      </trkpt>
      <trkpt lat="47.32118" lon="-2.32179">
        <ele>1.6000000238419</ele>
        <time>2021-02-14T10:42:40.000Z</time>
      </trkpt>
      <trkpt lat="47.32108" lon="-2.32181">
        <ele>1.6000000238419</ele>
        <time>2021-02-14T10:42:42.000Z</time>
      </trkpt>
      <trkpt lat="47.32094" lon="-2.32184">
        <ele>1.6000000238419</ele>
        <time>2021-02-14T10:42:45.000Z</time>
      </trkpt>
      <trkpt lat="47.3208" lon="-2.32185">
        <ele>1.6000000238419</ele>
        <time>2021-02-14T10:42:48.000Z</time>
      </trkpt>
      <trkpt lat="47.32066" lon="-2.32186">
        <ele>2</ele>
        <time>2021-02-14T10:42:51.000Z</time>
      </trkpt>
      <trkpt lat="47.32062" lon="-2.32186">
        <ele>2.4000000953674</ele>
        <time>2021-02-14T10:42:52.000Z</time>
      </trkpt>
      <trkpt lat="47.32058" lon="-2.32186">
        <ele>2.7999999523163</ele>
        <time>2021-02-14T10:42:53.000Z</time>
      </trkpt>
      <trkpt lat="47.32053" lon="-2.32187">
        <ele>3.2000000476837</ele>
        <time>2021-02-14T10:42:54.000Z</time>
      </trkpt>
      <trkpt lat="47.32049" lon="-2.32188">
        <ele>3.5999999046326</ele>
        <time>2021-02-14T10:42:55.000Z</time>
      </trkpt>
      <trkpt lat="47.32039" lon="-2.32188">
        <ele>3.5999999046326</ele>
        <time>2021-02-14T10:42:57.000Z</time>
      </trkpt>
      <trkpt lat="47.32017" lon="-2.32195">
        <ele>3.5999999046326</ele>
        <time>2021-02-14T10:43:02.000Z</time>
      </trkpt>
      <trkpt lat="47.32014" lon="-2.32198">
        <ele>3.5999999046326</ele>
        <time>2021-02-14T10:43:03.000Z</time>
      </trkpt>
      <trkpt lat="47.32003" lon="-2.32199">
        <ele>3.5999999046326</ele>
        <time>2021-02-14T10:43:06.000Z</time>
      </trkpt>
      <trkpt lat="47.3198" lon="-2.32218">
        <ele>4</ele>
        <time>2021-02-14T10:43:13.000Z</time>
      </trkpt>
      <trkpt lat="47.31977" lon="-2.32225">
        <ele>4.4000000953674</ele>
        <time>2021-02-14T10:43:14.000Z</time>
      </trkpt>
      <trkpt lat="47.31974" lon="-2.32231">
        <ele>4.8000001907349</ele>
        <time>2021-02-14T10:43:15.000Z</time>
      </trkpt>
      <trkpt lat="47.31972" lon="-2.32237">
        <ele>5.5999999046326</ele>
        <time>2021-02-14T10:43:16.000Z</time>
      </trkpt>
      <trkpt lat="47.31961" lon="-2.32253">
        <ele>6</ele>
        <time>2021-02-14T10:43:20.000Z</time>
      </trkpt>
      <trkpt lat="47.31959" lon="-2.32257">
        <ele>6.4000000953674</ele>
        <time>2021-02-14T10:43:21.000Z</time>
      </trkpt>
      <trkpt lat="47.31956" lon="-2.3226">
        <ele>6.8000001907349</ele>
        <time>2021-02-14T10:43:22.000Z</time>
      </trkpt>
      <trkpt lat="47.31953" lon="-2.3226">
        <ele>7.1999998092651</ele>
        <time>2021-02-14T10:43:23.000Z</time>
      </trkpt>
      <trkpt lat="47.31951" lon="-2.32259">
        <ele>7.5999999046326</ele>
        <time>2021-02-14T10:43:24.000Z</time>
      </trkpt>
      <trkpt lat="47.31949" lon="-2.32256">
        <ele>8</ele>
        <time>2021-02-14T10:43:25.000Z</time>
      </trkpt>
      <trkpt lat="47.31949" lon="-2.32253">
        <ele>8.3999996185303</ele>
        <time>2021-02-14T10:43:26.000Z</time>
      </trkpt>
      <trkpt lat="47.3195" lon="-2.32249">
        <ele>8.8000001907349</ele>
        <time>2021-02-14T10:43:27.000Z</time>
      </trkpt>
      <trkpt lat="47.31951" lon="-2.32244">
        <ele>9.3999996185303</ele>
        <time>2021-02-14T10:43:28.000Z</time>
      </trkpt>
      <trkpt lat="47.31952" lon="-2.3224">
        <ele>9.8000001907349</ele>
        <time>2021-02-14T10:43:29.000Z</time>
      </trkpt>
      <trkpt lat="47.31954" lon="-2.32235">
        <ele>9.8000001907349</ele>
        <time>2021-02-14T10:43:30.000Z</time>
      </trkpt>
      <trkpt lat="47.31957" lon="-2.32225">
        <ele>9.8000001907349</ele>
        <time>2021-02-14T10:43:32.000Z</time>
      </trkpt>
      <trkpt lat="47.31957" lon="-2.3222">
        <ele>9.8000001907349</ele>
        <time>2021-02-14T10:43:33.000Z</time>
      </trkpt>
      <trkpt lat="47.31952" lon="-2.32213">
        <ele>10.199999809265</ele>
        <time>2021-02-14T10:43:35.000Z</time>
      </trkpt>
      <trkpt lat="47.31949" lon="-2.32212">
        <ele>10.60000038147</ele>
        <time>2021-02-14T10:43:36.000Z</time>
      </trkpt>
      <trkpt lat="47.31945" lon="-2.32211">
        <ele>11</ele>
        <time>2021-02-14T10:43:37.000Z</time>
      </trkpt>
      <trkpt lat="47.31941" lon="-2.3221">
        <ele>11.39999961853</ele>
        <time>2021-02-14T10:43:38.000Z</time>
      </trkpt>
      <trkpt lat="47.31937" lon="-2.32209">
        <ele>11.800000190735</ele>
        <time>2021-02-14T10:43:39.000Z</time>
      </trkpt>
      <trkpt lat="47.31922" lon="-2.32205">
        <ele>12.199999809265</ele>
        <time>2021-02-14T10:43:43.000Z</time>
      </trkpt>
      <trkpt lat="47.31918" lon="-2.32204">
        <ele>12.800000190735</ele>
        <time>2021-02-14T10:43:44.000Z</time>
      </trkpt>
      <trkpt lat="47.31915" lon="-2.32204">
        <ele>13.199999809265</ele>
        <time>2021-02-14T10:43:45.000Z</time>
      </trkpt>
      <trkpt lat="47.31911" lon="-2.32204">
        <ele>13.60000038147</ele>
        <time>2021-02-14T10:43:46.000Z</time>
      </trkpt>
      <trkpt lat="47.31908" lon="-2.32204">
        <ele>14</ele>
        <time>2021-02-14T10:43:47.000Z</time>
      </trkpt>
      <trkpt lat="47.31896" lon="-2.32202">
        <ele>14.39999961853</ele>
        <time>2021-02-14T10:43:51.000Z</time>
      </trkpt>
      <trkpt lat="47.31893" lon="-2.32201">
        <ele>14.800000190735</ele>
        <time>2021-02-14T10:43:52.000Z</time>
      </trkpt>
      <trkpt lat="47.3189" lon="-2.32199">
        <ele>15.39999961853</ele>
        <time>2021-02-14T10:43:53.000Z</time>
      </trkpt>
      <trkpt lat="47.31887" lon="-2.32198">
        <ele>15.800000190735</ele>
        <time>2021-02-14T10:43:54.000Z</time>
      </trkpt>
      <trkpt lat="47.31884" lon="-2.32198">
        <ele>16.200000762939</ele>
        <time>2021-02-14T10:43:55.000Z</time>
      </trkpt>
      <trkpt lat="47.31875" lon="-2.32197">
        <ele>16.200000762939</ele>
        <time>2021-02-14T10:43:58.000Z</time>
      </trkpt>
      <trkpt lat="47.3187" lon="-2.32196">
        <ele>16.60000038147</ele>
        <time>2021-02-14T10:44:00.000Z</time>
      </trkpt>
      <trkpt lat="47.31867" lon="-2.32196">
        <ele>17</ele>
        <time>2021-02-14T10:44:01.000Z</time>
      </trkpt>
      <trkpt lat="47.31863" lon="-2.32196">
        <ele>17.60000038147</ele>
        <time>2021-02-14T10:44:02.000Z</time>
      </trkpt>
      <trkpt lat="47.3186" lon="-2.32195">
        <ele>18</ele>
        <time>2021-02-14T10:44:03.000Z</time>
      </trkpt>
      <trkpt lat="47.31857" lon="-2.32194">
        <ele>18.39999961853</ele>
        <time>2021-02-14T10:44:04.000Z</time>
      </trkpt>
      <trkpt lat="47.3185" lon="-2.32192">
        <ele>18.39999961853</ele>
        <time>2021-02-14T10:44:06.000Z</time>
      </trkpt>
      <trkpt lat="47.3184" lon="-2.32189">
        <ele>18.799999237061</ele>
        <time>2021-02-14T10:44:09.000Z</time>
      </trkpt>
      <trkpt lat="47.31837" lon="-2.32188">
        <ele>19.200000762939</ele>
        <time>2021-02-14T10:44:10.000Z</time>
      </trkpt>
      <trkpt lat="47.31833" lon="-2.32187">
        <ele>19.799999237061</ele>
        <time>2021-02-14T10:44:11.000Z</time>
      </trkpt>
      <trkpt lat="47.3183" lon="-2.32186">
        <ele>20.200000762939</ele>
        <time>2021-02-14T10:44:12.000Z</time>
      </trkpt>
      <trkpt lat="47.31827" lon="-2.32186">
        <ele>20.60000038147</ele>
        <time>2021-02-14T10:44:13.000Z</time>
      </trkpt>
      <trkpt lat="47.31804" lon="-2.32182">
        <ele>20.60000038147</ele>
        <time>2021-02-14T10:44:19.000Z</time>
      </trkpt>
      <trkpt lat="47.31794" lon="-2.3218">
        <ele>21</ele>
        <time>2021-02-14T10:44:22.000Z</time>
      </trkpt>
      <trkpt lat="47.3179" lon="-2.32179">
        <ele>21.39999961853</ele>
        <time>2021-02-14T10:44:23.000Z</time>
      </trkpt>
      <trkpt lat="47.31786" lon="-2.32178">
        <ele>21.799999237061</ele>
        <time>2021-02-14T10:44:24.000Z</time>
      </trkpt>
      <trkpt lat="47.31782" lon="-2.32178">
        <ele>22.200000762939</ele>
        <time>2021-02-14T10:44:25.000Z</time>
      </trkpt>
      <trkpt lat="47.31779" lon="-2.32177">
        <ele>22.60000038147</ele>
        <time>2021-02-14T10:44:26.000Z</time>
      </trkpt>
      <trkpt lat="47.31753" lon="-2.3217">
        <ele>22.60000038147</ele>
        <time>2021-02-14T10:44:33.000Z</time>
      </trkpt>
      <trkpt lat="47.31749" lon="-2.32169">
        <ele>23</ele>
        <time>2021-02-14T10:44:34.000Z</time>
      </trkpt>
      <trkpt lat="47.31746" lon="-2.32168">
        <ele>23.60000038147</ele>
        <time>2021-02-14T10:44:35.000Z</time>
      </trkpt>
      <trkpt lat="47.31742" lon="-2.32168">
        <ele>24</ele>
        <time>2021-02-14T10:44:36.000Z</time>
      </trkpt>
      <trkpt lat="47.31738" lon="-2.32166">
        <ele>24.39999961853</ele>
        <time>2021-02-14T10:44:37.000Z</time>
      </trkpt>
      <trkpt lat="47.31734" lon="-2.32165">
        <ele>24.799999237061</ele>
        <time>2021-02-14T10:44:38.000Z</time>
      </trkpt>
      <trkpt lat="47.31727" lon="-2.32165">
        <ele>24.799999237061</ele>
        <time>2021-02-14T10:44:40.000Z</time>
      </trkpt>
      <trkpt lat="47.31699" lon="-2.32158">
        <ele>24.799999237061</ele>
        <time>2021-02-14T10:44:47.000Z</time>
      </trkpt>
      <trkpt lat="47.31673" lon="-2.32152">
        <ele>24.799999237061</ele>
        <time>2021-02-14T10:44:53.000Z</time>
      </trkpt>
      <trkpt lat="47.31651" lon="-2.32146">
        <ele>24.799999237061</ele>
        <time>2021-02-14T10:44:58.000Z</time>
      </trkpt>
      <trkpt lat="47.31647" lon="-2.32144">
        <ele>24.799999237061</ele>
        <time>2021-02-14T10:44:59.000Z</time>
      </trkpt>
      <trkpt lat="47.31621" lon="-2.32137">
        <ele>24.799999237061</ele>
        <time>2021-02-14T10:45:04.000Z</time>
      </trkpt>
      <trkpt lat="47.31586" lon="-2.32128">
        <ele>24.799999237061</ele>
        <time>2021-02-14T10:45:11.000Z</time>
      </trkpt>
      <trkpt lat="47.31582" lon="-2.32126">
        <ele>24.799999237061</ele>
        <time>2021-02-14T10:45:12.000Z</time>
      </trkpt>
      <trkpt lat="47.31577" lon="-2.32125">
        <ele>24.799999237061</ele>
        <time>2021-02-14T10:45:13.000Z</time>
      </trkpt>
      <trkpt lat="47.31553" lon="-2.32119">
        <ele>24.799999237061</ele>
        <time>2021-02-14T10:45:18.000Z</time>
      </trkpt>
      <trkpt lat="47.31522" lon="-2.32113">
        <ele>24.799999237061</ele>
        <time>2021-02-14T10:45:24.000Z</time>
      </trkpt>
      <trkpt lat="47.31518" lon="-2.32113">
        <ele>24.799999237061</ele>
        <time>2021-02-14T10:45:25.000Z</time>
      </trkpt>
      <trkpt lat="47.31507" lon="-2.32107">
        <ele>24.799999237061</ele>
        <time>2021-02-14T10:45:28.000Z</time>
      </trkpt>
      <trkpt lat="47.31505" lon="-2.32105">
        <ele>24.39999961853</ele>
        <time>2021-02-14T10:45:29.000Z</time>
      </trkpt>
      <trkpt lat="47.31504" lon="-2.32106">
        <ele>24</ele>
        <time>2021-02-14T10:45:30.000Z</time>
      </trkpt>
      <trkpt lat="47.31502" lon="-2.32107">
        <ele>23.60000038147</ele>
        <time>2021-02-14T10:45:31.000Z</time>
      </trkpt>
      <trkpt lat="47.315" lon="-2.32108">
        <ele>23.200000762939</ele>
        <time>2021-02-14T10:45:32.000Z</time>
      </trkpt>
      <trkpt lat="47.31497" lon="-2.3211">
        <ele>22.799999237061</ele>
        <time>2021-02-14T10:45:33.000Z</time>
      </trkpt>
      <trkpt lat="47.31495" lon="-2.32118">
        <ele>22.799999237061</ele>
        <time>2021-02-14T10:45:35.000Z</time>
      </trkpt>
      <trkpt lat="47.31499" lon="-2.32133">
        <ele>22.799999237061</ele>
        <time>2021-02-14T10:45:38.000Z</time>
      </trkpt>
      <trkpt lat="47.31507" lon="-2.32147">
        <ele>22.799999237061</ele>
        <time>2021-02-14T10:45:41.000Z</time>
      </trkpt>
      <trkpt lat="47.31511" lon="-2.32156">
        <ele>22.799999237061</ele>
        <time>2021-02-14T10:45:43.000Z</time>
      </trkpt>
      <trkpt lat="47.31519" lon="-2.32177">
        <ele>22.799999237061</ele>
        <time>2021-02-14T10:45:49.000Z</time>
      </trkpt>
      <trkpt lat="47.31514" lon="-2.32184">
        <ele>22.799999237061</ele>
        <time>2021-02-14T10:45:54.000Z</time>
      </trkpt>
      <trkpt lat="47.31514" lon="-2.32184">
        <ele>22.799999237061</ele>
        <time>2021-02-14T10:45:56.000Z</time>
      </trkpt>
      <trkpt lat="47.31513" lon="-2.32182">
        <ele>22.799999237061</ele>
        <time>2021-02-14T10:46:51.000Z</time>
      </trkpt>
      <trkpt lat="47.3151" lon="-2.32175">
        <ele>22.799999237061</ele>
        <time>2021-02-14T10:46:53.000Z</time>
      </trkpt>
      <trkpt lat="47.315" lon="-2.32156">
        <ele>22.799999237061</ele>
        <time>2021-02-14T10:46:57.000Z</time>
      </trkpt>
      <trkpt lat="47.31485" lon="-2.3213">
        <ele>22.39999961853</ele>
        <time>2021-02-14T10:47:01.000Z</time>
      </trkpt>
      <trkpt lat="47.31482" lon="-2.32121">
        <ele>21.799999237061</ele>
        <time>2021-02-14T10:47:02.000Z</time>
      </trkpt>
      <trkpt lat="47.31478" lon="-2.32112">
        <ele>21.39999961853</ele>
        <time>2021-02-14T10:47:03.000Z</time>
      </trkpt>
      <trkpt lat="47.31475" lon="-2.32102">
        <ele>21</ele>
        <time>2021-02-14T10:47:04.000Z</time>
      </trkpt>
      <trkpt lat="47.31471" lon="-2.32093">
        <ele>20.60000038147</ele>
        <time>2021-02-14T10:47:05.000Z</time>
      </trkpt>
      <trkpt lat="47.31467" lon="-2.32083">
        <ele>20.200000762939</ele>
        <time>2021-02-14T10:47:06.000Z</time>
      </trkpt>
      <trkpt lat="47.31464" lon="-2.32073">
        <ele>19.60000038147</ele>
        <time>2021-02-14T10:47:07.000Z</time>
      </trkpt>
      <trkpt lat="47.3146" lon="-2.32062">
        <ele>19.200000762939</ele>
        <time>2021-02-14T10:47:08.000Z</time>
      </trkpt>
      <trkpt lat="47.31457" lon="-2.32053">
        <ele>18.799999237061</ele>
        <time>2021-02-14T10:47:09.000Z</time>
      </trkpt>
      <trkpt lat="47.31453" lon="-2.32044">
        <ele>18.200000762939</ele>
        <time>2021-02-14T10:47:10.000Z</time>
      </trkpt>
      <trkpt lat="47.31443" lon="-2.32023">
        <ele>18.200000762939</ele>
        <time>2021-02-14T10:47:13.000Z</time>
      </trkpt>
      <trkpt lat="47.3143" lon="-2.31988">
        <ele>18.200000762939</ele>
        <time>2021-02-14T10:47:19.000Z</time>
      </trkpt>
      <trkpt lat="47.31418" lon="-2.31946">
        <ele>18.200000762939</ele>
        <time>2021-02-14T10:47:27.000Z</time>
      </trkpt>
      <trkpt lat="47.31417" lon="-2.31934">
        <ele>18.200000762939</ele>
        <time>2021-02-14T10:47:29.000Z</time>
      </trkpt>
      <trkpt lat="47.31418" lon="-2.3191">
        <ele>18.200000762939</ele>
        <time>2021-02-14T10:47:33.000Z</time>
      </trkpt>
      <trkpt lat="47.31418" lon="-2.31904">
        <ele>18.60000038147</ele>
        <time>2021-02-14T10:47:34.000Z</time>
      </trkpt>
      <trkpt lat="47.31419" lon="-2.31899">
        <ele>19</ele>
        <time>2021-02-14T10:47:35.000Z</time>
      </trkpt>
      <trkpt lat="47.3142" lon="-2.31894">
        <ele>19.39999961853</ele>
        <time>2021-02-14T10:47:36.000Z</time>
      </trkpt>
      <trkpt lat="47.3142" lon="-2.31888">
        <ele>19.799999237061</ele>
        <time>2021-02-14T10:47:37.000Z</time>
      </trkpt>
      <trkpt lat="47.31421" lon="-2.31882">
        <ele>20.200000762939</ele>
        <time>2021-02-14T10:47:38.000Z</time>
      </trkpt>
      <trkpt lat="47.31425" lon="-2.31865">
        <ele>20.200000762939</ele>
        <time>2021-02-14T10:47:41.000Z</time>
      </trkpt>
      <trkpt lat="47.31429" lon="-2.31854">
        <ele>20.200000762939</ele>
        <time>2021-02-14T10:47:43.000Z</time>
      </trkpt>
      <trkpt lat="47.31438" lon="-2.31833">
        <ele>20.200000762939</ele>
        <time>2021-02-14T10:47:47.000Z</time>
      </trkpt>
      <trkpt lat="47.31453" lon="-2.31801">
        <ele>20.200000762939</ele>
        <time>2021-02-14T10:47:53.000Z</time>
      </trkpt>
      <trkpt lat="47.31457" lon="-2.31789">
        <ele>20.200000762939</ele>
        <time>2021-02-14T10:47:55.000Z</time>
      </trkpt>
      <trkpt lat="47.31465" lon="-2.31774">
        <ele>20.200000762939</ele>
        <time>2021-02-14T10:47:58.000Z</time>
      </trkpt>
      <trkpt lat="47.31467" lon="-2.31768">
        <ele>20.200000762939</ele>
        <time>2021-02-14T10:47:59.000Z</time>
      </trkpt>
      <trkpt lat="47.31467" lon="-2.31755">
        <ele>20.200000762939</ele>
        <time>2021-02-14T10:48:01.000Z</time>
      </trkpt>
      <trkpt lat="47.31464" lon="-2.31742">
        <ele>20.200000762939</ele>
        <time>2021-02-14T10:48:03.000Z</time>
      </trkpt>
      <trkpt lat="47.3146" lon="-2.31721">
        <ele>20.200000762939</ele>
        <time>2021-02-14T10:48:06.000Z</time>
      </trkpt>
      <trkpt lat="47.31456" lon="-2.31707">
        <ele>20.200000762939</ele>
        <time>2021-02-14T10:48:08.000Z</time>
      </trkpt>
      <trkpt lat="47.31453" lon="-2.31692">
        <ele>20.200000762939</ele>
        <time>2021-02-14T10:48:10.000Z</time>
      </trkpt>
      <trkpt lat="47.3145" lon="-2.31678">
        <ele>20.200000762939</ele>
        <time>2021-02-14T10:48:12.000Z</time>
      </trkpt>
      <trkpt lat="47.31438" lon="-2.31626">
        <ele>20.200000762939</ele>
        <time>2021-02-14T10:48:19.000Z</time>
      </trkpt>
      <trkpt lat="47.31437" lon="-2.31618">
        <ele>20.200000762939</ele>
        <time>2021-02-14T10:48:20.000Z</time>
      </trkpt>
      <trkpt lat="47.31431" lon="-2.31579">
        <ele>20.200000762939</ele>
        <time>2021-02-14T10:48:25.000Z</time>
      </trkpt>
      <trkpt lat="47.31425" lon="-2.31534">
        <ele>19.799999237061</ele>
        <time>2021-02-14T10:48:31.000Z</time>
      </trkpt>
      <trkpt lat="47.31425" lon="-2.31526">
        <ele>19.39999961853</ele>
        <time>2021-02-14T10:48:32.000Z</time>
      </trkpt>
      <trkpt lat="47.31424" lon="-2.31519">
        <ele>19</ele>
        <time>2021-02-14T10:48:33.000Z</time>
      </trkpt>
      <trkpt lat="47.31423" lon="-2.31511">
        <ele>18.60000038147</ele>
        <time>2021-02-14T10:48:34.000Z</time>
      </trkpt>
      <trkpt lat="47.31422" lon="-2.31504">
        <ele>18.200000762939</ele>
        <time>2021-02-14T10:48:35.000Z</time>
      </trkpt>
      <trkpt lat="47.31414" lon="-2.31457">
        <ele>18.200000762939</ele>
        <time>2021-02-14T10:48:41.000Z</time>
      </trkpt>
      <trkpt lat="47.31413" lon="-2.31449">
        <ele>18.200000762939</ele>
        <time>2021-02-14T10:48:42.000Z</time>
      </trkpt>
      <trkpt lat="47.31404" lon="-2.31427">
        <ele>18.200000762939</ele>
        <time>2021-02-14T10:48:45.000Z</time>
      </trkpt>
      <trkpt lat="47.314" lon="-2.31421">
        <ele>18.200000762939</ele>
        <time>2021-02-14T10:48:46.000Z</time>
      </trkpt>
      <trkpt lat="47.31394" lon="-2.31408">
        <ele>18.200000762939</ele>
        <time>2021-02-14T10:48:48.000Z</time>
      </trkpt>
      <trkpt lat="47.31386" lon="-2.31388">
        <ele>18.200000762939</ele>
        <time>2021-02-14T10:48:51.000Z</time>
      </trkpt>
      <trkpt lat="47.31375" lon="-2.31362">
        <ele>18.200000762939</ele>
        <time>2021-02-14T10:48:55.000Z</time>
      </trkpt>
      <trkpt lat="47.31368" lon="-2.31352">
        <ele>18.200000762939</ele>
        <time>2021-02-14T10:48:57.000Z</time>
      </trkpt>
      <trkpt lat="47.31354" lon="-2.31344">
        <ele>18.200000762939</ele>
        <time>2021-02-14T10:49:00.000Z</time>
      </trkpt>
      <trkpt lat="47.31349" lon="-2.3134">
        <ele>18.200000762939</ele>
        <time>2021-02-14T10:49:01.000Z</time>
      </trkpt>
      <trkpt lat="47.31334" lon="-2.3133">
        <ele>17.799999237061</ele>
        <time>2021-02-14T10:49:04.000Z</time>
      </trkpt>
      <trkpt lat="47.3133" lon="-2.31327">
        <ele>17.39999961853</ele>
        <time>2021-02-14T10:49:05.000Z</time>
      </trkpt>
      <trkpt lat="47.31325" lon="-2.31325">
        <ele>17</ele>
        <time>2021-02-14T10:49:06.000Z</time>
      </trkpt>
      <trkpt lat="47.3132" lon="-2.31326">
        <ele>16.60000038147</ele>
        <time>2021-02-14T10:49:07.000Z</time>
      </trkpt>
      <trkpt lat="47.31317" lon="-2.31328">
        <ele>16.200000762939</ele>
        <time>2021-02-14T10:49:08.000Z</time>
      </trkpt>
      <trkpt lat="47.31312" lon="-2.31324">
        <ele>16.200000762939</ele>
        <time>2021-02-14T10:49:11.000Z</time>
      </trkpt>
      <trkpt lat="47.31304" lon="-2.31309">
        <ele>16.200000762939</ele>
        <time>2021-02-14T10:49:15.000Z</time>
      </trkpt>
      <trkpt lat="47.313" lon="-2.31306">
        <ele>16.200000762939</ele>
        <time>2021-02-14T10:49:16.000Z</time>
      </trkpt>
      <trkpt lat="47.31297" lon="-2.31303">
        <ele>16.200000762939</ele>
        <time>2021-02-14T10:49:17.000Z</time>
      </trkpt>
      <trkpt lat="47.31283" lon="-2.31296">
        <ele>16.200000762939</ele>
        <time>2021-02-14T10:49:20.000Z</time>
      </trkpt>
      <trkpt lat="47.31269" lon="-2.31288">
        <ele>16.200000762939</ele>
        <time>2021-02-14T10:49:23.000Z</time>
      </trkpt>
      <trkpt lat="47.31255" lon="-2.31279">
        <ele>16.200000762939</ele>
        <time>2021-02-14T10:49:26.000Z</time>
      </trkpt>
      <trkpt lat="47.31249" lon="-2.31276">
        <ele>16.200000762939</ele>
        <time>2021-02-14T10:49:27.000Z</time>
      </trkpt>
      <trkpt lat="47.31222" lon="-2.31259">
        <ele>16.200000762939</ele>
        <time>2021-02-14T10:49:33.000Z</time>
      </trkpt>
      <trkpt lat="47.31214" lon="-2.31251">
        <ele>16.200000762939</ele>
        <time>2021-02-14T10:49:35.000Z</time>
      </trkpt>
      <trkpt lat="47.31195" lon="-2.31238">
        <ele>16.200000762939</ele>
        <time>2021-02-14T10:49:39.000Z</time>
      </trkpt>
      <trkpt lat="47.31169" lon="-2.3121">
        <ele>16.200000762939</ele>
        <time>2021-02-14T10:49:46.000Z</time>
      </trkpt>
      <trkpt lat="47.31165" lon="-2.31207">
        <ele>16.200000762939</ele>
        <time>2021-02-14T10:49:47.000Z</time>
      </trkpt>
      <trkpt lat="47.31156" lon="-2.31209">
        <ele>16.200000762939</ele>
        <time>2021-02-14T10:49:49.000Z</time>
      </trkpt>
      <trkpt lat="47.31148" lon="-2.31207">
        <ele>16.200000762939</ele>
        <time>2021-02-14T10:49:52.000Z</time>
      </trkpt>
      <trkpt lat="47.31147" lon="-2.31206">
        <ele>16.200000762939</ele>
        <time>2021-02-14T10:49:53.000Z</time>
      </trkpt>
      <trkpt lat="47.31146" lon="-2.31207">
        <ele>16.200000762939</ele>
        <time>2021-02-14T10:49:55.000Z</time>
      </trkpt>
      <trkpt lat="47.31144" lon="-2.31202">
        <ele>16.200000762939</ele>
        <time>2021-02-14T10:50:02.000Z</time>
      </trkpt>
      <trkpt lat="47.31137" lon="-2.31189">
        <ele>16.200000762939</ele>
        <time>2021-02-14T10:50:06.000Z</time>
      </trkpt>
      <trkpt lat="47.31127" lon="-2.31176">
        <ele>15.800000190735</ele>
        <time>2021-02-14T10:50:10.000Z</time>
      </trkpt>
      <trkpt lat="47.31125" lon="-2.31173">
        <ele>15.39999961853</ele>
        <time>2021-02-14T10:50:11.000Z</time>
      </trkpt>
      <trkpt lat="47.31122" lon="-2.31171">
        <ele>15</ele>
        <time>2021-02-14T10:50:12.000Z</time>
      </trkpt>
      <trkpt lat="47.31119" lon="-2.31169">
        <ele>14.60000038147</ele>
        <time>2021-02-14T10:50:13.000Z</time>
      </trkpt>
      <trkpt lat="47.31115" lon="-2.31166">
        <ele>14.199999809265</ele>
        <time>2021-02-14T10:50:14.000Z</time>
      </trkpt>
      <trkpt lat="47.31108" lon="-2.31159">
        <ele>14.199999809265</ele>
        <time>2021-02-14T10:50:16.000Z</time>
      </trkpt>
      <trkpt lat="47.31091" lon="-2.31147">
        <ele>14.199999809265</ele>
        <time>2021-02-14T10:50:20.000Z</time>
      </trkpt>
      <trkpt lat="47.31086" lon="-2.31144">
        <ele>14.199999809265</ele>
        <time>2021-02-14T10:50:21.000Z</time>
      </trkpt>
      <trkpt lat="47.31049" lon="-2.31122">
        <ele>14.199999809265</ele>
        <time>2021-02-14T10:50:28.000Z</time>
      </trkpt>
      <trkpt lat="47.31012" lon="-2.31097">
        <ele>14.199999809265</ele>
        <time>2021-02-14T10:50:35.000Z</time>
      </trkpt>
      <trkpt lat="47.30975" lon="-2.31071">
        <ele>14.199999809265</ele>
        <time>2021-02-14T10:50:42.000Z</time>
      </trkpt>
      <trkpt lat="47.30959" lon="-2.31059">
        <ele>14.199999809265</ele>
        <time>2021-02-14T10:50:45.000Z</time>
      </trkpt>
      <trkpt lat="47.30948" lon="-2.31054">
        <ele>13.800000190735</ele>
        <time>2021-02-14T10:50:47.000Z</time>
      </trkpt>
      <trkpt lat="47.30943" lon="-2.31051">
        <ele>13.39999961853</ele>
        <time>2021-02-14T10:50:48.000Z</time>
      </trkpt>
      <trkpt lat="47.30938" lon="-2.31048">
        <ele>13</ele>
        <time>2021-02-14T10:50:49.000Z</time>
      </trkpt>
      <trkpt lat="47.30932" lon="-2.31045">
        <ele>12.39999961853</ele>
        <time>2021-02-14T10:50:50.000Z</time>
      </trkpt>
      <trkpt lat="47.30926" lon="-2.31043">
        <ele>12</ele>
        <time>2021-02-14T10:50:51.000Z</time>
      </trkpt>
      <trkpt lat="47.30917" lon="-2.31037">
        <ele>12</ele>
        <time>2021-02-14T10:50:53.000Z</time>
      </trkpt>
      <trkpt lat="47.30913" lon="-2.31032">
        <ele>12</ele>
        <time>2021-02-14T10:50:54.000Z</time>
      </trkpt>
      <trkpt lat="47.30905" lon="-2.31024">
        <ele>12</ele>
        <time>2021-02-14T10:50:56.000Z</time>
      </trkpt>
      <trkpt lat="47.30892" lon="-2.31014">
        <ele>12</ele>
        <time>2021-02-14T10:50:59.000Z</time>
      </trkpt>
      <trkpt lat="47.30865" lon="-2.30996">
        <ele>12</ele>
        <time>2021-02-14T10:51:06.000Z</time>
      </trkpt>
      <trkpt lat="47.30837" lon="-2.30977">
        <ele>12</ele>
        <time>2021-02-14T10:51:12.000Z</time>
      </trkpt>
      <trkpt lat="47.30813" lon="-2.30964">
        <ele>12</ele>
        <time>2021-02-14T10:51:17.000Z</time>
      </trkpt>
      <trkpt lat="47.30801" lon="-2.30956">
        <ele>11.60000038147</ele>
        <time>2021-02-14T10:51:19.000Z</time>
      </trkpt>
      <trkpt lat="47.30795" lon="-2.30951">
        <ele>11.199999809265</ele>
        <time>2021-02-14T10:51:20.000Z</time>
      </trkpt>
      <trkpt lat="47.30789" lon="-2.30947">
        <ele>10.800000190735</ele>
        <time>2021-02-14T10:51:21.000Z</time>
      </trkpt>
      <trkpt lat="47.30783" lon="-2.30943">
        <ele>10.39999961853</ele>
        <time>2021-02-14T10:51:22.000Z</time>
      </trkpt>
      <trkpt lat="47.30777" lon="-2.30939">
        <ele>10</ele>
        <time>2021-02-14T10:51:23.000Z</time>
      </trkpt>
      <trkpt lat="47.30731" lon="-2.30909">
        <ele>10</ele>
        <time>2021-02-14T10:51:31.000Z</time>
      </trkpt>
      <trkpt lat="47.30679" lon="-2.30874">
        <ele>10</ele>
        <time>2021-02-14T10:51:40.000Z</time>
      </trkpt>
      <trkpt lat="47.30673" lon="-2.30871">
        <ele>10</ele>
        <time>2021-02-14T10:51:41.000Z</time>
      </trkpt>
      <trkpt lat="47.30627" lon="-2.3084">
        <ele>10</ele>
        <time>2021-02-14T10:51:49.000Z</time>
      </trkpt>
      <trkpt lat="47.30604" lon="-2.30826">
        <ele>9.6000003814697</ele>
        <time>2021-02-14T10:51:53.000Z</time>
      </trkpt>
      <trkpt lat="47.30598" lon="-2.30823">
        <ele>9.1999998092651</ele>
        <time>2021-02-14T10:51:54.000Z</time>
      </trkpt>
      <trkpt lat="47.30593" lon="-2.30818">
        <ele>8.8000001907349</ele>
        <time>2021-02-14T10:51:55.000Z</time>
      </trkpt>
      <trkpt lat="47.30588" lon="-2.30815">
        <ele>8.3999996185303</ele>
        <time>2021-02-14T10:51:56.000Z</time>
      </trkpt>
      <trkpt lat="47.30582" lon="-2.3081">
        <ele>8</ele>
        <time>2021-02-14T10:51:57.000Z</time>
      </trkpt>
      <trkpt lat="47.30537" lon="-2.3078">
        <ele>8</ele>
        <time>2021-02-14T10:52:05.000Z</time>
      </trkpt>
      <trkpt lat="47.30508" lon="-2.30761">
        <ele>7.5999999046326</ele>
        <time>2021-02-14T10:52:10.000Z</time>
      </trkpt>
      <trkpt lat="47.30502" lon="-2.30756">
        <ele>7</ele>
        <time>2021-02-14T10:52:11.000Z</time>
      </trkpt>
      <trkpt lat="47.30496" lon="-2.30752">
        <ele>6.5999999046326</ele>
        <time>2021-02-14T10:52:12.000Z</time>
      </trkpt>
      <trkpt lat="47.3049" lon="-2.30748">
        <ele>6.1999998092651</ele>
        <time>2021-02-14T10:52:13.000Z</time>
      </trkpt>
      <trkpt lat="47.30483" lon="-2.30743">
        <ele>5.8000001907349</ele>
        <time>2021-02-14T10:52:14.000Z</time>
      </trkpt>
      <trkpt lat="47.30438" lon="-2.30713">
        <ele>5.8000001907349</ele>
        <time>2021-02-14T10:52:21.000Z</time>
      </trkpt>
      <trkpt lat="47.30414" lon="-2.30697">
        <ele>5.1999998092651</ele>
        <time>2021-02-14T10:52:25.000Z</time>
      </trkpt>
      <trkpt lat="47.30408" lon="-2.30693">
        <ele>4.8000001907349</ele>
        <time>2021-02-14T10:52:26.000Z</time>
      </trkpt>
      <trkpt lat="47.30403" lon="-2.30689">
        <ele>4.4000000953674</ele>
        <time>2021-02-14T10:52:27.000Z</time>
      </trkpt>
      <trkpt lat="47.30397" lon="-2.30685">
        <ele>4</ele>
        <time>2021-02-14T10:52:28.000Z</time>
      </trkpt>
      <trkpt lat="47.30391" lon="-2.30682">
        <ele>3.5999999046326</ele>
        <time>2021-02-14T10:52:29.000Z</time>
      </trkpt>
      <trkpt lat="47.30385" lon="-2.30677">
        <ele>3.5999999046326</ele>
        <time>2021-02-14T10:52:30.000Z</time>
      </trkpt>
      <trkpt lat="47.30363" lon="-2.30657">
        <ele>3.5999999046326</ele>
        <time>2021-02-14T10:52:34.000Z</time>
      </trkpt>
      <trkpt lat="47.30358" lon="-2.30651">
        <ele>3</ele>
        <time>2021-02-14T10:52:35.000Z</time>
      </trkpt>
      <trkpt lat="47.30352" lon="-2.30646">
        <ele>2.5999999046326</ele>
        <time>2021-02-14T10:52:36.000Z</time>
      </trkpt>
      <trkpt lat="47.30346" lon="-2.30641">
        <ele>2.2000000476837</ele>
        <time>2021-02-14T10:52:37.000Z</time>
      </trkpt>
      <trkpt lat="47.3034" lon="-2.30636">
        <ele>1.7999999523163</ele>
        <time>2021-02-14T10:52:38.000Z</time>
      </trkpt>
      <trkpt lat="47.30334" lon="-2.30632">
        <ele>1.3999999761581</ele>
        <time>2021-02-14T10:52:39.000Z</time>
      </trkpt>
      <trkpt lat="47.30316" lon="-2.30617">
        <ele>1.3999999761581</ele>
        <time>2021-02-14T10:52:42.000Z</time>
      </trkpt>
      <trkpt lat="47.30295" lon="-2.30598">
        <ele>1</ele>
        <time>2021-02-14T10:52:46.000Z</time>
      </trkpt>
      <trkpt lat="47.3029" lon="-2.30594">
        <ele>0.40000000596046</ele>
        <time>2021-02-14T10:52:47.000Z</time>
      </trkpt>
      <trkpt lat="47.30284" lon="-2.30589">
        <ele>5</ele>
        <time>2021-02-14T10:52:48.000Z</time>
      </trkpt>
      <trkpt lat="47.30279" lon="-2.30586">
        <ele>-0.40000000596046</ele>
        <time>2021-02-14T10:52:49.000Z</time>
      </trkpt>
      <trkpt lat="47.30274" lon="-2.30582">
        <ele>-0.80000001192093</ele>
        <time>2021-02-14T10:52:50.000Z</time>
      </trkpt>
      <trkpt lat="47.30264" lon="-2.30577">
        <ele>-0.80000001192093</ele>
        <time>2021-02-14T10:52:52.000Z</time>
      </trkpt>
      <trkpt lat="47.30253" lon="-2.30578">
        <ele>-0.80000001192093</ele>
        <time>2021-02-14T10:52:54.000Z</time>
      </trkpt>
      <trkpt lat="47.30237" lon="-2.30584">
        <ele>-0.80000001192093</ele>
        <time>2021-02-14T10:52:57.000Z</time>
      </trkpt>
      <trkpt lat="47.30227" lon="-2.30588">
        <ele>-0.80000001192093</ele>
        <time>2021-02-14T10:52:59.000Z</time>
      </trkpt>
      <trkpt lat="47.30205" lon="-2.30601">
        <ele>-0.80000001192093</ele>
        <time>2021-02-14T10:53:05.000Z</time>
      </trkpt>
      <trkpt lat="47.30196" lon="-2.3062">
        <ele>-0.80000001192093</ele>
        <time>2021-02-14T10:53:09.000Z</time>
      </trkpt>
      <trkpt lat="47.30185" lon="-2.30632">
        <ele>-0.80000001192093</ele>
        <time>2021-02-14T10:53:13.000Z</time>
      </trkpt>
      <trkpt lat="47.30174" lon="-2.30633">
        <ele>-0.80000001192093</ele>
        <time>2021-02-14T10:53:16.000Z</time>
      </trkpt>
      <trkpt lat="47.30168" lon="-2.30637">
        <ele>-0.80000001192093</ele>
        <time>2021-02-14T10:53:18.000Z</time>
      </trkpt>
      <trkpt lat="47.3016" lon="-2.30636">
        <ele>-0.80000001192093</ele>
        <time>2021-02-14T10:53:20.000Z</time>
      </trkpt>
      <trkpt lat="47.30157" lon="-2.30633">
        <ele>-0.80000001192093</ele>
        <time>2021-02-14T10:53:21.000Z</time>
      </trkpt>
      <trkpt lat="47.30145" lon="-2.3061">
        <ele>-0.80000001192093</ele>
        <time>2021-02-14T10:53:26.000Z</time>
      </trkpt>
      <trkpt lat="47.30143" lon="-2.30604">
        <ele>-0.80000001192093</ele>
        <time>2021-02-14T10:53:27.000Z</time>
      </trkpt>
      <trkpt lat="47.30131" lon="-2.30569">
        <ele>-0.80000001192093</ele>
        <time>2021-02-14T10:53:33.000Z</time>
      </trkpt>
      <trkpt lat="47.30128" lon="-2.30563">
        <ele>-0.80000001192093</ele>
        <time>2021-02-14T10:53:34.000Z</time>
      </trkpt>
      <trkpt lat="47.30112" lon="-2.30545">
        <ele>-0.80000001192093</ele>
        <time>2021-02-14T10:53:38.000Z</time>
      </trkpt>
      <trkpt lat="47.30092" lon="-2.30538">
        <ele>-0.80000001192093</ele>
        <time>2021-02-14T10:53:42.000Z</time>
      </trkpt>
      <trkpt lat="47.30082" lon="-2.30539">
        <ele>-0.80000001192093</ele>
        <time>2021-02-14T10:53:44.000Z</time>
      </trkpt>
      <trkpt lat="47.30062" lon="-2.30539">
        <ele>-0.80000001192093</ele>
        <time>2021-02-14T10:53:48.000Z</time>
      </trkpt>
      <trkpt lat="47.30026" lon="-2.30541">
        <ele>-0.80000001192093</ele>
        <time>2021-02-14T10:53:55.000Z</time>
      </trkpt>
      <trkpt lat="47.29989" lon="-2.30533">
        <ele>-0.80000001192093</ele>
        <time>2021-02-14T10:54:02.000Z</time>
      </trkpt>
      <trkpt lat="47.29954" lon="-2.30514">
        <ele>-0.80000001192093</ele>
        <time>2021-02-14T10:54:09.000Z</time>
      </trkpt>
      <trkpt lat="47.29927" lon="-2.30501">
        <ele>-0.40000000596046</ele>
        <time>2021-02-14T10:54:14.000Z</time>
      </trkpt>
      <trkpt lat="47.29922" lon="-2.30498">
        <ele>8</ele>
        <time>2021-02-14T10:54:15.000Z</time>
      </trkpt>
      <trkpt lat="47.29917" lon="-2.30494">
        <ele>0.40000000596046</ele>
        <time>2021-02-14T10:54:16.000Z</time>
      </trkpt>
      <trkpt lat="47.29912" lon="-2.30491">
        <ele>0.80000001192093</ele>
        <time>2021-02-14T10:54:17.000Z</time>
      </trkpt>
      <trkpt lat="47.29907" lon="-2.30489">
        <ele>1.2000000476837</ele>
        <time>2021-02-14T10:54:18.000Z</time>
      </trkpt>
      <trkpt lat="47.29882" lon="-2.3048">
        <ele>1.2000000476837</ele>
        <time>2021-02-14T10:54:23.000Z</time>
      </trkpt>
      <trkpt lat="47.29856" lon="-2.30482">
        <ele>1.2000000476837</ele>
        <time>2021-02-14T10:54:28.000Z</time>
      </trkpt>
      <trkpt lat="47.29851" lon="-2.30484">
        <ele>1.7999999523163</ele>
        <time>2021-02-14T10:54:29.000Z</time>
      </trkpt>
      <trkpt lat="47.29846" lon="-2.30486">
        <ele>2.2000000476837</ele>
        <time>2021-02-14T10:54:30.000Z</time>
      </trkpt>
      <trkpt lat="47.2984" lon="-2.30487">
        <ele>2.5999999046326</ele>
        <time>2021-02-14T10:54:31.000Z</time>
      </trkpt>
      <trkpt lat="47.29835" lon="-2.30488">
        <ele>3</ele>
        <time>2021-02-14T10:54:32.000Z</time>
      </trkpt>
      <trkpt lat="47.2983" lon="-2.30489">
        <ele>3.4000000953674</ele>
        <time>2021-02-14T10:54:33.000Z</time>
      </trkpt>
      <trkpt lat="47.29814" lon="-2.30493">
        <ele>3.4000000953674</ele>
        <time>2021-02-14T10:54:36.000Z</time>
      </trkpt>
      <trkpt lat="47.29782" lon="-2.30501">
        <ele>3.7999999523163</ele>
        <time>2021-02-14T10:54:42.000Z</time>
      </trkpt>
      <trkpt lat="47.29777" lon="-2.30502">
        <ele>4.1999998092651</ele>
        <time>2021-02-14T10:54:43.000Z</time>
      </trkpt>
      <trkpt lat="47.29772" lon="-2.30504">
        <ele>4.5999999046326</ele>
        <time>2021-02-14T10:54:44.000Z</time>
      </trkpt>
      <trkpt lat="47.29767" lon="-2.30506">
        <ele>5</ele>
        <time>2021-02-14T10:54:45.000Z</time>
      </trkpt>
      <trkpt lat="47.29761" lon="-2.30508">
        <ele>5.4000000953674</ele>
        <time>2021-02-14T10:54:46.000Z</time>
      </trkpt>
      <trkpt lat="47.29737" lon="-2.30516">
        <ele>5.4000000953674</ele>
        <time>2021-02-14T10:54:51.000Z</time>
      </trkpt>
      <trkpt lat="47.29722" lon="-2.30521">
        <ele>5.8000001907349</ele>
        <time>2021-02-14T10:54:54.000Z</time>
      </trkpt>
      <trkpt lat="47.29718" lon="-2.30523">
        <ele>6.1999998092651</ele>
        <time>2021-02-14T10:54:55.000Z</time>
      </trkpt>
      <trkpt lat="47.29713" lon="-2.30525">
        <ele>6.5999999046326</ele>
        <time>2021-02-14T10:54:56.000Z</time>
      </trkpt>
      <trkpt lat="47.29708" lon="-2.30526">
        <ele>7.1999998092651</ele>
        <time>2021-02-14T10:54:57.000Z</time>
      </trkpt>
      <trkpt lat="47.29703" lon="-2.30527">
        <ele>7.5999999046326</ele>
        <time>2021-02-14T10:54:58.000Z</time>
      </trkpt>
      <trkpt lat="47.29693" lon="-2.30529">
        <ele>7.5999999046326</ele>
        <time>2021-02-14T10:55:00.000Z</time>
      </trkpt>
      <trkpt lat="47.29657" lon="-2.30542">
        <ele>8</ele>
        <time>2021-02-14T10:55:07.000Z</time>
      </trkpt>
      <trkpt lat="47.29651" lon="-2.30545">
        <ele>8.3999996185303</ele>
        <time>2021-02-14T10:55:08.000Z</time>
      </trkpt>
      <trkpt lat="47.29646" lon="-2.30547">
        <ele>8.8000001907349</ele>
        <time>2021-02-14T10:55:09.000Z</time>
      </trkpt>
      <trkpt lat="47.29641" lon="-2.30549">
        <ele>9.1999998092651</ele>
        <time>2021-02-14T10:55:10.000Z</time>
      </trkpt>
      <trkpt lat="47.29635" lon="-2.30551">
        <ele>9.6000003814697</ele>
        <time>2021-02-14T10:55:11.000Z</time>
      </trkpt>
      <trkpt lat="47.29607" lon="-2.3056">
        <ele>9.6000003814697</ele>
        <time>2021-02-14T10:55:16.000Z</time>
      </trkpt>
      <trkpt lat="47.29559" lon="-2.30567">
        <ele>9.6000003814697</ele>
        <time>2021-02-14T10:55:24.000Z</time>
      </trkpt>
      <trkpt lat="47.29518" lon="-2.30572">
        <ele>9.6000003814697</ele>
        <time>2021-02-14T10:55:31.000Z</time>
      </trkpt>
      <trkpt lat="47.29511" lon="-2.30573">
        <ele>9.6000003814697</ele>
        <time>2021-02-14T10:55:32.000Z</time>
      </trkpt>
      <trkpt lat="47.29456" lon="-2.30581">
        <ele>9.6000003814697</ele>
        <time>2021-02-14T10:55:40.000Z</time>
      </trkpt>
      <trkpt lat="47.29406" lon="-2.30581">
        <ele>9.6000003814697</ele>
        <time>2021-02-14T10:55:47.000Z</time>
      </trkpt>
      <trkpt lat="47.29391" lon="-2.30575">
        <ele>9.6000003814697</ele>
        <time>2021-02-14T10:55:49.000Z</time>
      </trkpt>
      <trkpt lat="47.29375" lon="-2.30565">
        <ele>9.1999998092651</ele>
        <time>2021-02-14T10:55:51.000Z</time>
      </trkpt>
      <trkpt lat="47.29368" lon="-2.3056">
        <ele>8.8000001907349</ele>
        <time>2021-02-14T10:55:52.000Z</time>
      </trkpt>
      <trkpt lat="47.2936" lon="-2.30555">
        <ele>8.3999996185303</ele>
        <time>2021-02-14T10:55:53.000Z</time>
      </trkpt>
      <trkpt lat="47.29352" lon="-2.3055">
        <ele>8</ele>
        <time>2021-02-14T10:55:54.000Z</time>
      </trkpt>
      <trkpt lat="47.29344" lon="-2.30545">
        <ele>7.5999999046326</ele>
        <time>2021-02-14T10:55:55.000Z</time>
      </trkpt>
      <trkpt lat="47.2932" lon="-2.3053">
        <ele>7</ele>
        <time>2021-02-14T10:55:58.000Z</time>
      </trkpt>
      <trkpt lat="47.29312" lon="-2.30526">
        <ele>6.5999999046326</ele>
        <time>2021-02-14T10:55:59.000Z</time>
      </trkpt>
      <trkpt lat="47.29305" lon="-2.30522">
        <ele>5.8000001907349</ele>
        <time>2021-02-14T10:56:00.000Z</time>
      </trkpt>
      <trkpt lat="47.29297" lon="-2.30517">
        <ele>5.4000000953674</ele>
        <time>2021-02-14T10:56:01.000Z</time>
      </trkpt>
      <trkpt lat="47.29268" lon="-2.305">
        <ele>5.4000000953674</ele>
        <time>2021-02-14T10:56:05.000Z</time>
      </trkpt>
      <trkpt lat="47.2923" lon="-2.3049">
        <ele>5.4000000953674</ele>
        <time>2021-02-14T10:56:10.000Z</time>
      </trkpt>
      <trkpt lat="47.29195" lon="-2.30498">
        <ele>5.4000000953674</ele>
        <time>2021-02-14T10:56:15.000Z</time>
      </trkpt>
      <trkpt lat="47.29183" lon="-2.30505">
        <ele>5.4000000953674</ele>
        <time>2021-02-14T10:56:17.000Z</time>
      </trkpt>
      <trkpt lat="47.29165" lon="-2.30516">
        <ele>5.4000000953674</ele>
        <time>2021-02-14T10:56:20.000Z</time>
      </trkpt>
      <trkpt lat="47.29129" lon="-2.30541">
        <ele>5.4000000953674</ele>
        <time>2021-02-14T10:56:26.000Z</time>
      </trkpt>
      <trkpt lat="47.29082" lon="-2.30572">
        <ele>5.4000000953674</ele>
        <time>2021-02-14T10:56:34.000Z</time>
      </trkpt>
      <trkpt lat="47.29049" lon="-2.30592">
        <ele>5.4000000953674</ele>
        <time>2021-02-14T10:56:40.000Z</time>
      </trkpt>
      <trkpt lat="47.29013" lon="-2.30616">
        <ele>5.4000000953674</ele>
        <time>2021-02-14T10:56:48.000Z</time>
      </trkpt>
      <trkpt lat="47.29009" lon="-2.30616">
        <ele>5.4000000953674</ele>
        <time>2021-02-14T10:56:49.000Z</time>
      </trkpt>
      <trkpt lat="47.29002" lon="-2.30608">
        <ele>5.4000000953674</ele>
        <time>2021-02-14T10:56:51.000Z</time>
      </trkpt>
      <trkpt lat="47.28999" lon="-2.30587">
        <ele>5.4000000953674</ele>
        <time>2021-02-14T10:56:55.000Z</time>
      </trkpt>
      <trkpt lat="47.28994" lon="-2.30554">
        <ele>5.4000000953674</ele>
        <time>2021-02-14T10:57:01.000Z</time>
      </trkpt>
      <trkpt lat="47.28991" lon="-2.30513">
        <ele>5.4000000953674</ele>
        <time>2021-02-14T10:57:08.000Z</time>
      </trkpt>
      <trkpt lat="47.28986" lon="-2.30478">
        <ele>5.4000000953674</ele>
        <time>2021-02-14T10:57:13.000Z</time>
      </trkpt>
      <trkpt lat="47.2898" lon="-2.30434">
        <ele>5.4000000953674</ele>
        <time>2021-02-14T10:57:19.000Z</time>
      </trkpt>
      <trkpt lat="47.28977" lon="-2.30406">
        <ele>5.4000000953674</ele>
        <time>2021-02-14T10:57:23.000Z</time>
      </trkpt>
      <trkpt lat="47.28975" lon="-2.30391">
        <ele>5.4000000953674</ele>
        <time>2021-02-14T10:57:25.000Z</time>
      </trkpt>
      <trkpt lat="47.28975" lon="-2.30384">
        <ele>5.4000000953674</ele>
        <time>2021-02-14T10:57:26.000Z</time>
      </trkpt>
      <trkpt lat="47.28976" lon="-2.30347">
        <ele>5.4000000953674</ele>
        <time>2021-02-14T10:57:31.000Z</time>
      </trkpt>
      <trkpt lat="47.28976" lon="-2.3034">
        <ele>5.4000000953674</ele>
        <time>2021-02-14T10:57:32.000Z</time>
      </trkpt>
      <trkpt lat="47.28972" lon="-2.30289">
        <ele>5.4000000953674</ele>
        <time>2021-02-14T10:57:39.000Z</time>
      </trkpt>
      <trkpt lat="47.28969" lon="-2.30251">
        <ele>5.4000000953674</ele>
        <time>2021-02-14T10:57:45.000Z</time>
      </trkpt>
      <trkpt lat="47.28973" lon="-2.30231">
        <ele>5.4000000953674</ele>
        <time>2021-02-14T10:57:50.000Z</time>
      </trkpt>
      <trkpt lat="47.28979" lon="-2.30233">
        <ele>4.8000001907349</ele>
        <time>2021-02-14T10:57:52.000Z</time>
      </trkpt>
      <trkpt lat="47.28981" lon="-2.30236">
        <ele>4.4000000953674</ele>
        <time>2021-02-14T10:57:53.000Z</time>
      </trkpt>
      <trkpt lat="47.28983" lon="-2.3024">
        <ele>4</ele>
        <time>2021-02-14T10:57:54.000Z</time>
      </trkpt>
      <trkpt lat="47.28984" lon="-2.30244">
        <ele>3.5999999046326</ele>
        <time>2021-02-14T10:57:55.000Z</time>
      </trkpt>
      <trkpt lat="47.28983" lon="-2.30249">
        <ele>3.2000000476837</ele>
        <time>2021-02-14T10:57:56.000Z</time>
      </trkpt>
      <trkpt lat="47.28981" lon="-2.30251">
        <ele>3.2000000476837</ele>
        <time>2021-02-14T10:57:57.000Z</time>
      </trkpt>
      <trkpt lat="47.28973" lon="-2.30251">
        <ele>3.2000000476837</ele>
        <time>2021-02-14T10:58:01.000Z</time>
      </trkpt>
      <trkpt lat="47.28969" lon="-2.30247">
        <ele>3.2000000476837</ele>
        <time>2021-02-14T10:58:03.000Z</time>
      </trkpt>
      <trkpt lat="47.28964" lon="-2.30236">
        <ele>3.2000000476837</ele>
        <time>2021-02-14T10:58:07.000Z</time>
      </trkpt>
      <trkpt lat="47.28962" lon="-2.30233">
        <ele>3.2000000476837</ele>
        <time>2021-02-14T10:58:08.000Z</time>
      </trkpt>
      <trkpt lat="47.28949" lon="-2.30217">
        <ele>3.2000000476837</ele>
        <time>2021-02-14T10:58:13.000Z</time>
      </trkpt>
      <trkpt lat="47.28925" lon="-2.30189">
        <ele>3.2000000476837</ele>
        <time>2021-02-14T10:58:20.000Z</time>
      </trkpt>
      <trkpt lat="47.28921" lon="-2.30186">
        <ele>3.2000000476837</ele>
        <time>2021-02-14T10:58:21.000Z</time>
      </trkpt>
      <trkpt lat="47.28914" lon="-2.30177">
        <ele>3.5999999046326</ele>
        <time>2021-02-14T10:58:23.000Z</time>
      </trkpt>
      <trkpt lat="47.28911" lon="-2.30173">
        <ele>4</ele>
        <time>2021-02-14T10:58:24.000Z</time>
      </trkpt>
      <trkpt lat="47.28908" lon="-2.30168">
        <ele>4.4000000953674</ele>
        <time>2021-02-14T10:58:25.000Z</time>
      </trkpt>
      <trkpt lat="47.28904" lon="-2.30164">
        <ele>4.8000001907349</ele>
        <time>2021-02-14T10:58:26.000Z</time>
      </trkpt>
      <trkpt lat="47.289" lon="-2.3016">
        <ele>5.4000000953674</ele>
        <time>2021-02-14T10:58:27.000Z</time>
      </trkpt>
      <trkpt lat="47.28888" lon="-2.30145">
        <ele>5.4000000953674</ele>
        <time>2021-02-14T10:58:31.000Z</time>
      </trkpt>
      <trkpt lat="47.28881" lon="-2.30136">
        <ele>5.4000000953674</ele>
        <time>2021-02-14T10:58:33.000Z</time>
      </trkpt>
      <trkpt lat="47.28862" lon="-2.30111">
        <ele>5.8000001907349</ele>
        <time>2021-02-14T10:58:39.000Z</time>
      </trkpt>
      <trkpt lat="47.28858" lon="-2.30107">
        <ele>6.1999998092651</ele>
        <time>2021-02-14T10:58:40.000Z</time>
      </trkpt>
      <trkpt lat="47.28854" lon="-2.30102">
        <ele>6.5999999046326</ele>
        <time>2021-02-14T10:58:41.000Z</time>
      </trkpt>
      <trkpt lat="47.2885" lon="-2.30098">
        <ele>7</ele>
        <time>2021-02-14T10:58:42.000Z</time>
      </trkpt>
      <trkpt lat="47.28846" lon="-2.30093">
        <ele>7.4000000953674</ele>
        <time>2021-02-14T10:58:43.000Z</time>
      </trkpt>
      <trkpt lat="47.28831" lon="-2.30075">
        <ele>7.4000000953674</ele>
        <time>2021-02-14T10:58:47.000Z</time>
      </trkpt>
      <trkpt lat="47.28813" lon="-2.30052">
        <ele>7.4000000953674</ele>
        <time>2021-02-14T10:58:52.000Z</time>
      </trkpt>
      <trkpt lat="47.28801" lon="-2.30042">
        <ele>7.4000000953674</ele>
        <time>2021-02-14T10:58:55.000Z</time>
      </trkpt>
      <trkpt lat="47.28791" lon="-2.30038">
        <ele>7.4000000953674</ele>
        <time>2021-02-14T10:58:57.000Z</time>
      </trkpt>
      <trkpt lat="47.28781" lon="-2.30036">
        <ele>7.8000001907349</ele>
        <time>2021-02-14T10:58:59.000Z</time>
      </trkpt>
      <trkpt lat="47.28776" lon="-2.30033">
        <ele>8.1999998092651</ele>
        <time>2021-02-14T10:59:00.000Z</time>
      </trkpt>
      <trkpt lat="47.28772" lon="-2.30028">
        <ele>8.6000003814697</ele>
        <time>2021-02-14T10:59:01.000Z</time>
      </trkpt>
      <trkpt lat="47.28769" lon="-2.30022">
        <ele>9</ele>
        <time>2021-02-14T10:59:02.000Z</time>
      </trkpt>
      <trkpt lat="47.28766" lon="-2.30014">
        <ele>9.3999996185303</ele>
        <time>2021-02-14T10:59:03.000Z</time>
      </trkpt>
      <trkpt lat="47.28765" lon="-2.30007">
        <ele>9.3999996185303</ele>
        <time>2021-02-14T10:59:04.000Z</time>
      </trkpt>
      <trkpt lat="47.28763" lon="-2.3">
        <ele>9.3999996185303</ele>
        <time>2021-02-14T10:59:05.000Z</time>
      </trkpt>
      <trkpt lat="47.2876" lon="-2.29995">
        <ele>9.3999996185303</ele>
        <time>2021-02-14T10:59:06.000Z</time>
      </trkpt>
      <trkpt lat="47.2875" lon="-2.29981">
        <ele>9.3999996185303</ele>
        <time>2021-02-14T10:59:09.000Z</time>
      </trkpt>
      <trkpt lat="47.28725" lon="-2.29954">
        <ele>9.3999996185303</ele>
        <time>2021-02-14T10:59:16.000Z</time>
      </trkpt>
      <trkpt lat="47.28718" lon="-2.29951">
        <ele>9.8000001907349</ele>
        <time>2021-02-14T10:59:18.000Z</time>
      </trkpt>
      <trkpt lat="47.28715" lon="-2.29951">
        <ele>10.800000190735</ele>
        <time>2021-02-14T10:59:19.000Z</time>
      </trkpt>
      <trkpt lat="47.28711" lon="-2.29952">
        <ele>11.199999809265</ele>
        <time>2021-02-14T10:59:20.000Z</time>
      </trkpt>
      <trkpt lat="47.28707" lon="-2.29952">
        <ele>11.800000190735</ele>
        <time>2021-02-14T10:59:21.000Z</time>
      </trkpt>
      <trkpt lat="47.28699" lon="-2.29951">
        <ele>11.800000190735</ele>
        <time>2021-02-14T10:59:23.000Z</time>
      </trkpt>
      <trkpt lat="47.28692" lon="-2.29945">
        <ele>11.800000190735</ele>
        <time>2021-02-14T10:59:25.000Z</time>
      </trkpt>
      <trkpt lat="47.28686" lon="-2.29936">
        <ele>11.800000190735</ele>
        <time>2021-02-14T10:59:27.000Z</time>
      </trkpt>
      <trkpt lat="47.28678" lon="-2.29925">
        <ele>11.800000190735</ele>
        <time>2021-02-14T10:59:30.000Z</time>
      </trkpt>
      <trkpt lat="47.28663" lon="-2.29911">
        <ele>11.800000190735</ele>
        <time>2021-02-14T10:59:35.000Z</time>
      </trkpt>
      <trkpt lat="47.2866" lon="-2.29907">
        <ele>12.199999809265</ele>
        <time>2021-02-14T10:59:36.000Z</time>
      </trkpt>
      <trkpt lat="47.28657" lon="-2.29904">
        <ele>12.60000038147</ele>
        <time>2021-02-14T10:59:37.000Z</time>
      </trkpt>
      <trkpt lat="47.28655" lon="-2.29899">
        <ele>13</ele>
        <time>2021-02-14T10:59:38.000Z</time>
      </trkpt>
      <trkpt lat="47.28653" lon="-2.29894">
        <ele>13.39999961853</ele>
        <time>2021-02-14T10:59:39.000Z</time>
      </trkpt>
      <trkpt lat="47.28651" lon="-2.29889">
        <ele>13.800000190735</ele>
        <time>2021-02-14T10:59:40.000Z</time>
      </trkpt>
      <trkpt lat="47.2865" lon="-2.29883">
        <ele>13.800000190735</ele>
        <time>2021-02-14T10:59:41.000Z</time>
      </trkpt>
      <trkpt lat="47.28646" lon="-2.29849">
        <ele>13.800000190735</ele>
        <time>2021-02-14T10:59:47.000Z</time>
      </trkpt>
      <trkpt lat="47.28646" lon="-2.29815">
        <ele>14.199999809265</ele>
        <time>2021-02-14T10:59:53.000Z</time>
      </trkpt>
      <trkpt lat="47.28645" lon="-2.29809">
        <ele>14.60000038147</ele>
        <time>2021-02-14T10:59:54.000Z</time>
      </trkpt>
      <trkpt lat="47.28645" lon="-2.29804">
        <ele>15.199999809265</ele>
        <time>2021-02-14T10:59:55.000Z</time>
      </trkpt>
      <trkpt lat="47.28645" lon="-2.29799">
        <ele>15.60000038147</ele>
        <time>2021-02-14T10:59:56.000Z</time>
      </trkpt>
      <trkpt lat="47.28644" lon="-2.29795">
        <ele>16</ele>
        <time>2021-02-14T10:59:57.000Z</time>
      </trkpt>
      <trkpt lat="47.2864" lon="-2.29774">
        <ele>16</ele>
        <time>2021-02-14T11:00:02.000Z</time>
      </trkpt>
      <trkpt lat="47.2863" lon="-2.29744">
        <ele>16</ele>
        <time>2021-02-14T11:00:10.000Z</time>
      </trkpt>
      <trkpt lat="47.28619" lon="-2.29717">
        <ele>16</ele>
        <time>2021-02-14T11:00:18.000Z</time>
      </trkpt>
      <trkpt lat="47.2861" lon="-2.29693">
        <ele>16</ele>
        <time>2021-02-14T11:00:24.000Z</time>
      </trkpt>
      <trkpt lat="47.28599" lon="-2.29652">
        <ele>16</ele>
        <time>2021-02-14T11:00:33.000Z</time>
      </trkpt>
      <trkpt lat="47.28596" lon="-2.29624">
        <ele>16</ele>
        <time>2021-02-14T11:00:40.000Z</time>
      </trkpt>
      <trkpt lat="47.28593" lon="-2.29603">
        <ele>16</ele>
        <time>2021-02-14T11:00:46.000Z</time>
      </trkpt>
      <trkpt lat="47.28596" lon="-2.29574">
        <ele>16</ele>
        <time>2021-02-14T11:00:52.000Z</time>
      </trkpt>
      <trkpt lat="47.28597" lon="-2.29533">
        <ele>16.39999961853</ele>
        <time>2021-02-14T11:00:59.000Z</time>
      </trkpt>
      <trkpt lat="47.28597" lon="-2.29527">
        <ele>16.799999237061</ele>
        <time>2021-02-14T11:01:00.000Z</time>
      </trkpt>
      <trkpt lat="47.28596" lon="-2.29521">
        <ele>17.200000762939</ele>
        <time>2021-02-14T11:01:01.000Z</time>
      </trkpt>
      <trkpt lat="47.28595" lon="-2.29515">
        <ele>17.60000038147</ele>
        <time>2021-02-14T11:01:02.000Z</time>
      </trkpt>
      <trkpt lat="47.28595" lon="-2.29508">
        <ele>18</ele>
        <time>2021-02-14T11:01:03.000Z</time>
      </trkpt>
      <trkpt lat="47.28594" lon="-2.29502">
        <ele>18</ele>
        <time>2021-02-14T11:01:04.000Z</time>
      </trkpt>
      <trkpt lat="47.2859" lon="-2.29484">
        <ele>18</ele>
        <time>2021-02-14T11:01:07.000Z</time>
      </trkpt>
      <trkpt lat="47.28578" lon="-2.29448">
        <ele>18</ele>
        <time>2021-02-14T11:01:14.000Z</time>
      </trkpt>
      <trkpt lat="47.2856" lon="-2.29412">
        <ele>18</ele>
        <time>2021-02-14T11:01:21.000Z</time>
      </trkpt>
      <trkpt lat="47.2854" lon="-2.2936">
        <ele>18</ele>
        <time>2021-02-14T11:01:30.000Z</time>
      </trkpt>
      <trkpt lat="47.28518" lon="-2.29309">
        <ele>18</ele>
        <time>2021-02-14T11:01:39.000Z</time>
      </trkpt>
      <trkpt lat="47.28511" lon="-2.29303">
        <ele>18</ele>
        <time>2021-02-14T11:01:41.000Z</time>
      </trkpt>
      <trkpt lat="47.28502" lon="-2.29305">
        <ele>18</ele>
        <time>2021-02-14T11:01:43.000Z</time>
      </trkpt>
      <trkpt lat="47.28493" lon="-2.2931">
        <ele>18</ele>
        <time>2021-02-14T11:01:45.000Z</time>
      </trkpt>
      <trkpt lat="47.28481" lon="-2.29317">
        <ele>18</ele>
        <time>2021-02-14T11:01:48.000Z</time>
      </trkpt>
      <trkpt lat="47.2847" lon="-2.29324">
        <ele>18.39999961853</ele>
        <time>2021-02-14T11:01:51.000Z</time>
      </trkpt>
      <trkpt lat="47.28466" lon="-2.29325">
        <ele>18.799999237061</ele>
        <time>2021-02-14T11:01:52.000Z</time>
      </trkpt>
      <trkpt lat="47.28462" lon="-2.29326">
        <ele>19.200000762939</ele>
        <time>2021-02-14T11:01:53.000Z</time>
      </trkpt>
      <trkpt lat="47.28458" lon="-2.29327">
        <ele>19.60000038147</ele>
        <time>2021-02-14T11:01:54.000Z</time>
      </trkpt>
      <trkpt lat="47.28455" lon="-2.29328">
        <ele>20</ele>
        <time>2021-02-14T11:01:55.000Z</time>
      </trkpt>
      <trkpt lat="47.28432" lon="-2.29337">
        <ele>20</ele>
        <time>2021-02-14T11:02:01.000Z</time>
      </trkpt>
      <trkpt lat="47.28428" lon="-2.29339">
        <ele>20.39999961853</ele>
        <time>2021-02-14T11:02:02.000Z</time>
      </trkpt>
      <trkpt lat="47.28425" lon="-2.2934">
        <ele>20.799999237061</ele>
        <time>2021-02-14T11:02:03.000Z</time>
      </trkpt>
      <trkpt lat="47.28421" lon="-2.29342">
        <ele>21.39999961853</ele>
        <time>2021-02-14T11:02:04.000Z</time>
      </trkpt>
      <trkpt lat="47.28418" lon="-2.29344">
        <ele>21.799999237061</ele>
        <time>2021-02-14T11:02:05.000Z</time>
      </trkpt>
      <trkpt lat="47.28415" lon="-2.29345">
        <ele>22.200000762939</ele>
        <time>2021-02-14T11:02:06.000Z</time>
      </trkpt>
      <trkpt lat="47.28404" lon="-2.29351">
        <ele>22.200000762939</ele>
        <time>2021-02-14T11:02:09.000Z</time>
      </trkpt>
      <trkpt lat="47.28374" lon="-2.29372">
        <ele>22.200000762939</ele>
        <time>2021-02-14T11:02:18.000Z</time>
      </trkpt>
      <trkpt lat="47.28344" lon="-2.29398">
        <ele>22.200000762939</ele>
        <time>2021-02-14T11:02:26.000Z</time>
      </trkpt>
      <trkpt lat="47.28331" lon="-2.29412">
        <ele>22.200000762939</ele>
        <time>2021-02-14T11:02:29.000Z</time>
      </trkpt>
      <trkpt lat="47.28317" lon="-2.29426">
        <ele>22.200000762939</ele>
        <time>2021-02-14T11:02:32.000Z</time>
      </trkpt>
      <trkpt lat="47.2828" lon="-2.29458">
        <ele>22.200000762939</ele>
        <time>2021-02-14T11:02:40.000Z</time>
      </trkpt>
      <trkpt lat="47.28251" lon="-2.29477">
        <ele>22.200000762939</ele>
        <time>2021-02-14T11:02:46.000Z</time>
      </trkpt>
      <trkpt lat="47.28221" lon="-2.29493">
        <ele>22.60000038147</ele>
        <time>2021-02-14T11:02:52.000Z</time>
      </trkpt>
      <trkpt lat="47.28216" lon="-2.29495">
        <ele>23</ele>
        <time>2021-02-14T11:02:53.000Z</time>
      </trkpt>
      <trkpt lat="47.28211" lon="-2.29498">
        <ele>23.39999961853</ele>
        <time>2021-02-14T11:02:54.000Z</time>
      </trkpt>
      <trkpt lat="47.28207" lon="-2.295">
        <ele>23.799999237061</ele>
        <time>2021-02-14T11:02:55.000Z</time>
      </trkpt>
      <trkpt lat="47.28203" lon="-2.29503">
        <ele>24.200000762939</ele>
        <time>2021-02-14T11:02:56.000Z</time>
      </trkpt>
      <trkpt lat="47.2819" lon="-2.29509">
        <ele>24.200000762939</ele>
        <time>2021-02-14T11:02:59.000Z</time>
      </trkpt>
      <trkpt lat="47.28181" lon="-2.29513">
        <ele>24.60000038147</ele>
        <time>2021-02-14T11:03:01.000Z</time>
      </trkpt>
      <trkpt lat="47.28176" lon="-2.29514">
        <ele>25.200000762939</ele>
        <time>2021-02-14T11:03:02.000Z</time>
      </trkpt>
      <trkpt lat="47.28172" lon="-2.29515">
        <ele>25.60000038147</ele>
        <time>2021-02-14T11:03:03.000Z</time>
      </trkpt>
      <trkpt lat="47.28167" lon="-2.29517">
        <ele>26</ele>
        <time>2021-02-14T11:03:04.000Z</time>
      </trkpt>
      <trkpt lat="47.28162" lon="-2.29519">
        <ele>26.39999961853</ele>
        <time>2021-02-14T11:03:05.000Z</time>
      </trkpt>
      <trkpt lat="47.28153" lon="-2.29522">
        <ele>26.39999961853</ele>
        <time>2021-02-14T11:03:07.000Z</time>
      </trkpt>
      <trkpt lat="47.28122" lon="-2.29536">
        <ele>26.39999961853</ele>
        <time>2021-02-14T11:03:14.000Z</time>
      </trkpt>
      <trkpt lat="47.28108" lon="-2.29541">
        <ele>26.39999961853</ele>
        <time>2021-02-14T11:03:17.000Z</time>
      </trkpt>
      <trkpt lat="47.28099" lon="-2.29545">
        <ele>26.799999237061</ele>
        <time>2021-02-14T11:03:19.000Z</time>
      </trkpt>
      <trkpt lat="47.28093" lon="-2.29547">
        <ele>27.200000762939</ele>
        <time>2021-02-14T11:03:20.000Z</time>
      </trkpt>
      <trkpt lat="47.28088" lon="-2.29549">
        <ele>27.60000038147</ele>
        <time>2021-02-14T11:03:21.000Z</time>
      </trkpt>
      <trkpt lat="47.28083" lon="-2.29551">
        <ele>28</ele>
        <time>2021-02-14T11:03:22.000Z</time>
      </trkpt>
      <trkpt lat="47.28078" lon="-2.29553">
        <ele>28.60000038147</ele>
        <time>2021-02-14T11:03:23.000Z</time>
      </trkpt>
      <trkpt lat="47.28056" lon="-2.29563">
        <ele>28.60000038147</ele>
        <time>2021-02-14T11:03:27.000Z</time>
      </trkpt>
      <trkpt lat="47.28013" lon="-2.29581">
        <ele>28.60000038147</ele>
        <time>2021-02-14T11:03:35.000Z</time>
      </trkpt>
      <trkpt lat="47.28002" lon="-2.29585">
        <ele>28.60000038147</ele>
        <time>2021-02-14T11:03:37.000Z</time>
      </trkpt>
      <trkpt lat="47.27964" lon="-2.29596">
        <ele>28.60000038147</ele>
        <time>2021-02-14T11:03:44.000Z</time>
      </trkpt>
      <trkpt lat="47.27918" lon="-2.29597">
        <ele>28.60000038147</ele>
        <time>2021-02-14T11:03:52.000Z</time>
      </trkpt>
      <trkpt lat="47.27879" lon="-2.29593">
        <ele>28.60000038147</ele>
        <time>2021-02-14T11:03:59.000Z</time>
      </trkpt>
      <trkpt lat="47.27865" lon="-2.29593">
        <ele>28</ele>
        <time>2021-02-14T11:04:02.000Z</time>
      </trkpt>
      <trkpt lat="47.27861" lon="-2.29593">
        <ele>27.60000038147</ele>
        <time>2021-02-14T11:04:03.000Z</time>
      </trkpt>
      <trkpt lat="47.27858" lon="-2.29594">
        <ele>27.200000762939</ele>
        <time>2021-02-14T11:04:04.000Z</time>
      </trkpt>
      <trkpt lat="47.27856" lon="-2.29595">
        <ele>26.799999237061</ele>
        <time>2021-02-14T11:04:05.000Z</time>
      </trkpt>
      <trkpt lat="47.27855" lon="-2.29597">
        <ele>26.39999961853</ele>
        <time>2021-02-14T11:04:06.000Z</time>
      </trkpt>
      <trkpt lat="47.27851" lon="-2.29597">
        <ele>26.39999961853</ele>
        <time>2021-02-14T11:04:08.000Z</time>
      </trkpt>
      <trkpt lat="47.27841" lon="-2.29593">
        <ele>26.39999961853</ele>
        <time>2021-02-14T11:04:11.000Z</time>
      </trkpt>
      <trkpt lat="47.27837" lon="-2.29593">
        <ele>26.39999961853</ele>
        <time>2021-02-14T11:04:12.000Z</time>
      </trkpt>
      <trkpt lat="47.27828" lon="-2.29592">
        <ele>26.39999961853</ele>
        <time>2021-02-14T11:04:14.000Z</time>
      </trkpt>
      <trkpt lat="47.27808" lon="-2.29592">
        <ele>26.39999961853</ele>
        <time>2021-02-14T11:04:18.000Z</time>
      </trkpt>
      <trkpt lat="47.27767" lon="-2.29593">
        <ele>26.39999961853</ele>
        <time>2021-02-14T11:04:26.000Z</time>
      </trkpt>
      <trkpt lat="47.27729" lon="-2.29593">
        <ele>26.39999961853</ele>
        <time>2021-02-14T11:04:33.000Z</time>
      </trkpt>
      <trkpt lat="47.27724" lon="-2.29593">
        <ele>26</ele>
        <time>2021-02-14T11:04:34.000Z</time>
      </trkpt>
      <trkpt lat="47.27718" lon="-2.29593">
        <ele>25.60000038147</ele>
        <time>2021-02-14T11:04:35.000Z</time>
      </trkpt>
      <trkpt lat="47.27713" lon="-2.29593">
        <ele>25.200000762939</ele>
        <time>2021-02-14T11:04:36.000Z</time>
      </trkpt>
      <trkpt lat="47.27708" lon="-2.29593">
        <ele>24.799999237061</ele>
        <time>2021-02-14T11:04:37.000Z</time>
      </trkpt>
      <trkpt lat="47.27702" lon="-2.29593">
        <ele>24.39999961853</ele>
        <time>2021-02-14T11:04:38.000Z</time>
      </trkpt>
      <trkpt lat="47.27685" lon="-2.29592">
        <ele>24.39999961853</ele>
        <time>2021-02-14T11:04:41.000Z</time>
      </trkpt>
      <trkpt lat="47.2765" lon="-2.29594">
        <ele>24.39999961853</ele>
        <time>2021-02-14T11:04:48.000Z</time>
      </trkpt>
      <trkpt lat="47.27603" lon="-2.29594">
        <ele>24.39999961853</ele>
        <time>2021-02-14T11:04:57.000Z</time>
      </trkpt>
      <trkpt lat="47.27557" lon="-2.29594">
        <ele>24.39999961853</ele>
        <time>2021-02-14T11:05:06.000Z</time>
      </trkpt>
      <trkpt lat="47.27527" lon="-2.29594">
        <ele>24.39999961853</ele>
        <time>2021-02-14T11:05:12.000Z</time>
      </trkpt>
      <trkpt lat="47.2749" lon="-2.29602">
        <ele>24.39999961853</ele>
        <time>2021-02-14T11:05:20.000Z</time>
      </trkpt>
      <trkpt lat="47.27454" lon="-2.29611">
        <ele>24.39999961853</ele>
        <time>2021-02-14T11:05:28.000Z</time>
      </trkpt>
      <trkpt lat="47.27412" lon="-2.29623">
        <ele>24.39999961853</ele>
        <time>2021-02-14T11:05:37.000Z</time>
      </trkpt>
      <trkpt lat="47.27383" lon="-2.2963">
        <ele>24.39999961853</ele>
        <time>2021-02-14T11:05:43.000Z</time>
      </trkpt>
      <trkpt lat="47.27379" lon="-2.29631">
        <ele>24.39999961853</ele>
        <time>2021-02-14T11:05:44.000Z</time>
      </trkpt>
      <trkpt lat="47.27341" lon="-2.29635">
        <ele>24.39999961853</ele>
        <time>2021-02-14T11:05:52.000Z</time>
      </trkpt>
      <trkpt lat="47.27302" lon="-2.2964">
        <ele>24.39999961853</ele>
        <time>2021-02-14T11:06:01.000Z</time>
      </trkpt>
      <trkpt lat="47.27272" lon="-2.29644">
        <ele>24.39999961853</ele>
        <time>2021-02-14T11:06:09.000Z</time>
      </trkpt>
      <trkpt lat="47.2725" lon="-2.29646">
        <ele>24.39999961853</ele>
        <time>2021-02-14T11:06:16.000Z</time>
      </trkpt>
      <trkpt lat="47.27221" lon="-2.29648">
        <ele>24.39999961853</ele>
        <time>2021-02-14T11:06:23.000Z</time>
      </trkpt>
      <trkpt lat="47.27177" lon="-2.29651">
        <ele>24.39999961853</ele>
        <time>2021-02-14T11:06:33.000Z</time>
      </trkpt>
      <trkpt lat="47.2715" lon="-2.29651">
        <ele>24.799999237061</ele>
        <time>2021-02-14T11:06:39.000Z</time>
      </trkpt>
      <trkpt lat="47.27145" lon="-2.29652">
        <ele>25.200000762939</ele>
        <time>2021-02-14T11:06:40.000Z</time>
      </trkpt>
      <trkpt lat="47.27141" lon="-2.29653">
        <ele>25.60000038147</ele>
        <time>2021-02-14T11:06:41.000Z</time>
      </trkpt>
      <trkpt lat="47.27136" lon="-2.29654">
        <ele>26</ele>
        <time>2021-02-14T11:06:42.000Z</time>
      </trkpt>
      <trkpt lat="47.27132" lon="-2.29655">
        <ele>26.39999961853</ele>
        <time>2021-02-14T11:06:43.000Z</time>
      </trkpt>
      <trkpt lat="47.27099" lon="-2.29666">
        <ele>26.39999961853</ele>
        <time>2021-02-14T11:06:50.000Z</time>
      </trkpt>
      <trkpt lat="47.27069" lon="-2.29685">
        <ele>26.39999961853</ele>
        <time>2021-02-14T11:06:57.000Z</time>
      </trkpt>
      <trkpt lat="47.2704" lon="-2.29705">
        <ele>26.39999961853</ele>
        <time>2021-02-14T11:07:04.000Z</time>
      </trkpt>
      <trkpt lat="47.27014" lon="-2.29729">
        <ele>26.39999961853</ele>
        <time>2021-02-14T11:07:10.000Z</time>
      </trkpt>
      <trkpt lat="47.26984" lon="-2.29772">
        <ele>26.799999237061</ele>
        <time>2021-02-14T11:07:18.000Z</time>
      </trkpt>
      <trkpt lat="47.2698" lon="-2.29778">
        <ele>27.200000762939</ele>
        <time>2021-02-14T11:07:19.000Z</time>
      </trkpt>
      <trkpt lat="47.26977" lon="-2.29783">
        <ele>27.60000038147</ele>
        <time>2021-02-14T11:07:20.000Z</time>
      </trkpt>
      <trkpt lat="47.26973" lon="-2.29789">
        <ele>28.200000762939</ele>
        <time>2021-02-14T11:07:21.000Z</time>
      </trkpt>
      <trkpt lat="47.26969" lon="-2.29794">
        <ele>28.60000038147</ele>
        <time>2021-02-14T11:07:22.000Z</time>
      </trkpt>
      <trkpt lat="47.26954" lon="-2.29818">
        <ele>28.60000038147</ele>
        <time>2021-02-14T11:07:26.000Z</time>
      </trkpt>
      <trkpt lat="47.26943" lon="-2.29834">
        <ele>28.60000038147</ele>
        <time>2021-02-14T11:07:29.000Z</time>
      </trkpt>
      <trkpt lat="47.26932" lon="-2.2985">
        <ele>28.60000038147</ele>
        <time>2021-02-14T11:07:32.000Z</time>
      </trkpt>
      <trkpt lat="47.269" lon="-2.29901">
        <ele>28.60000038147</ele>
        <time>2021-02-14T11:07:41.000Z</time>
      </trkpt>
      <trkpt lat="47.26877" lon="-2.29944">
        <ele>28.60000038147</ele>
        <time>2021-02-14T11:07:48.000Z</time>
      </trkpt>
      <trkpt lat="47.26855" lon="-2.29988">
        <ele>28.60000038147</ele>
        <time>2021-02-14T11:07:55.000Z</time>
      </trkpt>
      <trkpt lat="47.26833" lon="-2.3003">
        <ele>28.60000038147</ele>
        <time>2021-02-14T11:08:02.000Z</time>
      </trkpt>
      <trkpt lat="47.2683" lon="-2.30053">
        <ele>28.60000038147</ele>
        <time>2021-02-14T11:08:05.000Z</time>
      </trkpt>
      <trkpt lat="47.26835" lon="-2.30079">
        <ele>28.60000038147</ele>
        <time>2021-02-14T11:08:08.000Z</time>
      </trkpt>
      <trkpt lat="47.26838" lon="-2.30088">
        <ele>28.60000038147</ele>
        <time>2021-02-14T11:08:09.000Z</time>
      </trkpt>
      <trkpt lat="47.26853" lon="-2.30133">
        <ele>28.60000038147</ele>
        <time>2021-02-14T11:08:14.000Z</time>
      </trkpt>
      <trkpt lat="47.26876" lon="-2.30195">
        <ele>28.60000038147</ele>
        <time>2021-02-14T11:08:21.000Z</time>
      </trkpt>
      <trkpt lat="47.26878" lon="-2.30203">
        <ele>28.200000762939</ele>
        <time>2021-02-14T11:08:22.000Z</time>
      </trkpt>
      <trkpt lat="47.26881" lon="-2.30212">
        <ele>27.60000038147</ele>
        <time>2021-02-14T11:08:23.000Z</time>
      </trkpt>
      <trkpt lat="47.26883" lon="-2.30221">
        <ele>27.200000762939</ele>
        <time>2021-02-14T11:08:24.000Z</time>
      </trkpt>
      <trkpt lat="47.26885" lon="-2.30231">
        <ele>26.799999237061</ele>
        <time>2021-02-14T11:08:25.000Z</time>
      </trkpt>
      <trkpt lat="47.26887" lon="-2.3024">
        <ele>26.39999961853</ele>
        <time>2021-02-14T11:08:26.000Z</time>
      </trkpt>
      <trkpt lat="47.26891" lon="-2.30259">
        <ele>26.39999961853</ele>
        <time>2021-02-14T11:08:28.000Z</time>
      </trkpt>
      <trkpt lat="47.26898" lon="-2.3032">
        <ele>26.39999961853</ele>
        <time>2021-02-14T11:08:35.000Z</time>
      </trkpt>
      <trkpt lat="47.26906" lon="-2.30387">
        <ele>26.39999961853</ele>
        <time>2021-02-14T11:08:43.000Z</time>
      </trkpt>
      <trkpt lat="47.26907" lon="-2.30394">
        <ele>26.39999961853</ele>
        <time>2021-02-14T11:08:44.000Z</time>
      </trkpt>
      <trkpt lat="47.26909" lon="-2.30402">
        <ele>26</ele>
        <time>2021-02-14T11:08:45.000Z</time>
      </trkpt>
      <trkpt lat="47.26911" lon="-2.30409">
        <ele>25.60000038147</ele>
        <time>2021-02-14T11:08:46.000Z</time>
      </trkpt>
      <trkpt lat="47.26912" lon="-2.30417">
        <ele>24.799999237061</ele>
        <time>2021-02-14T11:08:47.000Z</time>
      </trkpt>
      <trkpt lat="47.26914" lon="-2.30424">
        <ele>24.39999961853</ele>
        <time>2021-02-14T11:08:48.000Z</time>
      </trkpt>
      <trkpt lat="47.26915" lon="-2.30432">
        <ele>24.39999961853</ele>
        <time>2021-02-14T11:08:49.000Z</time>
      </trkpt>
      <trkpt lat="47.26919" lon="-2.30464">
        <ele>24.39999961853</ele>
        <time>2021-02-14T11:08:53.000Z</time>
      </trkpt>
      <trkpt lat="47.26918" lon="-2.30481">
        <ele>24.39999961853</ele>
        <time>2021-02-14T11:08:55.000Z</time>
      </trkpt>
      <trkpt lat="47.26914" lon="-2.30516">
        <ele>24.39999961853</ele>
        <time>2021-02-14T11:08:59.000Z</time>
      </trkpt>
      <trkpt lat="47.26916" lon="-2.30534">
        <ele>24.39999961853</ele>
        <time>2021-02-14T11:09:01.000Z</time>
      </trkpt>
      <trkpt lat="47.26921" lon="-2.30559">
        <ele>24.39999961853</ele>
        <time>2021-02-14T11:09:04.000Z</time>
      </trkpt>
      <trkpt lat="47.26925" lon="-2.30575">
        <ele>24.39999961853</ele>
        <time>2021-02-14T11:09:06.000Z</time>
      </trkpt>
      <trkpt lat="47.26927" lon="-2.30584">
        <ele>24.39999961853</ele>
        <time>2021-02-14T11:09:07.000Z</time>
      </trkpt>
      <trkpt lat="47.26927" lon="-2.30609">
        <ele>24.39999961853</ele>
        <time>2021-02-14T11:09:10.000Z</time>
      </trkpt>
      <trkpt lat="47.26917" lon="-2.30639">
        <ele>24.39999961853</ele>
        <time>2021-02-14T11:09:14.000Z</time>
      </trkpt>
      <trkpt lat="47.26905" lon="-2.30653">
        <ele>24.39999961853</ele>
        <time>2021-02-14T11:09:17.000Z</time>
      </trkpt>
      <trkpt lat="47.26902" lon="-2.30657">
        <ele>24.39999961853</ele>
        <time>2021-02-14T11:09:18.000Z</time>
      </trkpt>
      <trkpt lat="47.26877" lon="-2.30685">
        <ele>24.39999961853</ele>
        <time>2021-02-14T11:09:24.000Z</time>
      </trkpt>
      <trkpt lat="47.26857" lon="-2.30723">
        <ele>24.39999961853</ele>
        <time>2021-02-14T11:09:30.000Z</time>
      </trkpt>
      <trkpt lat="47.26841" lon="-2.30766">
        <ele>24.39999961853</ele>
        <time>2021-02-14T11:09:36.000Z</time>
      </trkpt>
      <trkpt lat="47.26835" lon="-2.3079">
        <ele>24.39999961853</ele>
        <time>2021-02-14T11:09:39.000Z</time>
      </trkpt>
      <trkpt lat="47.26833" lon="-2.30806">
        <ele>24.39999961853</ele>
        <time>2021-02-14T11:09:41.000Z</time>
      </trkpt>
      <trkpt lat="47.26832" lon="-2.30822">
        <ele>24.39999961853</ele>
        <time>2021-02-14T11:09:43.000Z</time>
      </trkpt>
      <trkpt lat="47.26832" lon="-2.30838">
        <ele>24.39999961853</ele>
        <time>2021-02-14T11:09:45.000Z</time>
      </trkpt>
      <trkpt lat="47.26832" lon="-2.30846">
        <ele>24.39999961853</ele>
        <time>2021-02-14T11:09:46.000Z</time>
      </trkpt>
      <trkpt lat="47.26838" lon="-2.30909">
        <ele>24.39999961853</ele>
        <time>2021-02-14T11:09:54.000Z</time>
      </trkpt>
      <trkpt lat="47.26848" lon="-2.30968">
        <ele>24.39999961853</ele>
        <time>2021-02-14T11:10:02.000Z</time>
      </trkpt>
      <trkpt lat="47.26853" lon="-2.31013">
        <ele>24.39999961853</ele>
        <time>2021-02-14T11:10:08.000Z</time>
      </trkpt>
      <trkpt lat="47.26855" lon="-2.31065">
        <ele>24.39999961853</ele>
        <time>2021-02-14T11:10:15.000Z</time>
      </trkpt>
      <trkpt lat="47.26858" lon="-2.31088">
        <ele>24.39999961853</ele>
        <time>2021-02-14T11:10:20.000Z</time>
      </trkpt>
      <trkpt lat="47.26857" lon="-2.31115">
        <ele>24.39999961853</ele>
        <time>2021-02-14T11:10:25.000Z</time>
      </trkpt>
      <trkpt lat="47.26855" lon="-2.31167">
        <ele>24.39999961853</ele>
        <time>2021-02-14T11:10:33.000Z</time>
      </trkpt>
      <trkpt lat="47.26852" lon="-2.31225">
        <ele>24.39999961853</ele>
        <time>2021-02-14T11:10:41.000Z</time>
      </trkpt>
      <trkpt lat="47.26851" lon="-2.31245">
        <ele>24.39999961853</ele>
        <time>2021-02-14T11:10:44.000Z</time>
      </trkpt>
      <trkpt lat="47.26851" lon="-2.31259">
        <ele>24.39999961853</ele>
        <time>2021-02-14T11:10:46.000Z</time>
      </trkpt>
      <trkpt lat="47.26842" lon="-2.31308">
        <ele>24.39999961853</ele>
        <time>2021-02-14T11:10:53.000Z</time>
      </trkpt>
      <trkpt lat="47.2683" lon="-2.31349">
        <ele>24.39999961853</ele>
        <time>2021-02-14T11:10:59.000Z</time>
      </trkpt>
      <trkpt lat="47.26829" lon="-2.31362">
        <ele>24.39999961853</ele>
        <time>2021-02-14T11:11:01.000Z</time>
      </trkpt>
      <trkpt lat="47.26832" lon="-2.31388">
        <ele>24.39999961853</ele>
        <time>2021-02-14T11:11:05.000Z</time>
      </trkpt>
      <trkpt lat="47.26834" lon="-2.31394">
        <ele>24.39999961853</ele>
        <time>2021-02-14T11:11:06.000Z</time>
      </trkpt>
      <trkpt lat="47.26837" lon="-2.31407">
        <ele>24.39999961853</ele>
        <time>2021-02-14T11:11:08.000Z</time>
      </trkpt>
      <trkpt lat="47.26847" lon="-2.31435">
        <ele>24.39999961853</ele>
        <time>2021-02-14T11:11:12.000Z</time>
      </trkpt>
      <trkpt lat="47.26849" lon="-2.31442">
        <ele>24.39999961853</ele>
        <time>2021-02-14T11:11:13.000Z</time>
      </trkpt>
      <trkpt lat="47.26861" lon="-2.31484">
        <ele>24.39999961853</ele>
        <time>2021-02-14T11:11:18.000Z</time>
      </trkpt>
      <trkpt lat="47.26867" lon="-2.31521">
        <ele>23.799999237061</ele>
        <time>2021-02-14T11:11:22.000Z</time>
      </trkpt>
      <trkpt lat="47.26868" lon="-2.31531">
        <ele>23.39999961853</ele>
        <time>2021-02-14T11:11:23.000Z</time>
      </trkpt>
      <trkpt lat="47.2687" lon="-2.31541">
        <ele>23</ele>
        <time>2021-02-14T11:11:24.000Z</time>
      </trkpt>
      <trkpt lat="47.26871" lon="-2.31552">
        <ele>22.60000038147</ele>
        <time>2021-02-14T11:11:25.000Z</time>
      </trkpt>
      <trkpt lat="47.26873" lon="-2.31563">
        <ele>22.200000762939</ele>
        <time>2021-02-14T11:11:26.000Z</time>
      </trkpt>
      <trkpt lat="47.26881" lon="-2.31619">
        <ele>21.799999237061</ele>
        <time>2021-02-14T11:11:31.000Z</time>
      </trkpt>
      <trkpt lat="47.26882" lon="-2.31631">
        <ele>21.39999961853</ele>
        <time>2021-02-14T11:11:32.000Z</time>
      </trkpt>
      <trkpt lat="47.26884" lon="-2.31643">
        <ele>21</ele>
        <time>2021-02-14T11:11:33.000Z</time>
      </trkpt>
      <trkpt lat="47.26886" lon="-2.31654">
        <ele>20.60000038147</ele>
        <time>2021-02-14T11:11:34.000Z</time>
      </trkpt>
      <trkpt lat="47.26887" lon="-2.31666">
        <ele>20.200000762939</ele>
        <time>2021-02-14T11:11:35.000Z</time>
      </trkpt>
      <trkpt lat="47.26889" lon="-2.31678">
        <ele>19.799999237061</ele>
        <time>2021-02-14T11:11:36.000Z</time>
      </trkpt>
      <trkpt lat="47.26891" lon="-2.3169">
        <ele>19.200000762939</ele>
        <time>2021-02-14T11:11:37.000Z</time>
      </trkpt>
      <trkpt lat="47.26892" lon="-2.31702">
        <ele>18.799999237061</ele>
        <time>2021-02-14T11:11:38.000Z</time>
      </trkpt>
      <trkpt lat="47.26893" lon="-2.31714">
        <ele>18.39999961853</ele>
        <time>2021-02-14T11:11:39.000Z</time>
      </trkpt>
      <trkpt lat="47.26893" lon="-2.31727">
        <ele>18</ele>
        <time>2021-02-14T11:11:40.000Z</time>
      </trkpt>
      <trkpt lat="47.26889" lon="-2.31749">
        <ele>18</ele>
        <time>2021-02-14T11:11:42.000Z</time>
      </trkpt>
      <trkpt lat="47.26875" lon="-2.31774">
        <ele>18</ele>
        <time>2021-02-14T11:11:45.000Z</time>
      </trkpt>
      <trkpt lat="47.26852" lon="-2.31792">
        <ele>17.60000038147</ele>
        <time>2021-02-14T11:11:49.000Z</time>
      </trkpt>
      <trkpt lat="47.26846" lon="-2.31794">
        <ele>17.200000762939</ele>
        <time>2021-02-14T11:11:50.000Z</time>
      </trkpt>
      <trkpt lat="47.2684" lon="-2.31797">
        <ele>16.60000038147</ele>
        <time>2021-02-14T11:11:51.000Z</time>
      </trkpt>
      <trkpt lat="47.26834" lon="-2.318">
        <ele>16.200000762939</ele>
        <time>2021-02-14T11:11:52.000Z</time>
      </trkpt>
      <trkpt lat="47.26828" lon="-2.31803">
        <ele>15.800000190735</ele>
        <time>2021-02-14T11:11:53.000Z</time>
      </trkpt>
      <trkpt lat="47.26811" lon="-2.31811">
        <ele>15.800000190735</ele>
        <time>2021-02-14T11:11:56.000Z</time>
      </trkpt>
      <trkpt lat="47.26768" lon="-2.31836">
        <ele>15.800000190735</ele>
        <time>2021-02-14T11:12:04.000Z</time>
      </trkpt>
      <trkpt lat="47.26764" lon="-2.3184">
        <ele>15.800000190735</ele>
        <time>2021-02-14T11:12:05.000Z</time>
      </trkpt>
      <trkpt lat="47.26749" lon="-2.31852">
        <ele>15.800000190735</ele>
        <time>2021-02-14T11:12:09.000Z</time>
      </trkpt>
      <trkpt lat="47.26737" lon="-2.31867">
        <ele>15.800000190735</ele>
        <time>2021-02-14T11:12:13.000Z</time>
      </trkpt>
      <trkpt lat="47.26737" lon="-2.31872">
        <ele>15.800000190735</ele>
        <time>2021-02-14T11:12:14.000Z</time>
      </trkpt>
      <trkpt lat="47.26743" lon="-2.3189">
        <ele>15.800000190735</ele>
        <time>2021-02-14T11:12:17.000Z</time>
      </trkpt>
      <trkpt lat="47.26761" lon="-2.31929">
        <ele>15.800000190735</ele>
        <time>2021-02-14T11:12:23.000Z</time>
      </trkpt>
      <trkpt lat="47.26763" lon="-2.31934">
        <ele>15.39999961853</ele>
        <time>2021-02-14T11:12:24.000Z</time>
      </trkpt>
      <trkpt lat="47.26764" lon="-2.31939">
        <ele>15</ele>
        <time>2021-02-14T11:12:25.000Z</time>
      </trkpt>
      <trkpt lat="47.26764" lon="-2.31943">
        <ele>14.60000038147</ele>
        <time>2021-02-14T11:12:26.000Z</time>
      </trkpt>
      <trkpt lat="47.26763" lon="-2.31948">
        <ele>14</ele>
        <time>2021-02-14T11:12:27.000Z</time>
      </trkpt>
      <trkpt lat="47.26761" lon="-2.31952">
        <ele>13.60000038147</ele>
        <time>2021-02-14T11:12:28.000Z</time>
      </trkpt>
      <trkpt lat="47.26756" lon="-2.31961">
        <ele>13.60000038147</ele>
        <time>2021-02-14T11:12:30.000Z</time>
      </trkpt>
      <trkpt lat="47.26751" lon="-2.31969">
        <ele>13.60000038147</ele>
        <time>2021-02-14T11:12:32.000Z</time>
      </trkpt>
      <trkpt lat="47.26742" lon="-2.31978">
        <ele>13.60000038147</ele>
        <time>2021-02-14T11:12:35.000Z</time>
      </trkpt>
      <trkpt lat="47.26725" lon="-2.31992">
        <ele>13.60000038147</ele>
        <time>2021-02-14T11:12:41.000Z</time>
      </trkpt>
      <trkpt lat="47.26706" lon="-2.32002">
        <ele>13.60000038147</ele>
        <time>2021-02-14T11:12:48.000Z</time>
      </trkpt>
      <trkpt lat="47.267" lon="-2.32011">
        <ele>13.60000038147</ele>
        <time>2021-02-14T11:12:52.000Z</time>
      </trkpt>
      <trkpt lat="47.26699" lon="-2.32013">
        <ele>13.60000038147</ele>
        <time>2021-02-14T11:12:53.000Z</time>
      </trkpt>
      <trkpt lat="47.26697" lon="-2.32017">
        <ele>14</ele>
        <time>2021-02-14T11:12:54.000Z</time>
      </trkpt>
      <trkpt lat="47.26696" lon="-2.3202">
        <ele>14.800000190735</ele>
        <time>2021-02-14T11:12:55.000Z</time>
      </trkpt>
      <trkpt lat="47.26694" lon="-2.32025">
        <ele>15.39999961853</ele>
        <time>2021-02-14T11:12:56.000Z</time>
      </trkpt>
      <trkpt lat="47.26692" lon="-2.32029">
        <ele>15.800000190735</ele>
        <time>2021-02-14T11:12:57.000Z</time>
      </trkpt>
      <trkpt lat="47.26689" lon="-2.32047">
        <ele>15.800000190735</ele>
        <time>2021-02-14T11:13:01.000Z</time>
      </trkpt>
      <trkpt lat="47.26689" lon="-2.32051">
        <ele>15.800000190735</ele>
        <time>2021-02-14T11:13:02.000Z</time>
      </trkpt>
      <trkpt lat="47.26688" lon="-2.32079">
        <ele>15.800000190735</ele>
        <time>2021-02-14T11:13:07.000Z</time>
      </trkpt>
      <trkpt lat="47.26686" lon="-2.32119">
        <ele>15.800000190735</ele>
        <time>2021-02-14T11:13:14.000Z</time>
      </trkpt>
      <trkpt lat="47.26686" lon="-2.32149">
        <ele>15.800000190735</ele>
        <time>2021-02-14T11:13:19.000Z</time>
      </trkpt>
      <trkpt lat="47.26687" lon="-2.32155">
        <ele>15.800000190735</ele>
        <time>2021-02-14T11:13:20.000Z</time>
      </trkpt>
      <trkpt lat="47.26695" lon="-2.32187">
        <ele>15.800000190735</ele>
        <time>2021-02-14T11:13:25.000Z</time>
      </trkpt>
      <trkpt lat="47.26699" lon="-2.32208">
        <ele>15.800000190735</ele>
        <time>2021-02-14T11:13:28.000Z</time>
      </trkpt>
      <trkpt lat="47.26699" lon="-2.32222">
        <ele>15.800000190735</ele>
        <time>2021-02-14T11:13:30.000Z</time>
      </trkpt>
      <trkpt lat="47.26691" lon="-2.32249">
        <ele>15.800000190735</ele>
        <time>2021-02-14T11:13:34.000Z</time>
      </trkpt>
      <trkpt lat="47.2669" lon="-2.32273">
        <ele>15.800000190735</ele>
        <time>2021-02-14T11:13:37.000Z</time>
      </trkpt>
      <trkpt lat="47.26694" lon="-2.3229">
        <ele>15.800000190735</ele>
        <time>2021-02-14T11:13:39.000Z</time>
      </trkpt>
      <trkpt lat="47.267" lon="-2.32316">
        <ele>15.800000190735</ele>
        <time>2021-02-14T11:13:42.000Z</time>
      </trkpt>
      <trkpt lat="47.26717" lon="-2.32366">
        <ele>15.39999961853</ele>
        <time>2021-02-14T11:13:48.000Z</time>
      </trkpt>
      <trkpt lat="47.2672" lon="-2.32373">
        <ele>15</ele>
        <time>2021-02-14T11:13:49.000Z</time>
      </trkpt>
      <trkpt lat="47.26723" lon="-2.32378">
        <ele>14.60000038147</ele>
        <time>2021-02-14T11:13:50.000Z</time>
      </trkpt>
      <trkpt lat="47.26728" lon="-2.32382">
        <ele>14.199999809265</ele>
        <time>2021-02-14T11:13:51.000Z</time>
      </trkpt>
      <trkpt lat="47.26733" lon="-2.32384">
        <ele>13.800000190735</ele>
        <time>2021-02-14T11:13:52.000Z</time>
      </trkpt>
      <trkpt lat="47.26748" lon="-2.32379">
        <ele>13.800000190735</ele>
        <time>2021-02-14T11:13:55.000Z</time>
      </trkpt>
      <trkpt lat="47.2677" lon="-2.32372">
        <ele>13.800000190735</ele>
        <time>2021-02-14T11:14:00.000Z</time>
      </trkpt>
      <trkpt lat="47.26775" lon="-2.32374">
        <ele>13.800000190735</ele>
        <time>2021-02-14T11:14:01.000Z</time>
      </trkpt>
      <trkpt lat="47.2678" lon="-2.32392">
        <ele>13.800000190735</ele>
        <time>2021-02-14T11:14:04.000Z</time>
      </trkpt>
      <trkpt lat="47.26781" lon="-2.32399">
        <ele>13.800000190735</ele>
        <time>2021-02-14T11:14:05.000Z</time>
      </trkpt>
      <trkpt lat="47.26782" lon="-2.32406">
        <ele>13.800000190735</ele>
        <time>2021-02-14T11:14:06.000Z</time>
      </trkpt>
      <trkpt lat="47.26789" lon="-2.32438">
        <ele>13.800000190735</ele>
        <time>2021-02-14T11:14:10.000Z</time>
      </trkpt>
      <trkpt lat="47.26791" lon="-2.32446">
        <ele>13.800000190735</ele>
        <time>2021-02-14T11:14:11.000Z</time>
      </trkpt>
      <trkpt lat="47.26795" lon="-2.32482">
        <ele>13.800000190735</ele>
        <time>2021-02-14T11:14:15.000Z</time>
      </trkpt>
      <trkpt lat="47.26801" lon="-2.32552">
        <ele>13.199999809265</ele>
        <time>2021-02-14T11:14:22.000Z</time>
      </trkpt>
      <trkpt lat="47.26801" lon="-2.32563">
        <ele>12.800000190735</ele>
        <time>2021-02-14T11:14:23.000Z</time>
      </trkpt>
      <trkpt lat="47.26802" lon="-2.32573">
        <ele>12.39999961853</ele>
        <time>2021-02-14T11:14:24.000Z</time>
      </trkpt>
      <trkpt lat="47.26803" lon="-2.32583">
        <ele>12</ele>
        <time>2021-02-14T11:14:25.000Z</time>
      </trkpt>
      <trkpt lat="47.26804" lon="-2.32592">
        <ele>11.60000038147</ele>
        <time>2021-02-14T11:14:26.000Z</time>
      </trkpt>
      <trkpt lat="47.26805" lon="-2.32602">
        <ele>11.60000038147</ele>
        <time>2021-02-14T11:14:27.000Z</time>
      </trkpt>
      <trkpt lat="47.26812" lon="-2.3266">
        <ele>11.60000038147</ele>
        <time>2021-02-14T11:14:34.000Z</time>
      </trkpt>
      <trkpt lat="47.26804" lon="-2.32679">
        <ele>11.60000038147</ele>
        <time>2021-02-14T11:14:37.000Z</time>
      </trkpt>
      <trkpt lat="47.26806" lon="-2.32701">
        <ele>11.60000038147</ele>
        <time>2021-02-14T11:14:40.000Z</time>
      </trkpt>
      <trkpt lat="47.26812" lon="-2.32714">
        <ele>11.60000038147</ele>
        <time>2021-02-14T11:14:42.000Z</time>
      </trkpt>
      <trkpt lat="47.26816" lon="-2.32721">
        <ele>11.60000038147</ele>
        <time>2021-02-14T11:14:43.000Z</time>
      </trkpt>
      <trkpt lat="47.26819" lon="-2.32729">
        <ele>11.60000038147</ele>
        <time>2021-02-14T11:14:44.000Z</time>
      </trkpt>
      <trkpt lat="47.26822" lon="-2.32735">
        <ele>11.60000038147</ele>
        <time>2021-02-14T11:14:45.000Z</time>
      </trkpt>
      <trkpt lat="47.26832" lon="-2.32757">
        <ele>11.199999809265</ele>
        <time>2021-02-14T11:14:48.000Z</time>
      </trkpt>
      <trkpt lat="47.26835" lon="-2.32764">
        <ele>10.800000190735</ele>
        <time>2021-02-14T11:14:49.000Z</time>
      </trkpt>
      <trkpt lat="47.26837" lon="-2.32771">
        <ele>10.39999961853</ele>
        <time>2021-02-14T11:14:50.000Z</time>
      </trkpt>
      <trkpt lat="47.26839" lon="-2.32778">
        <ele>9.8000001907349</ele>
        <time>2021-02-14T11:14:51.000Z</time>
      </trkpt>
      <trkpt lat="47.26841" lon="-2.32785">
        <ele>9.1999998092651</ele>
        <time>2021-02-14T11:14:52.000Z</time>
      </trkpt>
      <trkpt lat="47.26844" lon="-2.32792">
        <ele>8.8000001907349</ele>
        <time>2021-02-14T11:14:53.000Z</time>
      </trkpt>
      <trkpt lat="47.26846" lon="-2.328">
        <ele>8.1999998092651</ele>
        <time>2021-02-14T11:14:54.000Z</time>
      </trkpt>
      <trkpt lat="47.26848" lon="-2.32807">
        <ele>7.5999999046326</ele>
        <time>2021-02-14T11:14:55.000Z</time>
      </trkpt>
      <trkpt lat="47.2685" lon="-2.32814">
        <ele>7</ele>
        <time>2021-02-14T11:14:56.000Z</time>
      </trkpt>
      <trkpt lat="47.26853" lon="-2.32821">
        <ele>6.5999999046326</ele>
        <time>2021-02-14T11:14:57.000Z</time>
      </trkpt>
      <trkpt lat="47.26855" lon="-2.32828">
        <ele>5.4000000953674</ele>
        <time>2021-02-14T11:14:58.000Z</time>
      </trkpt>
      <trkpt lat="47.26858" lon="-2.32836">
        <ele>4.8000001907349</ele>
        <time>2021-02-14T11:14:59.000Z</time>
      </trkpt>
      <trkpt lat="47.26861" lon="-2.32844">
        <ele>4.1999998092651</ele>
        <time>2021-02-14T11:15:00.000Z</time>
      </trkpt>
      <trkpt lat="47.26863" lon="-2.32852">
        <ele>3.5999999046326</ele>
        <time>2021-02-14T11:15:01.000Z</time>
      </trkpt>
      <trkpt lat="47.26866" lon="-2.32859">
        <ele>3</ele>
        <time>2021-02-14T11:15:02.000Z</time>
      </trkpt>
      <trkpt lat="47.26867" lon="-2.32866">
        <ele>2.2000000476837</ele>
        <time>2021-02-14T11:15:03.000Z</time>
      </trkpt>
      <trkpt lat="47.26865" lon="-2.32872">
        <ele>1.6000000238419</ele>
        <time>2021-02-14T11:15:04.000Z</time>
      </trkpt>
      <trkpt lat="47.26862" lon="-2.32876">
        <ele>0.80000001192093</ele>
        <time>2021-02-14T11:15:05.000Z</time>
      </trkpt>
      <trkpt lat="47.26858" lon="-2.32878">
        <ele>0.40000000596046</ele>
        <time>2021-02-14T11:15:06.000Z</time>
      </trkpt>
      <trkpt lat="47.26854" lon="-2.32879">
        <ele>-0.20000000298023</ele>
        <time>2021-02-14T11:15:07.000Z</time>
      </trkpt>
      <trkpt lat="47.26849" lon="-2.32881">
        <ele>-0.80000001192093</ele>
        <time>2021-02-14T11:15:08.000Z</time>
      </trkpt>
      <trkpt lat="47.26844" lon="-2.32883">
        <ele>-1.3999999761581</ele>
        <time>2021-02-14T11:15:09.000Z</time>
      </trkpt>
      <trkpt lat="47.26839" lon="-2.32884">
        <ele>-1.7999999523163</ele>
        <time>2021-02-14T11:15:10.000Z</time>
      </trkpt>
      <trkpt lat="47.26834" lon="-2.32887">
        <ele>-1.7999999523163</ele>
        <time>2021-02-14T11:15:11.000Z</time>
      </trkpt>
      <trkpt lat="47.26824" lon="-2.32893">
        <ele>-1.7999999523163</ele>
        <time>2021-02-14T11:15:13.000Z</time>
      </trkpt>
      <trkpt lat="47.26816" lon="-2.32903">
        <ele>-1.7999999523163</ele>
        <time>2021-02-14T11:15:15.000Z</time>
      </trkpt>
      <trkpt lat="47.26807" lon="-2.32912">
        <ele>-1.7999999523163</ele>
        <time>2021-02-14T11:15:17.000Z</time>
      </trkpt>
      <trkpt lat="47.26802" lon="-2.32916">
        <ele>-1.7999999523163</ele>
        <time>2021-02-14T11:15:18.000Z</time>
      </trkpt>
      <trkpt lat="47.26782" lon="-2.3293">
        <ele>-1.7999999523163</ele>
        <time>2021-02-14T11:15:22.000Z</time>
      </trkpt>
      <trkpt lat="47.26778" lon="-2.32934">
        <ele>-1.7999999523163</ele>
        <time>2021-02-14T11:15:23.000Z</time>
      </trkpt>
      <trkpt lat="47.26748" lon="-2.3297">
        <ele>-1.7999999523163</ele>
        <time>2021-02-14T11:15:30.000Z</time>
      </trkpt>
      <trkpt lat="47.26744" lon="-2.32975">
        <ele>-1.7999999523163</ele>
        <time>2021-02-14T11:15:31.000Z</time>
      </trkpt>
      <trkpt lat="47.26735" lon="-2.32995">
        <ele>-1.7999999523163</ele>
        <time>2021-02-14T11:15:34.000Z</time>
      </trkpt>
      <trkpt lat="47.26734" lon="-2.33018">
        <ele>-1.7999999523163</ele>
        <time>2021-02-14T11:15:38.000Z</time>
      </trkpt>
      <trkpt lat="47.26735" lon="-2.33035">
        <ele>-1.7999999523163</ele>
        <time>2021-02-14T11:15:41.000Z</time>
      </trkpt>
      <trkpt lat="47.26733" lon="-2.33042">
        <ele>-1.7999999523163</ele>
        <time>2021-02-14T11:15:42.000Z</time>
      </trkpt>
      <trkpt lat="47.26722" lon="-2.3307">
        <ele>-1.7999999523163</ele>
        <time>2021-02-14T11:15:46.000Z</time>
      </trkpt>
      <trkpt lat="47.26717" lon="-2.33076">
        <ele>-1.7999999523163</ele>
        <time>2021-02-14T11:15:47.000Z</time>
      </trkpt>
      <trkpt lat="47.26713" lon="-2.33082">
        <ele>-1.7999999523163</ele>
        <time>2021-02-14T11:15:48.000Z</time>
      </trkpt>
      <trkpt lat="47.26697" lon="-2.33098">
        <ele>-1.7999999523163</ele>
        <time>2021-02-14T11:15:51.000Z</time>
      </trkpt>
      <trkpt lat="47.26677" lon="-2.33114">
        <ele>-1.7999999523163</ele>
        <time>2021-02-14T11:15:55.000Z</time>
      </trkpt>
      <trkpt lat="47.26673" lon="-2.33119">
        <ele>-1.7999999523163</ele>
        <time>2021-02-14T11:15:56.000Z</time>
      </trkpt>
      <trkpt lat="47.26643" lon="-2.33147">
        <ele>-1.7999999523163</ele>
        <time>2021-02-14T11:16:03.000Z</time>
      </trkpt>
      <trkpt lat="47.2663" lon="-2.33154">
        <ele>-1.7999999523163</ele>
        <time>2021-02-14T11:16:06.000Z</time>
      </trkpt>
      <trkpt lat="47.26622" lon="-2.33153">
        <ele>-1.7999999523163</ele>
        <time>2021-02-14T11:16:08.000Z</time>
      </trkpt>
      <trkpt lat="47.26615" lon="-2.3315">
        <ele>-1.7999999523163</ele>
        <time>2021-02-14T11:16:10.000Z</time>
      </trkpt>
      <trkpt lat="47.26613" lon="-2.33151">
        <ele>-1.7999999523163</ele>
        <time>2021-02-14T11:16:11.000Z</time>
      </trkpt>
      <trkpt lat="47.26612" lon="-2.33153">
        <ele>-1.7999999523163</ele>
        <time>2021-02-14T11:16:12.000Z</time>
      </trkpt>
      <trkpt lat="47.26608" lon="-2.33161">
        <ele>-2.4000000953674</ele>
        <time>2021-02-14T11:16:16.000Z</time>
      </trkpt>
      <trkpt lat="47.26607" lon="-2.33163">
        <ele>-2.7999999523163</ele>
        <time>2021-02-14T11:16:17.000Z</time>
      </trkpt>
      <trkpt lat="47.26606" lon="-2.33165">
        <ele>-3.2000000476837</ele>
        <time>2021-02-14T11:16:18.000Z</time>
      </trkpt>
      <trkpt lat="47.26605" lon="-2.33166">
        <ele>-3.5999999046326</ele>
        <time>2021-02-14T11:16:19.000Z</time>
      </trkpt>
      <trkpt lat="47.26604" lon="-2.33168">
        <ele>-4</ele>
        <time>2021-02-14T11:16:20.000Z</time>
      </trkpt>
      <trkpt lat="47.26602" lon="-2.33172">
        <ele>-4</ele>
        <time>2021-02-14T11:16:22.000Z</time>
      </trkpt>
      <trkpt lat="47.26596" lon="-2.33186">
        <ele>-4</ele>
        <time>2021-02-14T11:16:28.000Z</time>
      </trkpt>
      <trkpt lat="47.26592" lon="-2.33198">
        <ele>-4</ele>
        <time>2021-02-14T11:16:32.000Z</time>
      </trkpt>
      <trkpt lat="47.2659" lon="-2.332">
        <ele>-4</ele>
        <time>2021-02-14T11:16:33.000Z</time>
      </trkpt>
      <trkpt lat="47.26574" lon="-2.33213">
        <ele>-4</ele>
        <time>2021-02-14T11:16:39.000Z</time>
      </trkpt>
      <trkpt lat="47.26552" lon="-2.33227">
        <ele>-4</ele>
        <time>2021-02-14T11:16:46.000Z</time>
      </trkpt>
      <trkpt lat="47.26533" lon="-2.3324">
        <ele>-4</ele>
        <time>2021-02-14T11:16:52.000Z</time>
      </trkpt>
      <trkpt lat="47.26511" lon="-2.33254">
        <ele>-4</ele>
        <time>2021-02-14T11:16:59.000Z</time>
      </trkpt>
      <trkpt lat="47.26497" lon="-2.33268">
        <ele>-4</ele>
        <time>2021-02-14T11:17:05.000Z</time>
      </trkpt>
      <trkpt lat="47.2649" lon="-2.3328">
        <ele>-4</ele>
        <time>2021-02-14T11:17:09.000Z</time>
      </trkpt>
      <trkpt lat="47.26488" lon="-2.33282">
        <ele>-4</ele>
        <time>2021-02-14T11:17:10.000Z</time>
      </trkpt>
      <trkpt lat="47.26487" lon="-2.33286">
        <ele>-4</ele>
        <time>2021-02-14T11:17:13.000Z</time>
      </trkpt>
      <trkpt lat="47.26486" lon="-2.33287">
        <ele>-4</ele>
        <time>2021-02-14T11:17:21.000Z</time>
      </trkpt>
      <trkpt lat="47.26483" lon="-2.33294">
        <ele>-4</ele>
        <time>2021-02-14T11:17:24.000Z</time>
      </trkpt>
      <trkpt lat="47.26478" lon="-2.333">
        <ele>-4</ele>
        <time>2021-02-14T11:17:26.000Z</time>
      </trkpt>
      <trkpt lat="47.26472" lon="-2.33306">
        <ele>-4</ele>
        <time>2021-02-14T11:17:28.000Z</time>
      </trkpt>
      <trkpt lat="47.26449" lon="-2.33325">
        <ele>-4</ele>
        <time>2021-02-14T11:17:34.000Z</time>
      </trkpt>
      <trkpt lat="47.26419" lon="-2.33348">
        <ele>-4</ele>
        <time>2021-02-14T11:17:41.000Z</time>
      </trkpt>
      <trkpt lat="47.26399" lon="-2.3336">
        <ele>-4</ele>
        <time>2021-02-14T11:17:47.000Z</time>
      </trkpt>
      <trkpt lat="47.26386" lon="-2.3337">
        <ele>-4</ele>
        <time>2021-02-14T11:17:52.000Z</time>
      </trkpt>
      <trkpt lat="47.26367" lon="-2.33381">
        <ele>-4</ele>
        <time>2021-02-14T11:17:57.000Z</time>
      </trkpt>
      <trkpt lat="47.26349" lon="-2.33391">
        <ele>-4</ele>
        <time>2021-02-14T11:18:01.000Z</time>
      </trkpt>
      <trkpt lat="47.26344" lon="-2.33392">
        <ele>-4</ele>
        <time>2021-02-14T11:18:02.000Z</time>
      </trkpt>
      <trkpt lat="47.26339" lon="-2.33395">
        <ele>-4</ele>
        <time>2021-02-14T11:18:03.000Z</time>
      </trkpt>
      <trkpt lat="47.26319" lon="-2.33407">
        <ele>-4</ele>
        <time>2021-02-14T11:18:08.000Z</time>
      </trkpt>
      <trkpt lat="47.26316" lon="-2.33411">
        <ele>-4</ele>
        <time>2021-02-14T11:18:09.000Z</time>
      </trkpt>
      <trkpt lat="47.26309" lon="-2.33418">
        <ele>-4</ele>
        <time>2021-02-14T11:18:11.000Z</time>
      </trkpt>
      <trkpt lat="47.26299" lon="-2.33422">
        <ele>-4</ele>
        <time>2021-02-14T11:18:13.000Z</time>
      </trkpt>
      <trkpt lat="47.26265" lon="-2.33429">
        <ele>-4</ele>
        <time>2021-02-14T11:18:20.000Z</time>
      </trkpt>
      <trkpt lat="47.26232" lon="-2.33435">
        <ele>-4</ele>
        <time>2021-02-14T11:18:27.000Z</time>
      </trkpt>
      <trkpt lat="47.26198" lon="-2.33442">
        <ele>-4</ele>
        <time>2021-02-14T11:18:35.000Z</time>
      </trkpt>
      <trkpt lat="47.26164" lon="-2.33441">
        <ele>-4</ele>
        <time>2021-02-14T11:18:44.000Z</time>
      </trkpt>
      <trkpt lat="47.26142" lon="-2.33432">
        <ele>-4</ele>
        <time>2021-02-14T11:18:50.000Z</time>
      </trkpt>
      <trkpt lat="47.26135" lon="-2.33443">
        <ele>-4</ele>
        <time>2021-02-14T11:18:53.000Z</time>
      </trkpt>
      <trkpt lat="47.26126" lon="-2.33451">
        <ele>-4</ele>
        <time>2021-02-14T11:18:56.000Z</time>
      </trkpt>
      <trkpt lat="47.26122" lon="-2.33452">
        <ele>-4</ele>
        <time>2021-02-14T11:18:57.000Z</time>
      </trkpt>
      <trkpt lat="47.26114" lon="-2.33455">
        <ele>-4</ele>
        <time>2021-02-14T11:18:59.000Z</time>
      </trkpt>
      <trkpt lat="47.26107" lon="-2.33462">
        <ele>-4</ele>
        <time>2021-02-14T11:19:01.000Z</time>
      </trkpt>
      <trkpt lat="47.261" lon="-2.33468">
        <ele>-4</ele>
        <time>2021-02-14T11:19:03.000Z</time>
      </trkpt>
      <trkpt lat="47.26086" lon="-2.3347">
        <ele>-4</ele>
        <time>2021-02-14T11:19:06.000Z</time>
      </trkpt>
      <trkpt lat="47.26074" lon="-2.33463">
        <ele>-4</ele>
        <time>2021-02-14T11:19:09.000Z</time>
      </trkpt>
      <trkpt lat="47.26069" lon="-2.3346">
        <ele>-4</ele>
        <time>2021-02-14T11:19:10.000Z</time>
      </trkpt>
      <trkpt lat="47.26058" lon="-2.33452">
        <ele>-4</ele>
        <time>2021-02-14T11:19:13.000Z</time>
      </trkpt>
      <trkpt lat="47.2605" lon="-2.33458">
        <ele>-4</ele>
        <time>2021-02-14T11:19:15.000Z</time>
      </trkpt>
      <trkpt lat="47.26044" lon="-2.33469">
        <ele>-4</ele>
        <time>2021-02-14T11:19:17.000Z</time>
      </trkpt>
      <trkpt lat="47.26037" lon="-2.33481">
        <ele>-4</ele>
        <time>2021-02-14T11:19:19.000Z</time>
      </trkpt>
      <trkpt lat="47.26033" lon="-2.33485">
        <ele>-4</ele>
        <time>2021-02-14T11:19:20.000Z</time>
      </trkpt>
      <trkpt lat="47.26022" lon="-2.3349">
        <ele>-4</ele>
        <time>2021-02-14T11:19:22.000Z</time>
      </trkpt>
      <trkpt lat="47.26012" lon="-2.33492">
        <ele>-4</ele>
        <time>2021-02-14T11:19:24.000Z</time>
      </trkpt>
      <trkpt lat="47.25996" lon="-2.33496">
        <ele>-4</ele>
        <time>2021-02-14T11:19:27.000Z</time>
      </trkpt>
      <trkpt lat="47.25987" lon="-2.33503">
        <ele>-4</ele>
        <time>2021-02-14T11:19:29.000Z</time>
      </trkpt>
      <trkpt lat="47.25979" lon="-2.33512">
        <ele>-4</ele>
        <time>2021-02-14T11:19:31.000Z</time>
      </trkpt>
      <trkpt lat="47.25966" lon="-2.33512">
        <ele>-4</ele>
        <time>2021-02-14T11:19:34.000Z</time>
      </trkpt>
      <trkpt lat="47.25956" lon="-2.33512">
        <ele>-4</ele>
        <time>2021-02-14T11:19:36.000Z</time>
      </trkpt>
      <trkpt lat="47.25948" lon="-2.3352">
        <ele>-4</ele>
        <time>2021-02-14T11:19:38.000Z</time>
      </trkpt>
      <trkpt lat="47.2594" lon="-2.33527">
        <ele>-4</ele>
        <time>2021-02-14T11:19:40.000Z</time>
      </trkpt>
      <trkpt lat="47.25921" lon="-2.33544">
        <ele>-4</ele>
        <time>2021-02-14T11:19:46.000Z</time>
      </trkpt>
      <trkpt lat="47.25917" lon="-2.33547">
        <ele>-3.5999999046326</ele>
        <time>2021-02-14T11:19:47.000Z</time>
      </trkpt>
      <trkpt lat="47.25913" lon="-2.3355">
        <ele>-3.2000000476837</ele>
        <time>2021-02-14T11:19:48.000Z</time>
      </trkpt>
      <trkpt lat="47.25908" lon="-2.33553">
        <ele>-2.7999999523163</ele>
        <time>2021-02-14T11:19:49.000Z</time>
      </trkpt>
      <trkpt lat="47.25904" lon="-2.33557">
        <ele>-2.2000000476837</ele>
        <time>2021-02-14T11:19:50.000Z</time>
      </trkpt>
      <trkpt lat="47.259" lon="-2.3356">
        <ele>-1.7999999523163</ele>
        <time>2021-02-14T11:19:51.000Z</time>
      </trkpt>
      <trkpt lat="47.25888" lon="-2.3357">
        <ele>-1.7999999523163</ele>
        <time>2021-02-14T11:19:54.000Z</time>
      </trkpt>
      <trkpt lat="47.25874" lon="-2.33578">
        <ele>-1.7999999523163</ele>
        <time>2021-02-14T11:19:57.000Z</time>
      </trkpt>
      <trkpt lat="47.25869" lon="-2.33579">
        <ele>-1.3999999761581</ele>
        <time>2021-02-14T11:19:58.000Z</time>
      </trkpt>
      <trkpt lat="47.25864" lon="-2.33579">
        <ele>-1</ele>
        <time>2021-02-14T11:19:59.000Z</time>
      </trkpt>
      <trkpt lat="47.25858" lon="-2.33579">
        <ele>-0.60000002384186</ele>
        <time>2021-02-14T11:20:00.000Z</time>
      </trkpt>
      <trkpt lat="47.25853" lon="-2.33579">
        <ele>-0.20000000298023</ele>
        <time>2021-02-14T11:20:01.000Z</time>
      </trkpt>
      <trkpt lat="47.25848" lon="-2.33579">
        <ele>0.20000000298023</ele>
        <time>2021-02-14T11:20:02.000Z</time>
      </trkpt>
      <trkpt lat="47.25829" lon="-2.33581">
        <ele>0.20000000298023</ele>
        <time>2021-02-14T11:20:06.000Z</time>
      </trkpt>
      <trkpt lat="47.25785" lon="-2.33582">
        <ele>0.20000000298023</ele>
        <time>2021-02-14T11:20:15.000Z</time>
      </trkpt>
      <trkpt lat="47.25754" lon="-2.33585">
        <ele>0.20000000298023</ele>
        <time>2021-02-14T11:20:21.000Z</time>
      </trkpt>
      <trkpt lat="47.25746" lon="-2.3359">
        <ele>0.20000000298023</ele>
        <time>2021-02-14T11:20:23.000Z</time>
      </trkpt>
      <trkpt lat="47.25741" lon="-2.3359">
        <ele>0.20000000298023</ele>
        <time>2021-02-14T11:20:24.000Z</time>
      </trkpt>
      <trkpt lat="47.25737" lon="-2.33587">
        <ele>0.20000000298023</ele>
        <time>2021-02-14T11:20:25.000Z</time>
      </trkpt>
      <trkpt lat="47.25723" lon="-2.33586">
        <ele>0.20000000298023</ele>
        <time>2021-02-14T11:20:28.000Z</time>
      </trkpt>
      <trkpt lat="47.25683" lon="-2.33585">
        <ele>0.20000000298023</ele>
        <time>2021-02-14T11:20:36.000Z</time>
      </trkpt>
      <trkpt lat="47.2565" lon="-2.33573">
        <ele>0.20000000298023</ele>
        <time>2021-02-14T11:20:43.000Z</time>
      </trkpt>
      <trkpt lat="47.25623" lon="-2.33558">
        <ele>0.60000002384186</ele>
        <time>2021-02-14T11:20:49.000Z</time>
      </trkpt>
      <trkpt lat="47.25619" lon="-2.33554">
        <ele>1.2000000476837</ele>
        <time>2021-02-14T11:20:50.000Z</time>
      </trkpt>
      <trkpt lat="47.25615" lon="-2.33551">
        <ele>1.6000000238419</ele>
        <time>2021-02-14T11:20:51.000Z</time>
      </trkpt>
      <trkpt lat="47.2561" lon="-2.33547">
        <ele>2</ele>
        <time>2021-02-14T11:20:52.000Z</time>
      </trkpt>
      <trkpt lat="47.25606" lon="-2.33543">
        <ele>2.4000000953674</ele>
        <time>2021-02-14T11:20:53.000Z</time>
      </trkpt>
      <trkpt lat="47.25581" lon="-2.33517">
        <ele>2.4000000953674</ele>
        <time>2021-02-14T11:20:59.000Z</time>
      </trkpt>
      <trkpt lat="47.25561" lon="-2.33484">
        <ele>2.4000000953674</ele>
        <time>2021-02-14T11:21:05.000Z</time>
      </trkpt>
      <trkpt lat="47.25544" lon="-2.33447">
        <ele>2.4000000953674</ele>
        <time>2021-02-14T11:21:11.000Z</time>
      </trkpt>
      <trkpt lat="47.25539" lon="-2.33433">
        <ele>2.4000000953674</ele>
        <time>2021-02-14T11:21:13.000Z</time>
      </trkpt>
      <trkpt lat="47.25529" lon="-2.33382">
        <ele>2.4000000953674</ele>
        <time>2021-02-14T11:21:20.000Z</time>
      </trkpt>
      <trkpt lat="47.2552" lon="-2.33314">
        <ele>2.4000000953674</ele>
        <time>2021-02-14T11:21:29.000Z</time>
      </trkpt>
      <trkpt lat="47.25509" lon="-2.33229">
        <ele>2.4000000953674</ele>
        <time>2021-02-14T11:21:40.000Z</time>
      </trkpt>
      <trkpt lat="47.25499" lon="-2.3316">
        <ele>2.4000000953674</ele>
        <time>2021-02-14T11:21:49.000Z</time>
      </trkpt>
      <trkpt lat="47.25492" lon="-2.33101">
        <ele>2.4000000953674</ele>
        <time>2021-02-14T11:21:57.000Z</time>
      </trkpt>
      <trkpt lat="47.2548" lon="-2.33095">
        <ele>2.4000000953674</ele>
        <time>2021-02-14T11:22:00.000Z</time>
      </trkpt>
      <trkpt lat="47.2547" lon="-2.331">
        <ele>2.4000000953674</ele>
        <time>2021-02-14T11:22:02.000Z</time>
      </trkpt>
      <trkpt lat="47.2545" lon="-2.33109">
        <ele>2.4000000953674</ele>
        <time>2021-02-14T11:22:06.000Z</time>
      </trkpt>
      <trkpt lat="47.25409" lon="-2.33126">
        <ele>2.4000000953674</ele>
        <time>2021-02-14T11:22:15.000Z</time>
      </trkpt>
      <trkpt lat="47.25386" lon="-2.3314">
        <ele>2.4000000953674</ele>
        <time>2021-02-14T11:22:21.000Z</time>
      </trkpt>
      <trkpt lat="47.25377" lon="-2.33127">
        <ele>2.4000000953674</ele>
        <time>2021-02-14T11:22:24.000Z</time>
      </trkpt>
      <trkpt lat="47.25374" lon="-2.33113">
        <ele>2.4000000953674</ele>
        <time>2021-02-14T11:22:28.000Z</time>
      </trkpt>
      <trkpt lat="47.25372" lon="-2.3311">
        <ele>2.4000000953674</ele>
        <time>2021-02-14T11:22:29.000Z</time>
      </trkpt>
      <trkpt lat="47.25369" lon="-2.33102">
        <ele>2.4000000953674</ele>
        <time>2021-02-14T11:22:33.000Z</time>
      </trkpt>
      <trkpt lat="47.25362" lon="-2.33079">
        <ele>4.4000000953674</ele>
        <time>2021-02-14T11:50:46.000Z</time>
      </trkpt>
      <trkpt lat="47.25359" lon="-2.33073">
        <ele>4.4000000953674</ele>
        <time>2021-02-14T11:50:49.000Z</time>
      </trkpt>
      <trkpt lat="47.25352" lon="-2.33053">
        <ele>4.4000000953674</ele>
        <time>2021-02-14T11:50:53.000Z</time>
      </trkpt>
      <trkpt lat="47.25344" lon="-2.33033">
        <ele>4.8000001907349</ele>
        <time>2021-02-14T11:50:56.000Z</time>
      </trkpt>
      <trkpt lat="47.25341" lon="-2.33027">
        <ele>5.1999998092651</ele>
        <time>2021-02-14T11:50:57.000Z</time>
      </trkpt>
      <trkpt lat="47.25338" lon="-2.3302">
        <ele>5.8000001907349</ele>
        <time>2021-02-14T11:50:58.000Z</time>
      </trkpt>
      <trkpt lat="47.25335" lon="-2.33013">
        <ele>6.1999998092651</ele>
        <time>2021-02-14T11:50:59.000Z</time>
      </trkpt>
      <trkpt lat="47.25332" lon="-2.33006">
        <ele>6.5999999046326</ele>
        <time>2021-02-14T11:51:00.000Z</time>
      </trkpt>
      <trkpt lat="47.25314" lon="-2.32958">
        <ele>6.5999999046326</ele>
        <time>2021-02-14T11:51:07.000Z</time>
      </trkpt>
      <trkpt lat="47.25309" lon="-2.32945">
        <ele>6.5999999046326</ele>
        <time>2021-02-14T11:51:09.000Z</time>
      </trkpt>
      <trkpt lat="47.25309" lon="-2.32924">
        <ele>6.5999999046326</ele>
        <time>2021-02-14T11:51:12.000Z</time>
      </trkpt>
      <trkpt lat="47.2532" lon="-2.3291">
        <ele>6.5999999046326</ele>
        <time>2021-02-14T11:51:15.000Z</time>
      </trkpt>
      <trkpt lat="47.25324" lon="-2.32906">
        <ele>6.5999999046326</ele>
        <time>2021-02-14T11:51:16.000Z</time>
      </trkpt>
      <trkpt lat="47.25329" lon="-2.32902">
        <ele>6.5999999046326</ele>
        <time>2021-02-14T11:51:17.000Z</time>
      </trkpt>
      <trkpt lat="47.25333" lon="-2.32897">
        <ele>7</ele>
        <time>2021-02-14T11:51:18.000Z</time>
      </trkpt>
      <trkpt lat="47.25337" lon="-2.32893">
        <ele>7.4000000953674</ele>
        <time>2021-02-14T11:51:19.000Z</time>
      </trkpt>
      <trkpt lat="47.25342" lon="-2.32888">
        <ele>7.8000001907349</ele>
        <time>2021-02-14T11:51:20.000Z</time>
      </trkpt>
      <trkpt lat="47.25346" lon="-2.32884">
        <ele>8.1999998092651</ele>
        <time>2021-02-14T11:51:21.000Z</time>
      </trkpt>
      <trkpt lat="47.25351" lon="-2.32881">
        <ele>8.6000003814697</ele>
        <time>2021-02-14T11:51:22.000Z</time>
      </trkpt>
      <trkpt lat="47.25391" lon="-2.32841">
        <ele>8.6000003814697</ele>
        <time>2021-02-14T11:51:31.000Z</time>
      </trkpt>
      <trkpt lat="47.25422" lon="-2.32796">
        <ele>8.6000003814697</ele>
        <time>2021-02-14T11:51:39.000Z</time>
      </trkpt>
      <trkpt lat="47.25425" lon="-2.3279">
        <ele>8.6000003814697</ele>
        <time>2021-02-14T11:51:40.000Z</time>
      </trkpt>
      <trkpt lat="47.25436" lon="-2.32767">
        <ele>8.6000003814697</ele>
        <time>2021-02-14T11:51:44.000Z</time>
      </trkpt>
      <trkpt lat="47.25461" lon="-2.32732">
        <ele>8.6000003814697</ele>
        <time>2021-02-14T11:51:51.000Z</time>
      </trkpt>
      <trkpt lat="47.25481" lon="-2.32707">
        <ele>8.6000003814697</ele>
        <time>2021-02-14T11:51:56.000Z</time>
      </trkpt>
      <trkpt lat="47.25487" lon="-2.32693">
        <ele>8.6000003814697</ele>
        <time>2021-02-14T11:51:58.000Z</time>
      </trkpt>
      <trkpt lat="47.25489" lon="-2.3267">
        <ele>9</ele>
        <time>2021-02-14T11:52:01.000Z</time>
      </trkpt>
      <trkpt lat="47.25489" lon="-2.32663">
        <ele>9.3999996185303</ele>
        <time>2021-02-14T11:52:02.000Z</time>
      </trkpt>
      <trkpt lat="47.25488" lon="-2.32655">
        <ele>10</ele>
        <time>2021-02-14T11:52:03.000Z</time>
      </trkpt>
      <trkpt lat="47.25487" lon="-2.32648">
        <ele>10.39999961853</ele>
        <time>2021-02-14T11:52:04.000Z</time>
      </trkpt>
      <trkpt lat="47.25486" lon="-2.3264">
        <ele>10.800000190735</ele>
        <time>2021-02-14T11:52:05.000Z</time>
      </trkpt>
      <trkpt lat="47.25481" lon="-2.32617">
        <ele>10.800000190735</ele>
        <time>2021-02-14T11:52:09.000Z</time>
      </trkpt>
      <trkpt lat="47.25479" lon="-2.32603">
        <ele>10.800000190735</ele>
        <time>2021-02-14T11:52:11.000Z</time>
      </trkpt>
      <trkpt lat="47.2548" lon="-2.32589">
        <ele>10.800000190735</ele>
        <time>2021-02-14T11:52:13.000Z</time>
      </trkpt>
      <trkpt lat="47.25484" lon="-2.32569">
        <ele>10.800000190735</ele>
        <time>2021-02-14T11:52:16.000Z</time>
      </trkpt>
      <trkpt lat="47.25491" lon="-2.32557">
        <ele>10.800000190735</ele>
        <time>2021-02-14T11:52:18.000Z</time>
      </trkpt>
      <trkpt lat="47.25516" lon="-2.32529">
        <ele>10.800000190735</ele>
        <time>2021-02-14T11:52:24.000Z</time>
      </trkpt>
      <trkpt lat="47.25552" lon="-2.32495">
        <ele>10.800000190735</ele>
        <time>2021-02-14T11:52:31.000Z</time>
      </trkpt>
      <trkpt lat="47.25569" lon="-2.32478">
        <ele>10.39999961853</ele>
        <time>2021-02-14T11:52:34.000Z</time>
      </trkpt>
      <trkpt lat="47.25575" lon="-2.32473">
        <ele>10</ele>
        <time>2021-02-14T11:52:35.000Z</time>
      </trkpt>
      <trkpt lat="47.25581" lon="-2.32466">
        <ele>9.6000003814697</ele>
        <time>2021-02-14T11:52:36.000Z</time>
      </trkpt>
      <trkpt lat="47.25587" lon="-2.3246">
        <ele>9</ele>
        <time>2021-02-14T11:52:37.000Z</time>
      </trkpt>
      <trkpt lat="47.25593" lon="-2.32453">
        <ele>8.6000003814697</ele>
        <time>2021-02-14T11:52:38.000Z</time>
      </trkpt>
      <trkpt lat="47.25605" lon="-2.3244">
        <ele>8.1999998092651</ele>
        <time>2021-02-14T11:52:40.000Z</time>
      </trkpt>
      <trkpt lat="47.25612" lon="-2.32433">
        <ele>7.8000001907349</ele>
        <time>2021-02-14T11:52:41.000Z</time>
      </trkpt>
      <trkpt lat="47.25618" lon="-2.32427">
        <ele>7.4000000953674</ele>
        <time>2021-02-14T11:52:42.000Z</time>
      </trkpt>
      <trkpt lat="47.25625" lon="-2.3242">
        <ele>7</ele>
        <time>2021-02-14T11:52:43.000Z</time>
      </trkpt>
      <trkpt lat="47.25631" lon="-2.32413">
        <ele>6.5999999046326</ele>
        <time>2021-02-14T11:52:44.000Z</time>
      </trkpt>
      <trkpt lat="47.25638" lon="-2.32408">
        <ele>6.5999999046326</ele>
        <time>2021-02-14T11:52:45.000Z</time>
      </trkpt>
      <trkpt lat="47.25644" lon="-2.32403">
        <ele>6.5999999046326</ele>
        <time>2021-02-14T11:52:46.000Z</time>
      </trkpt>
      <trkpt lat="47.25656" lon="-2.32401">
        <ele>6.1999998092651</ele>
        <time>2021-02-14T11:52:48.000Z</time>
      </trkpt>
      <trkpt lat="47.25662" lon="-2.32401">
        <ele>5.8000001907349</ele>
        <time>2021-02-14T11:52:49.000Z</time>
      </trkpt>
      <trkpt lat="47.25667" lon="-2.32405">
        <ele>5.1999998092651</ele>
        <time>2021-02-14T11:52:50.000Z</time>
      </trkpt>
      <trkpt lat="47.25672" lon="-2.3241">
        <ele>4.4000000953674</ele>
        <time>2021-02-14T11:52:51.000Z</time>
      </trkpt>
      <trkpt lat="47.25691" lon="-2.32418">
        <ele>4.4000000953674</ele>
        <time>2021-02-14T11:52:54.000Z</time>
      </trkpt>
      <trkpt lat="47.25698" lon="-2.32419">
        <ele>4.4000000953674</ele>
        <time>2021-02-14T11:52:55.000Z</time>
      </trkpt>
      <trkpt lat="47.25733" lon="-2.32422">
        <ele>4</ele>
        <time>2021-02-14T11:53:00.000Z</time>
      </trkpt>
      <trkpt lat="47.2574" lon="-2.32422">
        <ele>3.5999999046326</ele>
        <time>2021-02-14T11:53:01.000Z</time>
      </trkpt>
      <trkpt lat="47.25747" lon="-2.32422">
        <ele>3.2000000476837</ele>
        <time>2021-02-14T11:53:02.000Z</time>
      </trkpt>
      <trkpt lat="47.25754" lon="-2.32423">
        <ele>2.7999999523163</ele>
        <time>2021-02-14T11:53:03.000Z</time>
      </trkpt>
      <trkpt lat="47.2576" lon="-2.32422">
        <ele>2.4000000953674</ele>
        <time>2021-02-14T11:53:04.000Z</time>
      </trkpt>
      <trkpt lat="47.25771" lon="-2.32416">
        <ele>2.4000000953674</ele>
        <time>2021-02-14T11:53:06.000Z</time>
      </trkpt>
      <trkpt lat="47.25783" lon="-2.32412">
        <ele>2.4000000953674</ele>
        <time>2021-02-14T11:53:09.000Z</time>
      </trkpt>
      <trkpt lat="47.25792" lon="-2.32429">
        <ele>2.4000000953674</ele>
        <time>2021-02-14T11:53:12.000Z</time>
      </trkpt>
      <trkpt lat="47.25795" lon="-2.32437">
        <ele>2.4000000953674</ele>
        <time>2021-02-14T11:53:13.000Z</time>
      </trkpt>
      <trkpt lat="47.25803" lon="-2.3245">
        <ele>2.4000000953674</ele>
        <time>2021-02-14T11:53:15.000Z</time>
      </trkpt>
      <trkpt lat="47.25815" lon="-2.32459">
        <ele>2.4000000953674</ele>
        <time>2021-02-14T11:53:17.000Z</time>
      </trkpt>
      <trkpt lat="47.25847" lon="-2.32473">
        <ele>2.4000000953674</ele>
        <time>2021-02-14T11:53:22.000Z</time>
      </trkpt>
      <trkpt lat="47.25853" lon="-2.32474">
        <ele>2.4000000953674</ele>
        <time>2021-02-14T11:53:23.000Z</time>
      </trkpt>
      <trkpt lat="47.25871" lon="-2.32474">
        <ele>2.4000000953674</ele>
        <time>2021-02-14T11:53:26.000Z</time>
      </trkpt>
      <trkpt lat="47.25877" lon="-2.32472">
        <ele>2.4000000953674</ele>
        <time>2021-02-14T11:53:27.000Z</time>
      </trkpt>
      <trkpt lat="47.25895" lon="-2.32465">
        <ele>2.4000000953674</ele>
        <time>2021-02-14T11:53:30.000Z</time>
      </trkpt>
      <trkpt lat="47.25901" lon="-2.3246">
        <ele>2.4000000953674</ele>
        <time>2021-02-14T11:53:31.000Z</time>
      </trkpt>
      <trkpt lat="47.25921" lon="-2.32436">
        <ele>2.4000000953674</ele>
        <time>2021-02-14T11:53:35.000Z</time>
      </trkpt>
      <trkpt lat="47.2593" lon="-2.32423">
        <ele>2.4000000953674</ele>
        <time>2021-02-14T11:53:37.000Z</time>
      </trkpt>
      <trkpt lat="47.25962" lon="-2.32382">
        <ele>2.4000000953674</ele>
        <time>2021-02-14T11:53:44.000Z</time>
      </trkpt>
      <trkpt lat="47.25981" lon="-2.32358">
        <ele>2.4000000953674</ele>
        <time>2021-02-14T11:53:48.000Z</time>
      </trkpt>
      <trkpt lat="47.25994" lon="-2.32341">
        <ele>2.4000000953674</ele>
        <time>2021-02-14T11:53:51.000Z</time>
      </trkpt>
      <trkpt lat="47.26025" lon="-2.32302">
        <ele>2.4000000953674</ele>
        <time>2021-02-14T11:53:58.000Z</time>
      </trkpt>
      <trkpt lat="47.26034" lon="-2.3229">
        <ele>2.4000000953674</ele>
        <time>2021-02-14T11:54:00.000Z</time>
      </trkpt>
      <trkpt lat="47.26063" lon="-2.32257">
        <ele>2.4000000953674</ele>
        <time>2021-02-14T11:54:06.000Z</time>
      </trkpt>
      <trkpt lat="47.26086" lon="-2.32228">
        <ele>2.4000000953674</ele>
        <time>2021-02-14T11:54:11.000Z</time>
      </trkpt>
      <trkpt lat="47.2609" lon="-2.32222">
        <ele>2.4000000953674</ele>
        <time>2021-02-14T11:54:12.000Z</time>
      </trkpt>
      <trkpt lat="47.26115" lon="-2.32171">
        <ele>2.4000000953674</ele>
        <time>2021-02-14T11:54:19.000Z</time>
      </trkpt>
      <trkpt lat="47.26123" lon="-2.32149">
        <ele>2.4000000953674</ele>
        <time>2021-02-14T11:54:22.000Z</time>
      </trkpt>
      <trkpt lat="47.26132" lon="-2.32116">
        <ele>2.4000000953674</ele>
        <time>2021-02-14T11:54:26.000Z</time>
      </trkpt>
      <trkpt lat="47.26149" lon="-2.32062">
        <ele>2.4000000953674</ele>
        <time>2021-02-14T11:54:33.000Z</time>
      </trkpt>
      <trkpt lat="47.26158" lon="-2.32032">
        <ele>2.4000000953674</ele>
        <time>2021-02-14T11:54:37.000Z</time>
      </trkpt>
      <trkpt lat="47.26165" lon="-2.32021">
        <ele>2.4000000953674</ele>
        <time>2021-02-14T11:54:39.000Z</time>
      </trkpt>
      <trkpt lat="47.2618" lon="-2.32021">
        <ele>2.4000000953674</ele>
        <time>2021-02-14T11:54:42.000Z</time>
      </trkpt>
      <trkpt lat="47.26183" lon="-2.32022">
        <ele>2.4000000953674</ele>
        <time>2021-02-14T11:54:43.000Z</time>
      </trkpt>
      <trkpt lat="47.26191" lon="-2.32024">
        <ele>2.4000000953674</ele>
        <time>2021-02-14T11:54:46.000Z</time>
      </trkpt>
      <trkpt lat="47.26194" lon="-2.32024">
        <ele>2.4000000953674</ele>
        <time>2021-02-14T11:54:48.000Z</time>
      </trkpt>
      <trkpt lat="47.26195" lon="-2.3202">
        <ele>2.4000000953674</ele>
        <time>2021-02-14T11:54:50.000Z</time>
      </trkpt>
      <trkpt lat="47.262" lon="-2.32006">
        <ele>1.7999999523163</ele>
        <time>2021-02-14T11:54:55.000Z</time>
      </trkpt>
      <trkpt lat="47.26203" lon="-2.32004">
        <ele>1.3999999761581</ele>
        <time>2021-02-14T11:54:56.000Z</time>
      </trkpt>
      <trkpt lat="47.26206" lon="-2.32001">
        <ele>1</ele>
        <time>2021-02-14T11:54:57.000Z</time>
      </trkpt>
      <trkpt lat="47.26209" lon="-2.31998">
        <ele>0.60000002384186</ele>
        <time>2021-02-14T11:54:58.000Z</time>
      </trkpt>
      <trkpt lat="47.26212" lon="-2.31995">
        <ele>0.20000000298023</ele>
        <time>2021-02-14T11:54:59.000Z</time>
      </trkpt>
      <trkpt lat="47.26214" lon="-2.31992">
        <ele>0.20000000298023</ele>
        <time>2021-02-14T11:55:00.000Z</time>
      </trkpt>
      <trkpt lat="47.26223" lon="-2.31981">
        <ele>0.20000000298023</ele>
        <time>2021-02-14T11:55:04.000Z</time>
      </trkpt>
      <trkpt lat="47.26236" lon="-2.31975">
        <ele>0.20000000298023</ele>
        <time>2021-02-14T11:55:08.000Z</time>
      </trkpt>
      <trkpt lat="47.26245" lon="-2.3196">
        <ele>0.20000000298023</ele>
        <time>2021-02-14T11:55:12.000Z</time>
      </trkpt>
      <trkpt lat="47.26252" lon="-2.31948">
        <ele>0.20000000298023</ele>
        <time>2021-02-14T11:55:16.000Z</time>
      </trkpt>
      <trkpt lat="47.26261" lon="-2.3193">
        <ele>0.20000000298023</ele>
        <time>2021-02-14T11:55:22.000Z</time>
      </trkpt>
      <trkpt lat="47.26273" lon="-2.31913">
        <ele>0.20000000298023</ele>
        <time>2021-02-14T11:55:26.000Z</time>
      </trkpt>
      <trkpt lat="47.26277" lon="-2.31909">
        <ele>0.20000000298023</ele>
        <time>2021-02-14T11:55:27.000Z</time>
      </trkpt>
      <trkpt lat="47.26292" lon="-2.31895">
        <ele>0.20000000298023</ele>
        <time>2021-02-14T11:55:32.000Z</time>
      </trkpt>
      <trkpt lat="47.26294" lon="-2.31886">
        <ele>0.20000000298023</ele>
        <time>2021-02-14T11:55:34.000Z</time>
      </trkpt>
      <trkpt lat="47.26295" lon="-2.31877">
        <ele>0.20000000298023</ele>
        <time>2021-02-14T11:55:36.000Z</time>
      </trkpt>
      <trkpt lat="47.263" lon="-2.31843">
        <ele>0.20000000298023</ele>
        <time>2021-02-14T11:55:42.000Z</time>
      </trkpt>
      <trkpt lat="47.26302" lon="-2.31811">
        <ele>0.20000000298023</ele>
        <time>2021-02-14T11:55:47.000Z</time>
      </trkpt>
      <trkpt lat="47.26303" lon="-2.31796">
        <ele>0.60000002384186</ele>
        <time>2021-02-14T11:55:49.000Z</time>
      </trkpt>
      <trkpt lat="47.26303" lon="-2.3179">
        <ele>1</ele>
        <time>2021-02-14T11:55:50.000Z</time>
      </trkpt>
      <trkpt lat="47.26303" lon="-2.31783">
        <ele>1.3999999761581</ele>
        <time>2021-02-14T11:55:51.000Z</time>
      </trkpt>
      <trkpt lat="47.26303" lon="-2.31776">
        <ele>1.7999999523163</ele>
        <time>2021-02-14T11:55:52.000Z</time>
      </trkpt>
      <trkpt lat="47.26302" lon="-2.31769">
        <ele>2.2000000476837</ele>
        <time>2021-02-14T11:55:53.000Z</time>
      </trkpt>
      <trkpt lat="47.26299" lon="-2.31734">
        <ele>2.2000000476837</ele>
        <time>2021-02-14T11:55:58.000Z</time>
      </trkpt>
      <trkpt lat="47.26305" lon="-2.31716">
        <ele>2.2000000476837</ele>
        <time>2021-02-14T11:56:01.000Z</time>
      </trkpt>
      <trkpt lat="47.26317" lon="-2.31709">
        <ele>2.2000000476837</ele>
        <time>2021-02-14T11:56:04.000Z</time>
      </trkpt>
      <trkpt lat="47.26321" lon="-2.31707">
        <ele>2.2000000476837</ele>
        <time>2021-02-14T11:56:05.000Z</time>
      </trkpt>
      <trkpt lat="47.26331" lon="-2.31694">
        <ele>2.2000000476837</ele>
        <time>2021-02-14T11:56:09.000Z</time>
      </trkpt>
      <trkpt lat="47.2634" lon="-2.31687">
        <ele>2.2000000476837</ele>
        <time>2021-02-14T11:56:12.000Z</time>
      </trkpt>
      <trkpt lat="47.26343" lon="-2.31685">
        <ele>2.2000000476837</ele>
        <time>2021-02-14T11:56:13.000Z</time>
      </trkpt>
      <trkpt lat="47.26346" lon="-2.31683">
        <ele>2.5999999046326</ele>
        <time>2021-02-14T11:56:14.000Z</time>
      </trkpt>
      <trkpt lat="47.26349" lon="-2.31681">
        <ele>3</ele>
        <time>2021-02-14T11:56:15.000Z</time>
      </trkpt>
      <trkpt lat="47.26352" lon="-2.31679">
        <ele>3.5999999046326</ele>
        <time>2021-02-14T11:56:16.000Z</time>
      </trkpt>
      <trkpt lat="47.26356" lon="-2.31678">
        <ele>4</ele>
        <time>2021-02-14T11:56:17.000Z</time>
      </trkpt>
      <trkpt lat="47.26359" lon="-2.31676">
        <ele>4.4000000953674</ele>
        <time>2021-02-14T11:56:18.000Z</time>
      </trkpt>
      <trkpt lat="47.26367" lon="-2.31673">
        <ele>4.4000000953674</ele>
        <time>2021-02-14T11:56:20.000Z</time>
      </trkpt>
      <trkpt lat="47.26393" lon="-2.31661">
        <ele>4.4000000953674</ele>
        <time>2021-02-14T11:56:27.000Z</time>
      </trkpt>
      <trkpt lat="47.26403" lon="-2.31654">
        <ele>4.8000001907349</ele>
        <time>2021-02-14T11:56:31.000Z</time>
      </trkpt>
      <trkpt lat="47.26406" lon="-2.31652">
        <ele>5.1999998092651</ele>
        <time>2021-02-14T11:56:32.000Z</time>
      </trkpt>
      <trkpt lat="47.26409" lon="-2.31648">
        <ele>5.5999999046326</ele>
        <time>2021-02-14T11:56:33.000Z</time>
      </trkpt>
      <trkpt lat="47.2641" lon="-2.31643">
        <ele>6</ele>
        <time>2021-02-14T11:56:34.000Z</time>
      </trkpt>
      <trkpt lat="47.26411" lon="-2.31638">
        <ele>6.4000000953674</ele>
        <time>2021-02-14T11:56:35.000Z</time>
      </trkpt>
      <trkpt lat="47.26411" lon="-2.31633">
        <ele>6.4000000953674</ele>
        <time>2021-02-14T11:56:36.000Z</time>
      </trkpt>
      <trkpt lat="47.2641" lon="-2.31601">
        <ele>6.4000000953674</ele>
        <time>2021-02-14T11:56:42.000Z</time>
      </trkpt>
      <trkpt lat="47.26411" lon="-2.31575">
        <ele>6.4000000953674</ele>
        <time>2021-02-14T11:56:47.000Z</time>
      </trkpt>
      <trkpt lat="47.26412" lon="-2.31553">
        <ele>6.4000000953674</ele>
        <time>2021-02-14T11:56:52.000Z</time>
      </trkpt>
      <trkpt lat="47.26414" lon="-2.31552">
        <ele>6.4000000953674</ele>
        <time>2021-02-14T11:56:53.000Z</time>
      </trkpt>
      <trkpt lat="47.26418" lon="-2.31552">
        <ele>6.4000000953674</ele>
        <time>2021-02-14T11:56:57.000Z</time>
      </trkpt>
      <trkpt lat="47.26418" lon="-2.31553">
        <ele>6.4000000953674</ele>
        <time>2021-02-14T11:56:58.000Z</time>
      </trkpt>
    </trkseg>
  </trk>
</gpx>